<?xml version="1.0" encoding="utf-8"?>
<gpx xmlns:xsi="http://www.w3.org/2001/XMLSchema-instance" xmlns:xsd="http://www.w3.org/2001/XMLSchema" version="1.1" creator="Shapelink.com" xmlns="http://www.topografix.com/GPX/1/1" xmlns:gpxtpx="http://www.garmin.com/xmlschemas/TrackPointExtension/v1">
  <metadata>
    <name>Ciclismo 60.95 km, 2015-06-21</name>
    <desc></desc>
    <author><name>Henrik Amren</name></author> 
    <time>2015-06-21T10:15:27Z</time>
  </metadata>
  <trk>
    <name>Ciclismo 60.95 km, 2015-06-21</name>
    <trkseg>
      <trkpt lat="39.838125057975" lon="3.123271037891">
        <ele>13.8</ele>
        <time>2015-06-21T10:15:27Z</time>
      </trkpt>
      <trkpt lat="39.83825455833" lon="3.12326609257">
        <ele>14</ele>
        <time>2015-06-21T10:15:33Z</time>
      </trkpt>
      <trkpt lat="39.838274339614" lon="3.123248239123">
        <ele>13.8</ele>
        <time>2015-06-21T10:15:34Z</time>
      </trkpt>
      <trkpt lat="39.838378778088" lon="3.123087809557">
        <ele>13.8</ele>
        <time>2015-06-21T10:15:40Z</time>
      </trkpt>
      <trkpt lat="39.838511295927" lon="3.122888990889">
        <ele>13.8</ele>
        <time>2015-06-21T10:15:45Z</time>
      </trkpt>
      <trkpt lat="39.838711204242" lon="3.12258632048">
        <ele>13.6</ele>
        <time>2015-06-21T10:15:52Z</time>
      </trkpt>
      <trkpt lat="39.838905245227" lon="3.122300246233">
        <ele>13.8</ele>
        <time>2015-06-21T10:15:59Z</time>
      </trkpt>
      <trkpt lat="39.839015718669" lon="3.122130093663">
        <ele>13.8</ele>
        <time>2015-06-21T10:16:04Z</time>
      </trkpt>
      <trkpt lat="39.839252255887" lon="3.121782580089">
        <ele>13.4</ele>
        <time>2015-06-21T10:16:12Z</time>
      </trkpt>
      <trkpt lat="39.839507065647" lon="3.121420817285">
        <ele>13.6</ele>
        <time>2015-06-21T10:16:21Z</time>
      </trkpt>
      <trkpt lat="39.839544281283" lon="3.121341859787">
        <ele>13.8</ele>
        <time>2015-06-21T10:16:25Z</time>
      </trkpt>
      <trkpt lat="39.839558111418" lon="3.121324090159">
        <ele>13.8</ele>
        <time>2015-06-21T10:16:26Z</time>
      </trkpt>
      <trkpt lat="39.839601110565" lon="3.1213273591">
        <ele>13.8</ele>
        <time>2015-06-21T10:16:28Z</time>
      </trkpt>
      <trkpt lat="39.839639164391" lon="3.121359629415">
        <ele>13.8</ele>
        <time>2015-06-21T10:16:30Z</time>
      </trkpt>
      <trkpt lat="39.839696412768" lon="3.121442274949">
        <ele>14.2</ele>
        <time>2015-06-21T10:16:34Z</time>
      </trkpt>
      <trkpt lat="39.839707225419" lon="3.121453590514">
        <ele>14.2</ele>
        <time>2015-06-21T10:16:35Z</time>
      </trkpt>
      <trkpt lat="39.839752571498" lon="3.121518717877">
        <ele>14</ele>
        <time>2015-06-21T10:16:38Z</time>
      </trkpt>
      <trkpt lat="39.83980604802" lon="3.121660791082">
        <ele>13.8</ele>
        <time>2015-06-21T10:16:42Z</time>
      </trkpt>
      <trkpt lat="39.839817363585" lon="3.121695240691">
        <ele>13.8</ele>
        <time>2015-06-21T10:16:43Z</time>
      </trkpt>
      <trkpt lat="39.839862458207" lon="3.12181434749">
        <ele>14</ele>
        <time>2015-06-21T10:16:47Z</time>
      </trkpt>
      <trkpt lat="39.839886849536" lon="3.121845276701">
        <ele>14</ele>
        <time>2015-06-21T10:16:49Z</time>
      </trkpt>
      <trkpt lat="39.839898416558" lon="3.121856340809">
        <ele>14</ele>
        <time>2015-06-21T10:16:52Z</time>
      </trkpt>
      <trkpt lat="39.839906295544" lon="3.121861453768">
        <ele>14</ele>
        <time>2015-06-21T10:17:03Z</time>
      </trkpt>
      <trkpt lat="39.839916605281" lon="3.121862291958">
        <ele>14</ele>
        <time>2015-06-21T10:17:16Z</time>
      </trkpt>
      <trkpt lat="39.8399334529" lon="3.121854915886">
        <ele>14</ele>
        <time>2015-06-21T10:17:17Z</time>
      </trkpt>
      <trkpt lat="39.839970081803" lon="3.121731618137">
        <ele>14.2</ele>
        <time>2015-06-21T10:17:21Z</time>
      </trkpt>
      <trkpt lat="39.83991249815" lon="3.121546042871">
        <ele>14.4</ele>
        <time>2015-06-21T10:17:25Z</time>
      </trkpt>
      <trkpt lat="39.839893890332" lon="3.121327275281">
        <ele>14.2</ele>
        <time>2015-06-21T10:17:30Z</time>
      </trkpt>
      <trkpt lat="39.839980810635" lon="3.121237756589">
        <ele>14.2</ele>
        <time>2015-06-21T10:17:34Z</time>
      </trkpt>
      <trkpt lat="39.840137468346" lon="3.121257034959">
        <ele>14.2</ele>
        <time>2015-06-21T10:17:38Z</time>
      </trkpt>
      <trkpt lat="39.840232602911" lon="3.121309421834">
        <ele>14.4</ele>
        <time>2015-06-21T10:17:40Z</time>
      </trkpt>
      <trkpt lat="39.840330000589" lon="3.12138100326">
        <ele>14.4</ele>
        <time>2015-06-21T10:17:42Z</time>
      </trkpt>
      <trkpt lat="39.840376603953" lon="3.121415201412">
        <ele>14.4</ele>
        <time>2015-06-21T10:17:43Z</time>
      </trkpt>
      <trkpt lat="39.840717412007" lon="3.12162407836">
        <ele>15</ele>
        <time>2015-06-21T10:17:50Z</time>
      </trkpt>
      <trkpt lat="39.840965348609" lon="3.1217715998">
        <ele>14</ele>
        <time>2015-06-21T10:17:56Z</time>
      </trkpt>
      <trkpt lat="39.84121336903" lon="3.121908392408">
        <ele>14.6</ele>
        <time>2015-06-21T10:18:01Z</time>
      </trkpt>
      <trkpt lat="39.84172969407" lon="3.122220115269">
        <ele>14</ele>
        <time>2015-06-21T10:18:10Z</time>
      </trkpt>
      <trkpt lat="39.842160104635" lon="3.122482636377">
        <ele>13.6</ele>
        <time>2015-06-21T10:18:17Z</time>
      </trkpt>
      <trkpt lat="39.84265840859" lon="3.122790587383">
        <ele>13.8</ele>
        <time>2015-06-21T10:18:25Z</time>
      </trkpt>
      <trkpt lat="39.842841217829" lon="3.122906592879">
        <ele>13.8</ele>
        <time>2015-06-21T10:18:28Z</time>
      </trkpt>
      <trkpt lat="39.843027044552" lon="3.123024107117">
        <ele>13</ele>
        <time>2015-06-21T10:18:31Z</time>
      </trkpt>
      <trkpt lat="39.843524845593" lon="3.123327950992">
        <ele>13</ele>
        <time>2015-06-21T10:18:39Z</time>
      </trkpt>
      <trkpt lat="39.844064723772" lon="3.123648474848">
        <ele>13.2</ele>
        <time>2015-06-21T10:18:48Z</time>
      </trkpt>
      <trkpt lat="39.84417888525" lon="3.123716787333">
        <ele>13</ele>
        <time>2015-06-21T10:18:50Z</time>
      </trkpt>
      <trkpt lat="39.844700909982" lon="3.124033706972">
        <ele>14</ele>
        <time>2015-06-21T10:18:59Z</time>
      </trkpt>
      <trkpt lat="39.844987570962" lon="3.12420318899">
        <ele>13</ele>
        <time>2015-06-21T10:19:04Z</time>
      </trkpt>
      <trkpt lat="39.84521907904" lon="3.124334868639">
        <ele>12.8</ele>
        <time>2015-06-21T10:19:08Z</time>
      </trkpt>
      <trkpt lat="39.84567170164" lon="3.12460803476">
        <ele>13.4</ele>
        <time>2015-06-21T10:19:17Z</time>
      </trkpt>
      <trkpt lat="39.845759292495" lon="3.124705516257">
        <ele>14</ele>
        <time>2015-06-21T10:19:21Z</time>
      </trkpt>
      <trkpt lat="39.845771865345" lon="3.124739798228">
        <ele>14.2</ele>
        <time>2015-06-21T10:19:22Z</time>
      </trkpt>
      <trkpt lat="39.845855768164" lon="3.124899389604">
        <ele>14.4</ele>
        <time>2015-06-21T10:19:26Z</time>
      </trkpt>
      <trkpt lat="39.846018544662" lon="3.125129137483">
        <ele>14.4</ele>
        <time>2015-06-21T10:19:31Z</time>
      </trkpt>
      <trkpt lat="39.846030949874" lon="3.125197952882">
        <ele>14.4</ele>
        <time>2015-06-21T10:19:32Z</time>
      </trkpt>
      <trkpt lat="39.846040002326" lon="3.125410266409">
        <ele>14.8</ele>
        <time>2015-06-21T10:19:35Z</time>
      </trkpt>
      <trkpt lat="39.846038158308" lon="3.125565499197">
        <ele>14.6</ele>
        <time>2015-06-21T10:19:37Z</time>
      </trkpt>
      <trkpt lat="39.845992476953" lon="3.126266477494">
        <ele>13.8</ele>
        <time>2015-06-21T10:19:46Z</time>
      </trkpt>
      <trkpt lat="39.845917123672" lon="3.126990422197">
        <ele>14.4</ele>
        <time>2015-06-21T10:19:55Z</time>
      </trkpt>
      <trkpt lat="39.845874711258" lon="3.12739669289">
        <ele>14.6</ele>
        <time>2015-06-21T10:20:00Z</time>
      </trkpt>
      <trkpt lat="39.84579910652" lon="3.128146118569">
        <ele>14.6</ele>
        <time>2015-06-21T10:20:09Z</time>
      </trkpt>
      <trkpt lat="39.845765327463" lon="3.128572002908">
        <ele>14.8</ele>
        <time>2015-06-21T10:20:14Z</time>
      </trkpt>
      <trkpt lat="39.845747054921" lon="3.129132249104">
        <ele>15</ele>
        <time>2015-06-21T10:20:21Z</time>
      </trkpt>
      <trkpt lat="39.845754263355" lon="3.129371384711">
        <ele>15.2</ele>
        <time>2015-06-21T10:20:24Z</time>
      </trkpt>
      <trkpt lat="39.845768764042" lon="3.129525444033">
        <ele>15</ele>
        <time>2015-06-21T10:20:26Z</time>
      </trkpt>
      <trkpt lat="39.84582509041" lon="3.129925260663">
        <ele>14.2</ele>
        <time>2015-06-21T10:20:31Z</time>
      </trkpt>
      <trkpt lat="39.845886865013" lon="3.130249137279">
        <ele>14.4</ele>
        <time>2015-06-21T10:20:35Z</time>
      </trkpt>
      <trkpt lat="39.845972863307" lon="3.130659515103">
        <ele>14.4</ele>
        <time>2015-06-21T10:20:41Z</time>
      </trkpt>
      <trkpt lat="39.845981915759" lon="3.13088607786">
        <ele>14.8</ele>
        <time>2015-06-21T10:20:46Z</time>
      </trkpt>
      <trkpt lat="39.845966409244" lon="3.130931675396">
        <ele>14.8</ele>
        <time>2015-06-21T10:20:47Z</time>
      </trkpt>
      <trkpt lat="39.845951489462" lon="3.131102163242">
        <ele>14.6</ele>
        <time>2015-06-21T10:20:50Z</time>
      </trkpt>
      <trkpt lat="39.8460354761" lon="3.131272148174">
        <ele>14.8</ele>
        <time>2015-06-21T10:20:54Z</time>
      </trkpt>
      <trkpt lat="39.84606648913" lon="3.1313185839">
        <ele>15.4</ele>
        <time>2015-06-21T10:20:56Z</time>
      </trkpt>
      <trkpt lat="39.846077637057" lon="3.131332330216">
        <ele>15.2</ele>
        <time>2015-06-21T10:20:58Z</time>
      </trkpt>
      <trkpt lat="39.846077301781" lon="3.131329396551">
        <ele>15.2</ele>
        <time>2015-06-21T10:21:03Z</time>
      </trkpt>
      <trkpt lat="39.846083001473" lon="3.131326881981">
        <ele>15.6</ele>
        <time>2015-06-21T10:21:15Z</time>
      </trkpt>
      <trkpt lat="39.846082917654" lon="3.1313269658">
        <ele>14.2</ele>
        <time>2015-06-21T10:21:17Z</time>
      </trkpt>
      <trkpt lat="39.846083169111" lon="3.131326714343">
        <ele>13</ele>
        <time>2015-06-21T10:21:18Z</time>
      </trkpt>
      <trkpt lat="39.846084594034" lon="3.131326043791">
        <ele>16</ele>
        <time>2015-06-21T10:21:19Z</time>
      </trkpt>
      <trkpt lat="39.846085599862" lon="3.131327301076">
        <ele>17.8</ele>
        <time>2015-06-21T10:21:20Z</time>
      </trkpt>
      <trkpt lat="39.846085599862" lon="3.131327468714">
        <ele>19.4</ele>
        <time>2015-06-21T10:21:21Z</time>
      </trkpt>
      <trkpt lat="39.846085180767" lon="3.131325708515">
        <ele>21</ele>
        <time>2015-06-21T10:21:22Z</time>
      </trkpt>
      <trkpt lat="39.846084845491" lon="3.131324786506">
        <ele>23.4</ele>
        <time>2015-06-21T10:21:23Z</time>
      </trkpt>
      <trkpt lat="39.846085264586" lon="3.131323193945">
        <ele>19.4</ele>
        <time>2015-06-21T10:21:25Z</time>
      </trkpt>
      <trkpt lat="39.846085348405" lon="3.131322607212">
        <ele>17</ele>
        <time>2015-06-21T10:21:26Z</time>
      </trkpt>
      <trkpt lat="39.846086102776" lon="3.131321433746">
        <ele>15.6</ele>
        <time>2015-06-21T10:21:27Z</time>
      </trkpt>
      <trkpt lat="39.846088365889" lon="3.131322188117">
        <ele>15.6</ele>
        <time>2015-06-21T10:21:33Z</time>
      </trkpt>
      <trkpt lat="39.846092975934" lon="3.131319086814">
        <ele>15.4</ele>
        <time>2015-06-21T10:21:39Z</time>
      </trkpt>
      <trkpt lat="39.846095490504" lon="3.131319673547">
        <ele>6</ele>
        <time>2015-06-21T10:21:42Z</time>
      </trkpt>
      <trkpt lat="39.846095574323" lon="3.131319254452">
        <ele>0</ele>
        <time>2015-06-21T10:21:43Z</time>
      </trkpt>
      <trkpt lat="39.846096077237" lon="3.131318667719">
        <ele>0</ele>
        <time>2015-06-21T10:21:44Z</time>
      </trkpt>
      <trkpt lat="39.84609666397" lon="3.131318500081">
        <ele>0</ele>
        <time>2015-06-21T10:21:45Z</time>
      </trkpt>
      <trkpt lat="39.84609750216" lon="3.131318835357">
        <ele>0</ele>
        <time>2015-06-21T10:21:47Z</time>
      </trkpt>
      <trkpt lat="39.846098591807" lon="3.131318667719">
        <ele>0</ele>
        <time>2015-06-21T10:21:49Z</time>
      </trkpt>
      <trkpt lat="39.846092221563" lon="3.131315147321">
        <ele>0</ele>
        <time>2015-06-21T10:22:01Z</time>
      </trkpt>
      <trkpt lat="39.84608157655" lon="3.131310621095">
        <ele>0</ele>
        <time>2015-06-21T10:22:02Z</time>
      </trkpt>
      <trkpt lat="39.846028602942" lon="3.131286816499">
        <ele>0</ele>
        <time>2015-06-21T10:22:09Z</time>
      </trkpt>
      <trkpt lat="39.845945873589" lon="3.131263095722">
        <ele>0</ele>
        <time>2015-06-21T10:22:14Z</time>
      </trkpt>
      <trkpt lat="39.845849062644" lon="3.131326379067">
        <ele>0</ele>
        <time>2015-06-21T10:22:18Z</time>
      </trkpt>
      <trkpt lat="39.845660134618" lon="3.131519581862">
        <ele>0</ele>
        <time>2015-06-21T10:22:24Z</time>
      </trkpt>
      <trkpt lat="39.845269789535" lon="3.13190699328">
        <ele>0</ele>
        <time>2015-06-21T10:22:34Z</time>
      </trkpt>
      <trkpt lat="39.844837115857" lon="3.132322316425">
        <ele>0</ele>
        <time>2015-06-21T10:22:44Z</time>
      </trkpt>
      <trkpt lat="39.844795541633" lon="3.132364728839">
        <ele>0</ele>
        <time>2015-06-21T10:22:45Z</time>
      </trkpt>
      <trkpt lat="39.844717589963" lon="3.132452319694">
        <ele>0</ele>
        <time>2015-06-21T10:22:47Z</time>
      </trkpt>
      <trkpt lat="39.844639470655" lon="3.132524655491">
        <ele>0</ele>
        <time>2015-06-21T10:22:49Z</time>
      </trkpt>
      <trkpt lat="39.844608541444" lon="3.132554159779">
        <ele>0</ele>
        <time>2015-06-21T10:22:50Z</time>
      </trkpt>
      <trkpt lat="39.844574259473" lon="3.132575701262">
        <ele>0</ele>
        <time>2015-06-21T10:22:51Z</time>
      </trkpt>
      <trkpt lat="39.844526147367" lon="3.132606798111">
        <ele>0</ele>
        <time>2015-06-21T10:22:53Z</time>
      </trkpt>
      <trkpt lat="39.844509551205" lon="3.132624232463">
        <ele>0</ele>
        <time>2015-06-21T10:22:54Z</time>
      </trkpt>
      <trkpt lat="39.844495385794" lon="3.132640158073">
        <ele>0</ele>
        <time>2015-06-21T10:22:55Z</time>
      </trkpt>
      <trkpt lat="39.844464288945" lon="3.132678044261">
        <ele>0</ele>
        <time>2015-06-21T10:22:57Z</time>
      </trkpt>
      <trkpt lat="39.844419278142" lon="3.132722803607">
        <ele>0</ele>
        <time>2015-06-21T10:22:59Z</time>
      </trkpt>
      <trkpt lat="39.844394048623" lon="3.132749960963">
        <ele>0</ele>
        <time>2015-06-21T10:23:00Z</time>
      </trkpt>
      <trkpt lat="39.844369070561" lon="3.13277619631">
        <ele>0</ele>
        <time>2015-06-21T10:23:01Z</time>
      </trkpt>
      <trkpt lat="39.844306457768" lon="3.132836881266">
        <ele>0</ele>
        <time>2015-06-21T10:23:03Z</time>
      </trkpt>
      <trkpt lat="39.844237726188" lon="3.132906534855">
        <ele>0</ele>
        <time>2015-06-21T10:23:05Z</time>
      </trkpt>
      <trkpt lat="39.844202270751" lon="3.132941906473">
        <ele>0</ele>
        <time>2015-06-21T10:23:06Z</time>
      </trkpt>
      <trkpt lat="39.844163881649" lon="3.132981301403">
        <ele>0</ele>
        <time>2015-06-21T10:23:07Z</time>
      </trkpt>
      <trkpt lat="39.844093976603" lon="3.133060761815">
        <ele>0</ele>
        <time>2015-06-21T10:23:09Z</time>
      </trkpt>
      <trkpt lat="39.84402633467" lon="3.133136450372">
        <ele>0</ele>
        <time>2015-06-21T10:23:11Z</time>
      </trkpt>
      <trkpt lat="39.843948383" lon="3.133215491689">
        <ele>0</ele>
        <time>2015-06-21T10:23:13Z</time>
      </trkpt>
      <trkpt lat="39.843915945047" lon="3.133254886619">
        <ele>0</ele>
        <time>2015-06-21T10:23:14Z</time>
      </trkpt>
      <trkpt lat="39.843878394135" lon="3.133292856626">
        <ele>0</ele>
        <time>2015-06-21T10:23:15Z</time>
      </trkpt>
      <trkpt lat="39.843798766085" lon="3.133367790812">
        <ele>0</ele>
        <time>2015-06-21T10:23:17Z</time>
      </trkpt>
      <trkpt lat="39.843723161347" lon="3.133441132437">
        <ele>0</ele>
        <time>2015-06-21T10:23:19Z</time>
      </trkpt>
      <trkpt lat="39.843650154998" lon="3.133510953664">
        <ele>0</ele>
        <time>2015-06-21T10:23:21Z</time>
      </trkpt>
      <trkpt lat="39.84361143062" lon="3.133544229807">
        <ele>0</ele>
        <time>2015-06-21T10:23:22Z</time>
      </trkpt>
      <trkpt lat="39.843572790061" lon="3.133581361624">
        <ele>0</ele>
        <time>2015-06-21T10:23:23Z</time>
      </trkpt>
      <trkpt lat="39.843498777884" lon="3.133662666054">
        <ele>0</ele>
        <time>2015-06-21T10:23:25Z</time>
      </trkpt>
      <trkpt lat="39.843420490938" lon="3.133749502538">
        <ele>0</ele>
        <time>2015-06-21T10:23:27Z</time>
      </trkpt>
      <trkpt lat="39.843337593947" lon="3.133834914099">
        <ele>0</ele>
        <time>2015-06-21T10:23:29Z</time>
      </trkpt>
      <trkpt lat="39.84325771444" lon="3.133910183561">
        <ele>0</ele>
        <time>2015-06-21T10:23:31Z</time>
      </trkpt>
      <trkpt lat="39.843175990915" lon="3.133995343665">
        <ele>0</ele>
        <time>2015-06-21T10:23:33Z</time>
      </trkpt>
      <trkpt lat="39.843102146376" lon="3.134068433833">
        <ele>0</ele>
        <time>2015-06-21T10:23:35Z</time>
      </trkpt>
      <trkpt lat="39.843020925765" lon="3.134154851222">
        <ele>0</ele>
        <time>2015-06-21T10:23:37Z</time>
      </trkpt>
      <trkpt lat="39.842936184756" lon="3.134242609715">
        <ele>0</ele>
        <time>2015-06-21T10:23:39Z</time>
      </trkpt>
      <trkpt lat="39.842803164003" lon="3.134386024024">
        <ele>0</ele>
        <time>2015-06-21T10:23:42Z</time>
      </trkpt>
      <trkpt lat="39.842719345003" lon="3.13447604563">
        <ele>0</ele>
        <time>2015-06-21T10:23:44Z</time>
      </trkpt>
      <trkpt lat="39.842680620625" lon="3.134515021465">
        <ele>0</ele>
        <time>2015-06-21T10:23:45Z</time>
      </trkpt>
      <trkpt lat="39.842647931215" lon="3.134549219617">
        <ele>0</ele>
        <time>2015-06-21T10:23:46Z</time>
      </trkpt>
      <trkpt lat="39.842573080848" lon="3.134621220138">
        <ele>0</ele>
        <time>2015-06-21T10:23:48Z</time>
      </trkpt>
      <trkpt lat="39.842505774191" lon="3.134691628098">
        <ele>0</ele>
        <time>2015-06-21T10:23:50Z</time>
      </trkpt>
      <trkpt lat="39.842432348747" lon="3.134762203696">
        <ele>0</ele>
        <time>2015-06-21T10:23:52Z</time>
      </trkpt>
      <trkpt lat="39.84235246924" lon="3.134848285809">
        <ele>0</ele>
        <time>2015-06-21T10:23:54Z</time>
      </trkpt>
      <trkpt lat="39.842243169264" lon="3.134978540535">
        <ele>0</ele>
        <time>2015-06-21T10:23:57Z</time>
      </trkpt>
      <trkpt lat="39.842173683313" lon="3.135061353707">
        <ele>0</ele>
        <time>2015-06-21T10:23:59Z</time>
      </trkpt>
      <trkpt lat="39.842110064692" lon="3.135152213503">
        <ele>0</ele>
        <time>2015-06-21T10:24:01Z</time>
      </trkpt>
      <trkpt lat="39.842043680044" lon="3.135252628665">
        <ele>0</ele>
        <time>2015-06-21T10:24:03Z</time>
      </trkpt>
      <trkpt lat="39.84197444555" lon="3.135357653872">
        <ele>0</ele>
        <time>2015-06-21T10:24:05Z</time>
      </trkpt>
      <trkpt lat="39.841940163579" lon="3.135410878937">
        <ele>0</ele>
        <time>2015-06-21T10:24:06Z</time>
      </trkpt>
      <trkpt lat="39.841899511364" lon="3.13547181535">
        <ele>0</ele>
        <time>2015-06-21T10:24:07Z</time>
      </trkpt>
      <trkpt lat="39.84182105678" lon="3.135589581045">
        <ele>0</ele>
        <time>2015-06-21T10:24:09Z</time>
      </trkpt>
      <trkpt lat="39.841701698524" lon="3.13576518185">
        <ele>0</ele>
        <time>2015-06-21T10:24:12Z</time>
      </trkpt>
      <trkpt lat="39.841663057965" lon="3.135823352236">
        <ele>0</ele>
        <time>2015-06-21T10:24:13Z</time>
      </trkpt>
      <trkpt lat="39.841619639723" lon="3.135885462115">
        <ele>0</ele>
        <time>2015-06-21T10:24:14Z</time>
      </trkpt>
      <trkpt lat="39.841541436596" lon="3.136001383792">
        <ele>0</ele>
        <time>2015-06-21T10:24:16Z</time>
      </trkpt>
      <trkpt lat="39.841418222666" lon="3.136204058134">
        <ele>0</ele>
        <time>2015-06-21T10:24:19Z</time>
      </trkpt>
      <trkpt lat="39.841302468627" lon="3.136373540152">
        <ele>0.8</ele>
        <time>2015-06-21T10:24:22Z</time>
      </trkpt>
      <trkpt lat="39.841247315725" lon="3.136462723568">
        <ele>1.8</ele>
        <time>2015-06-21T10:24:24Z</time>
      </trkpt>
      <trkpt lat="39.841222505301" lon="3.13650027448">
        <ele>2.4</ele>
        <time>2015-06-21T10:24:25Z</time>
      </trkpt>
      <trkpt lat="39.841197778696" lon="3.136537573935">
        <ele>3.2</ele>
        <time>2015-06-21T10:24:26Z</time>
      </trkpt>
      <trkpt lat="39.841173387367" lon="3.13658493167">
        <ele>4</ele>
        <time>2015-06-21T10:24:27Z</time>
      </trkpt>
      <trkpt lat="39.841112115678" lon="3.136671935792">
        <ele>5.4</ele>
        <time>2015-06-21T10:24:29Z</time>
      </trkpt>
      <trkpt lat="39.841077749888" lon="3.13671820388">
        <ele>6.2</ele>
        <time>2015-06-21T10:24:30Z</time>
      </trkpt>
      <trkpt lat="39.84104740741" lon="3.136762795588">
        <ele>6.6</ele>
        <time>2015-06-21T10:24:31Z</time>
      </trkpt>
      <trkpt lat="39.840987728282" lon="3.136861199094">
        <ele>7.8</ele>
        <time>2015-06-21T10:24:33Z</time>
      </trkpt>
      <trkpt lat="39.840933665027" lon="3.13695289708">
        <ele>9</ele>
        <time>2015-06-21T10:24:35Z</time>
      </trkpt>
      <trkpt lat="39.840865352542" lon="3.137045433256">
        <ele>10.4</ele>
        <time>2015-06-21T10:24:37Z</time>
      </trkpt>
      <trkpt lat="39.840802572111" lon="3.137125061306">
        <ele>11.8</ele>
        <time>2015-06-21T10:24:39Z</time>
      </trkpt>
      <trkpt lat="39.840767284312" lon="3.137155571422">
        <ele>12.4</ele>
        <time>2015-06-21T10:24:40Z</time>
      </trkpt>
      <trkpt lat="39.840723614613" lon="3.137177783457">
        <ele>13.2</ele>
        <time>2015-06-21T10:24:41Z</time>
      </trkpt>
      <trkpt lat="39.840679693457" lon="3.137200917501">
        <ele>14</ele>
        <time>2015-06-21T10:24:42Z</time>
      </trkpt>
      <trkpt lat="39.840371323356" lon="3.13735103733">
        <ele>13.4</ele>
        <time>2015-06-21T10:24:49Z</time>
      </trkpt>
      <trkpt lat="39.840173426697" lon="3.137444998429">
        <ele>13</ele>
        <time>2015-06-21T10:24:54Z</time>
      </trkpt>
      <trkpt lat="39.839917359652" lon="3.137572235671">
        <ele>13.6</ele>
        <time>2015-06-21T10:25:00Z</time>
      </trkpt>
      <trkpt lat="39.839831696634" lon="3.137616324465">
        <ele>13.4</ele>
        <time>2015-06-21T10:25:02Z</time>
      </trkpt>
      <trkpt lat="39.839723570124" lon="3.137664185114">
        <ele>13.2</ele>
        <time>2015-06-21T10:25:05Z</time>
      </trkpt>
      <trkpt lat="39.839520811963" lon="3.137785974121">
        <ele>12.6</ele>
        <time>2015-06-21T10:25:10Z</time>
      </trkpt>
      <trkpt lat="39.839474208599" lon="3.137818412074">
        <ele>11.2</ele>
        <time>2015-06-21T10:25:11Z</time>
      </trkpt>
      <trkpt lat="39.839268097678" lon="3.138007843014">
        <ele>13.4</ele>
        <time>2015-06-21T10:25:16Z</time>
      </trkpt>
      <trkpt lat="39.839224930893" lon="3.138070958721">
        <ele>13.4</ele>
        <time>2015-06-21T10:25:17Z</time>
      </trkpt>
      <trkpt lat="39.838907759797" lon="3.138489718445">
        <ele>13.8</ele>
        <time>2015-06-21T10:25:25Z</time>
      </trkpt>
      <trkpt lat="39.838722184531" lon="3.138733128821">
        <ele>13.4</ele>
        <time>2015-06-21T10:25:30Z</time>
      </trkpt>
      <trkpt lat="39.838593354728" lon="3.138932534222">
        <ele>12.8</ele>
        <time>2015-06-21T10:25:34Z</time>
      </trkpt>
      <trkpt lat="39.838504087493" lon="3.139070081201">
        <ele>13.4</ele>
        <time>2015-06-21T10:25:37Z</time>
      </trkpt>
      <trkpt lat="39.838520683655" lon="3.139227660921">
        <ele>14</ele>
        <time>2015-06-21T10:25:40Z</time>
      </trkpt>
      <trkpt lat="39.838525712795" lon="3.139284154927">
        <ele>14.2</ele>
        <time>2015-06-21T10:25:41Z</time>
      </trkpt>
      <trkpt lat="39.838521186569" lon="3.139345342797">
        <ele>14.4</ele>
        <time>2015-06-21T10:25:42Z</time>
      </trkpt>
      <trkpt lat="39.838508194624" lon="3.139526643294">
        <ele>14.4</ele>
        <time>2015-06-21T10:25:45Z</time>
      </trkpt>
      <trkpt lat="39.83851104447" lon="3.139895363075">
        <ele>14.4</ele>
        <time>2015-06-21T10:25:51Z</time>
      </trkpt>
      <trkpt lat="39.838501405285" lon="3.139954287832">
        <ele>14.6</ele>
        <time>2015-06-21T10:25:52Z</time>
      </trkpt>
      <trkpt lat="39.838474750843" lon="3.140425099155">
        <ele>14</ele>
        <time>2015-06-21T10:25:59Z</time>
      </trkpt>
      <trkpt lat="39.838446671478" lon="3.140947794439">
        <ele>13.8</ele>
        <time>2015-06-21T10:26:07Z</time>
      </trkpt>
      <trkpt lat="39.838408282376" lon="3.141159102138">
        <ele>15.4</ele>
        <time>2015-06-21T10:26:11Z</time>
      </trkpt>
      <trkpt lat="39.838361595193" lon="3.141362447032">
        <ele>16.6</ele>
        <time>2015-06-21T10:26:15Z</time>
      </trkpt>
      <trkpt lat="39.838289510853" lon="3.14155372199">
        <ele>17.8</ele>
        <time>2015-06-21T10:26:19Z</time>
      </trkpt>
      <trkpt lat="39.838235531417" lon="3.141666123269">
        <ele>18.6</ele>
        <time>2015-06-21T10:26:22Z</time>
      </trkpt>
      <trkpt lat="39.838212732649" lon="3.141707865131">
        <ele>19</ele>
        <time>2015-06-21T10:26:23Z</time>
      </trkpt>
      <trkpt lat="39.838147102372" lon="3.141847004671">
        <ele>18.8</ele>
        <time>2015-06-21T10:26:26Z</time>
      </trkpt>
      <trkpt lat="39.837933196284" lon="3.142295436321">
        <ele>19.8</ele>
        <time>2015-06-21T10:26:34Z</time>
      </trkpt>
      <trkpt lat="39.837818028978" lon="3.142532644091">
        <ele>19.6</ele>
        <time>2015-06-21T10:26:38Z</time>
      </trkpt>
      <trkpt lat="39.83777008451" lon="3.142571619926">
        <ele>19.4</ele>
        <time>2015-06-21T10:26:39Z</time>
      </trkpt>
      <trkpt lat="39.837560704648" lon="3.142688044517">
        <ele>19</ele>
        <time>2015-06-21T10:26:43Z</time>
      </trkpt>
      <trkpt lat="39.837495242009" lon="3.142876469629">
        <ele>18.8</ele>
        <time>2015-06-21T10:26:46Z</time>
      </trkpt>
      <trkpt lat="39.837539163165" lon="3.143089872803">
        <ele>18.6</ele>
        <time>2015-06-21T10:26:49Z</time>
      </trkpt>
      <trkpt lat="39.837553244757" lon="3.143155251623">
        <ele>18.6</ele>
        <time>2015-06-21T10:26:50Z</time>
      </trkpt>
      <trkpt lat="39.837541929192" lon="3.143301683416">
        <ele>18.8</ele>
        <time>2015-06-21T10:26:52Z</time>
      </trkpt>
      <trkpt lat="39.837494152362" lon="3.14343964949">
        <ele>18.8</ele>
        <time>2015-06-21T10:26:54Z</time>
      </trkpt>
      <trkpt lat="39.837400694177" lon="3.143697057639">
        <ele>19</ele>
        <time>2015-06-21T10:26:58Z</time>
      </trkpt>
      <trkpt lat="39.837161055656" lon="3.144349504735">
        <ele>19.4</ele>
        <time>2015-06-21T10:27:09Z</time>
      </trkpt>
      <trkpt lat="39.837141609648" lon="3.144401807791">
        <ele>19.2</ele>
        <time>2015-06-21T10:27:10Z</time>
      </trkpt>
      <trkpt lat="39.837042032676" lon="3.144668016935">
        <ele>20.2</ele>
        <time>2015-06-21T10:27:15Z</time>
      </trkpt>
      <trkpt lat="39.836947401025" lon="3.144919641573">
        <ele>21.2</ele>
        <time>2015-06-21T10:27:20Z</time>
      </trkpt>
      <trkpt lat="39.836927871198" lon="3.14496934624">
        <ele>21.4</ele>
        <time>2015-06-21T10:27:21Z</time>
      </trkpt>
      <trkpt lat="39.836789150753" lon="3.145349968319">
        <ele>22</ele>
        <time>2015-06-21T10:27:29Z</time>
      </trkpt>
      <trkpt lat="39.83677180022" lon="3.145396739321">
        <ele>22.2</ele>
        <time>2015-06-21T10:27:30Z</time>
      </trkpt>
      <trkpt lat="39.836735674231" lon="3.145492292981">
        <ele>23.2</ele>
        <time>2015-06-21T10:27:32Z</time>
      </trkpt>
      <trkpt lat="39.836616902708" lon="3.145823042755">
        <ele>24.2</ele>
        <time>2015-06-21T10:27:39Z</time>
      </trkpt>
      <trkpt lat="39.836466615241" lon="3.146238114443">
        <ele>25.4</ele>
        <time>2015-06-21T10:27:48Z</time>
      </trkpt>
      <trkpt lat="39.836367541183" lon="3.146503736854">
        <ele>26.4</ele>
        <time>2015-06-21T10:27:54Z</time>
      </trkpt>
      <trkpt lat="39.83631163391" lon="3.146622340739">
        <ele>26.6</ele>
        <time>2015-06-21T10:27:57Z</time>
      </trkpt>
      <trkpt lat="39.836273663903" lon="3.146717894399">
        <ele>28.4</ele>
        <time>2015-06-21T10:28:00Z</time>
      </trkpt>
      <trkpt lat="39.836251200411" lon="3.146770784188">
        <ele>28.8</ele>
        <time>2015-06-21T10:28:02Z</time>
      </trkpt>
      <trkpt lat="39.836185486315" lon="3.146930375564">
        <ele>29</ele>
        <time>2015-06-21T10:28:08Z</time>
      </trkpt>
      <trkpt lat="39.836155060018" lon="3.147063312498">
        <ele>29.6</ele>
        <time>2015-06-21T10:28:13Z</time>
      </trkpt>
      <trkpt lat="39.836152796905" lon="3.147093235881">
        <ele>30</ele>
        <time>2015-06-21T10:28:14Z</time>
      </trkpt>
      <trkpt lat="39.836152293991" lon="3.147185855876">
        <ele>31</ele>
        <time>2015-06-21T10:28:17Z</time>
      </trkpt>
      <trkpt lat="39.83615908333" lon="3.147316110602">
        <ele>32</ele>
        <time>2015-06-21T10:28:21Z</time>
      </trkpt>
      <trkpt lat="39.836163861013" lon="3.147385931829">
        <ele>32.6</ele>
        <time>2015-06-21T10:28:23Z</time>
      </trkpt>
      <trkpt lat="39.836168387239" lon="3.147451478287">
        <ele>33</ele>
        <time>2015-06-21T10:28:25Z</time>
      </trkpt>
      <trkpt lat="39.836183558478" lon="3.147651302783">
        <ele>34.2</ele>
        <time>2015-06-21T10:28:31Z</time>
      </trkpt>
      <trkpt lat="39.836209207092" lon="3.147910219674">
        <ele>35.6</ele>
        <time>2015-06-21T10:28:38Z</time>
      </trkpt>
      <trkpt lat="39.836219516829" lon="3.148036451088">
        <ele>35.8</ele>
        <time>2015-06-21T10:28:41Z</time>
      </trkpt>
      <trkpt lat="39.836264946727" lon="3.148423946325">
        <ele>36.6</ele>
        <time>2015-06-21T10:28:48Z</time>
      </trkpt>
      <trkpt lat="39.836280788518" lon="3.148542717848">
        <ele>36.8</ele>
        <time>2015-06-21T10:28:50Z</time>
      </trkpt>
      <trkpt lat="39.836283470726" lon="3.148605582098">
        <ele>36.8</ele>
        <time>2015-06-21T10:28:51Z</time>
      </trkpt>
      <trkpt lat="39.836302246182" lon="3.148877239477">
        <ele>36.6</ele>
        <time>2015-06-21T10:28:55Z</time>
      </trkpt>
      <trkpt lat="39.836329654995" lon="3.149191979822">
        <ele>35.8</ele>
        <time>2015-06-21T10:28:59Z</time>
      </trkpt>
      <trkpt lat="39.836349268641" lon="3.149360539831">
        <ele>35.4</ele>
        <time>2015-06-21T10:29:01Z</time>
      </trkpt>
      <trkpt lat="39.83637533635" lon="3.14964728463">
        <ele>34.4</ele>
        <time>2015-06-21T10:29:04Z</time>
      </trkpt>
      <trkpt lat="39.836394782358" lon="3.149852976456">
        <ele>33.2</ele>
        <time>2015-06-21T10:29:06Z</time>
      </trkpt>
      <trkpt lat="39.836408612493" lon="3.149971915617">
        <ele>33</ele>
        <time>2015-06-21T10:29:07Z</time>
      </trkpt>
      <trkpt lat="39.836434596383" lon="3.150198897469">
        <ele>32.2</ele>
        <time>2015-06-21T10:29:09Z</time>
      </trkpt>
      <trkpt lat="39.836460412635" lon="3.150490755227">
        <ele>30.6</ele>
        <time>2015-06-21T10:29:12Z</time>
      </trkpt>
      <trkpt lat="39.836476170607" lon="3.150748582471">
        <ele>29.6</ele>
        <time>2015-06-21T10:29:15Z</time>
      </trkpt>
      <trkpt lat="39.836492347674" lon="3.150921836344">
        <ele>29.2</ele>
        <time>2015-06-21T10:29:17Z</time>
      </trkpt>
      <trkpt lat="39.836515062623" lon="3.15125158029">
        <ele>29</ele>
        <time>2015-06-21T10:29:21Z</time>
      </trkpt>
      <trkpt lat="39.836512128958" lon="3.151419972661">
        <ele>28.6</ele>
        <time>2015-06-21T10:29:23Z</time>
      </trkpt>
      <trkpt lat="39.836511709863" lon="3.151580737503">
        <ele>28.6</ele>
        <time>2015-06-21T10:29:25Z</time>
      </trkpt>
      <trkpt lat="39.83650693218" lon="3.151998072304">
        <ele>27.6</ele>
        <time>2015-06-21T10:29:30Z</time>
      </trkpt>
      <trkpt lat="39.836503747058" lon="3.152166464675">
        <ele>27.4</ele>
        <time>2015-06-21T10:29:32Z</time>
      </trkpt>
      <trkpt lat="39.836517577193" lon="3.152653955979">
        <ele>27.2</ele>
        <time>2015-06-21T10:29:38Z</time>
      </trkpt>
      <trkpt lat="39.836548254947" lon="3.152806087464">
        <ele>32.2</ele>
        <time>2015-06-21T10:29:40Z</time>
      </trkpt>
      <trkpt lat="39.836611203016" lon="3.153095933566">
        <ele>33.4</ele>
        <time>2015-06-21T10:29:44Z</time>
      </trkpt>
      <trkpt lat="39.836628302092" lon="3.153164078413">
        <ele>28.8</ele>
        <time>2015-06-21T10:29:45Z</time>
      </trkpt>
      <trkpt lat="39.836759814103" lon="3.153738992934">
        <ele>29.8</ele>
        <time>2015-06-21T10:29:53Z</time>
      </trkpt>
      <trkpt lat="39.836777080817" lon="3.153814513853">
        <ele>30</ele>
        <time>2015-06-21T10:29:54Z</time>
      </trkpt>
      <trkpt lat="39.83691680709" lon="3.154346764503">
        <ele>29.4</ele>
        <time>2015-06-21T10:30:01Z</time>
      </trkpt>
      <trkpt lat="39.837002051013" lon="3.154550025578">
        <ele>29</ele>
        <time>2015-06-21T10:30:04Z</time>
      </trkpt>
      <trkpt lat="39.837067513652" lon="3.154672988051">
        <ele>27.8</ele>
        <time>2015-06-21T10:30:06Z</time>
      </trkpt>
      <trkpt lat="39.837145549141" lon="3.154795950524">
        <ele>28</ele>
        <time>2015-06-21T10:30:08Z</time>
      </trkpt>
      <trkpt lat="39.837283012301" lon="3.154977251021">
        <ele>29</ele>
        <time>2015-06-21T10:30:11Z</time>
      </trkpt>
      <trkpt lat="39.837398011969" lon="3.155103817711">
        <ele>28</ele>
        <time>2015-06-21T10:30:13Z</time>
      </trkpt>
      <trkpt lat="39.837454254518" lon="3.155167268694">
        <ele>27.4</ele>
        <time>2015-06-21T10:30:14Z</time>
      </trkpt>
      <trkpt lat="39.837556262241" lon="3.155311269736">
        <ele>26.2</ele>
        <time>2015-06-21T10:30:16Z</time>
      </trkpt>
      <trkpt lat="39.837589203108" lon="3.155402632446">
        <ele>25.8</ele>
        <time>2015-06-21T10:30:17Z</time>
      </trkpt>
      <trkpt lat="39.837598171741" lon="3.155638834388">
        <ele>24.8</ele>
        <time>2015-06-21T10:30:19Z</time>
      </trkpt>
      <trkpt lat="39.837577216991" lon="3.155732627849">
        <ele>24.2</ele>
        <time>2015-06-21T10:30:20Z</time>
      </trkpt>
      <trkpt lat="39.83755886063" lon="3.155825247844">
        <ele>23.6</ele>
        <time>2015-06-21T10:30:21Z</time>
      </trkpt>
      <trkpt lat="39.837548634712" lon="3.156023563598">
        <ele>22.2</ele>
        <time>2015-06-21T10:30:23Z</time>
      </trkpt>
      <trkpt lat="39.837566320521" lon="3.1561122441">
        <ele>21.6</ele>
        <time>2015-06-21T10:30:24Z</time>
      </trkpt>
      <trkpt lat="39.837657347955" lon="3.156353056087">
        <ele>21.6</ele>
        <time>2015-06-21T10:30:27Z</time>
      </trkpt>
      <trkpt lat="39.837687774252" lon="3.156422961133">
        <ele>21.6</ele>
        <time>2015-06-21T10:30:28Z</time>
      </trkpt>
      <trkpt lat="39.837906374204" lon="3.156964515692">
        <ele>21.4</ele>
        <time>2015-06-21T10:30:35Z</time>
      </trkpt>
      <trkpt lat="39.837939147433" lon="3.157117904462">
        <ele>20.6</ele>
        <time>2015-06-21T10:30:37Z</time>
      </trkpt>
      <trkpt lat="39.837939650347" lon="3.157272718155">
        <ele>20</ele>
        <time>2015-06-21T10:30:39Z</time>
      </trkpt>
      <trkpt lat="39.837957419975" lon="3.157595253667">
        <ele>19.6</ele>
        <time>2015-06-21T10:30:43Z</time>
      </trkpt>
      <trkpt lat="39.837948283704" lon="3.157675384631">
        <ele>19.6</ele>
        <time>2015-06-21T10:30:44Z</time>
      </trkpt>
      <trkpt lat="39.837860357573" lon="3.158203779607">
        <ele>18.6</ele>
        <time>2015-06-21T10:30:50Z</time>
      </trkpt>
      <trkpt lat="39.837856501899" lon="3.158296315783">
        <ele>18.6</ele>
        <time>2015-06-21T10:30:51Z</time>
      </trkpt>
      <trkpt lat="39.837854490243" lon="3.158390695977">
        <ele>18.4</ele>
        <time>2015-06-21T10:30:52Z</time>
      </trkpt>
      <trkpt lat="39.83784887437" lon="3.158608960653">
        <ele>18.4</ele>
        <time>2015-06-21T10:30:55Z</time>
      </trkpt>
      <trkpt lat="39.837840827746" lon="3.158841642197">
        <ele>19.6</ele>
        <time>2015-06-21T10:30:59Z</time>
      </trkpt>
      <trkpt lat="39.837814340942" lon="3.159027971834">
        <ele>20</ele>
        <time>2015-06-21T10:31:02Z</time>
      </trkpt>
      <trkpt lat="39.837737311281" lon="3.159443965531">
        <ele>19.4</ele>
        <time>2015-06-21T10:31:08Z</time>
      </trkpt>
      <trkpt lat="39.837660952172" lon="3.159842273419">
        <ele>18.4</ele>
        <time>2015-06-21T10:31:13Z</time>
      </trkpt>
      <trkpt lat="39.837654079014" lon="3.15992852317">
        <ele>18.4</ele>
        <time>2015-06-21T10:31:14Z</time>
      </trkpt>
      <trkpt lat="39.837657850869" lon="3.159987280289">
        <ele>18.2</ele>
        <time>2015-06-21T10:31:15Z</time>
      </trkpt>
      <trkpt lat="39.837663131466" lon="3.160250304311">
        <ele>17.6</ele>
        <time>2015-06-21T10:31:19Z</time>
      </trkpt>
      <trkpt lat="39.837674363212" lon="3.160328423619">
        <ele>17.2</ele>
        <time>2015-06-21T10:31:20Z</time>
      </trkpt>
      <trkpt lat="39.83774829157" lon="3.160576192583">
        <ele>15.8</ele>
        <time>2015-06-21T10:31:23Z</time>
      </trkpt>
      <trkpt lat="39.837782322084" lon="3.160654730986">
        <ele>15.6</ele>
        <time>2015-06-21T10:31:24Z</time>
      </trkpt>
      <trkpt lat="39.837933280103" lon="3.160954132454">
        <ele>14.8</ele>
        <time>2015-06-21T10:31:28Z</time>
      </trkpt>
      <trkpt lat="39.837972339757" lon="3.161027893174">
        <ele>14.6</ele>
        <time>2015-06-21T10:31:29Z</time>
      </trkpt>
      <trkpt lat="39.838243913317" lon="3.161414885497">
        <ele>15</ele>
        <time>2015-06-21T10:31:35Z</time>
      </trkpt>
      <trkpt lat="39.838325553023" lon="3.161552767752">
        <ele>15</ele>
        <time>2015-06-21T10:31:37Z</time>
      </trkpt>
      <trkpt lat="39.838386489436" lon="3.161702384667">
        <ele>15</ele>
        <time>2015-06-21T10:31:39Z</time>
      </trkpt>
      <trkpt lat="39.838464273468" lon="3.161917883316">
        <ele>14.6</ele>
        <time>2015-06-21T10:31:42Z</time>
      </trkpt>
      <trkpt lat="39.838557228739" lon="3.162232036928">
        <ele>14.4</ele>
        <time>2015-06-21T10:31:46Z</time>
      </trkpt>
      <trkpt lat="39.838784210591" lon="3.162896051046">
        <ele>14</ele>
        <time>2015-06-21T10:31:54Z</time>
      </trkpt>
      <trkpt lat="39.838926535253" lon="3.163307434698">
        <ele>13.6</ele>
        <time>2015-06-21T10:31:59Z</time>
      </trkpt>
      <trkpt lat="39.838981101422" lon="3.163465433513">
        <ele>13.2</ele>
        <time>2015-06-21T10:32:01Z</time>
      </trkpt>
      <trkpt lat="39.839110266501" lon="3.163954685016">
        <ele>13.2</ele>
        <time>2015-06-21T10:32:07Z</time>
      </trkpt>
      <trkpt lat="39.839233983345" lon="3.164472434979">
        <ele>14</ele>
        <time>2015-06-21T10:32:14Z</time>
      </trkpt>
      <trkpt lat="39.839285951125" lon="3.164665470136">
        <ele>14.8</ele>
        <time>2015-06-21T10:32:17Z</time>
      </trkpt>
      <trkpt lat="39.839348563918" lon="3.164905276295">
        <ele>15.8</ele>
        <time>2015-06-21T10:32:21Z</time>
      </trkpt>
      <trkpt lat="39.839365495356" lon="3.164963781957">
        <ele>16.2</ele>
        <time>2015-06-21T10:32:22Z</time>
      </trkpt>
      <trkpt lat="39.839432550556" lon="3.165194284207">
        <ele>17.2</ele>
        <time>2015-06-21T10:32:26Z</time>
      </trkpt>
      <trkpt lat="39.83945065546" lon="3.165251616403">
        <ele>17.6</ele>
        <time>2015-06-21T10:32:27Z</time>
      </trkpt>
      <trkpt lat="39.839469766192" lon="3.165301404889">
        <ele>18</ele>
        <time>2015-06-21T10:32:28Z</time>
      </trkpt>
      <trkpt lat="39.839525086732" lon="3.1653993893">
        <ele>18.4</ele>
        <time>2015-06-21T10:32:30Z</time>
      </trkpt>
      <trkpt lat="39.839590465552" lon="3.165477592427">
        <ele>18.8</ele>
        <time>2015-06-21T10:32:32Z</time>
      </trkpt>
      <trkpt lat="39.839622735867" lon="3.16551170676">
        <ele>18.8</ele>
        <time>2015-06-21T10:32:33Z</time>
      </trkpt>
      <trkpt lat="39.839679732787" lon="3.165574822467">
        <ele>19.6</ele>
        <time>2015-06-21T10:32:35Z</time>
      </trkpt>
      <trkpt lat="39.839737567897" lon="3.165682865158">
        <ele>20.8</ele>
        <time>2015-06-21T10:32:38Z</time>
      </trkpt>
      <trkpt lat="39.839732706395" lon="3.165723349735">
        <ele>21</ele>
        <time>2015-06-21T10:32:39Z</time>
      </trkpt>
      <trkpt lat="39.839722983391" lon="3.165829716046">
        <ele>21.8</ele>
        <time>2015-06-21T10:32:42Z</time>
      </trkpt>
      <trkpt lat="39.839732957852" lon="3.16588386312">
        <ele>22.2</ele>
        <time>2015-06-21T10:32:44Z</time>
      </trkpt>
      <trkpt lat="39.839804623097" lon="3.165932981054">
        <ele>22.4</ele>
        <time>2015-06-21T10:32:48Z</time>
      </trkpt>
      <trkpt lat="39.839882993862" lon="3.165871122632">
        <ele>22.6</ele>
        <time>2015-06-21T10:32:52Z</time>
      </trkpt>
      <trkpt lat="39.839900595852" lon="3.165830973331">
        <ele>22.6</ele>
        <time>2015-06-21T10:32:54Z</time>
      </trkpt>
      <trkpt lat="39.83989824892" lon="3.165795182618">
        <ele>22.8</ele>
        <time>2015-06-21T10:32:56Z</time>
      </trkpt>
      <trkpt lat="39.839890956667" lon="3.165772300031">
        <ele>22.8</ele>
        <time>2015-06-21T10:32:57Z</time>
      </trkpt>
      <trkpt lat="39.839891711038" lon="3.165756039145">
        <ele>22.8</ele>
        <time>2015-06-21T10:33:01Z</time>
      </trkpt>
      <trkpt lat="39.839900260576" lon="3.165756039145">
        <ele>22.8</ele>
        <time>2015-06-21T10:33:06Z</time>
      </trkpt>
      <trkpt lat="39.839900344395" lon="3.165756039145">
        <ele>23</ele>
        <time>2015-06-21T10:33:07Z</time>
      </trkpt>
      <trkpt lat="39.839905122078" lon="3.165750926186">
        <ele>22.4</ele>
        <time>2015-06-21T10:33:18Z</time>
      </trkpt>
      <trkpt lat="39.839913587797" lon="3.165751764376">
        <ele>22.4</ele>
        <time>2015-06-21T10:33:35Z</time>
      </trkpt>
      <trkpt lat="39.839913420159" lon="3.16574053263">
        <ele>22.4</ele>
        <time>2015-06-21T10:33:52Z</time>
      </trkpt>
      <trkpt lat="39.839913671616" lon="3.165732318368">
        <ele>22.4</ele>
        <time>2015-06-21T10:34:04Z</time>
      </trkpt>
      <trkpt lat="39.839913001064" lon="3.165724020287">
        <ele>22.2</ele>
        <time>2015-06-21T10:34:23Z</time>
      </trkpt>
      <trkpt lat="39.839892633047" lon="3.165680266769">
        <ele>22.6</ele>
        <time>2015-06-21T10:34:38Z</time>
      </trkpt>
      <trkpt lat="39.839877210351" lon="3.165661994227">
        <ele>13.4</ele>
        <time>2015-06-21T10:34:39Z</time>
      </trkpt>
      <trkpt lat="39.839859775999" lon="3.165639614554">
        <ele>11.6</ele>
        <time>2015-06-21T10:34:40Z</time>
      </trkpt>
      <trkpt lat="39.839771849868" lon="3.165551353147">
        <ele>11.4</ele>
        <time>2015-06-21T10:34:43Z</time>
      </trkpt>
      <trkpt lat="39.839678726959" lon="3.165431491977">
        <ele>11.2</ele>
        <time>2015-06-21T10:34:46Z</time>
      </trkpt>
      <trkpt lat="39.839613515777" lon="3.165346331873">
        <ele>10.6</ele>
        <time>2015-06-21T10:34:48Z</time>
      </trkpt>
      <trkpt lat="39.839577976521" lon="3.165305009106">
        <ele>10.4</ele>
        <time>2015-06-21T10:34:49Z</time>
      </trkpt>
      <trkpt lat="39.83955291464" lon="3.165255136801">
        <ele>10.2</ele>
        <time>2015-06-21T10:34:50Z</time>
      </trkpt>
      <trkpt lat="39.839499605756" lon="3.165125804084">
        <ele>9.8</ele>
        <time>2015-06-21T10:34:52Z</time>
      </trkpt>
      <trkpt lat="39.839445374863" lon="3.164965542156">
        <ele>9.2</ele>
        <time>2015-06-21T10:34:54Z</time>
      </trkpt>
      <trkpt lat="39.83936851284" lon="3.16470872074">
        <ele>8.4</ele>
        <time>2015-06-21T10:34:57Z</time>
      </trkpt>
      <trkpt lat="39.839346887538" lon="3.164622890084">
        <ele>8.2</ele>
        <time>2015-06-21T10:34:58Z</time>
      </trkpt>
      <trkpt lat="39.839238174295" lon="3.164229695155">
        <ele>7</ele>
        <time>2015-06-21T10:35:02Z</time>
      </trkpt>
      <trkpt lat="39.839188637266" lon="3.164035402713">
        <ele>6</ele>
        <time>2015-06-21T10:35:04Z</time>
      </trkpt>
      <trkpt lat="39.839164078299" lon="3.163935993379">
        <ele>5.8</ele>
        <time>2015-06-21T10:35:05Z</time>
      </trkpt>
      <trkpt lat="39.839036086686" lon="3.163457722165">
        <ele>5.2</ele>
        <time>2015-06-21T10:35:10Z</time>
      </trkpt>
      <trkpt lat="39.838809523929" lon="3.162813154055">
        <ele>5.4</ele>
        <time>2015-06-21T10:35:18Z</time>
      </trkpt>
      <trkpt lat="39.838668372733" lon="3.162454073459">
        <ele>5.4</ele>
        <time>2015-06-21T10:35:23Z</time>
      </trkpt>
      <trkpt lat="39.838624786853" lon="3.162304205087">
        <ele>5.2</ele>
        <time>2015-06-21T10:35:25Z</time>
      </trkpt>
      <trkpt lat="39.838430829687" lon="3.161708084359">
        <ele>6.2</ele>
        <time>2015-06-21T10:35:33Z</time>
      </trkpt>
      <trkpt lat="39.838325469204" lon="3.161419244085">
        <ele>6.8</ele>
        <time>2015-06-21T10:35:37Z</time>
      </trkpt>
      <trkpt lat="39.838287666835" lon="3.161356296016">
        <ele>7</ele>
        <time>2015-06-21T10:35:38Z</time>
      </trkpt>
      <trkpt lat="39.838201081808" lon="3.161254372112">
        <ele>7.2</ele>
        <time>2015-06-21T10:35:40Z</time>
      </trkpt>
      <trkpt lat="39.838110892564" lon="3.161130990544">
        <ele>7.4</ele>
        <time>2015-06-21T10:35:42Z</time>
      </trkpt>
      <trkpt lat="39.83800226314" lon="3.160944493269">
        <ele>7.8</ele>
        <time>2015-06-21T10:35:45Z</time>
      </trkpt>
      <trkpt lat="39.83797125011" lon="3.160888921272">
        <ele>8.2</ele>
        <time>2015-06-21T10:35:46Z</time>
      </trkpt>
      <trkpt lat="39.837864967618" lon="3.16067702684">
        <ele>9</ele>
        <time>2015-06-21T10:35:49Z</time>
      </trkpt>
      <trkpt lat="39.837744184439" lon="3.160398999217">
        <ele>9.6</ele>
        <time>2015-06-21T10:35:53Z</time>
      </trkpt>
      <trkpt lat="39.837732030684" lon="3.16033253075">
        <ele>10</ele>
        <time>2015-06-21T10:35:54Z</time>
      </trkpt>
      <trkpt lat="39.837716188893" lon="3.160258350935">
        <ele>10.2</ele>
        <time>2015-06-21T10:35:55Z</time>
      </trkpt>
      <trkpt lat="39.837677632153" lon="3.160012509808">
        <ele>10.8</ele>
        <time>2015-06-21T10:35:59Z</time>
      </trkpt>
      <trkpt lat="39.837681990741" lon="3.159960625847">
        <ele>10.6</ele>
        <time>2015-06-21T10:36:00Z</time>
      </trkpt>
      <trkpt lat="39.837694982686" lon="3.159841099953">
        <ele>10.6</ele>
        <time>2015-06-21T10:36:02Z</time>
      </trkpt>
      <trkpt lat="39.837726582449" lon="3.159609591875">
        <ele>11.2</ele>
        <time>2015-06-21T10:36:06Z</time>
      </trkpt>
      <trkpt lat="39.837738484747" lon="3.159542788132">
        <ele>11.4</ele>
        <time>2015-06-21T10:36:07Z</time>
      </trkpt>
      <trkpt lat="39.83779355383" lon="3.159248834899">
        <ele>12</ele>
        <time>2015-06-21T10:36:13Z</time>
      </trkpt>
      <trkpt lat="39.837805204671" lon="3.159204662286">
        <ele>12.6</ele>
        <time>2015-06-21T10:36:15Z</time>
      </trkpt>
      <trkpt lat="39.837817609883" lon="3.159145905167">
        <ele>12.4</ele>
        <time>2015-06-21T10:36:18Z</time>
      </trkpt>
      <trkpt lat="39.83784049247" lon="3.159013387328">
        <ele>12.2</ele>
        <time>2015-06-21T10:36:21Z</time>
      </trkpt>
      <trkpt lat="39.837914420828" lon="3.158643996995">
        <ele>12</ele>
        <time>2015-06-21T10:36:27Z</time>
      </trkpt>
      <trkpt lat="39.837912492991" lon="3.158583647315">
        <ele>12</ele>
        <time>2015-06-21T10:36:28Z</time>
      </trkpt>
      <trkpt lat="39.837905284557" lon="3.158306206425">
        <ele>12.4</ele>
        <time>2015-06-21T10:36:32Z</time>
      </trkpt>
      <trkpt lat="39.837923976194" lon="3.158014767762">
        <ele>12.8</ele>
        <time>2015-06-21T10:36:36Z</time>
      </trkpt>
      <trkpt lat="39.837957252337" lon="3.157872862195">
        <ele>13</ele>
        <time>2015-06-21T10:36:38Z</time>
      </trkpt>
      <trkpt lat="39.83799974857" lon="3.157599779893">
        <ele>12.8</ele>
        <time>2015-06-21T10:36:42Z</time>
      </trkpt>
      <trkpt lat="39.838012489058" lon="3.157477068877">
        <ele>13</ele>
        <time>2015-06-21T10:36:44Z</time>
      </trkpt>
      <trkpt lat="39.838003436606" lon="3.15741227679">
        <ele>13.2</ele>
        <time>2015-06-21T10:36:45Z</time>
      </trkpt>
      <trkpt lat="39.837994970887" lon="3.157172722088">
        <ele>13.8</ele>
        <time>2015-06-21T10:36:49Z</time>
      </trkpt>
      <trkpt lat="39.837961359468" lon="3.156992930333">
        <ele>14.6</ele>
        <time>2015-06-21T10:36:52Z</time>
      </trkpt>
      <trkpt lat="39.837947277876" lon="3.156921851821">
        <ele>14.8</ele>
        <time>2015-06-21T10:36:53Z</time>
      </trkpt>
      <trkpt lat="39.837900087779" lon="3.156747424482">
        <ele>15.2</ele>
        <time>2015-06-21T10:36:56Z</time>
      </trkpt>
      <trkpt lat="39.837853232958" lon="3.156638795058">
        <ele>16</ele>
        <time>2015-06-21T10:36:58Z</time>
      </trkpt>
      <trkpt lat="39.837785758663" lon="3.15647685675">
        <ele>17.2</ele>
        <time>2015-06-21T10:37:01Z</time>
      </trkpt>
      <trkpt lat="39.837765642103" lon="3.156418434907">
        <ele>17.6</ele>
        <time>2015-06-21T10:37:02Z</time>
      </trkpt>
      <trkpt lat="39.837721888585" lon="3.156309805483">
        <ele>18.2</ele>
        <time>2015-06-21T10:37:04Z</time>
      </trkpt>
      <trkpt lat="39.837613678256" lon="3.155986431781">
        <ele>19.4</ele>
        <time>2015-06-21T10:37:09Z</time>
      </trkpt>
      <trkpt lat="39.837635555015" lon="3.155705889588">
        <ele>23.6</ele>
        <time>2015-06-21T10:37:13Z</time>
      </trkpt>
      <trkpt lat="39.837652067358" lon="3.155635481628">
        <ele>23.8</ele>
        <time>2015-06-21T10:37:14Z</time>
      </trkpt>
      <trkpt lat="39.837675117583" lon="3.155509166395">
        <ele>24.2</ele>
        <time>2015-06-21T10:37:16Z</time>
      </trkpt>
      <trkpt lat="39.837666065131" lon="3.155369104846">
        <ele>20.8</ele>
        <time>2015-06-21T10:37:18Z</time>
      </trkpt>
      <trkpt lat="39.837577049353" lon="3.15516676578">
        <ele>22</ele>
        <time>2015-06-21T10:37:22Z</time>
      </trkpt>
      <trkpt lat="39.83747252706" lon="3.155060148012">
        <ele>23</ele>
        <time>2015-06-21T10:37:25Z</time>
      </trkpt>
      <trkpt lat="39.837414021398" lon="3.154996110296">
        <ele>23.8</ele>
        <time>2015-06-21T10:37:27Z</time>
      </trkpt>
      <trkpt lat="39.837388205146" lon="3.154963839981">
        <ele>24.2</ele>
        <time>2015-06-21T10:37:28Z</time>
      </trkpt>
      <trkpt lat="39.837296004246" lon="3.154858395679">
        <ele>25.4</ele>
        <time>2015-06-21T10:37:31Z</time>
      </trkpt>
      <trkpt lat="39.83718586608" lon="3.154710203687">
        <ele>26.4</ele>
        <time>2015-06-21T10:37:35Z</time>
      </trkpt>
      <trkpt lat="39.837110261342" lon="3.154582966445">
        <ele>27.4</ele>
        <time>2015-06-21T10:37:38Z</time>
      </trkpt>
      <trkpt lat="39.837003895031" lon="3.154337460594">
        <ele>28.2</ele>
        <time>2015-06-21T10:37:43Z</time>
      </trkpt>
      <trkpt lat="39.836934576718" lon="3.154095139865">
        <ele>28.6</ele>
        <time>2015-06-21T10:37:47Z</time>
      </trkpt>
      <trkpt lat="39.836896522892" lon="3.153909229323">
        <ele>28.4</ele>
        <time>2015-06-21T10:37:50Z</time>
      </trkpt>
      <trkpt lat="39.836751180746" lon="3.153242616816">
        <ele>29</ele>
        <time>2015-06-21T10:38:00Z</time>
      </trkpt>
      <trkpt lat="39.836636516354" lon="3.15282067197">
        <ele>28.4</ele>
        <time>2015-06-21T10:38:06Z</time>
      </trkpt>
      <trkpt lat="39.83658823661" lon="3.152401157875">
        <ele>27.6</ele>
        <time>2015-06-21T10:38:11Z</time>
      </trkpt>
      <trkpt lat="39.836591924646" lon="3.152224886518">
        <ele>27.4</ele>
        <time>2015-06-21T10:38:13Z</time>
      </trkpt>
      <trkpt lat="39.836590332085" lon="3.151743094906">
        <ele>27.4</ele>
        <time>2015-06-21T10:38:19Z</time>
      </trkpt>
      <trkpt lat="39.836592259922" lon="3.151254597774">
        <ele>27.6</ele>
        <time>2015-06-21T10:38:25Z</time>
      </trkpt>
      <trkpt lat="39.836551523888" lon="3.150724526418">
        <ele>27.4</ele>
        <time>2015-06-21T10:38:32Z</time>
      </trkpt>
      <trkpt lat="39.836538951038" lon="3.15040668477">
        <ele>28.8</ele>
        <time>2015-06-21T10:38:38Z</time>
      </trkpt>
      <trkpt lat="39.83652621055" lon="3.150250446154">
        <ele>29.2</ele>
        <time>2015-06-21T10:38:40Z</time>
      </trkpt>
      <trkpt lat="39.836515649356" lon="3.150121029618">
        <ele>29.8</ele>
        <time>2015-06-21T10:38:42Z</time>
      </trkpt>
      <trkpt lat="39.836490419837" lon="3.149894802137">
        <ele>30.8</ele>
        <time>2015-06-21T10:38:46Z</time>
      </trkpt>
      <trkpt lat="39.83647843372" lon="3.149773599863">
        <ele>31.2</ele>
        <time>2015-06-21T10:38:48Z</time>
      </trkpt>
      <trkpt lat="39.836455467314" lon="3.149552736798">
        <ele>32</ele>
        <time>2015-06-21T10:38:52Z</time>
      </trkpt>
      <trkpt lat="39.836431997994" lon="3.149321396358">
        <ele>33.2</ele>
        <time>2015-06-21T10:38:56Z</time>
      </trkpt>
      <trkpt lat="39.836423448456" lon="3.149208743622">
        <ele>33.8</ele>
        <time>2015-06-21T10:38:58Z</time>
      </trkpt>
      <trkpt lat="39.836412971081" lon="3.149090055918">
        <ele>34.4</ele>
        <time>2015-06-21T10:39:00Z</time>
      </trkpt>
      <trkpt lat="39.836407606665" lon="3.148980672123">
        <ele>36.2</ele>
        <time>2015-06-21T10:39:02Z</time>
      </trkpt>
      <trkpt lat="39.836394279444" lon="3.148862822609">
        <ele>36.8</ele>
        <time>2015-06-21T10:39:05Z</time>
      </trkpt>
      <trkpt lat="39.836378186196" lon="3.148582867149">
        <ele>36.4</ele>
        <time>2015-06-21T10:39:11Z</time>
      </trkpt>
      <trkpt lat="39.836339713275" lon="3.148224121829">
        <ele>37</ele>
        <time>2015-06-21T10:39:18Z</time>
      </trkpt>
      <trkpt lat="39.836290176246" lon="3.147720537277">
        <ele>37</ele>
        <time>2015-06-21T10:39:26Z</time>
      </trkpt>
      <trkpt lat="39.8362537988" lon="3.147315356231">
        <ele>36.8</ele>
        <time>2015-06-21T10:39:31Z</time>
      </trkpt>
      <trkpt lat="39.836244746348" lon="3.147063563955">
        <ele>35</ele>
        <time>2015-06-21T10:39:34Z</time>
      </trkpt>
      <trkpt lat="39.836284476554" lon="3.146872456635">
        <ele>33.4</ele>
        <time>2015-06-21T10:39:36Z</time>
      </trkpt>
      <trkpt lat="39.836365026613" lon="3.146646983525">
        <ele>31.8</ele>
        <time>2015-06-21T10:39:38Z</time>
      </trkpt>
      <trkpt lat="39.836451444002" lon="3.146410027212">
        <ele>30.2</ele>
        <time>2015-06-21T10:39:40Z</time>
      </trkpt>
      <trkpt lat="39.836499639927" lon="3.14628446635">
        <ele>29.2</ele>
        <time>2015-06-21T10:39:41Z</time>
      </trkpt>
      <trkpt lat="39.836553619363" lon="3.146146667914">
        <ele>27.8</ele>
        <time>2015-06-21T10:39:42Z</time>
      </trkpt>
      <trkpt lat="39.836602318202" lon="3.14602211288">
        <ele>26.4</ele>
        <time>2015-06-21T10:39:43Z</time>
      </trkpt>
      <trkpt lat="39.836643305693" lon="3.145901497339">
        <ele>25</ele>
        <time>2015-06-21T10:39:44Z</time>
      </trkpt>
      <trkpt lat="39.836692004532" lon="3.145760849057">
        <ele>23.8</ele>
        <time>2015-06-21T10:39:45Z</time>
      </trkpt>
      <trkpt lat="39.836829719149" lon="3.145373186182">
        <ele>22.6</ele>
        <time>2015-06-21T10:39:48Z</time>
      </trkpt>
      <trkpt lat="39.83706851948" lon="3.14473046209">
        <ele>21.4</ele>
        <time>2015-06-21T10:39:53Z</time>
      </trkpt>
      <trkpt lat="39.837213777807" lon="3.144347912174">
        <ele>20.2</ele>
        <time>2015-06-21T10:39:56Z</time>
      </trkpt>
      <trkpt lat="39.837309666743" lon="3.144088827645">
        <ele>19</ele>
        <time>2015-06-21T10:39:58Z</time>
      </trkpt>
      <trkpt lat="39.837398011969" lon="3.143850111133">
        <ele>18.2</ele>
        <time>2015-06-21T10:40:00Z</time>
      </trkpt>
      <trkpt lat="39.837529188704" lon="3.14348323537">
        <ele>18.2</ele>
        <time>2015-06-21T10:40:04Z</time>
      </trkpt>
      <trkpt lat="39.837589622203" lon="3.143322386709">
        <ele>17.8</ele>
        <time>2015-06-21T10:40:06Z</time>
      </trkpt>
      <trkpt lat="39.837652151177" lon="3.143180564961">
        <ele>17.6</ele>
        <time>2015-06-21T10:40:08Z</time>
      </trkpt>
      <trkpt lat="39.837703532224" lon="3.143141337669">
        <ele>17.8</ele>
        <time>2015-06-21T10:40:09Z</time>
      </trkpt>
      <trkpt lat="39.837851891854" lon="3.14309682978">
        <ele>18.2</ele>
        <time>2015-06-21T10:40:12Z</time>
      </trkpt>
      <trkpt lat="39.837892627888" lon="3.143069085691">
        <ele>18.4</ele>
        <time>2015-06-21T10:40:13Z</time>
      </trkpt>
      <trkpt lat="39.837985080245" lon="3.142974537859">
        <ele>18.6</ele>
        <time>2015-06-21T10:40:16Z</time>
      </trkpt>
      <trkpt lat="39.838059008603" lon="3.14293505911">
        <ele>18.8</ele>
        <time>2015-06-21T10:40:18Z</time>
      </trkpt>
      <trkpt lat="39.838114999695" lon="3.142918798224">
        <ele>19.4</ele>
        <time>2015-06-21T10:40:20Z</time>
      </trkpt>
      <trkpt lat="39.838175433194" lon="3.142940423526">
        <ele>20</ele>
        <time>2015-06-21T10:40:23Z</time>
      </trkpt>
      <trkpt lat="39.83818247399" lon="3.142944865933">
        <ele>20</ele>
        <time>2015-06-21T10:40:24Z</time>
      </trkpt>
      <trkpt lat="39.838174175909" lon="3.142944949752">
        <ele>20.2</ele>
        <time>2015-06-21T10:40:28Z</time>
      </trkpt>
      <trkpt lat="39.838175014099" lon="3.142946039399">
        <ele>20.2</ele>
        <time>2015-06-21T10:40:36Z</time>
      </trkpt>
      <trkpt lat="39.838174343547" lon="3.142954505118">
        <ele>20</ele>
        <time>2015-06-21T10:40:54Z</time>
      </trkpt>
      <trkpt lat="39.838173756814" lon="3.142957438783">
        <ele>20</ele>
        <time>2015-06-21T10:41:08Z</time>
      </trkpt>
      <trkpt lat="39.838172080434" lon="3.142955008032">
        <ele>20.6</ele>
        <time>2015-06-21T10:41:19Z</time>
      </trkpt>
      <trkpt lat="39.838170823149" lon="3.142956432955">
        <ele>20.4</ele>
        <time>2015-06-21T10:41:32Z</time>
      </trkpt>
      <trkpt lat="39.838181971076" lon="3.14294511739">
        <ele>20.4</ele>
        <time>2015-06-21T10:41:41Z</time>
      </trkpt>
      <trkpt lat="39.838178115402" lon="3.142944195381">
        <ele>20.4</ele>
        <time>2015-06-21T10:41:44Z</time>
      </trkpt>
      <trkpt lat="39.838171996615" lon="3.142950062711">
        <ele>19.8</ele>
        <time>2015-06-21T10:41:49Z</time>
      </trkpt>
      <trkpt lat="39.83816654838" lon="3.14295433748">
        <ele>19.4</ele>
        <time>2015-06-21T10:41:58Z</time>
      </trkpt>
      <trkpt lat="39.838166380742" lon="3.142953750747">
        <ele>19.6</ele>
        <time>2015-06-21T10:42:23Z</time>
      </trkpt>
      <trkpt lat="39.838166296923" lon="3.142956600593">
        <ele>18.8</ele>
        <time>2015-06-21T10:42:26Z</time>
      </trkpt>
      <trkpt lat="39.838165291095" lon="3.142957438783">
        <ele>18.8</ele>
        <time>2015-06-21T10:42:32Z</time>
      </trkpt>
      <trkpt lat="39.838188760415" lon="3.142927934495">
        <ele>18.6</ele>
        <time>2015-06-21T10:42:36Z</time>
      </trkpt>
      <trkpt lat="39.83817995942" lon="3.1429107516">
        <ele>18.6</ele>
        <time>2015-06-21T10:42:37Z</time>
      </trkpt>
      <trkpt lat="39.838099912275" lon="3.142871775765">
        <ele>18.2</ele>
        <time>2015-06-21T10:42:40Z</time>
      </trkpt>
      <trkpt lat="39.83806764196" lon="3.142855933974">
        <ele>18.2</ele>
        <time>2015-06-21T10:42:41Z</time>
      </trkpt>
      <trkpt lat="39.837946523505" lon="3.1427179679">
        <ele>17.8</ele>
        <time>2015-06-21T10:42:45Z</time>
      </trkpt>
      <trkpt lat="39.837922048357" lon="3.142686787232">
        <ele>17.8</ele>
        <time>2015-06-21T10:42:46Z</time>
      </trkpt>
      <trkpt lat="39.837780226609" lon="3.142573380125">
        <ele>17.4</ele>
        <time>2015-06-21T10:42:50Z</time>
      </trkpt>
      <trkpt lat="39.837742088964" lon="3.142569524451">
        <ele>17.4</ele>
        <time>2015-06-21T10:42:51Z</time>
      </trkpt>
      <trkpt lat="39.837575540611" lon="3.142653594908">
        <ele>17.4</ele>
        <time>2015-06-21T10:42:55Z</time>
      </trkpt>
      <trkpt lat="39.837513682189" lon="3.142885019167">
        <ele>17.4</ele>
        <time>2015-06-21T10:42:59Z</time>
      </trkpt>
      <trkpt lat="39.837580988846" lon="3.143047628027">
        <ele>17.2</ele>
        <time>2015-06-21T10:43:02Z</time>
      </trkpt>
      <trkpt lat="39.837714847789" lon="3.143156508908">
        <ele>17</ele>
        <time>2015-06-21T10:43:06Z</time>
      </trkpt>
      <trkpt lat="39.837782489722" lon="3.143170171405">
        <ele>17.2</ele>
        <time>2015-06-21T10:43:08Z</time>
      </trkpt>
      <trkpt lat="39.837847449447" lon="3.143155838356">
        <ele>17.4</ele>
        <time>2015-06-21T10:43:11Z</time>
      </trkpt>
      <trkpt lat="39.83785306532" lon="3.14317478145">
        <ele>17.6</ele>
        <time>2015-06-21T10:43:14Z</time>
      </trkpt>
      <trkpt lat="39.837859184107" lon="3.143161538048">
        <ele>17.6</ele>
        <time>2015-06-21T10:43:15Z</time>
      </trkpt>
      <trkpt lat="39.83786060903" lon="3.143158436745">
        <ele>17.6</ele>
        <time>2015-06-21T10:43:20Z</time>
      </trkpt>
      <trkpt lat="39.837859351745" lon="3.143154329614">
        <ele>17.8</ele>
        <time>2015-06-21T10:43:27Z</time>
      </trkpt>
      <trkpt lat="39.837862201591" lon="3.143147875551">
        <ele>18.8</ele>
        <time>2015-06-21T10:43:33Z</time>
      </trkpt>
      <trkpt lat="39.83786144722" lon="3.143144774248">
        <ele>19</ele>
        <time>2015-06-21T10:43:36Z</time>
      </trkpt>
      <trkpt lat="39.837898411399" lon="3.143076545582">
        <ele>20.8</ele>
        <time>2015-06-21T10:43:49Z</time>
      </trkpt>
      <trkpt lat="39.838009303936" lon="3.142966407416">
        <ele>20.6</ele>
        <time>2015-06-21T10:43:53Z</time>
      </trkpt>
      <trkpt lat="39.838118520093" lon="3.142941680811">
        <ele>19.4</ele>
        <time>2015-06-21T10:43:56Z</time>
      </trkpt>
      <trkpt lat="39.838154646082" lon="3.142945033571">
        <ele>19.4</ele>
        <time>2015-06-21T10:43:57Z</time>
      </trkpt>
      <trkpt lat="39.838385651246" lon="3.142961797371">
        <ele>20.6</ele>
        <time>2015-06-21T10:44:03Z</time>
      </trkpt>
      <trkpt lat="39.838504255131" lon="3.142967413244">
        <ele>21</ele>
        <time>2015-06-21T10:44:06Z</time>
      </trkpt>
      <trkpt lat="39.83863258202" lon="3.142968167615">
        <ele>21.6</ele>
        <time>2015-06-21T10:44:09Z</time>
      </trkpt>
      <trkpt lat="39.838931145298" lon="3.142949475978">
        <ele>22.6</ele>
        <time>2015-06-21T10:44:16Z</time>
      </trkpt>
      <trkpt lat="39.838979508861" lon="3.142943776286">
        <ele>22.8</ele>
        <time>2015-06-21T10:44:17Z</time>
      </trkpt>
      <trkpt lat="39.839063914594" lon="3.142933466549">
        <ele>25.6</ele>
        <time>2015-06-21T10:44:19Z</time>
      </trkpt>
      <trkpt lat="39.839237419924" lon="3.142903375528">
        <ele>27.4</ele>
        <time>2015-06-21T10:44:23Z</time>
      </trkpt>
      <trkpt lat="39.839280419071" lon="3.142893233429">
        <ele>24.6</ele>
        <time>2015-06-21T10:44:24Z</time>
      </trkpt>
      <trkpt lat="39.839411176711" lon="3.142864399693">
        <ele>25</ele>
        <time>2015-06-21T10:44:27Z</time>
      </trkpt>
      <trkpt lat="39.839548220776" lon="3.142827854609">
        <ele>25.6</ele>
        <time>2015-06-21T10:44:30Z</time>
      </trkpt>
      <trkpt lat="39.83991501272" lon="3.14270623324">
        <ele>26.6</ele>
        <time>2015-06-21T10:44:38Z</time>
      </trkpt>
      <trkpt lat="39.839962202817" lon="3.142685362309">
        <ele>26.6</ele>
        <time>2015-06-21T10:44:39Z</time>
      </trkpt>
      <trkpt lat="39.840452795424" lon="3.142447735444">
        <ele>27</ele>
        <time>2015-06-21T10:44:49Z</time>
      </trkpt>
      <trkpt lat="39.84094095728" lon="3.142176245703">
        <ele>27</ele>
        <time>2015-06-21T10:44:58Z</time>
      </trkpt>
      <trkpt lat="39.841486870427" lon="3.141858236417">
        <ele>26.6</ele>
        <time>2015-06-21T10:45:07Z</time>
      </trkpt>
      <trkpt lat="39.841651071848" lon="3.141765867879">
        <ele>26.4</ele>
        <time>2015-06-21T10:45:10Z</time>
      </trkpt>
      <trkpt lat="39.842049966469" lon="3.141533353973">
        <ele>25.4</ele>
        <time>2015-06-21T10:45:16Z</time>
      </trkpt>
      <trkpt lat="39.842328580825" lon="3.141376193348">
        <ele>25</ele>
        <time>2015-06-21T10:45:20Z</time>
      </trkpt>
      <trkpt lat="39.84287633799" lon="3.141057429691">
        <ele>24.4</ele>
        <time>2015-06-21T10:45:29Z</time>
      </trkpt>
      <trkpt lat="39.843374725764" lon="3.140768924693">
        <ele>26.2</ele>
        <time>2015-06-21T10:45:38Z</time>
      </trkpt>
      <trkpt lat="39.843479415695" lon="3.14070882647">
        <ele>26.6</ele>
        <time>2015-06-21T10:45:40Z</time>
      </trkpt>
      <trkpt lat="39.843898175419" lon="3.140440354213">
        <ele>26.6</ele>
        <time>2015-06-21T10:45:48Z</time>
      </trkpt>
      <trkpt lat="39.844337135522" lon="3.140098540331">
        <ele>27.6</ele>
        <time>2015-06-21T10:45:57Z</time>
      </trkpt>
      <trkpt lat="39.844481807116" lon="3.139968537062">
        <ele>28</ele>
        <time>2015-06-21T10:46:00Z</time>
      </trkpt>
      <trkpt lat="39.84488883218" lon="3.139539216144">
        <ele>28.6</ele>
        <time>2015-06-21T10:46:09Z</time>
      </trkpt>
      <trkpt lat="39.844929232938" lon="3.139488002735">
        <ele>28.8</ele>
        <time>2015-06-21T10:46:10Z</time>
      </trkpt>
      <trkpt lat="39.845246068758" lon="3.13903077009">
        <ele>29</ele>
        <time>2015-06-21T10:46:18Z</time>
      </trkpt>
      <trkpt lat="39.845383615737" lon="3.138793981415">
        <ele>29.6</ele>
        <time>2015-06-21T10:46:22Z</time>
      </trkpt>
      <trkpt lat="39.845571370297" lon="3.13842224415">
        <ele>29.6</ele>
        <time>2015-06-21T10:46:28Z</time>
      </trkpt>
      <trkpt lat="39.845644795741" lon="3.138264329154">
        <ele>30</ele>
        <time>2015-06-21T10:46:30Z</time>
      </trkpt>
      <trkpt lat="39.845705145421" lon="3.138116137162">
        <ele>30.4</ele>
        <time>2015-06-21T10:46:32Z</time>
      </trkpt>
      <trkpt lat="39.845923410097" lon="3.137479364219">
        <ele>29.8</ele>
        <time>2015-06-21T10:46:40Z</time>
      </trkpt>
      <trkpt lat="39.846088617346" lon="3.136747791987">
        <ele>28.8</ele>
        <time>2015-06-21T10:46:48Z</time>
      </trkpt>
      <trkpt lat="39.846101860748" lon="3.136651651594">
        <ele>28.4</ele>
        <time>2015-06-21T10:46:49Z</time>
      </trkpt>
      <trkpt lat="39.846122312584" lon="3.136451910917">
        <ele>27</ele>
        <time>2015-06-21T10:46:51Z</time>
      </trkpt>
      <trkpt lat="39.846151649234" lon="3.136134739821">
        <ele>26.4</ele>
        <time>2015-06-21T10:46:54Z</time>
      </trkpt>
      <trkpt lat="39.8461779684" lon="3.135704999808">
        <ele>25.8</ele>
        <time>2015-06-21T10:46:58Z</time>
      </trkpt>
      <trkpt lat="39.846192804363" lon="3.135370478179">
        <ele>24.8</ele>
        <time>2015-06-21T10:47:01Z</time>
      </trkpt>
      <trkpt lat="39.846202778824" lon="3.135131677848">
        <ele>24</ele>
        <time>2015-06-21T10:47:03Z</time>
      </trkpt>
      <trkpt lat="39.84621317238" lon="3.134894805354">
        <ele>23.6</ele>
        <time>2015-06-21T10:47:05Z</time>
      </trkpt>
      <trkpt lat="39.846240497374" lon="3.134319220281">
        <ele>22.6</ele>
        <time>2015-06-21T10:47:10Z</time>
      </trkpt>
      <trkpt lat="39.846257512631" lon="3.133969275956">
        <ele>21.4</ele>
        <time>2015-06-21T10:47:13Z</time>
      </trkpt>
      <trkpt lat="39.846271342766" lon="3.133635843974">
        <ele>20.4</ele>
        <time>2015-06-21T10:47:16Z</time>
      </trkpt>
      <trkpt lat="39.846284502349" lon="3.13339478053">
        <ele>19.4</ele>
        <time>2015-06-21T10:47:18Z</time>
      </trkpt>
      <trkpt lat="39.846303613081" lon="3.13294886345">
        <ele>18</ele>
        <time>2015-06-21T10:47:22Z</time>
      </trkpt>
      <trkpt lat="39.846309228954" lon="3.132830175746">
        <ele>17.8</ele>
        <time>2015-06-21T10:47:23Z</time>
      </trkpt>
      <trkpt lat="39.84631710794" lon="3.132401609199">
        <ele>17</ele>
        <time>2015-06-21T10:47:27Z</time>
      </trkpt>
      <trkpt lat="39.846304032176" lon="3.1319975178">
        <ele>16</ele>
        <time>2015-06-21T10:47:31Z</time>
      </trkpt>
      <trkpt lat="39.846297661932" lon="3.131902467054">
        <ele>15.8</ele>
        <time>2015-06-21T10:47:32Z</time>
      </trkpt>
      <trkpt lat="39.846257428812" lon="3.131577081696">
        <ele>15</ele>
        <time>2015-06-21T10:47:36Z</time>
      </trkpt>
      <trkpt lat="39.846248208722" lon="3.131503740071">
        <ele>14.8</ele>
        <time>2015-06-21T10:47:37Z</time>
      </trkpt>
      <trkpt lat="39.846222224832" lon="3.131271561441">
        <ele>14.6</ele>
        <time>2015-06-21T10:47:41Z</time>
      </trkpt>
      <trkpt lat="39.846282155417" lon="3.131111215694">
        <ele>14.4</ele>
        <time>2015-06-21T10:47:44Z</time>
      </trkpt>
      <trkpt lat="39.846301517606" lon="3.131050614557">
        <ele>14.8</ele>
        <time>2015-06-21T10:47:45Z</time>
      </trkpt>
      <trkpt lat="39.84633554812" lon="3.130845258007">
        <ele>14.8</ele>
        <time>2015-06-21T10:47:48Z</time>
      </trkpt>
      <trkpt lat="39.846469993796" lon="3.13071089615">
        <ele>14.4</ele>
        <time>2015-06-21T10:47:51Z</time>
      </trkpt>
      <trkpt lat="39.846559177212" lon="3.130618359974">
        <ele>14.6</ele>
        <time>2015-06-21T10:47:53Z</time>
      </trkpt>
      <trkpt lat="39.846598069228" lon="3.130593046636">
        <ele>14.8</ele>
        <time>2015-06-21T10:47:54Z</time>
      </trkpt>
      <trkpt lat="39.84665238394" lon="3.130536049716">
        <ele>14.8</ele>
        <time>2015-06-21T10:47:56Z</time>
      </trkpt>
      <trkpt lat="39.846925298604" lon="3.13026497907">
        <ele>14.8</ele>
        <time>2015-06-21T10:48:06Z</time>
      </trkpt>
      <trkpt lat="39.847144736746" lon="3.130043613091">
        <ele>15</ele>
        <time>2015-06-21T10:48:14Z</time>
      </trkpt>
      <trkpt lat="39.84739921123" lon="3.129790647349">
        <ele>14.8</ele>
        <time>2015-06-21T10:48:24Z</time>
      </trkpt>
      <trkpt lat="39.847661899976" lon="3.129529383526">
        <ele>15.2</ele>
        <time>2015-06-21T10:48:34Z</time>
      </trkpt>
      <trkpt lat="39.847867675621" lon="3.129337438016">
        <ele>15.4</ele>
        <time>2015-06-21T10:48:42Z</time>
      </trkpt>
      <trkpt lat="39.84794990206" lon="3.129283290942">
        <ele>15.4</ele>
        <time>2015-06-21T10:48:48Z</time>
      </trkpt>
      <trkpt lat="39.84795241663" lon="3.129282033657">
        <ele>15.4</ele>
        <time>2015-06-21T10:48:54Z</time>
      </trkpt>
      <trkpt lat="39.847953171001" lon="3.1292817822">
        <ele>10.6</ele>
        <time>2015-06-21T10:48:55Z</time>
      </trkpt>
      <trkpt lat="39.847953087182" lon="3.129281866019">
        <ele>14.6</ele>
        <time>2015-06-21T10:48:56Z</time>
      </trkpt>
      <trkpt lat="39.84794990206" lon="3.129269796083">
        <ele>15</ele>
        <time>2015-06-21T10:49:03Z</time>
      </trkpt>
      <trkpt lat="39.847943447997" lon="3.129266191866">
        <ele>15.8</ele>
        <time>2015-06-21T10:49:06Z</time>
      </trkpt>
      <trkpt lat="39.847941603979" lon="3.129260408355">
        <ele>16.6</ele>
        <time>2015-06-21T10:49:10Z</time>
      </trkpt>
      <trkpt lat="39.847941184884" lon="3.12926166564">
        <ele>16.8</ele>
        <time>2015-06-21T10:49:11Z</time>
      </trkpt>
      <trkpt lat="39.847935820468" lon="3.129245907668">
        <ele>17.4</ele>
        <time>2015-06-21T10:49:21Z</time>
      </trkpt>
      <trkpt lat="39.847930204595" lon="3.129226545479">
        <ele>17.8</ele>
        <time>2015-06-21T10:49:24Z</time>
      </trkpt>
      <trkpt lat="39.847927773844" lon="3.129219672321">
        <ele>18.8</ele>
        <time>2015-06-21T10:49:26Z</time>
      </trkpt>
      <trkpt lat="39.8479214036" lon="3.12920466872">
        <ele>20</ele>
        <time>2015-06-21T10:49:31Z</time>
      </trkpt>
      <trkpt lat="39.847918553754" lon="3.129197041191">
        <ele>21</ele>
        <time>2015-06-21T10:49:35Z</time>
      </trkpt>
      <trkpt lat="39.847915703908" lon="3.129189078386">
        <ele>21.8</ele>
        <time>2015-06-21T10:49:41Z</time>
      </trkpt>
      <trkpt lat="39.847918386116" lon="3.129195197173">
        <ele>20.8</ele>
        <time>2015-06-21T10:49:54Z</time>
      </trkpt>
      <trkpt lat="39.847919475763" lon="3.129197292648">
        <ele>20</ele>
        <time>2015-06-21T10:49:59Z</time>
      </trkpt>
      <trkpt lat="39.847920900686" lon="3.12919963958">
        <ele>19.2</ele>
        <time>2015-06-21T10:50:04Z</time>
      </trkpt>
      <trkpt lat="39.847920062496" lon="3.129201567417">
        <ele>18.8</ele>
        <time>2015-06-21T10:50:06Z</time>
      </trkpt>
      <trkpt lat="39.847917799383" lon="3.129186647635">
        <ele>18</ele>
        <time>2015-06-21T10:50:11Z</time>
      </trkpt>
      <trkpt lat="39.847917799383" lon="3.129184133065">
        <ele>17.8</ele>
        <time>2015-06-21T10:50:13Z</time>
      </trkpt>
      <trkpt lat="39.847914195166" lon="3.129178098097">
        <ele>17.2</ele>
        <time>2015-06-21T10:50:17Z</time>
      </trkpt>
      <trkpt lat="39.84791134532" lon="3.129175164432">
        <ele>16.6</ele>
        <time>2015-06-21T10:50:21Z</time>
      </trkpt>
      <trkpt lat="39.847910339492" lon="3.129183378694">
        <ele>15.8</ele>
        <time>2015-06-21T10:50:26Z</time>
      </trkpt>
      <trkpt lat="39.847915117175" lon="3.129185138893">
        <ele>15.6</ele>
        <time>2015-06-21T10:50:29Z</time>
      </trkpt>
      <trkpt lat="39.847921738876" lon="3.129190168033">
        <ele>15.4</ele>
        <time>2015-06-21T10:50:36Z</time>
      </trkpt>
      <trkpt lat="39.847931294242" lon="3.129213972629">
        <ele>15.4</ele>
        <time>2015-06-21T10:50:44Z</time>
      </trkpt>
      <trkpt lat="39.84794319654" lon="3.129203159978">
        <ele>15.4</ele>
        <time>2015-06-21T10:51:00Z</time>
      </trkpt>
      <trkpt lat="39.847941017246" lon="3.129182372866">
        <ele>15.4</ele>
        <time>2015-06-21T10:51:22Z</time>
      </trkpt>
      <trkpt lat="39.847931042785" lon="3.129192682603">
        <ele>15.2</ele>
        <time>2015-06-21T10:51:26Z</time>
      </trkpt>
      <trkpt lat="39.847931042785" lon="3.129180109753">
        <ele>15.2</ele>
        <time>2015-06-21T10:51:32Z</time>
      </trkpt>
      <trkpt lat="39.847956775218" lon="3.129130991819">
        <ele>15.2</ele>
        <time>2015-06-21T10:51:40Z</time>
      </trkpt>
      <trkpt lat="39.848007318075" lon="3.129066535008">
        <ele>13.2</ele>
        <time>2015-06-21T10:51:43Z</time>
      </trkpt>
      <trkpt lat="39.848062470977" lon="3.129006939699">
        <ele>13</ele>
        <time>2015-06-21T10:51:45Z</time>
      </trkpt>
      <trkpt lat="39.848157354085" lon="3.128920187034">
        <ele>18.2</ele>
        <time>2015-06-21T10:51:48Z</time>
      </trkpt>
      <trkpt lat="39.848192809522" lon="3.128888335814">
        <ele>15</ele>
        <time>2015-06-21T10:51:49Z</time>
      </trkpt>
      <trkpt lat="39.848298672919" lon="3.128793620344">
        <ele>15.4</ele>
        <time>2015-06-21T10:51:52Z</time>
      </trkpt>
      <trkpt lat="39.848520541812" lon="3.128590443088">
        <ele>16</ele>
        <time>2015-06-21T10:51:58Z</time>
      </trkpt>
      <trkpt lat="39.848596817102" lon="3.128518107291">
        <ele>16</ele>
        <time>2015-06-21T10:52:00Z</time>
      </trkpt>
      <trkpt lat="39.848923627383" lon="3.128200265643">
        <ele>16.8</ele>
        <time>2015-06-21T10:52:10Z</time>
      </trkpt>
      <trkpt lat="39.849108448278" lon="3.128009912694">
        <ele>17.2</ele>
        <time>2015-06-21T10:52:16Z</time>
      </trkpt>
      <trkpt lat="39.849183466283" lon="3.127954424516">
        <ele>17.4</ele>
        <time>2015-06-21T10:52:18Z</time>
      </trkpt>
      <trkpt lat="39.849250353845" lon="3.127884016556">
        <ele>17.4</ele>
        <time>2015-06-21T10:52:20Z</time>
      </trkpt>
      <trkpt lat="39.849379351286" lon="3.127749487061">
        <ele>17.2</ele>
        <time>2015-06-21T10:52:25Z</time>
      </trkpt>
      <trkpt lat="39.84941002904" lon="3.127680168748">
        <ele>17.6</ele>
        <time>2015-06-21T10:52:30Z</time>
      </trkpt>
      <trkpt lat="39.849382620227" lon="3.127743200636">
        <ele>18.2</ele>
        <time>2015-06-21T10:52:35Z</time>
      </trkpt>
      <trkpt lat="39.849373651594" lon="3.127771615277">
        <ele>18.2</ele>
        <time>2015-06-21T10:52:37Z</time>
      </trkpt>
      <trkpt lat="39.849317660502" lon="3.127849650766">
        <ele>18</ele>
        <time>2015-06-21T10:52:42Z</time>
      </trkpt>
      <trkpt lat="39.84925580208" lon="3.12790379784">
        <ele>18</ele>
        <time>2015-06-21T10:52:48Z</time>
      </trkpt>
      <trkpt lat="39.849241049936" lon="3.127936571069">
        <ele>17.8</ele>
        <time>2015-06-21T10:52:54Z</time>
      </trkpt>
      <trkpt lat="39.84924742018" lon="3.127955514163">
        <ele>17.8</ele>
        <time>2015-06-21T10:52:59Z</time>
      </trkpt>
      <trkpt lat="39.849248426008" lon="3.12794235458">
        <ele>17.8</ele>
        <time>2015-06-21T10:53:12Z</time>
      </trkpt>
      <trkpt lat="39.849251359673" lon="3.127942606037">
        <ele>18</ele>
        <time>2015-06-21T10:53:17Z</time>
      </trkpt>
      <trkpt lat="39.849251443492" lon="3.127936571069">
        <ele>17.8</ele>
        <time>2015-06-21T10:53:23Z</time>
      </trkpt>
      <trkpt lat="39.849269883672" lon="3.12791301793">
        <ele>17.6</ele>
        <time>2015-06-21T10:53:38Z</time>
      </trkpt>
      <trkpt lat="39.849279103762" lon="3.127887788411">
        <ele>17.6</ele>
        <time>2015-06-21T10:53:39Z</time>
      </trkpt>
      <trkpt lat="39.8493798542" lon="3.127759712979">
        <ele>17.8</ele>
        <time>2015-06-21T10:53:45Z</time>
      </trkpt>
      <trkpt lat="39.849528632925" lon="3.127609844607">
        <ele>18</ele>
        <time>2015-06-21T10:53:52Z</time>
      </trkpt>
      <trkpt lat="39.849666766637" lon="3.127487552686">
        <ele>18</ele>
        <time>2015-06-21T10:53:58Z</time>
      </trkpt>
      <trkpt lat="39.849739521529" lon="3.127408343731">
        <ele>18.2</ele>
        <time>2015-06-21T10:54:02Z</time>
      </trkpt>
      <trkpt lat="39.849852509541" lon="3.127278340462">
        <ele>18.6</ele>
        <time>2015-06-21T10:54:08Z</time>
      </trkpt>
      <trkpt lat="39.84991881037" lon="3.127165520088">
        <ele>18.8</ele>
        <time>2015-06-21T10:54:11Z</time>
      </trkpt>
      <trkpt lat="39.849961641879" lon="3.127150935582">
        <ele>18.8</ele>
        <time>2015-06-21T10:54:12Z</time>
      </trkpt>
      <trkpt lat="39.850078150289" lon="3.127046078013">
        <ele>18.6</ele>
        <time>2015-06-21T10:54:16Z</time>
      </trkpt>
      <trkpt lat="39.850328098547" lon="3.126801913266">
        <ele>18.8</ele>
        <time>2015-06-21T10:54:24Z</time>
      </trkpt>
      <trkpt lat="39.850453743228" lon="3.126676184766">
        <ele>18.8</ele>
        <time>2015-06-21T10:54:27Z</time>
      </trkpt>
      <trkpt lat="39.850544351567" lon="3.126598233096">
        <ele>19</ele>
        <time>2015-06-21T10:54:29Z</time>
      </trkpt>
      <trkpt lat="39.850669660972" lon="3.126483568704">
        <ele>19.4</ele>
        <time>2015-06-21T10:54:32Z</time>
      </trkpt>
      <trkpt lat="39.85086764145" lon="3.126289276262">
        <ele>20.2</ele>
        <time>2015-06-21T10:54:37Z</time>
      </trkpt>
      <trkpt lat="39.851015833442" lon="3.126127086497">
        <ele>20.4</ele>
        <time>2015-06-21T10:54:41Z</time>
      </trkpt>
      <trkpt lat="39.851200235242" lon="3.125949474036">
        <ele>21</ele>
        <time>2015-06-21T10:54:46Z</time>
      </trkpt>
      <trkpt lat="39.851253879402" lon="3.125902619215">
        <ele>21.4</ele>
        <time>2015-06-21T10:54:48Z</time>
      </trkpt>
      <trkpt lat="39.851289921572" lon="3.12586867252">
        <ele>21.8</ele>
        <time>2015-06-21T10:54:50Z</time>
      </trkpt>
      <trkpt lat="39.851386648698" lon="3.12577982438">
        <ele>22</ele>
        <time>2015-06-21T10:54:56Z</time>
      </trkpt>
      <trkpt lat="39.851437443012" lon="3.125744871857">
        <ele>22</ele>
        <time>2015-06-21T10:55:02Z</time>
      </trkpt>
      <trkpt lat="39.851463929816" lon="3.125725006754">
        <ele>22.2</ele>
        <time>2015-06-21T10:55:06Z</time>
      </trkpt>
      <trkpt lat="39.851552023585" lon="3.125617802253">
        <ele>22.2</ele>
        <time>2015-06-21T10:55:12Z</time>
      </trkpt>
      <trkpt lat="39.851588736307" lon="3.125573126726">
        <ele>22.4</ele>
        <time>2015-06-21T10:55:14Z</time>
      </trkpt>
      <trkpt lat="39.851606254478" lon="3.125551669062">
        <ele>22.6</ele>
        <time>2015-06-21T10:55:15Z</time>
      </trkpt>
      <trkpt lat="39.851684709062" lon="3.125487044613">
        <ele>22.8</ele>
        <time>2015-06-21T10:55:20Z</time>
      </trkpt>
      <trkpt lat="39.851772383736" lon="3.125390652763">
        <ele>22.8</ele>
        <time>2015-06-21T10:55:27Z</time>
      </trkpt>
      <trkpt lat="39.851778586342" lon="3.125378499008">
        <ele>22.8</ele>
        <time>2015-06-21T10:55:32Z</time>
      </trkpt>
      <trkpt lat="39.851832481959" lon="3.125332063282">
        <ele>23.2</ele>
        <time>2015-06-21T10:55:38Z</time>
      </trkpt>
      <trkpt lat="39.851921749194" lon="3.125227708627">
        <ele>23.2</ele>
        <time>2015-06-21T10:55:43Z</time>
      </trkpt>
      <trkpt lat="39.851998695036" lon="3.125030398701">
        <ele>23</ele>
        <time>2015-06-21T10:55:48Z</time>
      </trkpt>
      <trkpt lat="39.851994001172" lon="3.124971138668">
        <ele>23</ele>
        <time>2015-06-21T10:55:49Z</time>
      </trkpt>
      <trkpt lat="39.851956617898" lon="3.124792352741">
        <ele>22.6</ele>
        <time>2015-06-21T10:55:52Z</time>
      </trkpt>
      <trkpt lat="39.851861315695" lon="3.124301927772">
        <ele>21.8</ele>
        <time>2015-06-21T10:55:59Z</time>
      </trkpt>
      <trkpt lat="39.851787303518" lon="3.123957850777">
        <ele>21.6</ele>
        <time>2015-06-21T10:56:05Z</time>
      </trkpt>
      <trkpt lat="39.851729468408" lon="3.123659371318">
        <ele>21.4</ele>
        <time>2015-06-21T10:56:10Z</time>
      </trkpt>
      <trkpt lat="39.851719326309" lon="3.123594327774">
        <ele>21.4</ele>
        <time>2015-06-21T10:56:11Z</time>
      </trkpt>
      <trkpt lat="39.851579180941" lon="3.122900222635">
        <ele>21.6</ele>
        <time>2015-06-21T10:56:22Z</time>
      </trkpt>
      <trkpt lat="39.851540121287" lon="3.12267433043">
        <ele>22.6</ele>
        <time>2015-06-21T10:56:26Z</time>
      </trkpt>
      <trkpt lat="39.851505168764" lon="3.122498897263">
        <ele>23</ele>
        <time>2015-06-21T10:56:29Z</time>
      </trkpt>
      <trkpt lat="39.851435012261" lon="3.122137637373">
        <ele>23.8</ele>
        <time>2015-06-21T10:56:35Z</time>
      </trkpt>
      <trkpt lat="39.851384972318" lon="3.121893556445">
        <ele>24.4</ele>
        <time>2015-06-21T10:56:39Z</time>
      </trkpt>
      <trkpt lat="39.851296627092" lon="3.121393911386">
        <ele>24.6</ele>
        <time>2015-06-21T10:56:47Z</time>
      </trkpt>
      <trkpt lat="39.851286233536" lon="3.121328532566">
        <ele>24.8</ele>
        <time>2015-06-21T10:56:48Z</time>
      </trkpt>
      <trkpt lat="39.851188416763" lon="3.120816147019">
        <ele>25.8</ele>
        <time>2015-06-21T10:56:56Z</time>
      </trkpt>
      <trkpt lat="39.851176263008" lon="3.120752696036">
        <ele>26</ele>
        <time>2015-06-21T10:56:57Z</time>
      </trkpt>
      <trkpt lat="39.851164444529" lon="3.120571730815">
        <ele>26.6</ele>
        <time>2015-06-21T10:57:00Z</time>
      </trkpt>
      <trkpt lat="39.851193026808" lon="3.120469471635">
        <ele>26.6</ele>
        <time>2015-06-21T10:57:02Z</time>
      </trkpt>
      <trkpt lat="39.851313223254" lon="3.120305689309">
        <ele>26.8</ele>
        <time>2015-06-21T10:57:06Z</time>
      </trkpt>
      <trkpt lat="39.851392096933" lon="3.120242992697">
        <ele>26.8</ele>
        <time>2015-06-21T10:57:08Z</time>
      </trkpt>
      <trkpt lat="39.851612373265" lon="3.120097650551">
        <ele>26</ele>
        <time>2015-06-21T10:57:13Z</time>
      </trkpt>
      <trkpt lat="39.851989558765" lon="3.119831860502">
        <ele>25.2</ele>
        <time>2015-06-21T10:57:20Z</time>
      </trkpt>
      <trkpt lat="39.852043789658" lon="3.119789783364">
        <ele>24.6</ele>
        <time>2015-06-21T10:57:21Z</time>
      </trkpt>
      <trkpt lat="39.852155268928" lon="3.119681489216">
        <ele>23.2</ele>
        <time>2015-06-21T10:57:23Z</time>
      </trkpt>
      <trkpt lat="39.852282757627" lon="3.11948166472">
        <ele>22.2</ele>
        <time>2015-06-21T10:57:26Z</time>
      </trkpt>
      <trkpt lat="39.852447713419" lon="3.119088134515">
        <ele>22.6</ele>
        <time>2015-06-21T10:57:31Z</time>
      </trkpt>
      <trkpt lat="39.852550894608" lon="3.118924100732">
        <ele>22.8</ele>
        <time>2015-06-21T10:57:34Z</time>
      </trkpt>
      <trkpt lat="39.852599677266" lon="3.118885124897">
        <ele>23</ele>
        <time>2015-06-21T10:57:35Z</time>
      </trkpt>
      <trkpt lat="39.852804195626" lon="3.118824020846">
        <ele>23</ele>
        <time>2015-06-21T10:57:39Z</time>
      </trkpt>
      <trkpt lat="39.85284912261" lon="3.118819997534">
        <ele>22.6</ele>
        <time>2015-06-21T10:57:40Z</time>
      </trkpt>
      <trkpt lat="39.853123797473" lon="3.11879351073">
        <ele>22.8</ele>
        <time>2015-06-21T10:57:46Z</time>
      </trkpt>
      <trkpt lat="39.853375422111" lon="3.118738860742">
        <ele>22.8</ele>
        <time>2015-06-21T10:57:52Z</time>
      </trkpt>
      <trkpt lat="39.853415319955" lon="3.118688988437">
        <ele>22.6</ele>
        <time>2015-06-21T10:57:55Z</time>
      </trkpt>
      <trkpt lat="39.853445578614" lon="3.118589662922">
        <ele>22.6</ele>
        <time>2015-06-21T10:58:00Z</time>
      </trkpt>
      <trkpt lat="39.853373661912" lon="3.118611120586">
        <ele>22.2</ele>
        <time>2015-06-21T10:58:03Z</time>
      </trkpt>
      <trkpt lat="39.853344911995" lon="3.118609863301">
        <ele>22.2</ele>
        <time>2015-06-21T10:58:04Z</time>
      </trkpt>
      <trkpt lat="39.853215998373" lon="3.118568456715">
        <ele>22.4</ele>
        <time>2015-06-21T10:58:08Z</time>
      </trkpt>
      <trkpt lat="39.853184147153" lon="3.118508190854">
        <ele>22.6</ele>
        <time>2015-06-21T10:58:10Z</time>
      </trkpt>
      <trkpt lat="39.853170317018" lon="3.118470472304">
        <ele>22.8</ele>
        <time>2015-06-21T10:58:11Z</time>
      </trkpt>
      <trkpt lat="39.853031428935" lon="3.11821515963">
        <ele>23</ele>
        <time>2015-06-21T10:58:17Z</time>
      </trkpt>
      <trkpt lat="39.852818361037" lon="3.117840572519">
        <ele>22.4</ele>
        <time>2015-06-21T10:58:24Z</time>
      </trkpt>
      <trkpt lat="39.852531113324" lon="3.117324750393">
        <ele>21.8</ele>
        <time>2015-06-21T10:58:32Z</time>
      </trkpt>
      <trkpt lat="39.852329612448" lon="3.116962149399">
        <ele>21</ele>
        <time>2015-06-21T10:58:37Z</time>
      </trkpt>
      <trkpt lat="39.852206482337" lon="3.116745309646">
        <ele>20.2</ele>
        <time>2015-06-21T10:58:40Z</time>
      </trkpt>
      <trkpt lat="39.852165746303" lon="3.116669872546">
        <ele>19.8</ele>
        <time>2015-06-21T10:58:41Z</time>
      </trkpt>
      <trkpt lat="39.8519279518" lon="3.116240132533">
        <ele>19.6</ele>
        <time>2015-06-21T10:58:47Z</time>
      </trkpt>
      <trkpt lat="39.851730055141" lon="3.11584643469">
        <ele>18.4</ele>
        <time>2015-06-21T10:58:53Z</time>
      </trkpt>
      <trkpt lat="39.851708094563" lon="3.115685753667">
        <ele>18</ele>
        <time>2015-06-21T10:58:55Z</time>
      </trkpt>
      <trkpt lat="39.851758888877" lon="3.115488611379">
        <ele>17.8</ele>
        <time>2015-06-21T10:58:58Z</time>
      </trkpt>
      <trkpt lat="39.851872463622" lon="3.115290798539">
        <ele>17.8</ele>
        <time>2015-06-21T10:59:01Z</time>
      </trkpt>
      <trkpt lat="39.851915546588" lon="3.115220390579">
        <ele>17.6</ele>
        <time>2015-06-21T10:59:02Z</time>
      </trkpt>
      <trkpt lat="39.851992073335" lon="3.115095751726">
        <ele>17.4</ele>
        <time>2015-06-21T10:59:04Z</time>
      </trkpt>
      <trkpt lat="39.852267334931" lon="3.114722924814">
        <ele>16.8</ele>
        <time>2015-06-21T10:59:10Z</time>
      </trkpt>
      <trkpt lat="39.852408569946" lon="3.114518322635">
        <ele>16.2</ele>
        <time>2015-06-21T10:59:13Z</time>
      </trkpt>
      <trkpt lat="39.852736386055" lon="3.114047846588">
        <ele>16.8</ele>
        <time>2015-06-21T10:59:20Z</time>
      </trkpt>
      <trkpt lat="39.85281978596" lon="3.11391692131">
        <ele>17.2</ele>
        <time>2015-06-21T10:59:22Z</time>
      </trkpt>
      <trkpt lat="39.853089934597" lon="3.113517691413">
        <ele>16.8</ele>
        <time>2015-06-21T10:59:28Z</time>
      </trkpt>
      <trkpt lat="39.853462845328" lon="3.11296809023">
        <ele>16.4</ele>
        <time>2015-06-21T10:59:36Z</time>
      </trkpt>
      <trkpt lat="39.853513555823" lon="3.112893323682">
        <ele>16.2</ele>
        <time>2015-06-21T10:59:37Z</time>
      </trkpt>
      <trkpt lat="39.853562841395" lon="3.112820820247">
        <ele>16</ele>
        <time>2015-06-21T10:59:38Z</time>
      </trkpt>
      <trkpt lat="39.853935081574" lon="3.112274152729">
        <ele>16.2</ele>
        <time>2015-06-21T10:59:46Z</time>
      </trkpt>
      <trkpt lat="39.853981768757" lon="3.112199972914">
        <ele>16.6</ele>
        <time>2015-06-21T10:59:47Z</time>
      </trkpt>
      <trkpt lat="39.854314781644" lon="3.111612820819">
        <ele>15.2</ele>
        <time>2015-06-21T10:59:55Z</time>
      </trkpt>
      <trkpt lat="39.854354679488" lon="3.111537970452">
        <ele>14.8</ele>
        <time>2015-06-21T10:59:56Z</time>
      </trkpt>
      <trkpt lat="39.854683417606" lon="3.110873956334">
        <ele>13.6</ele>
        <time>2015-06-21T11:00:04Z</time>
      </trkpt>
      <trkpt lat="39.854758770887" lon="3.110705061049">
        <ele>13.8</ele>
        <time>2015-06-21T11:00:06Z</time>
      </trkpt>
      <trkpt lat="39.855055741604" lon="3.110020343638">
        <ele>14.4</ele>
        <time>2015-06-21T11:00:14Z</time>
      </trkpt>
      <trkpt lat="39.855094046887" lon="3.109929567661">
        <ele>14.4</ele>
        <time>2015-06-21T11:00:15Z</time>
      </trkpt>
      <trkpt lat="39.855248692942" lon="3.109557662758">
        <ele>14.6</ele>
        <time>2015-06-21T11:00:19Z</time>
      </trkpt>
      <trkpt lat="39.855407362309" lon="3.109194726488">
        <ele>13.6</ele>
        <time>2015-06-21T11:00:23Z</time>
      </trkpt>
      <trkpt lat="39.85544751161" lon="3.109103447597">
        <ele>13.6</ele>
        <time>2015-06-21T11:00:24Z</time>
      </trkpt>
      <trkpt lat="39.855720677731" lon="3.108494251105">
        <ele>14.4</ele>
        <time>2015-06-21T11:00:31Z</time>
      </trkpt>
      <trkpt lat="39.855759653566" lon="3.108403894223">
        <ele>14.4</ele>
        <time>2015-06-21T11:00:32Z</time>
      </trkpt>
      <trkpt lat="39.855796701564" lon="3.108319991404">
        <ele>14.6</ele>
        <time>2015-06-21T11:00:33Z</time>
      </trkpt>
      <trkpt lat="39.855944474461" lon="3.107976752599">
        <ele>13.6</ele>
        <time>2015-06-21T11:00:37Z</time>
      </trkpt>
      <trkpt lat="39.85619769166" lon="3.107390019599">
        <ele>14.4</ele>
        <time>2015-06-21T11:00:44Z</time>
      </trkpt>
      <trkpt lat="39.856497512223" lon="3.106716282477">
        <ele>13.4</ele>
        <time>2015-06-21T11:00:52Z</time>
      </trkpt>
      <trkpt lat="39.856537829162" lon="3.106625841776">
        <ele>13.2</ele>
        <time>2015-06-21T11:00:53Z</time>
      </trkpt>
      <trkpt lat="39.856642938188" lon="3.106379497735">
        <ele>12.6</ele>
        <time>2015-06-21T11:00:56Z</time>
      </trkpt>
      <trkpt lat="39.856927000779" lon="3.105711795581">
        <ele>12.2</ele>
        <time>2015-06-21T11:01:04Z</time>
      </trkpt>
      <trkpt lat="39.857211985379" lon="3.105052140051">
        <ele>12.8</ele>
        <time>2015-06-21T11:01:12Z</time>
      </trkpt>
      <trkpt lat="39.857323883744" lon="3.10479741411">
        <ele>13.4</ele>
        <time>2015-06-21T11:01:15Z</time>
      </trkpt>
      <trkpt lat="39.857596463132" lon="3.104156534036">
        <ele>14</ele>
        <time>2015-06-21T11:01:23Z</time>
      </trkpt>
      <trkpt lat="39.857631164198" lon="3.104087048085">
        <ele>14.8</ele>
        <time>2015-06-21T11:01:24Z</time>
      </trkpt>
      <trkpt lat="39.857664021246" lon="3.104017478315">
        <ele>15.2</ele>
        <time>2015-06-21T11:01:25Z</time>
      </trkpt>
      <trkpt lat="39.857852613996" lon="3.103516073057">
        <ele>15.2</ele>
        <time>2015-06-21T11:01:32Z</time>
      </trkpt>
      <trkpt lat="39.857941629774" lon="3.103232094285">
        <ele>14</ele>
        <time>2015-06-21T11:01:36Z</time>
      </trkpt>
      <trkpt lat="39.857972894261" lon="3.10307577185">
        <ele>13.2</ele>
        <time>2015-06-21T11:01:38Z</time>
      </trkpt>
      <trkpt lat="39.857993429916" lon="3.103006621175">
        <ele>12.6</ele>
        <time>2015-06-21T11:01:39Z</time>
      </trkpt>
      <trkpt lat="39.858071716862" lon="3.102733371235">
        <ele>13.8</ele>
        <time>2015-06-21T11:01:43Z</time>
      </trkpt>
      <trkpt lat="39.858157798975" lon="3.102452577585">
        <ele>14.8</ele>
        <time>2015-06-21T11:01:47Z</time>
      </trkpt>
      <trkpt lat="39.85821521499" lon="3.102233139443">
        <ele>14.8</ele>
        <time>2015-06-21T11:01:50Z</time>
      </trkpt>
      <trkpt lat="39.858346224087" lon="3.101789401657">
        <ele>14.8</ele>
        <time>2015-06-21T11:01:56Z</time>
      </trkpt>
      <trkpt lat="39.858470527664" lon="3.101362092395">
        <ele>13.6</ele>
        <time>2015-06-21T11:02:02Z</time>
      </trkpt>
      <trkpt lat="39.858485615084" lon="3.101298222317">
        <ele>13.4</ele>
        <time>2015-06-21T11:02:03Z</time>
      </trkpt>
      <trkpt lat="39.858580582011" lon="3.100717189009">
        <ele>13.6</ele>
        <time>2015-06-21T11:02:12Z</time>
      </trkpt>
      <trkpt lat="39.858649062134" lon="3.100217041036">
        <ele>14.4</ele>
        <time>2015-06-21T11:02:20Z</time>
      </trkpt>
      <trkpt lat="39.858744531975" lon="3.099754276337">
        <ele>14.4</ele>
        <time>2015-06-21T11:02:28Z</time>
      </trkpt>
      <trkpt lat="39.858828518613" lon="3.099497622559">
        <ele>14.6</ele>
        <time>2015-06-21T11:02:33Z</time>
      </trkpt>
      <trkpt lat="39.858860369833" lon="3.099405254021">
        <ele>14.8</ele>
        <time>2015-06-21T11:02:35Z</time>
      </trkpt>
      <trkpt lat="39.858884593524" lon="3.099363847435">
        <ele>14.8</ele>
        <time>2015-06-21T11:02:36Z</time>
      </trkpt>
      <trkpt lat="39.858974196035" lon="3.099193611046">
        <ele>14.2</ele>
        <time>2015-06-21T11:02:40Z</time>
      </trkpt>
      <trkpt lat="39.859172511789" lon="3.098893790483">
        <ele>14.4</ele>
        <time>2015-06-21T11:02:48Z</time>
      </trkpt>
      <trkpt lat="39.859206709941" lon="3.098854479372">
        <ele>14.8</ele>
        <time>2015-06-21T11:02:49Z</time>
      </trkpt>
      <trkpt lat="39.859385244411" lon="3.098687931019">
        <ele>15.2</ele>
        <time>2015-06-21T11:02:53Z</time>
      </trkpt>
      <trkpt lat="39.859606526571" lon="3.09851518006">
        <ele>15.8</ele>
        <time>2015-06-21T11:02:57Z</time>
      </trkpt>
      <trkpt lat="39.859795119321" lon="3.098377465443">
        <ele>15.4</ele>
        <time>2015-06-21T11:03:00Z</time>
      </trkpt>
      <trkpt lat="39.860282107711" lon="3.098020061227">
        <ele>14.8</ele>
        <time>2015-06-21T11:03:08Z</time>
      </trkpt>
      <trkpt lat="39.86051856111" lon="3.097843286956">
        <ele>14.6</ele>
        <time>2015-06-21T11:03:12Z</time>
      </trkpt>
      <trkpt lat="39.860993228107" lon="3.097460904678">
        <ele>14.8</ele>
        <time>2015-06-21T11:03:20Z</time>
      </trkpt>
      <trkpt lat="39.861044609154" lon="3.097417067341">
        <ele>15</ele>
        <time>2015-06-21T11:03:21Z</time>
      </trkpt>
      <trkpt lat="39.861474600624" lon="3.096949608778">
        <ele>14.8</ele>
        <time>2015-06-21T11:03:29Z</time>
      </trkpt>
      <trkpt lat="39.861864861888" lon="3.096421549078">
        <ele>15</ele>
        <time>2015-06-21T11:03:37Z</time>
      </trkpt>
      <trkpt lat="39.861961421376" lon="3.096291042895">
        <ele>15.2</ele>
        <time>2015-06-21T11:03:39Z</time>
      </trkpt>
      <trkpt lat="39.862354700124" lon="3.095763737566">
        <ele>15</ele>
        <time>2015-06-21T11:03:47Z</time>
      </trkpt>
      <trkpt lat="39.862593332817" lon="3.095437765475">
        <ele>15.4</ele>
        <time>2015-06-21T11:03:52Z</time>
      </trkpt>
      <trkpt lat="39.862975631276" lon="3.094918590589">
        <ele>15.4</ele>
        <time>2015-06-21T11:04:00Z</time>
      </trkpt>
      <trkpt lat="39.863160452171" lon="3.09465699149">
        <ele>15.2</ele>
        <time>2015-06-21T11:04:04Z</time>
      </trkpt>
      <trkpt lat="39.863517521111" lon="3.094124908478">
        <ele>15</ele>
        <time>2015-06-21T11:04:12Z</time>
      </trkpt>
      <trkpt lat="39.863742658945" lon="3.093774125963">
        <ele>14.4</ele>
        <time>2015-06-21T11:04:17Z</time>
      </trkpt>
      <trkpt lat="39.864027140631" lon="3.09329241817">
        <ele>13.4</ele>
        <time>2015-06-21T11:04:24Z</time>
      </trkpt>
      <trkpt lat="39.864066200285" lon="3.093223099857">
        <ele>12.8</ele>
        <time>2015-06-21T11:04:25Z</time>
      </trkpt>
      <trkpt lat="39.864418910637" lon="3.09259001495">
        <ele>13.2</ele>
        <time>2015-06-21T11:04:34Z</time>
      </trkpt>
      <trkpt lat="39.864461574508" lon="3.092516421868">
        <ele>13.2</ele>
        <time>2015-06-21T11:04:35Z</time>
      </trkpt>
      <trkpt lat="39.86478662459" lon="3.091935975293">
        <ele>12.8</ele>
        <time>2015-06-21T11:04:43Z</time>
      </trkpt>
      <trkpt lat="39.864992148778" lon="3.09157915781">
        <ele>13</ele>
        <time>2015-06-21T11:04:48Z</time>
      </trkpt>
      <trkpt lat="39.865330693719" lon="3.091045985151">
        <ele>14.4</ele>
        <time>2015-06-21T11:04:56Z</time>
      </trkpt>
      <trkpt lat="39.865460864626" lon="3.090865522844">
        <ele>16</ele>
        <time>2015-06-21T11:04:59Z</time>
      </trkpt>
      <trkpt lat="39.865619450174" lon="3.090634014766">
        <ele>15.4</ele>
        <time>2015-06-21T11:05:03Z</time>
      </trkpt>
      <trkpt lat="39.865665215348" lon="3.090584645375">
        <ele>14.8</ele>
        <time>2015-06-21T11:05:04Z</time>
      </trkpt>
      <trkpt lat="39.865899657091" lon="3.090324638837">
        <ele>14.8</ele>
        <time>2015-06-21T11:05:09Z</time>
      </trkpt>
      <trkpt lat="39.866372144794" lon="3.089833710954">
        <ele>14.2</ele>
        <time>2015-06-21T11:05:18Z</time>
      </trkpt>
      <trkpt lat="39.866841447375" lon="3.089432888496">
        <ele>14.4</ele>
        <time>2015-06-21T11:05:26Z</time>
      </trkpt>
      <trkpt lat="39.867317706933" lon="3.089050841494">
        <ele>14.4</ele>
        <time>2015-06-21T11:05:34Z</time>
      </trkpt>
      <trkpt lat="39.867556507264" lon="3.088860488545">
        <ele>14.4</ele>
        <time>2015-06-21T11:05:38Z</time>
      </trkpt>
      <trkpt lat="39.868020110153" lon="3.08848456033">
        <ele>14.8</ele>
        <time>2015-06-21T11:05:46Z</time>
      </trkpt>
      <trkpt lat="39.868083644955" lon="3.08843426893">
        <ele>14.8</ele>
        <time>2015-06-21T11:05:47Z</time>
      </trkpt>
      <trkpt lat="39.868254635715" lon="3.088296051399">
        <ele>13.8</ele>
        <time>2015-06-21T11:05:50Z</time>
      </trkpt>
      <trkpt lat="39.868482791033" lon="3.088113661255">
        <ele>12.8</ele>
        <time>2015-06-21T11:05:54Z</time>
      </trkpt>
      <trkpt lat="39.868538782125" lon="3.088069237185">
        <ele>12.8</ele>
        <time>2015-06-21T11:05:55Z</time>
      </trkpt>
      <trkpt lat="39.869035074424" lon="3.087650728918">
        <ele>13</ele>
        <time>2015-06-21T11:06:04Z</time>
      </trkpt>
      <trkpt lat="39.869095340285" lon="3.087603874097">
        <ele>13</ele>
        <time>2015-06-21T11:06:05Z</time>
      </trkpt>
      <trkpt lat="39.869558607898" lon="3.087245380234">
        <ele>13</ele>
        <time>2015-06-21T11:06:13Z</time>
      </trkpt>
      <trkpt lat="39.870069400884" lon="3.086835505324">
        <ele>13</ele>
        <time>2015-06-21T11:06:22Z</time>
      </trkpt>
      <trkpt lat="39.870128912374" lon="3.086791165073">
        <ele>13.2</ele>
        <time>2015-06-21T11:06:23Z</time>
      </trkpt>
      <trkpt lat="39.870521269113" lon="3.086523866282">
        <ele>14</ele>
        <time>2015-06-21T11:06:30Z</time>
      </trkpt>
      <trkpt lat="39.870571141418" lon="3.086494026718">
        <ele>14.2</ele>
        <time>2015-06-21T11:06:31Z</time>
      </trkpt>
      <trkpt lat="39.8707369354" lon="3.086392186633">
        <ele>15.2</ele>
        <time>2015-06-21T11:06:34Z</time>
      </trkpt>
      <trkpt lat="39.871107666837" lon="3.08616696498">
        <ele>14.8</ele>
        <time>2015-06-21T11:06:41Z</time>
      </trkpt>
      <trkpt lat="39.871497760463" lon="3.085923386966">
        <ele>14.8</ele>
        <time>2015-06-21T11:06:49Z</time>
      </trkpt>
      <trkpt lat="39.871884668967" lon="3.085689112861">
        <ele>14.2</ele>
        <time>2015-06-21T11:06:56Z</time>
      </trkpt>
      <trkpt lat="39.872362940181" lon="3.085403038614">
        <ele>14</ele>
        <time>2015-06-21T11:07:04Z</time>
      </trkpt>
      <trkpt lat="39.872785974674" lon="3.085138254393">
        <ele>14.6</ele>
        <time>2015-06-21T11:07:12Z</time>
      </trkpt>
      <trkpt lat="39.873240441292" lon="3.084864166263">
        <ele>14.2</ele>
        <time>2015-06-21T11:07:19Z</time>
      </trkpt>
      <trkpt lat="39.873790042475" lon="3.084539032362">
        <ele>14.2</ele>
        <time>2015-06-21T11:07:27Z</time>
      </trkpt>
      <trkpt lat="39.873862881186" lon="3.084494273016">
        <ele>14.2</ele>
        <time>2015-06-21T11:07:28Z</time>
      </trkpt>
      <trkpt lat="39.874404687202" lon="3.084176012273">
        <ele>15</ele>
        <time>2015-06-21T11:07:36Z</time>
      </trkpt>
      <trkpt lat="39.874674500563" lon="3.08401616944">
        <ele>14.2</ele>
        <time>2015-06-21T11:07:40Z</time>
      </trkpt>
      <trkpt lat="39.875213540552" lon="3.083698327792">
        <ele>14.2</ele>
        <time>2015-06-21T11:07:48Z</time>
      </trkpt>
      <trkpt lat="39.875350081703" lon="3.083632026963">
        <ele>14.2</ele>
        <time>2015-06-21T11:07:50Z</time>
      </trkpt>
      <trkpt lat="39.875902784189" lon="3.083329859468">
        <ele>13.6</ele>
        <time>2015-06-21T11:07:58Z</time>
      </trkpt>
      <trkpt lat="39.87646093491" lon="3.083026853783">
        <ele>14.2</ele>
        <time>2015-06-21T11:08:06Z</time>
      </trkpt>
      <trkpt lat="39.876738208162" lon="3.082878661791">
        <ele>13.8</ele>
        <time>2015-06-21T11:08:10Z</time>
      </trkpt>
      <trkpt lat="39.877284791861" lon="3.082597784322">
        <ele>13.6</ele>
        <time>2015-06-21T11:08:18Z</time>
      </trkpt>
      <trkpt lat="39.877480090131" lon="3.082496028056">
        <ele>13</ele>
        <time>2015-06-21T11:08:21Z</time>
      </trkpt>
      <trkpt lat="39.877818215977" lon="3.082319505242">
        <ele>14.2</ele>
        <time>2015-06-21T11:08:26Z</time>
      </trkpt>
      <trkpt lat="39.878220211901" lon="3.082112975226">
        <ele>13</ele>
        <time>2015-06-21T11:08:32Z</time>
      </trkpt>
      <trkpt lat="39.878413330877" lon="3.08201289534">
        <ele>12.4</ele>
        <time>2015-06-21T11:08:35Z</time>
      </trkpt>
      <trkpt lat="39.878932421944" lon="3.081756660657">
        <ele>13</ele>
        <time>2015-06-21T11:08:43Z</time>
      </trkpt>
      <trkpt lat="39.87912302635" lon="3.081671416734">
        <ele>12.8</ele>
        <time>2015-06-21T11:08:46Z</time>
      </trkpt>
      <trkpt lat="39.879652259516" lon="3.081468239478">
        <ele>12.4</ele>
        <time>2015-06-21T11:08:54Z</time>
      </trkpt>
      <trkpt lat="39.87971646487" lon="3.081445524529">
        <ele>12.4</ele>
        <time>2015-06-21T11:08:55Z</time>
      </trkpt>
      <trkpt lat="39.880283332767" lon="3.081238994513">
        <ele>12.8</ele>
        <time>2015-06-21T11:09:04Z</time>
      </trkpt>
      <trkpt lat="39.880722879603" lon="3.081071775608">
        <ele>12.6</ele>
        <time>2015-06-21T11:09:11Z</time>
      </trkpt>
      <trkpt lat="39.881039883061" lon="3.080959374329">
        <ele>14.2</ele>
        <time>2015-06-21T11:09:16Z</time>
      </trkpt>
      <trkpt lat="39.881239120824" lon="3.080880835926">
        <ele>14.8</ele>
        <time>2015-06-21T11:09:19Z</time>
      </trkpt>
      <trkpt lat="39.881427545936" lon="3.080808583948">
        <ele>15.2</ele>
        <time>2015-06-21T11:09:22Z</time>
      </trkpt>
      <trkpt lat="39.881922832407" lon="3.080634324247">
        <ele>15.6</ele>
        <time>2015-06-21T11:09:30Z</time>
      </trkpt>
      <trkpt lat="39.882096589194" lon="3.080570118893">
        <ele>16.2</ele>
        <time>2015-06-21T11:09:33Z</time>
      </trkpt>
      <trkpt lat="39.882507386113" lon="3.080416227209">
        <ele>17.2</ele>
        <time>2015-06-21T11:09:40Z</time>
      </trkpt>
      <trkpt lat="39.883050617052" lon="3.080194190678">
        <ele>16.4</ele>
        <time>2015-06-21T11:09:49Z</time>
      </trkpt>
      <trkpt lat="39.883107027239" lon="3.080156555947">
        <ele>16.2</ele>
        <time>2015-06-21T11:09:50Z</time>
      </trkpt>
      <trkpt lat="39.883156731906" lon="3.080117328655">
        <ele>16</ele>
        <time>2015-06-21T11:09:51Z</time>
      </trkpt>
      <trkpt lat="39.883362675189" lon="3.079904763671">
        <ele>15.6</ele>
        <time>2015-06-21T11:09:55Z</time>
      </trkpt>
      <trkpt lat="39.883657801888" lon="3.079669483738">
        <ele>15.4</ele>
        <time>2015-06-21T11:10:01Z</time>
      </trkpt>
      <trkpt lat="39.883840443489" lon="3.079625981677">
        <ele>15.6</ele>
        <time>2015-06-21T11:10:06Z</time>
      </trkpt>
      <trkpt lat="39.883922586109" lon="3.079647774617">
        <ele>14.8</ele>
        <time>2015-06-21T11:10:09Z</time>
      </trkpt>
      <trkpt lat="39.883999783408" lon="3.07964752316">
        <ele>14.2</ele>
        <time>2015-06-21T11:10:12Z</time>
      </trkpt>
      <trkpt lat="39.88397698464" lon="3.079566721644">
        <ele>14</ele>
        <time>2015-06-21T11:10:14Z</time>
      </trkpt>
      <trkpt lat="39.883867014112" lon="3.079501426643">
        <ele>14.2</ele>
        <time>2015-06-21T11:10:17Z</time>
      </trkpt>
      <trkpt lat="39.883828038277" lon="3.079355497764">
        <ele>14.2</ele>
        <time>2015-06-21T11:10:20Z</time>
      </trkpt>
      <trkpt lat="39.883814040504" lon="3.079310989875">
        <ele>14.2</ele>
        <time>2015-06-21T11:10:21Z</time>
      </trkpt>
      <trkpt lat="39.883763330009" lon="3.079176795656">
        <ele>14.2</ele>
        <time>2015-06-21T11:10:25Z</time>
      </trkpt>
      <trkpt lat="39.883767856235" lon="3.079185093737">
        <ele>14.4</ele>
        <time>2015-06-21T11:10:29Z</time>
      </trkpt>
      <trkpt lat="39.883760228706" lon="3.079191296343">
        <ele>14.8</ele>
        <time>2015-06-21T11:10:34Z</time>
      </trkpt>
      <trkpt lat="39.883797695799" lon="3.079292382057">
        <ele>14.2</ele>
        <time>2015-06-21T11:10:39Z</time>
      </trkpt>
      <trkpt lat="39.883846394638" lon="3.079441747515">
        <ele>13.8</ele>
        <time>2015-06-21T11:10:45Z</time>
      </trkpt>
      <trkpt lat="39.883845891724" lon="3.079480639531">
        <ele>13.8</ele>
        <time>2015-06-21T11:10:47Z</time>
      </trkpt>
      <trkpt lat="39.88383700691" lon="3.079614917569">
        <ele>14</ele>
        <time>2015-06-21T11:10:53Z</time>
      </trkpt>
      <trkpt lat="39.883866930293" lon="3.079663113494">
        <ele>14</ele>
        <time>2015-06-21T11:10:58Z</time>
      </trkpt>
      <trkpt lat="39.883865756827" lon="3.079663113494">
        <ele>14</ele>
        <time>2015-06-21T11:11:06Z</time>
      </trkpt>
      <trkpt lat="39.883870283053" lon="3.079653055214">
        <ele>14</ele>
        <time>2015-06-21T11:11:15Z</time>
      </trkpt>
      <trkpt lat="39.883824685517" lon="3.079645930599">
        <ele>13.8</ele>
        <time>2015-06-21T11:11:20Z</time>
      </trkpt>
      <trkpt lat="39.883823260594" lon="3.079641488192">
        <ele>14.2</ele>
        <time>2015-06-21T11:11:26Z</time>
      </trkpt>
      <trkpt lat="39.883822338585" lon="3.079643416029">
        <ele>14.2</ele>
        <time>2015-06-21T11:11:35Z</time>
      </trkpt>
      <trkpt lat="39.883821165119" lon="3.079639727993">
        <ele>14.2</ele>
        <time>2015-06-21T11:11:50Z</time>
      </trkpt>
      <trkpt lat="39.883798869265" lon="3.079599913968">
        <ele>14.2</ele>
        <time>2015-06-21T11:11:52Z</time>
      </trkpt>
      <trkpt lat="39.883797276704" lon="3.079570661137">
        <ele>14.2</ele>
        <time>2015-06-21T11:11:53Z</time>
      </trkpt>
      <trkpt lat="39.88383197777" lon="3.079437472746">
        <ele>14.2</ele>
        <time>2015-06-21T11:11:58Z</time>
      </trkpt>
      <trkpt lat="39.883796187057" lon="3.079324987648">
        <ele>14.2</ele>
        <time>2015-06-21T11:12:02Z</time>
      </trkpt>
      <trkpt lat="39.883790403546" lon="3.079291040953">
        <ele>14.2</ele>
        <time>2015-06-21T11:12:03Z</time>
      </trkpt>
      <trkpt lat="39.883691329488" lon="3.079107142067">
        <ele>14.4</ele>
        <time>2015-06-21T11:12:08Z</time>
      </trkpt>
      <trkpt lat="39.883622681727" lon="3.078990717476">
        <ele>21.2</ele>
        <time>2015-06-21T11:12:11Z</time>
      </trkpt>
      <trkpt lat="39.883617149673" lon="3.078941180447">
        <ele>17.2</ele>
        <time>2015-06-21T11:12:12Z</time>
      </trkpt>
      <trkpt lat="39.88361488656" lon="3.07888309388">
        <ele>17.2</ele>
        <time>2015-06-21T11:12:13Z</time>
      </trkpt>
      <trkpt lat="39.883613629275" lon="3.078479421576">
        <ele>17.4</ele>
        <time>2015-06-21T11:12:19Z</time>
      </trkpt>
      <trkpt lat="39.883604576823" lon="3.077776431623">
        <ele>17.6</ele>
        <time>2015-06-21T11:12:29Z</time>
      </trkpt>
      <trkpt lat="39.883611785257" lon="3.077702167989">
        <ele>18</ele>
        <time>2015-06-21T11:12:30Z</time>
      </trkpt>
      <trkpt lat="39.883612539628" lon="3.077637124445">
        <ele>18.2</ele>
        <time>2015-06-21T11:12:31Z</time>
      </trkpt>
      <trkpt lat="39.883612874904" lon="3.077412154249">
        <ele>18.4</ele>
        <time>2015-06-21T11:12:34Z</time>
      </trkpt>
      <trkpt lat="39.883674900964" lon="3.076880155056">
        <ele>18.4</ele>
        <time>2015-06-21T11:12:41Z</time>
      </trkpt>
      <trkpt lat="39.883800210369" lon="3.076392077019">
        <ele>18.6</ele>
        <time>2015-06-21T11:12:48Z</time>
      </trkpt>
      <trkpt lat="39.884000873055" lon="3.075914392538">
        <ele>18.6</ele>
        <time>2015-06-21T11:12:55Z</time>
      </trkpt>
      <trkpt lat="39.884311506269" lon="3.075420614809">
        <ele>19</ele>
        <time>2015-06-21T11:13:03Z</time>
      </trkpt>
      <trkpt lat="39.884498841734" lon="3.075205199979">
        <ele>19.2</ele>
        <time>2015-06-21T11:13:07Z</time>
      </trkpt>
      <trkpt lat="39.884696067841" lon="3.075026162595">
        <ele>19.2</ele>
        <time>2015-06-21T11:13:11Z</time>
      </trkpt>
      <trkpt lat="39.885139135075" lon="3.074740339805">
        <ele>19.2</ele>
        <time>2015-06-21T11:13:19Z</time>
      </trkpt>
      <trkpt lat="39.885618076841" lon="3.074581754257">
        <ele>19.6</ele>
        <time>2015-06-21T11:13:27Z</time>
      </trkpt>
      <trkpt lat="39.886204726022" lon="3.074484524217">
        <ele>19.8</ele>
        <time>2015-06-21T11:13:36Z</time>
      </trkpt>
      <trkpt lat="39.886351241634" lon="3.07446080344">
        <ele>19.8</ele>
        <time>2015-06-21T11:13:38Z</time>
      </trkpt>
      <trkpt lat="39.886914337676" lon="3.074375978612">
        <ele>19.6</ele>
        <time>2015-06-21T11:13:46Z</time>
      </trkpt>
      <trkpt lat="39.886998240495" lon="3.074365333599">
        <ele>19.6</ele>
        <time>2015-06-21T11:13:47Z</time>
      </trkpt>
      <trkpt lat="39.887574663758" lon="3.074279083848">
        <ele>19.6</ele>
        <time>2015-06-21T11:13:55Z</time>
      </trkpt>
      <trkpt lat="39.887817738858" lon="3.074242454945">
        <ele>19.6</ele>
        <time>2015-06-21T11:13:58Z</time>
      </trkpt>
      <trkpt lat="39.888420062192" lon="3.074157462479">
        <ele>19</ele>
        <time>2015-06-21T11:14:06Z</time>
      </trkpt>
      <trkpt lat="39.888643858922" lon="3.07412385106">
        <ele>18.2</ele>
        <time>2015-06-21T11:14:09Z</time>
      </trkpt>
      <trkpt lat="39.888785848308" lon="3.074104321233">
        <ele>17.8</ele>
        <time>2015-06-21T11:14:11Z</time>
      </trkpt>
      <trkpt lat="39.889329414523" lon="3.074023854993">
        <ele>17.4</ele>
        <time>2015-06-21T11:14:19Z</time>
      </trkpt>
      <trkpt lat="39.889394541886" lon="3.074013712894">
        <ele>17.2</ele>
        <time>2015-06-21T11:14:20Z</time>
      </trkpt>
      <trkpt lat="39.889449443331" lon="3.074007091193">
        <ele>17</ele>
        <time>2015-06-21T11:14:21Z</time>
      </trkpt>
      <trkpt lat="39.889899802818" lon="3.073962750942">
        <ele>16.2</ele>
        <time>2015-06-21T11:14:28Z</time>
      </trkpt>
      <trkpt lat="39.889961325964" lon="3.07397549143">
        <ele>16.2</ele>
        <time>2015-06-21T11:14:29Z</time>
      </trkpt>
      <trkpt lat="39.890066015895" lon="3.074010611591">
        <ele>16.4</ele>
        <time>2015-06-21T11:14:31Z</time>
      </trkpt>
      <trkpt lat="39.89029442267" lon="3.07411630735">
        <ele>16.4</ele>
        <time>2015-06-21T11:14:35Z</time>
      </trkpt>
      <trkpt lat="39.890344881708" lon="3.07412636563">
        <ele>16.2</ele>
        <time>2015-06-21T11:14:36Z</time>
      </trkpt>
      <trkpt lat="39.890444961594" lon="3.07416995151">
        <ele>16.2</ele>
        <time>2015-06-21T11:14:38Z</time>
      </trkpt>
      <trkpt lat="39.890482763963" lon="3.074191073898">
        <ele>16.2</ele>
        <time>2015-06-21T11:14:39Z</time>
      </trkpt>
      <trkpt lat="39.890521823617" lon="3.074188894604">
        <ele>16.2</ele>
        <time>2015-06-21T11:14:40Z</time>
      </trkpt>
      <trkpt lat="39.890616036173" lon="3.074143380887">
        <ele>16.6</ele>
        <time>2015-06-21T11:14:42Z</time>
      </trkpt>
      <trkpt lat="39.890751990591" lon="3.07400650446">
        <ele>16.6</ele>
        <time>2015-06-21T11:14:45Z</time>
      </trkpt>
      <trkpt lat="39.890797085213" lon="3.073966606616">
        <ele>16.4</ele>
        <time>2015-06-21T11:14:46Z</time>
      </trkpt>
      <trkpt lat="39.890853998314" lon="3.073926708772">
        <ele>16.2</ele>
        <time>2015-06-21T11:14:47Z</time>
      </trkpt>
      <trkpt lat="39.89101945702" lon="3.073879351037">
        <ele>16</ele>
        <time>2015-06-21T11:14:50Z</time>
      </trkpt>
      <trkpt lat="39.891134456688" lon="3.073875579182">
        <ele>16</ele>
        <time>2015-06-21T11:14:52Z</time>
      </trkpt>
      <trkpt lat="39.891335035555" lon="3.073878093752">
        <ele>15.8</ele>
        <time>2015-06-21T11:14:55Z</time>
      </trkpt>
      <trkpt lat="39.891396474882" lon="3.073880356865">
        <ele>15.6</ele>
        <time>2015-06-21T11:14:56Z</time>
      </trkpt>
      <trkpt lat="39.891955379974" lon="3.073874238078">
        <ele>17</ele>
        <time>2015-06-21T11:15:04Z</time>
      </trkpt>
      <trkpt lat="39.892094938609" lon="3.07386736492">
        <ele>17</ele>
        <time>2015-06-21T11:15:06Z</time>
      </trkpt>
      <trkpt lat="39.892650910036" lon="3.073861581409">
        <ele>16.8</ele>
        <time>2015-06-21T11:15:14Z</time>
      </trkpt>
      <trkpt lat="39.892775800346" lon="3.073863006332">
        <ele>16.4</ele>
        <time>2015-06-21T11:15:16Z</time>
      </trkpt>
      <trkpt lat="39.893183412143" lon="3.073860407943">
        <ele>15.8</ele>
        <time>2015-06-21T11:15:22Z</time>
      </trkpt>
      <trkpt lat="39.893591778311" lon="3.073866945825">
        <ele>16.2</ele>
        <time>2015-06-21T11:15:28Z</time>
      </trkpt>
      <trkpt lat="39.894197119129" lon="3.073857977192">
        <ele>15</ele>
        <time>2015-06-21T11:15:37Z</time>
      </trkpt>
      <trkpt lat="39.894324943104" lon="3.073856300812">
        <ele>14.8</ele>
        <time>2015-06-21T11:15:39Z</time>
      </trkpt>
      <trkpt lat="39.894522923582" lon="3.073854372975">
        <ele>14.6</ele>
        <time>2015-06-21T11:15:42Z</time>
      </trkpt>
      <trkpt lat="39.894862306713" lon="3.073851187853">
        <ele>15.8</ele>
        <time>2015-06-21T11:15:47Z</time>
      </trkpt>
      <trkpt lat="39.895058359354" lon="3.073847918912">
        <ele>15.6</ele>
        <time>2015-06-21T11:15:50Z</time>
      </trkpt>
      <trkpt lat="39.895179729266" lon="3.073841297211">
        <ele>14.8</ele>
        <time>2015-06-21T11:15:52Z</time>
      </trkpt>
      <trkpt lat="39.895473347223" lon="3.073823024669">
        <ele>16.2</ele>
        <time>2015-06-21T11:15:57Z</time>
      </trkpt>
      <trkpt lat="39.895712985744" lon="3.073854205337">
        <ele>15.8</ele>
        <time>2015-06-21T11:16:01Z</time>
      </trkpt>
      <trkpt lat="39.895774592709" lon="3.073888068213">
        <ele>15.4</ele>
        <time>2015-06-21T11:16:02Z</time>
      </trkpt>
      <trkpt lat="39.895822537177" lon="3.073919416519">
        <ele>15</ele>
        <time>2015-06-21T11:16:03Z</time>
      </trkpt>
      <trkpt lat="39.895985481313" lon="3.074023435898">
        <ele>14.6</ele>
        <time>2015-06-21T11:16:06Z</time>
      </trkpt>
      <trkpt lat="39.896053458522" lon="3.074034332368">
        <ele>14.4</ele>
        <time>2015-06-21T11:16:07Z</time>
      </trkpt>
      <trkpt lat="39.89621958778" lon="3.073940790364">
        <ele>14.6</ele>
        <time>2015-06-21T11:16:10Z</time>
      </trkpt>
      <trkpt lat="39.896319248571" lon="3.073844063238">
        <ele>14.8</ele>
        <time>2015-06-21T11:16:12Z</time>
      </trkpt>
      <trkpt lat="39.896444390338" lon="3.073773403821">
        <ele>15.2</ele>
        <time>2015-06-21T11:16:14Z</time>
      </trkpt>
      <trkpt lat="39.896504069466" lon="3.073768793776">
        <ele>15.4</ele>
        <time>2015-06-21T11:16:15Z</time>
      </trkpt>
      <trkpt lat="39.896958116989" lon="3.073739457126">
        <ele>15.4</ele>
        <time>2015-06-21T11:16:22Z</time>
      </trkpt>
      <trkpt lat="39.897417948023" lon="3.073722860964">
        <ele>15.6</ele>
        <time>2015-06-21T11:16:29Z</time>
      </trkpt>
      <trkpt lat="39.897475112581" lon="3.07372487262">
        <ele>15.6</ele>
        <time>2015-06-21T11:16:30Z</time>
      </trkpt>
      <trkpt lat="39.897654988155" lon="3.073715065797">
        <ele>16</ele>
        <time>2015-06-21T11:16:33Z</time>
      </trkpt>
      <trkpt lat="39.897851711348" lon="3.073707102992">
        <ele>16.4</ele>
        <time>2015-06-21T11:16:36Z</time>
      </trkpt>
      <trkpt lat="39.898187741719" lon="3.073709952838">
        <ele>15</ele>
        <time>2015-06-21T11:16:41Z</time>
      </trkpt>
      <trkpt lat="39.898498877847" lon="3.073720849308">
        <ele>15</ele>
        <time>2015-06-21T11:16:46Z</time>
      </trkpt>
      <trkpt lat="39.899047724659" lon="3.073758986953">
        <ele>15</ele>
        <time>2015-06-21T11:16:55Z</time>
      </trkpt>
      <trkpt lat="39.899469501867" lon="3.073843644143">
        <ele>16.2</ele>
        <time>2015-06-21T11:17:03Z</time>
      </trkpt>
      <trkpt lat="39.899563714423" lon="3.073970043195">
        <ele>16.6</ele>
        <time>2015-06-21T11:17:06Z</time>
      </trkpt>
      <trkpt lat="39.899802514754" lon="3.074080181361">
        <ele>15.2</ele>
        <time>2015-06-21T11:17:11Z</time>
      </trkpt>
      <trkpt lat="39.899959423922" lon="3.07399309342">
        <ele>14.6</ele>
        <time>2015-06-21T11:17:14Z</time>
      </trkpt>
      <trkpt lat="39.900002925983" lon="3.073961996571">
        <ele>14.8</ele>
        <time>2015-06-21T11:17:15Z</time>
      </trkpt>
      <trkpt lat="39.900058246523" lon="3.07394531659">
        <ele>15</ele>
        <time>2015-06-21T11:17:16Z</time>
      </trkpt>
      <trkpt lat="39.900175257847" lon="3.073953195576">
        <ele>15.4</ele>
        <time>2015-06-21T11:17:18Z</time>
      </trkpt>
      <trkpt lat="39.900281707977" lon="3.073982029312">
        <ele>15.4</ele>
        <time>2015-06-21T11:17:20Z</time>
      </trkpt>
      <trkpt lat="39.900499721196" lon="3.074045815571">
        <ele>15.6</ele>
        <time>2015-06-21T11:17:24Z</time>
      </trkpt>
      <trkpt lat="39.900939603308" lon="3.074182021446">
        <ele>15.2</ele>
        <time>2015-06-21T11:17:32Z</time>
      </trkpt>
      <trkpt lat="39.9013224885" lon="3.074306325023">
        <ele>15</ele>
        <time>2015-06-21T11:17:39Z</time>
      </trkpt>
      <trkpt lat="39.901778547679" lon="3.074458540327">
        <ele>16</ele>
        <time>2015-06-21T11:17:47Z</time>
      </trkpt>
      <trkpt lat="39.901893463528" lon="3.074497851438">
        <ele>16.2</ele>
        <time>2015-06-21T11:17:49Z</time>
      </trkpt>
      <trkpt lat="39.902249945735" lon="3.074618215522">
        <ele>15.4</ele>
        <time>2015-06-21T11:17:55Z</time>
      </trkpt>
      <trkpt lat="39.902422026142" lon="3.07468292379">
        <ele>14.8</ele>
        <time>2015-06-21T11:17:58Z</time>
      </trkpt>
      <trkpt lat="39.902669878925" lon="3.074776884889">
        <ele>13.8</ele>
        <time>2015-06-21T11:18:02Z</time>
      </trkpt>
      <trkpt lat="39.902784710955" lon="3.074820638407">
        <ele>14</ele>
        <time>2015-06-21T11:18:04Z</time>
      </trkpt>
      <trkpt lat="39.903347136445" lon="3.075048039354">
        <ele>13.6</ele>
        <time>2015-06-21T11:18:13Z</time>
      </trkpt>
      <trkpt lat="39.903461465561" lon="3.07509698965">
        <ele>13.8</ele>
        <time>2015-06-21T11:18:15Z</time>
      </trkpt>
      <trkpt lat="39.903976784773" lon="3.075328497728">
        <ele>14.2</ele>
        <time>2015-06-21T11:18:24Z</time>
      </trkpt>
      <trkpt lat="39.904026824716" lon="3.075362109147">
        <ele>14.4</ele>
        <time>2015-06-21T11:18:25Z</time>
      </trkpt>
      <trkpt lat="39.904115840494" lon="3.075413071099">
        <ele>14</ele>
        <time>2015-06-21T11:18:27Z</time>
      </trkpt>
      <trkpt lat="39.904212819077" lon="3.075468056363">
        <ele>14.2</ele>
        <time>2015-06-21T11:18:29Z</time>
      </trkpt>
      <trkpt lat="39.90427878463" lon="3.075557491236">
        <ele>14.6</ele>
        <time>2015-06-21T11:18:31Z</time>
      </trkpt>
      <trkpt lat="39.904324801261" lon="3.075605687161">
        <ele>15</ele>
        <time>2015-06-21T11:18:32Z</time>
      </trkpt>
      <trkpt lat="39.904371907539" lon="3.075643238073">
        <ele>15</ele>
        <time>2015-06-21T11:18:33Z</time>
      </trkpt>
      <trkpt lat="39.904600398133" lon="3.0756879136">
        <ele>14.4</ele>
        <time>2015-06-21T11:18:37Z</time>
      </trkpt>
      <trkpt lat="39.904714811068" lon="3.075658828407">
        <ele>14.6</ele>
        <time>2015-06-21T11:18:39Z</time>
      </trkpt>
      <trkpt lat="39.904832660582" lon="3.075650949421">
        <ele>14.8</ele>
        <time>2015-06-21T11:18:41Z</time>
      </trkpt>
      <trkpt lat="39.904887729665" lon="3.075673496732">
        <ele>15</ele>
        <time>2015-06-21T11:18:42Z</time>
      </trkpt>
      <trkpt lat="39.905034496734" lon="3.075768631297">
        <ele>14.2</ele>
        <time>2015-06-21T11:18:45Z</time>
      </trkpt>
      <trkpt lat="39.90513206205" lon="3.075839374533">
        <ele>14</ele>
        <time>2015-06-21T11:18:47Z</time>
      </trkpt>
      <trkpt lat="39.905179755061" lon="3.075876338712">
        <ele>13.8</ele>
        <time>2015-06-21T11:18:48Z</time>
      </trkpt>
      <trkpt lat="39.905567501755" lon="3.076158724923">
        <ele>13.8</ele>
        <time>2015-06-21T11:18:56Z</time>
      </trkpt>
      <trkpt lat="39.905716531937" lon="3.07627799936">
        <ele>12</ele>
        <time>2015-06-21T11:18:59Z</time>
      </trkpt>
      <trkpt lat="39.905887774154" lon="3.076406745344">
        <ele>12.2</ele>
        <time>2015-06-21T11:19:03Z</time>
      </trkpt>
      <trkpt lat="39.906174938048" lon="3.076614616464">
        <ele>12.4</ele>
        <time>2015-06-21T11:19:09Z</time>
      </trkpt>
      <trkpt lat="39.906665865931" lon="3.076977301277">
        <ele>12.6</ele>
        <time>2015-06-21T11:19:19Z</time>
      </trkpt>
      <trkpt lat="39.906810537525" lon="3.07708685271">
        <ele>12.6</ele>
        <time>2015-06-21T11:19:22Z</time>
      </trkpt>
      <trkpt lat="39.906945234658" lon="3.077194308668">
        <ele>12.6</ele>
        <time>2015-06-21T11:19:25Z</time>
      </trkpt>
      <trkpt lat="39.907121589834" lon="3.077347781257">
        <ele>12.8</ele>
        <time>2015-06-21T11:19:29Z</time>
      </trkpt>
      <trkpt lat="39.907375645223" lon="3.077549701228">
        <ele>12.8</ele>
        <time>2015-06-21T11:19:35Z</time>
      </trkpt>
      <trkpt lat="39.907405568606" lon="3.077585491941">
        <ele>12.8</ele>
        <time>2015-06-21T11:19:36Z</time>
      </trkpt>
      <trkpt lat="39.907552000399" lon="3.077711052803">
        <ele>12.6</ele>
        <time>2015-06-21T11:19:40Z</time>
      </trkpt>
      <trkpt lat="39.907758278958" lon="3.077872404378">
        <ele>13.2</ele>
        <time>2015-06-21T11:19:45Z</time>
      </trkpt>
      <trkpt lat="39.908065391774" lon="3.078156047874">
        <ele>13.8</ele>
        <time>2015-06-21T11:19:53Z</time>
      </trkpt>
      <trkpt lat="39.908124987083" lon="3.078218576848">
        <ele>14.2</ele>
        <time>2015-06-21T11:19:55Z</time>
      </trkpt>
      <trkpt lat="39.90833059509" lon="3.078423262846">
        <ele>15.2</ele>
        <time>2015-06-21T11:20:00Z</time>
      </trkpt>
      <trkpt lat="39.908637288811" lon="3.078731297671">
        <ele>15.4</ele>
        <time>2015-06-21T11:20:08Z</time>
      </trkpt>
      <trkpt lat="39.908936019727" lon="3.079068669146">
        <ele>15.6</ele>
        <time>2015-06-21T11:20:16Z</time>
      </trkpt>
      <trkpt lat="39.909070465403" lon="3.079191463981">
        <ele>16.2</ele>
        <time>2015-06-21T11:20:19Z</time>
      </trkpt>
      <trkpt lat="39.909203653794" lon="3.079280479759">
        <ele>16</ele>
        <time>2015-06-21T11:20:22Z</time>
      </trkpt>
      <trkpt lat="39.909334076158" lon="3.079384163862">
        <ele>16.2</ele>
        <time>2015-06-21T11:20:25Z</time>
      </trkpt>
      <trkpt lat="39.909487967842" lon="3.07955113131">
        <ele>17.2</ele>
        <time>2015-06-21T11:20:29Z</time>
      </trkpt>
      <trkpt lat="39.909753674072" lon="3.079869559691">
        <ele>17.2</ele>
        <time>2015-06-21T11:20:36Z</time>
      </trkpt>
      <trkpt lat="39.909871775043" lon="3.080002580444">
        <ele>17.8</ele>
        <time>2015-06-21T11:20:39Z</time>
      </trkpt>
      <trkpt lat="39.91013773273" lon="3.080374736804">
        <ele>17.6</ele>
        <time>2015-06-21T11:20:47Z</time>
      </trkpt>
      <trkpt lat="39.910239824272" lon="3.080513960163">
        <ele>18.8</ele>
        <time>2015-06-21T11:20:50Z</time>
      </trkpt>
      <trkpt lat="39.910268741827" lon="3.080552013989">
        <ele>19.8</ele>
        <time>2015-06-21T11:20:51Z</time>
      </trkpt>
      <trkpt lat="39.910477451137" lon="3.080835573666">
        <ele>20.4</ele>
        <time>2015-06-21T11:20:57Z</time>
      </trkpt>
      <trkpt lat="39.910554732255" lon="3.080945711832">
        <ele>20.8</ele>
        <time>2015-06-21T11:20:59Z</time>
      </trkpt>
      <trkpt lat="39.910810464024" lon="3.081322310599">
        <ele>20.4</ele>
        <time>2015-06-21T11:21:06Z</time>
      </trkpt>
      <trkpt lat="39.911179267624" lon="3.081887837392">
        <ele>20.8</ele>
        <time>2015-06-21T11:21:16Z</time>
      </trkpt>
      <trkpt lat="39.911532816166" lon="3.08247389984">
        <ele>20.8</ele>
        <time>2015-06-21T11:21:26Z</time>
      </trkpt>
      <trkpt lat="39.911570115621" lon="3.082529723294">
        <ele>20.8</ele>
        <time>2015-06-21T11:21:27Z</time>
      </trkpt>
      <trkpt lat="39.911602469755" lon="3.082602059091">
        <ele>20.6</ele>
        <time>2015-06-21T11:21:28Z</time>
      </trkpt>
      <trkpt lat="39.911712943197" lon="3.082795094248">
        <ele>20.2</ele>
        <time>2015-06-21T11:21:31Z</time>
      </trkpt>
      <trkpt lat="39.91205215869" lon="3.083401692351">
        <ele>20.4</ele>
        <time>2015-06-21T11:21:40Z</time>
      </trkpt>
      <trkpt lat="39.912087697946" lon="3.083463634592">
        <ele>20.4</ele>
        <time>2015-06-21T11:21:41Z</time>
      </trkpt>
      <trkpt lat="39.912159027915" lon="3.083596906802">
        <ele>19.8</ele>
        <time>2015-06-21T11:21:43Z</time>
      </trkpt>
      <trkpt lat="39.912255503584" lon="3.083777033833">
        <ele>18.6</ele>
        <time>2015-06-21T11:21:46Z</time>
      </trkpt>
      <trkpt lat="39.912321972051" lon="3.083915754278">
        <ele>18.2</ele>
        <time>2015-06-21T11:21:48Z</time>
      </trkpt>
      <trkpt lat="39.912343094439" lon="3.083987754799">
        <ele>18.2</ele>
        <time>2015-06-21T11:21:49Z</time>
      </trkpt>
      <trkpt lat="39.912330018675" lon="3.084128738357">
        <ele>18.4</ele>
        <time>2015-06-21T11:21:51Z</time>
      </trkpt>
      <trkpt lat="39.912325911544" lon="3.084293526511">
        <ele>18.6</ele>
        <time>2015-06-21T11:21:53Z</time>
      </trkpt>
      <trkpt lat="39.912399839902" lon="3.084498715423">
        <ele>18.6</ele>
        <time>2015-06-21T11:21:56Z</time>
      </trkpt>
      <trkpt lat="39.912552390482" lon="3.084628215778">
        <ele>17.2</ele>
        <time>2015-06-21T11:21:59Z</time>
      </trkpt>
      <trkpt lat="39.912603436253" lon="3.084658893532">
        <ele>17</ele>
        <time>2015-06-21T11:22:00Z</time>
      </trkpt>
      <trkpt lat="39.912642160631" lon="3.084693259322">
        <ele>16.8</ele>
        <time>2015-06-21T11:22:01Z</time>
      </trkpt>
      <trkpt lat="39.912694715144" lon="3.084793758303">
        <ele>17.4</ele>
        <time>2015-06-21T11:22:03Z</time>
      </trkpt>
      <trkpt lat="39.912728410382" lon="3.084879756597">
        <ele>18.2</ele>
        <time>2015-06-21T11:22:04Z</time>
      </trkpt>
      <trkpt lat="39.912753556082" lon="3.084948152901">
        <ele>19</ele>
        <time>2015-06-21T11:22:05Z</time>
      </trkpt>
      <trkpt lat="39.912776606307" lon="3.085012022979">
        <ele>19.4</ele>
        <time>2015-06-21T11:22:06Z</time>
      </trkpt>
      <trkpt lat="39.912830418105" lon="3.085162980998">
        <ele>20.6</ele>
        <time>2015-06-21T11:22:08Z</time>
      </trkpt>
      <trkpt lat="39.913066536228" lon="3.085862618191">
        <ele>20.2</ele>
        <time>2015-06-21T11:22:18Z</time>
      </trkpt>
      <trkpt lat="39.91322143374" lon="3.08649134451">
        <ele>20.8</ele>
        <time>2015-06-21T11:22:27Z</time>
      </trkpt>
      <trkpt lat="39.913288656578" lon="3.086865261069">
        <ele>21.6</ele>
        <time>2015-06-21T11:22:32Z</time>
      </trkpt>
      <trkpt lat="39.913348335706" lon="3.087305478457">
        <ele>22</ele>
        <time>2015-06-21T11:22:38Z</time>
      </trkpt>
      <trkpt lat="39.913410613223" lon="3.088016095939">
        <ele>22.6</ele>
        <time>2015-06-21T11:22:47Z</time>
      </trkpt>
      <trkpt lat="39.913413714526" lon="3.088099495844">
        <ele>22.4</ele>
        <time>2015-06-21T11:22:48Z</time>
      </trkpt>
      <trkpt lat="39.913424359539" lon="3.088266966206">
        <ele>22.6</ele>
        <time>2015-06-21T11:22:50Z</time>
      </trkpt>
      <trkpt lat="39.913445901022" lon="3.0888474966">
        <ele>22.8</ele>
        <time>2015-06-21T11:22:57Z</time>
      </trkpt>
      <trkpt lat="39.91348043445" lon="3.089525257034">
        <ele>23.2</ele>
        <time>2015-06-21T11:23:05Z</time>
      </trkpt>
      <trkpt lat="39.9134930073" lon="3.0898784703">
        <ele>23.2</ele>
        <time>2015-06-21T11:23:10Z</time>
      </trkpt>
      <trkpt lat="39.913504574322" lon="3.09013579463">
        <ele>23</ele>
        <time>2015-06-21T11:23:14Z</time>
      </trkpt>
      <trkpt lat="39.913516308982" lon="3.090321118439">
        <ele>23.8</ele>
        <time>2015-06-21T11:23:17Z</time>
      </trkpt>
      <trkpt lat="39.913541119406" lon="3.090729652245">
        <ele>24.4</ele>
        <time>2015-06-21T11:23:24Z</time>
      </trkpt>
      <trkpt lat="39.913567941486" lon="3.091133911282">
        <ele>24.8</ele>
        <time>2015-06-21T11:23:31Z</time>
      </trkpt>
      <trkpt lat="39.913582106897" lon="3.091307332793">
        <ele>24.8</ele>
        <time>2015-06-21T11:23:34Z</time>
      </trkpt>
      <trkpt lat="39.913599373611" lon="3.091535907206">
        <ele>24.8</ele>
        <time>2015-06-21T11:23:38Z</time>
      </trkpt>
      <trkpt lat="39.91361957399" lon="3.091964054658">
        <ele>23.8</ele>
        <time>2015-06-21T11:23:45Z</time>
      </trkpt>
      <trkpt lat="39.913619993085" lon="3.092032870057">
        <ele>22.2</ele>
        <time>2015-06-21T11:23:46Z</time>
      </trkpt>
      <trkpt lat="39.913621920922" lon="3.092121969654">
        <ele>17.4</ele>
        <time>2015-06-21T11:23:47Z</time>
      </trkpt>
      <trkpt lat="39.913627536795" lon="3.092199334591">
        <ele>12.6</ele>
        <time>2015-06-21T11:23:48Z</time>
      </trkpt>
      <trkpt lat="39.913634409953" lon="3.092281896306">
        <ele>8.2</ele>
        <time>2015-06-21T11:23:49Z</time>
      </trkpt>
      <trkpt lat="39.913638097989" lon="3.092365882944">
        <ele>1.6</ele>
        <time>2015-06-21T11:23:50Z</time>
      </trkpt>
      <trkpt lat="39.913642372758" lon="3.092438134922">
        <ele>0</ele>
        <time>2015-06-21T11:23:51Z</time>
      </trkpt>
      <trkpt lat="39.913646731346" lon="3.092533940039">
        <ele>0</ele>
        <time>2015-06-21T11:23:52Z</time>
      </trkpt>
      <trkpt lat="39.913652179581" lon="3.092622452903">
        <ele>0</ele>
        <time>2015-06-21T11:23:53Z</time>
      </trkpt>
      <trkpt lat="39.913657208721" lon="3.092708702654">
        <ele>0</ele>
        <time>2015-06-21T11:23:54Z</time>
      </trkpt>
      <trkpt lat="39.913663327508" lon="3.092794365672">
        <ele>0</ele>
        <time>2015-06-21T11:23:55Z</time>
      </trkpt>
      <trkpt lat="39.913668105191" lon="3.092876256835">
        <ele>0</ele>
        <time>2015-06-21T11:23:56Z</time>
      </trkpt>
      <trkpt lat="39.913671374132" lon="3.092952280668">
        <ele>0.6</ele>
        <time>2015-06-21T11:23:57Z</time>
      </trkpt>
      <trkpt lat="39.913673721064" lon="3.093046744681">
        <ele>2</ele>
        <time>2015-06-21T11:23:58Z</time>
      </trkpt>
      <trkpt lat="39.913679588394" lon="3.093132491518">
        <ele>0.4</ele>
        <time>2015-06-21T11:23:59Z</time>
      </trkpt>
      <trkpt lat="39.913690987778" lon="3.093294597464">
        <ele>0.2</ele>
        <time>2015-06-21T11:24:01Z</time>
      </trkpt>
      <trkpt lat="39.913717558401" lon="3.093892813667">
        <ele>0</ele>
        <time>2015-06-21T11:24:08Z</time>
      </trkpt>
      <trkpt lat="39.913733735468" lon="3.09434769938">
        <ele>0</ele>
        <time>2015-06-21T11:24:13Z</time>
      </trkpt>
      <trkpt lat="39.913732897278" lon="3.09472656126">
        <ele>0</ele>
        <time>2015-06-21T11:24:17Z</time>
      </trkpt>
      <trkpt lat="39.913705572284" lon="3.09514146531">
        <ele>0</ele>
        <time>2015-06-21T11:24:22Z</time>
      </trkpt>
      <trkpt lat="39.913649245916" lon="3.095653012667">
        <ele>0</ele>
        <time>2015-06-21T11:24:29Z</time>
      </trkpt>
      <trkpt lat="39.91356257707" lon="3.096194567226">
        <ele>0</ele>
        <time>2015-06-21T11:24:37Z</time>
      </trkpt>
      <trkpt lat="39.913429975412" lon="3.0967348645">
        <ele>0</ele>
        <time>2015-06-21T11:24:45Z</time>
      </trkpt>
      <trkpt lat="39.913414636535" lon="3.096802925528">
        <ele>0.4</ele>
        <time>2015-06-21T11:24:46Z</time>
      </trkpt>
      <trkpt lat="39.913349257715" lon="3.097091598164">
        <ele>1.6</ele>
        <time>2015-06-21T11:24:50Z</time>
      </trkpt>
      <trkpt lat="39.913278095384" lon="3.09738278537">
        <ele>2</ele>
        <time>2015-06-21T11:24:54Z</time>
      </trkpt>
      <trkpt lat="39.913231827296" lon="3.09759233287">
        <ele>2.8</ele>
        <time>2015-06-21T11:24:57Z</time>
      </trkpt>
      <trkpt lat="39.913137195645" lon="3.098014864449">
        <ele>3.8</ele>
        <time>2015-06-21T11:25:03Z</time>
      </trkpt>
      <trkpt lat="39.913024878185" lon="3.098546109271">
        <ele>5</ele>
        <time>2015-06-21T11:25:10Z</time>
      </trkpt>
      <trkpt lat="39.912970563473" lon="3.098781053928">
        <ele>5.6</ele>
        <time>2015-06-21T11:25:13Z</time>
      </trkpt>
      <trkpt lat="39.912917673684" lon="3.098995295292">
        <ele>6</ele>
        <time>2015-06-21T11:25:16Z</time>
      </trkpt>
      <trkpt lat="39.912805104767" lon="3.09934331178">
        <ele>7</ele>
        <time>2015-06-21T11:25:21Z</time>
      </trkpt>
      <trkpt lat="39.912764452552" lon="3.09940617603">
        <ele>6.8</ele>
        <time>2015-06-21T11:25:22Z</time>
      </trkpt>
      <trkpt lat="39.912686919977" lon="3.099537436584">
        <ele>6.4</ele>
        <time>2015-06-21T11:25:24Z</time>
      </trkpt>
      <trkpt lat="39.912664372666" lon="3.099683952196">
        <ele>6.2</ele>
        <time>2015-06-21T11:25:26Z</time>
      </trkpt>
      <trkpt lat="39.912659678802" lon="3.099848488893">
        <ele>6</ele>
        <time>2015-06-21T11:25:28Z</time>
      </trkpt>
      <trkpt lat="39.912648279418" lon="3.099932224074">
        <ele>6.2</ele>
        <time>2015-06-21T11:25:29Z</time>
      </trkpt>
      <trkpt lat="39.912617769302" lon="3.100083182093">
        <ele>7.2</ele>
        <time>2015-06-21T11:25:31Z</time>
      </trkpt>
      <trkpt lat="39.912581810951" lon="3.100239755985">
        <ele>8.2</ele>
        <time>2015-06-21T11:25:33Z</time>
      </trkpt>
      <trkpt lat="39.912507631136" lon="3.100554328692">
        <ele>9.4</ele>
        <time>2015-06-21T11:25:37Z</time>
      </trkpt>
      <trkpt lat="39.912489023318" lon="3.100635716941">
        <ele>9.4</ele>
        <time>2015-06-21T11:25:38Z</time>
      </trkpt>
      <trkpt lat="39.912421297566" lon="3.100945763422">
        <ele>10.4</ele>
        <time>2015-06-21T11:25:42Z</time>
      </trkpt>
      <trkpt lat="39.91234971614" lon="3.101258743568">
        <ele>11</ele>
        <time>2015-06-21T11:25:46Z</time>
      </trkpt>
      <trkpt lat="39.912277128886" lon="3.101587062591">
        <ele>11.4</ele>
        <time>2015-06-21T11:25:50Z</time>
      </trkpt>
      <trkpt lat="39.912221221613" lon="3.101966259747">
        <ele>12.4</ele>
        <time>2015-06-21T11:25:55Z</time>
      </trkpt>
      <trkpt lat="39.912218036491" lon="3.102104477278">
        <ele>12.6</ele>
        <time>2015-06-21T11:25:57Z</time>
      </trkpt>
      <trkpt lat="39.912231950445" lon="3.10225937479">
        <ele>13.8</ele>
        <time>2015-06-21T11:25:59Z</time>
      </trkpt>
      <trkpt lat="39.912250642082" lon="3.102327603456">
        <ele>14.2</ele>
        <time>2015-06-21T11:26:00Z</time>
      </trkpt>
      <trkpt lat="39.912295485247" lon="3.102455427431">
        <ele>15</ele>
        <time>2015-06-21T11:26:02Z</time>
      </trkpt>
      <trkpt lat="39.912397325332" lon="3.102607894192">
        <ele>16.2</ele>
        <time>2015-06-21T11:26:05Z</time>
      </trkpt>
      <trkpt lat="39.912509223697" lon="3.102711243019">
        <ele>17.4</ele>
        <time>2015-06-21T11:26:08Z</time>
      </trkpt>
      <trkpt lat="39.912577787639" lon="3.102769413405">
        <ele>18.4</ele>
        <time>2015-06-21T11:26:10Z</time>
      </trkpt>
      <trkpt lat="39.912613075438" lon="3.102795481114">
        <ele>18.8</ele>
        <time>2015-06-21T11:26:11Z</time>
      </trkpt>
      <trkpt lat="39.912728242744" lon="3.102875276802">
        <ele>20.2</ele>
        <time>2015-06-21T11:26:14Z</time>
      </trkpt>
      <trkpt lat="39.912838045634" lon="3.102953144653">
        <ele>21.2</ele>
        <time>2015-06-21T11:26:17Z</time>
      </trkpt>
      <trkpt lat="39.912907447766" lon="3.103000502388">
        <ele>22</ele>
        <time>2015-06-21T11:26:19Z</time>
      </trkpt>
      <trkpt lat="39.912940807728" lon="3.103024558441">
        <ele>22.6</ele>
        <time>2015-06-21T11:26:20Z</time>
      </trkpt>
      <trkpt lat="39.913042228718" lon="3.103094547306">
        <ele>24</ele>
        <time>2015-06-21T11:26:23Z</time>
      </trkpt>
      <trkpt lat="39.913109535375" lon="3.103138887557">
        <ele>25</ele>
        <time>2015-06-21T11:26:25Z</time>
      </trkpt>
      <trkpt lat="39.91320886089" lon="3.103209546974">
        <ele>26.2</ele>
        <time>2015-06-21T11:26:28Z</time>
      </trkpt>
      <trkpt lat="39.913242556128" lon="3.10323670433">
        <ele>26.8</ele>
        <time>2015-06-21T11:26:29Z</time>
      </trkpt>
      <trkpt lat="39.913342719833" lon="3.103305603548">
        <ele>27.6</ele>
        <time>2015-06-21T11:26:32Z</time>
      </trkpt>
      <trkpt lat="39.913534246248" lon="3.103439294853">
        <ele>28.8</ele>
        <time>2015-06-21T11:26:38Z</time>
      </trkpt>
      <trkpt lat="39.913562074156" lon="3.103459998146">
        <ele>29</ele>
        <time>2015-06-21T11:26:39Z</time>
      </trkpt>
      <trkpt lat="39.913691909787" lon="3.103551193218">
        <ele>29.8</ele>
        <time>2015-06-21T11:26:43Z</time>
      </trkpt>
      <trkpt lat="39.913840269417" lon="3.10365579933">
        <ele>30.8</ele>
        <time>2015-06-21T11:26:48Z</time>
      </trkpt>
      <trkpt lat="39.913869606067" lon="3.10367675408">
        <ele>31</ele>
        <time>2015-06-21T11:26:49Z</time>
      </trkpt>
      <trkpt lat="39.913989886332" lon="3.103762584736">
        <ele>31.8</ele>
        <time>2015-06-21T11:26:53Z</time>
      </trkpt>
      <trkpt lat="39.914102119973" lon="3.103844308261">
        <ele>32.8</ele>
        <time>2015-06-21T11:26:57Z</time>
      </trkpt>
      <trkpt lat="39.914197673633" lon="3.103908848891">
        <ele>33.6</ele>
        <time>2015-06-21T11:27:00Z</time>
      </trkpt>
      <trkpt lat="39.914257101304" lon="3.103951177486">
        <ele>34</ele>
        <time>2015-06-21T11:27:02Z</time>
      </trkpt>
      <trkpt lat="39.914400515613" lon="3.104054442494">
        <ele>35</ele>
        <time>2015-06-21T11:27:07Z</time>
      </trkpt>
      <trkpt lat="39.914504870268" lon="3.104122168246">
        <ele>36</ele>
        <time>2015-06-21T11:27:11Z</time>
      </trkpt>
      <trkpt lat="39.914529680692" lon="3.104141530435">
        <ele>36.2</ele>
        <time>2015-06-21T11:27:12Z</time>
      </trkpt>
      <trkpt lat="39.914607716181" lon="3.104198611174">
        <ele>37.2</ele>
        <time>2015-06-21T11:27:15Z</time>
      </trkpt>
      <trkpt lat="39.914750543757" lon="3.104298607241">
        <ele>38.6</ele>
        <time>2015-06-21T11:27:21Z</time>
      </trkpt>
      <trkpt lat="39.914777365837" lon="3.104318137068">
        <ele>39</ele>
        <time>2015-06-21T11:27:22Z</time>
      </trkpt>
      <trkpt lat="39.91482489121" lon="3.104360633301">
        <ele>39.6</ele>
        <time>2015-06-21T11:27:24Z</time>
      </trkpt>
      <trkpt lat="39.914843247571" lon="3.104383599707">
        <ele>41</ele>
        <time>2015-06-21T11:27:25Z</time>
      </trkpt>
      <trkpt lat="39.914880630845" lon="3.104498599375">
        <ele>40.8</ele>
        <time>2015-06-21T11:27:29Z</time>
      </trkpt>
      <trkpt lat="39.914874009144" lon="3.104559032874">
        <ele>46.4</ele>
        <time>2015-06-21T11:27:31Z</time>
      </trkpt>
      <trkpt lat="39.914826316133" lon="3.104644612073">
        <ele>47.6</ele>
        <time>2015-06-21T11:27:34Z</time>
      </trkpt>
      <trkpt lat="39.91480142189" lon="3.104665147728">
        <ele>45.8</ele>
        <time>2015-06-21T11:27:35Z</time>
      </trkpt>
      <trkpt lat="39.914710142999" lon="3.10468174389">
        <ele>46.2</ele>
        <time>2015-06-21T11:27:38Z</time>
      </trkpt>
      <trkpt lat="39.914619618479" lon="3.10465576">
        <ele>47</ele>
        <time>2015-06-21T11:27:41Z</time>
      </trkpt>
      <trkpt lat="39.914549210519" lon="3.10463648163">
        <ele>47.4</ele>
        <time>2015-06-21T11:27:43Z</time>
      </trkpt>
      <trkpt lat="39.91444938209" lon="3.10460965955">
        <ele>48</ele>
        <time>2015-06-21T11:27:46Z</time>
      </trkpt>
      <trkpt lat="39.914237068563" lon="3.104554841924">
        <ele>49.2</ele>
        <time>2015-06-21T11:27:52Z</time>
      </trkpt>
      <trkpt lat="39.914168085526" lon="3.104533468079">
        <ele>49.8</ele>
        <time>2015-06-21T11:27:54Z</time>
      </trkpt>
      <trkpt lat="39.914100611231" lon="3.104516955736">
        <ele>50.2</ele>
        <time>2015-06-21T11:27:56Z</time>
      </trkpt>
      <trkpt lat="39.913921490028" lon="3.104467502526">
        <ele>51.2</ele>
        <time>2015-06-21T11:28:01Z</time>
      </trkpt>
      <trkpt lat="39.913818057382" lon="3.104439926075">
        <ele>51.6</ele>
        <time>2015-06-21T11:28:04Z</time>
      </trkpt>
      <trkpt lat="39.913699788773" lon="3.104409080683">
        <ele>52.4</ele>
        <time>2015-06-21T11:28:07Z</time>
      </trkpt>
      <trkpt lat="39.913444727556" lon="3.104342779854">
        <ele>53.6</ele>
        <time>2015-06-21T11:28:14Z</time>
      </trkpt>
      <trkpt lat="39.913190169253" lon="3.104276981939">
        <ele>54.8</ele>
        <time>2015-06-21T11:28:21Z</time>
      </trkpt>
      <trkpt lat="39.913069469893" lon="3.104246471823">
        <ele>55.2</ele>
        <time>2015-06-21T11:28:24Z</time>
      </trkpt>
      <trkpt lat="39.912651548359" lon="3.104136417476">
        <ele>55</ele>
        <time>2015-06-21T11:28:35Z</time>
      </trkpt>
      <trkpt lat="39.912230525522" lon="3.104069194638">
        <ele>55.2</ele>
        <time>2015-06-21T11:28:45Z</time>
      </trkpt>
      <trkpt lat="39.911988791526" lon="3.104074810511">
        <ele>55.8</ele>
        <time>2015-06-21T11:28:51Z</time>
      </trkpt>
      <trkpt lat="39.911904721069" lon="3.104080845479">
        <ele>56.2</ele>
        <time>2015-06-21T11:28:53Z</time>
      </trkpt>
      <trkpt lat="39.911792152152" lon="3.104091155216">
        <ele>56.8</ele>
        <time>2015-06-21T11:28:56Z</time>
      </trkpt>
      <trkpt lat="39.911578246064" lon="3.104113031975">
        <ele>57.4</ele>
        <time>2015-06-21T11:29:02Z</time>
      </trkpt>
      <trkpt lat="39.911488978829" lon="3.104167011411">
        <ele>57.8</ele>
        <time>2015-06-21T11:29:05Z</time>
      </trkpt>
      <trkpt lat="39.911470119554" lon="3.104239347208">
        <ele>58</ele>
        <time>2015-06-21T11:29:07Z</time>
      </trkpt>
      <trkpt lat="39.911454948315" lon="3.104291063531">
        <ele>58.8</ele>
        <time>2015-06-21T11:29:11Z</time>
      </trkpt>
      <trkpt lat="39.911451930831" lon="3.104297349956">
        <ele>59</ele>
        <time>2015-06-21T11:29:13Z</time>
      </trkpt>
      <trkpt lat="39.911453858668" lon="3.104289890065">
        <ele>59</ele>
        <time>2015-06-21T11:29:17Z</time>
      </trkpt>
      <trkpt lat="39.911468191717" lon="3.104283771278">
        <ele>58.6</ele>
        <time>2015-06-21T11:29:28Z</time>
      </trkpt>
      <trkpt lat="39.911467688803" lon="3.104248483479">
        <ele>59</ele>
        <time>2015-06-21T11:29:33Z</time>
      </trkpt>
      <trkpt lat="39.911468443174" lon="3.104227277272">
        <ele>59</ele>
        <time>2015-06-21T11:29:41Z</time>
      </trkpt>
      <trkpt lat="39.911470371011" lon="3.104221158485">
        <ele>58.8</ele>
        <time>2015-06-21T11:29:49Z</time>
      </trkpt>
      <trkpt lat="39.911471544477" lon="3.104217470449">
        <ele>58.2</ele>
        <time>2015-06-21T11:30:07Z</time>
      </trkpt>
      <trkpt lat="39.911476992712" lon="3.104211184024">
        <ele>58.4</ele>
        <time>2015-06-21T11:30:16Z</time>
      </trkpt>
      <trkpt lat="39.911484452603" lon="3.104202383029">
        <ele>58.6</ele>
        <time>2015-06-21T11:30:21Z</time>
      </trkpt>
      <trkpt lat="39.911488140639" lon="3.104199868459">
        <ele>58</ele>
        <time>2015-06-21T11:30:28Z</time>
      </trkpt>
      <trkpt lat="39.911497528367" lon="3.104191821835">
        <ele>58</ele>
        <time>2015-06-21T11:30:42Z</time>
      </trkpt>
      <trkpt lat="39.911499037109" lon="3.104190983645">
        <ele>58</ele>
        <time>2015-06-21T11:30:43Z</time>
      </trkpt>
      <trkpt lat="39.911497444548" lon="3.104230965308">
        <ele>58.4</ele>
        <time>2015-06-21T11:30:49Z</time>
      </trkpt>
      <trkpt lat="39.91149224777" lon="3.104237251733">
        <ele>58.4</ele>
        <time>2015-06-21T11:30:50Z</time>
      </trkpt>
      <trkpt lat="39.911489230286" lon="3.104245465995">
        <ele>59</ele>
        <time>2015-06-21T11:30:53Z</time>
      </trkpt>
      <trkpt lat="39.911484117327" lon="3.10425594337">
        <ele>59.2</ele>
        <time>2015-06-21T11:30:56Z</time>
      </trkpt>
      <trkpt lat="39.911483195318" lon="3.104276562844">
        <ele>59.2</ele>
        <time>2015-06-21T11:30:57Z</time>
      </trkpt>
      <trkpt lat="39.911507670466" lon="3.104315706317">
        <ele>59</ele>
        <time>2015-06-21T11:31:00Z</time>
      </trkpt>
      <trkpt lat="39.911626944903" lon="3.104376558911">
        <ele>59.4</ele>
        <time>2015-06-21T11:31:06Z</time>
      </trkpt>
      <trkpt lat="39.911855686954" lon="3.104402039887">
        <ele>59.8</ele>
        <time>2015-06-21T11:31:13Z</time>
      </trkpt>
      <trkpt lat="39.911886364708" lon="3.104405476466">
        <ele>60</ele>
        <time>2015-06-21T11:31:14Z</time>
      </trkpt>
      <trkpt lat="39.91194403218" lon="3.10441184671">
        <ele>55.8</ele>
        <time>2015-06-21T11:31:16Z</time>
      </trkpt>
      <trkpt lat="39.912154920784" lon="3.104428526691">
        <ele>56.6</ele>
        <time>2015-06-21T11:31:23Z</time>
      </trkpt>
      <trkpt lat="39.912184676529" lon="3.104431460356">
        <ele>57</ele>
        <time>2015-06-21T11:31:24Z</time>
      </trkpt>
      <trkpt lat="39.912357427488" lon="3.104461886653">
        <ele>58.2</ele>
        <time>2015-06-21T11:31:30Z</time>
      </trkpt>
      <trkpt lat="39.912437139357" lon="3.104484266326">
        <ele>59</ele>
        <time>2015-06-21T11:31:33Z</time>
      </trkpt>
      <trkpt lat="39.912491873164" lon="3.104510166397">
        <ele>59.4</ele>
        <time>2015-06-21T11:31:35Z</time>
      </trkpt>
      <trkpt lat="39.912621122062" lon="3.104577053959">
        <ele>60.6</ele>
        <time>2015-06-21T11:31:40Z</time>
      </trkpt>
      <trkpt lat="39.912669317987" lon="3.10460882136">
        <ele>60.8</ele>
        <time>2015-06-21T11:31:42Z</time>
      </trkpt>
      <trkpt lat="39.912765290742" lon="3.104688617048">
        <ele>61.6</ele>
        <time>2015-06-21T11:31:46Z</time>
      </trkpt>
      <trkpt lat="39.912903927368" lon="3.10482758895">
        <ele>62.6</ele>
        <time>2015-06-21T11:31:52Z</time>
      </trkpt>
      <trkpt lat="39.912928318697" lon="3.104848208424">
        <ele>62.8</ele>
        <time>2015-06-21T11:31:53Z</time>
      </trkpt>
      <trkpt lat="39.913098135991" lon="3.10494661193">
        <ele>63.4</ele>
        <time>2015-06-21T11:32:00Z</time>
      </trkpt>
      <trkpt lat="39.913148092115" lon="3.104961028798">
        <ele>63.8</ele>
        <time>2015-06-21T11:32:02Z</time>
      </trkpt>
      <trkpt lat="39.913332745372" lon="3.104997406244">
        <ele>64.8</ele>
        <time>2015-06-21T11:32:09Z</time>
      </trkpt>
      <trkpt lat="39.913389323197" lon="3.105012912759">
        <ele>65.2</ele>
        <time>2015-06-21T11:32:11Z</time>
      </trkpt>
      <trkpt lat="39.913586716942" lon="3.105091534981">
        <ele>65.8</ele>
        <time>2015-06-21T11:32:18Z</time>
      </trkpt>
      <trkpt lat="39.913638181808" lon="3.1051251464">
        <ele>66.2</ele>
        <time>2015-06-21T11:32:20Z</time>
      </trkpt>
      <trkpt lat="39.913844795643" lon="3.10529697535">
        <ele>66.6</ele>
        <time>2015-06-21T11:32:29Z</time>
      </trkpt>
      <trkpt lat="39.913978486948" lon="3.105408622258">
        <ele>67</ele>
        <time>2015-06-21T11:32:35Z</time>
      </trkpt>
      <trkpt lat="39.914087870743" lon="3.105501158434">
        <ele>68</ele>
        <time>2015-06-21T11:32:40Z</time>
      </trkpt>
      <trkpt lat="39.914174707227" lon="3.105571482575">
        <ele>69.2</ele>
        <time>2015-06-21T11:32:44Z</time>
      </trkpt>
      <trkpt lat="39.914262633358" lon="3.105643650734">
        <ele>70.4</ele>
        <time>2015-06-21T11:32:48Z</time>
      </trkpt>
      <trkpt lat="39.914323402133" lon="3.105697294894">
        <ele>71.4</ele>
        <time>2015-06-21T11:32:51Z</time>
      </trkpt>
      <trkpt lat="39.914347542005" lon="3.105716824721">
        <ele>71.6</ele>
        <time>2015-06-21T11:32:52Z</time>
      </trkpt>
      <trkpt lat="39.91443345648" lon="3.105793602925">
        <ele>73</ele>
        <time>2015-06-21T11:32:56Z</time>
      </trkpt>
      <trkpt lat="39.914493470884" lon="3.105861412496">
        <ele>74</ele>
        <time>2015-06-21T11:32:59Z</time>
      </trkpt>
      <trkpt lat="39.914530099787" lon="3.105900807426">
        <ele>74.6</ele>
        <time>2015-06-21T11:33:01Z</time>
      </trkpt>
      <trkpt lat="39.914568237432" lon="3.105944309487">
        <ele>75.4</ele>
        <time>2015-06-21T11:33:03Z</time>
      </trkpt>
      <trkpt lat="39.914620624307" lon="3.106015220361">
        <ele>76.4</ele>
        <time>2015-06-21T11:33:06Z</time>
      </trkpt>
      <trkpt lat="39.914691451362" lon="3.10612007793">
        <ele>77.8</ele>
        <time>2015-06-21T11:33:10Z</time>
      </trkpt>
      <trkpt lat="39.914706622601" lon="3.106144553078">
        <ele>78</ele>
        <time>2015-06-21T11:33:11Z</time>
      </trkpt>
      <trkpt lat="39.914752220137" lon="3.10622652806">
        <ele>79</ele>
        <time>2015-06-21T11:33:14Z</time>
      </trkpt>
      <trkpt lat="39.914800248424" lon="3.106301881341">
        <ele>80.4</ele>
        <time>2015-06-21T11:33:17Z</time>
      </trkpt>
      <trkpt lat="39.914847606159" lon="3.106371702568">
        <ele>81.2</ele>
        <time>2015-06-21T11:33:20Z</time>
      </trkpt>
      <trkpt lat="39.914862274484" lon="3.106390142748">
        <ele>81.6</ele>
        <time>2015-06-21T11:33:21Z</time>
      </trkpt>
      <trkpt lat="39.91495397247" lon="3.106495167955">
        <ele>82.8</ele>
        <time>2015-06-21T11:33:26Z</time>
      </trkpt>
      <trkpt lat="39.915010550295" lon="3.106551829599">
        <ele>83.8</ele>
        <time>2015-06-21T11:33:29Z</time>
      </trkpt>
      <trkpt lat="39.915066960482" lon="3.106607653053">
        <ele>84.8</ele>
        <time>2015-06-21T11:33:32Z</time>
      </trkpt>
      <trkpt lat="39.915137452261" lon="3.106690969139">
        <ele>86</ele>
        <time>2015-06-21T11:33:36Z</time>
      </trkpt>
      <trkpt lat="39.915156562993" lon="3.106713600269">
        <ele>81.6</ele>
        <time>2015-06-21T11:33:37Z</time>
      </trkpt>
      <trkpt lat="39.915210877705" lon="3.106772608845">
        <ele>83</ele>
        <time>2015-06-21T11:33:40Z</time>
      </trkpt>
      <trkpt lat="39.915246081685" lon="3.106812590508">
        <ele>88.4</ele>
        <time>2015-06-21T11:33:42Z</time>
      </trkpt>
      <trkpt lat="39.915356555127" lon="3.106934379515">
        <ele>89.4</ele>
        <time>2015-06-21T11:33:48Z</time>
      </trkpt>
      <trkpt lat="39.915481445437" lon="3.107076201263">
        <ele>90.4</ele>
        <time>2015-06-21T11:33:55Z</time>
      </trkpt>
      <trkpt lat="39.915585464816" lon="3.10719044656">
        <ele>91.6</ele>
        <time>2015-06-21T11:34:01Z</time>
      </trkpt>
      <trkpt lat="39.915674145318" lon="3.107291448455">
        <ele>92.8</ele>
        <time>2015-06-21T11:34:06Z</time>
      </trkpt>
      <trkpt lat="39.915783026199" lon="3.107410806711">
        <ele>93.8</ele>
        <time>2015-06-21T11:34:12Z</time>
      </trkpt>
      <trkpt lat="39.915903893197" lon="3.107562686739">
        <ele>94.8</ele>
        <time>2015-06-21T11:34:19Z</time>
      </trkpt>
      <trkpt lat="39.915967763275" lon="3.107649104128">
        <ele>96</ele>
        <time>2015-06-21T11:34:23Z</time>
      </trkpt>
      <trkpt lat="39.915985029989" lon="3.107670226516">
        <ele>96.2</ele>
        <time>2015-06-21T11:34:24Z</time>
      </trkpt>
      <trkpt lat="39.916048900067" lon="3.107760331941">
        <ele>97</ele>
        <time>2015-06-21T11:34:28Z</time>
      </trkpt>
      <trkpt lat="39.916170102341" lon="3.107908272476">
        <ele>98</ele>
        <time>2015-06-21T11:34:35Z</time>
      </trkpt>
      <trkpt lat="39.916237157541" lon="3.107984463947">
        <ele>99.2</ele>
        <time>2015-06-21T11:34:39Z</time>
      </trkpt>
      <trkpt lat="39.916332292106" lon="3.108021428126">
        <ele>100.2</ele>
        <time>2015-06-21T11:34:43Z</time>
      </trkpt>
      <trkpt lat="39.91635794072" lon="3.108019165013">
        <ele>100.4</ele>
        <time>2015-06-21T11:34:44Z</time>
      </trkpt>
      <trkpt lat="39.916483585401" lon="3.10797583059">
        <ele>100.8</ele>
        <time>2015-06-21T11:34:49Z</time>
      </trkpt>
      <trkpt lat="39.916609900634" lon="3.107833422109">
        <ele>101</ele>
        <time>2015-06-21T11:34:55Z</time>
      </trkpt>
      <trkpt lat="39.916646445718" lon="3.107787154021">
        <ele>92.6</ele>
        <time>2015-06-21T11:34:57Z</time>
      </trkpt>
      <trkpt lat="39.916775526978" lon="3.107627646464">
        <ele>93.6</ele>
        <time>2015-06-21T11:35:04Z</time>
      </trkpt>
      <trkpt lat="39.916790279122" lon="3.107609290103">
        <ele>93.6</ele>
        <time>2015-06-21T11:35:05Z</time>
      </trkpt>
      <trkpt lat="39.916845348205" lon="3.107536199935">
        <ele>94.6</ele>
        <time>2015-06-21T11:35:08Z</time>
      </trkpt>
      <trkpt lat="39.91691617526" lon="3.107449028175">
        <ele>95.8</ele>
        <time>2015-06-21T11:35:12Z</time>
      </trkpt>
      <trkpt lat="39.917009298169" lon="3.10732874791">
        <ele>96.8</ele>
        <time>2015-06-21T11:35:17Z</time>
      </trkpt>
      <trkpt lat="39.917094542092" lon="3.107222716875">
        <ele>98</ele>
        <time>2015-06-21T11:35:22Z</time>
      </trkpt>
      <trkpt lat="39.917157490161" lon="3.107139819884">
        <ele>99</ele>
        <time>2015-06-21T11:35:26Z</time>
      </trkpt>
      <trkpt lat="39.917174170142" lon="3.107121547342">
        <ele>99</ele>
        <time>2015-06-21T11:35:27Z</time>
      </trkpt>
      <trkpt lat="39.917228484854" lon="3.107038398894">
        <ele>100.2</ele>
        <time>2015-06-21T11:35:31Z</time>
      </trkpt>
      <trkpt lat="39.917258324418" lon="3.106954998989">
        <ele>100.8</ele>
        <time>2015-06-21T11:35:34Z</time>
      </trkpt>
      <trkpt lat="39.917261090445" lon="3.106893308205">
        <ele>101.2</ele>
        <time>2015-06-21T11:35:36Z</time>
      </trkpt>
      <trkpt lat="39.917259916979" lon="3.106757856701">
        <ele>102</ele>
        <time>2015-06-21T11:35:40Z</time>
      </trkpt>
      <trkpt lat="39.917245667749" lon="3.106690214768">
        <ele>102.2</ele>
        <time>2015-06-21T11:35:42Z</time>
      </trkpt>
      <trkpt lat="39.917209038846" lon="3.106524336967">
        <ele>103.4</ele>
        <time>2015-06-21T11:35:47Z</time>
      </trkpt>
      <trkpt lat="39.917200992222" lon="3.106494162127">
        <ele>103.6</ele>
        <time>2015-06-21T11:35:48Z</time>
      </trkpt>
      <trkpt lat="39.9171810433" lon="3.106407074186">
        <ele>104.6</ele>
        <time>2015-06-21T11:35:51Z</time>
      </trkpt>
      <trkpt lat="39.917158831265" lon="3.10627849584">
        <ele>106</ele>
        <time>2015-06-21T11:35:55Z</time>
      </trkpt>
      <trkpt lat="39.917142570379" lon="3.106184953836">
        <ele>107.2</ele>
        <time>2015-06-21T11:35:58Z</time>
      </trkpt>
      <trkpt lat="39.917131087176" lon="3.106085460683">
        <ele>108.2</ele>
        <time>2015-06-21T11:36:01Z</time>
      </trkpt>
      <trkpt lat="39.917121615629" lon="3.105951937016">
        <ele>109.4</ele>
        <time>2015-06-21T11:36:05Z</time>
      </trkpt>
      <trkpt lat="39.917138379429" lon="3.105856299537">
        <ele>110.2</ele>
        <time>2015-06-21T11:36:08Z</time>
      </trkpt>
      <trkpt lat="39.917164195681" lon="3.105799470255">
        <ele>110.8</ele>
        <time>2015-06-21T11:36:10Z</time>
      </trkpt>
      <trkpt lat="39.917226221741" lon="3.105734091435">
        <ele>112</ele>
        <time>2015-06-21T11:36:14Z</time>
      </trkpt>
      <trkpt lat="39.917373407905" lon="3.105701150568">
        <ele>113</ele>
        <time>2015-06-21T11:36:18Z</time>
      </trkpt>
      <trkpt lat="39.917474158343" lon="3.105725960992">
        <ele>114.2</ele>
        <time>2015-06-21T11:36:22Z</time>
      </trkpt>
      <trkpt lat="39.917522857182" lon="3.105754040357">
        <ele>115.2</ele>
        <time>2015-06-21T11:36:24Z</time>
      </trkpt>
      <trkpt lat="39.917646322569" lon="3.105814809132">
        <ele>116.4</ele>
        <time>2015-06-21T11:36:29Z</time>
      </trkpt>
      <trkpt lat="39.917734164881" lon="3.105857137727">
        <ele>117.6</ele>
        <time>2015-06-21T11:36:33Z</time>
      </trkpt>
      <trkpt lat="39.917844470685" lon="3.105912709724">
        <ele>114.6</ele>
        <time>2015-06-21T11:36:38Z</time>
      </trkpt>
      <trkpt lat="39.917866515082" lon="3.105928216239">
        <ele>116.2</ele>
        <time>2015-06-21T11:36:39Z</time>
      </trkpt>
      <trkpt lat="39.917884033253" lon="3.105940956727">
        <ele>118.4</ele>
        <time>2015-06-21T11:36:40Z</time>
      </trkpt>
      <trkpt lat="39.917943544743" lon="3.105986721901">
        <ele>122</ele>
        <time>2015-06-21T11:36:43Z</time>
      </trkpt>
      <trkpt lat="39.917961733466" lon="3.106005162081">
        <ele>119.2</ele>
        <time>2015-06-21T11:36:44Z</time>
      </trkpt>
      <trkpt lat="39.918038008756" lon="3.106061069354">
        <ele>120</ele>
        <time>2015-06-21T11:36:48Z</time>
      </trkpt>
      <trkpt lat="39.918076900772" lon="3.106093172031">
        <ele>120.4</ele>
        <time>2015-06-21T11:36:50Z</time>
      </trkpt>
      <trkpt lat="39.91823380994" lon="3.106214541943">
        <ele>121.4</ele>
        <time>2015-06-21T11:36:58Z</time>
      </trkpt>
      <trkpt lat="39.918253758862" lon="3.106230551372">
        <ele>121.4</ele>
        <time>2015-06-21T11:36:59Z</time>
      </trkpt>
      <trkpt lat="39.918388707452" lon="3.106328619602">
        <ele>122.6</ele>
        <time>2015-06-21T11:37:06Z</time>
      </trkpt>
      <trkpt lat="39.918447213114" lon="3.106368936541">
        <ele>123</ele>
        <time>2015-06-21T11:37:09Z</time>
      </trkpt>
      <trkpt lat="39.918531451209" lon="3.106416964828">
        <ele>123.8</ele>
        <time>2015-06-21T11:37:13Z</time>
      </trkpt>
      <trkpt lat="39.918661203021" lon="3.106474883757">
        <ele>124.8</ele>
        <time>2015-06-21T11:37:19Z</time>
      </trkpt>
      <trkpt lat="39.91868224159" lon="3.106484103847">
        <ele>125</ele>
        <time>2015-06-21T11:37:20Z</time>
      </trkpt>
      <trkpt lat="39.918823225148" lon="3.106569850684">
        <ele>126.2</ele>
        <time>2015-06-21T11:37:27Z</time>
      </trkpt>
      <trkpt lat="39.918906708872" lon="3.106623494844">
        <ele>127.2</ele>
        <time>2015-06-21T11:37:31Z</time>
      </trkpt>
      <trkpt lat="39.919038053245" lon="3.106718461771">
        <ele>121.8</ele>
        <time>2015-06-21T11:37:38Z</time>
      </trkpt>
      <trkpt lat="39.919094295794" lon="3.106756599416">
        <ele>122</ele>
        <time>2015-06-21T11:37:41Z</time>
      </trkpt>
      <trkpt lat="39.919133355448" lon="3.106782080392">
        <ele>128.6</ele>
        <time>2015-06-21T11:37:43Z</time>
      </trkpt>
      <trkpt lat="39.919210888023" lon="3.106840753692">
        <ele>129.6</ele>
        <time>2015-06-21T11:37:47Z</time>
      </trkpt>
      <trkpt lat="39.919331671202" lon="3.106920884656">
        <ele>130.6</ele>
        <time>2015-06-21T11:37:53Z</time>
      </trkpt>
      <trkpt lat="39.919425045568" lon="3.106977043386">
        <ele>131.8</ele>
        <time>2015-06-21T11:37:58Z</time>
      </trkpt>
      <trkpt lat="39.91949780046" lon="3.107015767764">
        <ele>125.2</ele>
        <time>2015-06-21T11:38:02Z</time>
      </trkpt>
      <trkpt lat="39.919537698304" lon="3.107031944831">
        <ele>118.8</ele>
        <time>2015-06-21T11:38:04Z</time>
      </trkpt>
      <trkpt lat="39.919554462104" lon="3.107036387238">
        <ele>123</ele>
        <time>2015-06-21T11:38:05Z</time>
      </trkpt>
      <trkpt lat="39.919581703279" lon="3.107040662007">
        <ele>125.4</ele>
        <time>2015-06-21T11:38:06Z</time>
      </trkpt>
      <trkpt lat="39.919600730192" lon="3.107046529337">
        <ele>129.6</ele>
        <time>2015-06-21T11:38:07Z</time>
      </trkpt>
      <trkpt lat="39.919640376579" lon="3.107060359472">
        <ele>125.8</ele>
        <time>2015-06-21T11:38:09Z</time>
      </trkpt>
      <trkpt lat="39.919662420976" lon="3.107063628413">
        <ele>121.8</ele>
        <time>2015-06-21T11:38:10Z</time>
      </trkpt>
      <trkpt lat="39.91968304045" lon="3.107066562078">
        <ele>120</ele>
        <time>2015-06-21T11:38:11Z</time>
      </trkpt>
      <trkpt lat="39.919704498114" lon="3.107069495743">
        <ele>123.4</ele>
        <time>2015-06-21T11:38:12Z</time>
      </trkpt>
      <trkpt lat="39.919727548339" lon="3.107070250114">
        <ele>120.4</ele>
        <time>2015-06-21T11:38:13Z</time>
      </trkpt>
      <trkpt lat="39.919817569945" lon="3.107074357245">
        <ele>121.6</ele>
        <time>2015-06-21T11:38:17Z</time>
      </trkpt>
      <trkpt lat="39.919873980132" lon="3.107063544594">
        <ele>122.4</ele>
        <time>2015-06-21T11:38:20Z</time>
      </trkpt>
      <trkpt lat="39.919890576294" lon="3.107047870441">
        <ele>122.6</ele>
        <time>2015-06-21T11:38:21Z</time>
      </trkpt>
      <trkpt lat="39.919916979279" lon="3.107050133554">
        <ele>123</ele>
        <time>2015-06-21T11:38:22Z</time>
      </trkpt>
      <trkpt lat="39.919959559331" lon="3.107054324504">
        <ele>123.6</ele>
        <time>2015-06-21T11:38:24Z</time>
      </trkpt>
      <trkpt lat="39.920038935924" lon="3.107055246513">
        <ele>124.8</ele>
        <time>2015-06-21T11:38:28Z</time>
      </trkpt>
      <trkpt lat="39.920123257838" lon="3.107054240685">
        <ele>126</ele>
        <time>2015-06-21T11:38:32Z</time>
      </trkpt>
      <trkpt lat="39.920164832062" lon="3.107050804106">
        <ele>126.2</ele>
        <time>2015-06-21T11:38:34Z</time>
      </trkpt>
      <trkpt lat="39.920269521993" lon="3.10705633616">
        <ele>127</ele>
        <time>2015-06-21T11:38:39Z</time>
      </trkpt>
      <trkpt lat="39.920330626044" lon="3.107051726115">
        <ele>127.4</ele>
        <time>2015-06-21T11:38:42Z</time>
      </trkpt>
      <trkpt lat="39.920418552175" lon="3.107053234857">
        <ele>128</ele>
        <time>2015-06-21T11:38:46Z</time>
      </trkpt>
      <trkpt lat="39.920556015335" lon="3.107055917065">
        <ele>129</ele>
        <time>2015-06-21T11:38:52Z</time>
      </trkpt>
      <trkpt lat="39.920579568474" lon="3.107055833246">
        <ele>129.2</ele>
        <time>2015-06-21T11:38:53Z</time>
      </trkpt>
      <trkpt lat="39.920667997519" lon="3.107051809934">
        <ele>130.4</ele>
        <time>2015-06-21T11:38:57Z</time>
      </trkpt>
      <trkpt lat="39.920737148194" lon="3.107052815762">
        <ele>131.4</ele>
        <time>2015-06-21T11:39:00Z</time>
      </trkpt>
      <trkpt lat="39.920806298869" lon="3.107057090531">
        <ele>132.6</ele>
        <time>2015-06-21T11:39:03Z</time>
      </trkpt>
      <trkpt lat="39.920902020167" lon="3.107068406096">
        <ele>133.8</ele>
        <time>2015-06-21T11:39:07Z</time>
      </trkpt>
      <trkpt lat="39.920972931041" lon="3.107077374729">
        <ele>135</ele>
        <time>2015-06-21T11:39:10Z</time>
      </trkpt>
      <trkpt lat="39.921064461389" lon="3.107087852104">
        <ele>136.2</ele>
        <time>2015-06-21T11:39:14Z</time>
      </trkpt>
      <trkpt lat="39.921163703085" lon="3.107125989749">
        <ele>137.6</ele>
        <time>2015-06-21T11:39:19Z</time>
      </trkpt>
      <trkpt lat="39.921203433291" lon="3.107144681386">
        <ele>138</ele>
        <time>2015-06-21T11:39:21Z</time>
      </trkpt>
      <trkpt lat="39.921263782971" lon="3.107167647792">
        <ele>138.8</ele>
        <time>2015-06-21T11:39:24Z</time>
      </trkpt>
      <trkpt lat="39.921321115167" lon="3.107189859827">
        <ele>140.2</ele>
        <time>2015-06-21T11:39:27Z</time>
      </trkpt>
      <trkpt lat="39.921343662478" lon="3.10719966665">
        <ele>140.4</ele>
        <time>2015-06-21T11:39:28Z</time>
      </trkpt>
      <trkpt lat="39.921405437081" lon="3.107223471246">
        <ele>143.4</ele>
        <time>2015-06-21T11:39:31Z</time>
      </trkpt>
      <trkpt lat="39.921471402634" lon="3.10724744348">
        <ele>144.6</ele>
        <time>2015-06-21T11:39:34Z</time>
      </trkpt>
      <trkpt lat="39.921515156152" lon="3.107260686882">
        <ele>143.2</ele>
        <time>2015-06-21T11:39:36Z</time>
      </trkpt>
      <trkpt lat="39.921539212205" lon="3.107267140945">
        <ele>143.6</ele>
        <time>2015-06-21T11:39:37Z</time>
      </trkpt>
      <trkpt lat="39.921605596853" lon="3.107286670772">
        <ele>144.4</ele>
        <time>2015-06-21T11:39:40Z</time>
      </trkpt>
      <trkpt lat="39.92166703618" lon="3.107299495079">
        <ele>145.4</ele>
        <time>2015-06-21T11:39:43Z</time>
      </trkpt>
      <trkpt lat="39.921726715308" lon="3.107322629123">
        <ele>146.4</ele>
        <time>2015-06-21T11:39:46Z</time>
      </trkpt>
      <trkpt lat="39.921839200406" lon="3.107338973828">
        <ele>147.6</ele>
        <time>2015-06-21T11:39:51Z</time>
      </trkpt>
      <trkpt lat="39.921935173161" lon="3.107353474515">
        <ele>148.8</ele>
        <time>2015-06-21T11:39:55Z</time>
      </trkpt>
      <trkpt lat="39.922026116776" lon="3.107370741229">
        <ele>150</ele>
        <time>2015-06-21T11:39:59Z</time>
      </trkpt>
      <trkpt lat="39.92208948394" lon="3.107382475889">
        <ele>151</ele>
        <time>2015-06-21T11:40:02Z</time>
      </trkpt>
      <trkpt lat="39.922131561078" lon="3.107391109246">
        <ele>149.4</ele>
        <time>2015-06-21T11:40:04Z</time>
      </trkpt>
      <trkpt lat="39.922172548569" lon="3.107398233861">
        <ele>149.8</ele>
        <time>2015-06-21T11:40:06Z</time>
      </trkpt>
      <trkpt lat="39.92223616719" lon="3.10741927243">
        <ele>152.8</ele>
        <time>2015-06-21T11:40:09Z</time>
      </trkpt>
      <trkpt lat="39.922319567095" lon="3.10745028546">
        <ele>154</ele>
        <time>2015-06-21T11:40:13Z</time>
      </trkpt>
      <trkpt lat="39.922358375292" lon="3.107475095884">
        <ele>154.8</ele>
        <time>2015-06-21T11:40:15Z</time>
      </trkpt>
      <trkpt lat="39.922378240395" lon="3.107488171648">
        <ele>155.2</ele>
        <time>2015-06-21T11:40:16Z</time>
      </trkpt>
      <trkpt lat="39.922464657784" lon="3.1075307517">
        <ele>156.4</ele>
        <time>2015-06-21T11:40:20Z</time>
      </trkpt>
      <trkpt lat="39.922605306066" lon="3.107607362266">
        <ele>158</ele>
        <time>2015-06-21T11:40:27Z</time>
      </trkpt>
      <trkpt lat="39.922705050676" lon="3.107662682806">
        <ele>159</ele>
        <time>2015-06-21T11:40:32Z</time>
      </trkpt>
      <trkpt lat="39.922828432244" lon="3.107720517916">
        <ele>160.2</ele>
        <time>2015-06-21T11:40:38Z</time>
      </trkpt>
      <trkpt lat="39.922967404146" lon="3.107737952268">
        <ele>161.2</ele>
        <time>2015-06-21T11:40:44Z</time>
      </trkpt>
      <trkpt lat="39.923121379649" lon="3.10777634137">
        <ele>162.4</ele>
        <time>2015-06-21T11:40:51Z</time>
      </trkpt>
      <trkpt lat="39.923254065126" lon="3.107808024952">
        <ele>163.4</ele>
        <time>2015-06-21T11:40:57Z</time>
      </trkpt>
      <trkpt lat="39.923345008741" lon="3.10782998553">
        <ele>164</ele>
        <time>2015-06-21T11:41:01Z</time>
      </trkpt>
      <trkpt lat="39.923414494692" lon="3.107845156769">
        <ele>164.4</ele>
        <time>2015-06-21T11:41:04Z</time>
      </trkpt>
      <trkpt lat="39.923552209309" lon="3.107853203393">
        <ele>165.2</ele>
        <time>2015-06-21T11:41:10Z</time>
      </trkpt>
      <trkpt lat="39.923599315587" lon="3.107843145113">
        <ele>165.4</ele>
        <time>2015-06-21T11:41:12Z</time>
      </trkpt>
      <trkpt lat="39.923741137335" lon="3.107799140138">
        <ele>166</ele>
        <time>2015-06-21T11:41:18Z</time>
      </trkpt>
      <trkpt lat="39.923835014615" lon="3.107758404104">
        <ele>166.6</ele>
        <time>2015-06-21T11:41:22Z</time>
      </trkpt>
      <trkpt lat="39.923919168891" lon="3.107731498205">
        <ele>167</ele>
        <time>2015-06-21T11:41:26Z</time>
      </trkpt>
      <trkpt lat="39.924094769696" lon="3.107634351984">
        <ele>167.6</ele>
        <time>2015-06-21T11:41:34Z</time>
      </trkpt>
      <trkpt lat="39.924115053894" lon="3.107621695315">
        <ele>168</ele>
        <time>2015-06-21T11:41:35Z</time>
      </trkpt>
      <trkpt lat="39.924178923972" lon="3.10758439586">
        <ele>168.6</ele>
        <time>2015-06-21T11:41:38Z</time>
      </trkpt>
      <trkpt lat="39.92427464527" lon="3.107555562124">
        <ele>169.6</ele>
        <time>2015-06-21T11:41:42Z</time>
      </trkpt>
      <trkpt lat="39.9243224221" lon="3.107557741418">
        <ele>170.2</ele>
        <time>2015-06-21T11:41:44Z</time>
      </trkpt>
      <trkpt lat="39.924370450387" lon="3.107570733363">
        <ele>170.8</ele>
        <time>2015-06-21T11:41:46Z</time>
      </trkpt>
      <trkpt lat="39.924431554438" lon="3.107615911804">
        <ele>169.4</ele>
        <time>2015-06-21T11:41:49Z</time>
      </trkpt>
      <trkpt lat="39.924447899143" lon="3.107633346156">
        <ele>169.8</ele>
        <time>2015-06-21T11:41:50Z</time>
      </trkpt>
      <trkpt lat="39.924513361782" lon="3.1077235354">
        <ele>172.8</ele>
        <time>2015-06-21T11:41:54Z</time>
      </trkpt>
      <trkpt lat="39.924556863843" lon="3.107820094888">
        <ele>173.6</ele>
        <time>2015-06-21T11:41:58Z</time>
      </trkpt>
      <trkpt lat="39.924565916295" lon="3.107846078778">
        <ele>177.2</ele>
        <time>2015-06-21T11:41:59Z</time>
      </trkpt>
      <trkpt lat="39.924575136385" lon="3.10787021865">
        <ele>179.6</ele>
        <time>2015-06-21T11:42:00Z</time>
      </trkpt>
      <trkpt lat="39.924586116674" lon="3.107896789273">
        <ele>183.2</ele>
        <time>2015-06-21T11:42:01Z</time>
      </trkpt>
      <trkpt lat="39.924595420583" lon="3.107919755679">
        <ele>184.4</ele>
        <time>2015-06-21T11:42:02Z</time>
      </trkpt>
      <trkpt lat="39.924604975949" lon="3.107947583587">
        <ele>182.4</ele>
        <time>2015-06-21T11:42:03Z</time>
      </trkpt>
      <trkpt lat="39.92461243584" lon="3.10797666878">
        <ele>180.4</ele>
        <time>2015-06-21T11:42:04Z</time>
      </trkpt>
      <trkpt lat="39.924630289287" lon="3.108024613248">
        <ele>180.6</ele>
        <time>2015-06-21T11:42:06Z</time>
      </trkpt>
      <trkpt lat="39.92468368199" lon="3.108139529097">
        <ele>181.4</ele>
        <time>2015-06-21T11:42:11Z</time>
      </trkpt>
      <trkpt lat="39.924703463274" lon="3.108187222108">
        <ele>181.8</ele>
        <time>2015-06-21T11:42:13Z</time>
      </trkpt>
      <trkpt lat="39.924740595091" lon="3.108274896782">
        <ele>182.4</ele>
        <time>2015-06-21T11:42:17Z</time>
      </trkpt>
      <trkpt lat="39.924783091324" lon="3.108368857881">
        <ele>183</ele>
        <time>2015-06-21T11:42:21Z</time>
      </trkpt>
      <trkpt lat="39.924833885638" lon="3.108452928338">
        <ele>183.6</ele>
        <time>2015-06-21T11:42:25Z</time>
      </trkpt>
      <trkpt lat="39.924871185093" lon="3.10848964106">
        <ele>183.8</ele>
        <time>2015-06-21T11:42:27Z</time>
      </trkpt>
      <trkpt lat="39.925026250243" lon="3.108555187518">
        <ele>184.8</ele>
        <time>2015-06-21T11:42:34Z</time>
      </trkpt>
      <trkpt lat="39.925195145528" lon="3.108548649636">
        <ele>185.8</ele>
        <time>2015-06-21T11:42:41Z</time>
      </trkpt>
      <trkpt lat="39.925312911223" lon="3.108557702088">
        <ele>186.8</ele>
        <time>2015-06-21T11:42:46Z</time>
      </trkpt>
      <trkpt lat="39.925336799638" lon="3.108564491427">
        <ele>187</ele>
        <time>2015-06-21T11:42:47Z</time>
      </trkpt>
      <trkpt lat="39.925456912265" lon="3.108665241865">
        <ele>187.6</ele>
        <time>2015-06-21T11:42:53Z</time>
      </trkpt>
      <trkpt lat="39.925596806176" lon="3.108903036368">
        <ele>188.2</ele>
        <time>2015-06-21T11:43:03Z</time>
      </trkpt>
      <trkpt lat="39.925684397031" lon="3.10908475596">
        <ele>188.4</ele>
        <time>2015-06-21T11:43:10Z</time>
      </trkpt>
      <trkpt lat="39.925763186891" lon="3.109251136675">
        <ele>192.4</ele>
        <time>2015-06-21T11:43:17Z</time>
      </trkpt>
      <trkpt lat="39.925805264029" lon="3.109337637883">
        <ele>191.2</ele>
        <time>2015-06-21T11:43:21Z</time>
      </trkpt>
      <trkpt lat="39.925818758888" lon="3.109356748615">
        <ele>190</ele>
        <time>2015-06-21T11:43:22Z</time>
      </trkpt>
      <trkpt lat="39.92585128066" lon="3.10939320988">
        <ele>190.2</ele>
        <time>2015-06-21T11:43:24Z</time>
      </trkpt>
      <trkpt lat="39.925952534012" lon="3.109446434945">
        <ele>191</ele>
        <time>2015-06-21T11:43:29Z</time>
      </trkpt>
      <trkpt lat="39.925974662228" lon="3.109446937859">
        <ele>191.2</ele>
        <time>2015-06-21T11:43:30Z</time>
      </trkpt>
      <trkpt lat="39.926119250003" lon="3.109429503507">
        <ele>192.2</ele>
        <time>2015-06-21T11:43:36Z</time>
      </trkpt>
      <trkpt lat="39.926204410107" lon="3.109433526819">
        <ele>192.6</ele>
        <time>2015-06-21T11:43:40Z</time>
      </trkpt>
      <trkpt lat="39.926265597977" lon="3.109436125208">
        <ele>193.2</ele>
        <time>2015-06-21T11:43:43Z</time>
      </trkpt>
      <trkpt lat="39.926392499943" lon="3.109455822673">
        <ele>194.4</ele>
        <time>2015-06-21T11:43:49Z</time>
      </trkpt>
      <trkpt lat="39.92649081963" lon="3.109503348046">
        <ele>195.6</ele>
        <time>2015-06-21T11:43:54Z</time>
      </trkpt>
      <trkpt lat="39.926543793238" lon="3.109550286686">
        <ele>196.2</ele>
        <time>2015-06-21T11:43:57Z</time>
      </trkpt>
      <trkpt lat="39.926576398829" lon="3.109586915589">
        <ele>196.6</ele>
        <time>2015-06-21T11:43:59Z</time>
      </trkpt>
      <trkpt lat="39.926655188689" lon="3.109694874461">
        <ele>197.8</ele>
        <time>2015-06-21T11:44:05Z</time>
      </trkpt>
      <trkpt lat="39.926738337137" lon="3.109803587704">
        <ele>199</ele>
        <time>2015-06-21T11:44:11Z</time>
      </trkpt>
      <trkpt lat="39.926830705675" lon="3.109854298199">
        <ele>200</ele>
        <time>2015-06-21T11:44:16Z</time>
      </trkpt>
      <trkpt lat="39.926852498615" lon="3.109855806941">
        <ele>200</ele>
        <time>2015-06-21T11:44:17Z</time>
      </trkpt>
      <trkpt lat="39.92696774974" lon="3.109812640156">
        <ele>200.8</ele>
        <time>2015-06-21T11:44:22Z</time>
      </trkpt>
      <trkpt lat="39.927082917046" lon="3.109734520848">
        <ele>201.2</ele>
        <time>2015-06-21T11:44:27Z</time>
      </trkpt>
      <trkpt lat="39.927178386887" lon="3.109718595238">
        <ele>201.4</ele>
        <time>2015-06-21T11:44:31Z</time>
      </trkpt>
      <trkpt lat="39.927303612473" lon="3.10977207176">
        <ele>202.4</ele>
        <time>2015-06-21T11:44:37Z</time>
      </trkpt>
      <trkpt lat="39.927344264688" lon="3.109791601587">
        <ele>202.8</ele>
        <time>2015-06-21T11:44:39Z</time>
      </trkpt>
      <trkpt lat="39.927404865825" lon="3.109815573821">
        <ele>203.4</ele>
        <time>2015-06-21T11:44:42Z</time>
      </trkpt>
      <trkpt lat="39.927477285441" lon="3.10983996515">
        <ele>204</ele>
        <time>2015-06-21T11:44:45Z</time>
      </trkpt>
      <trkpt lat="39.927497821096" lon="3.109850610163">
        <ele>204.8</ele>
        <time>2015-06-21T11:44:46Z</time>
      </trkpt>
      <trkpt lat="39.927658753576" lon="3.109918252096">
        <ele>205.4</ele>
        <time>2015-06-21T11:44:54Z</time>
      </trkpt>
      <trkpt lat="39.927785655542" lon="3.109976003387">
        <ele>205.8</ele>
        <time>2015-06-21T11:45:01Z</time>
      </trkpt>
      <trkpt lat="39.927799569496" lon="3.109984050011">
        <ele>206</ele>
        <time>2015-06-21T11:45:02Z</time>
      </trkpt>
      <trkpt lat="39.927926555281" lon="3.110039957284">
        <ele>207</ele>
        <time>2015-06-21T11:45:08Z</time>
      </trkpt>
      <trkpt lat="39.92805655855" lon="3.110081447689">
        <ele>208.2</ele>
        <time>2015-06-21T11:45:14Z</time>
      </trkpt>
      <trkpt lat="39.928231321165" lon="3.110087901752">
        <ele>209.2</ele>
        <time>2015-06-21T11:45:21Z</time>
      </trkpt>
      <trkpt lat="39.92827784071" lon="3.110091338331">
        <ele>209.4</ele>
        <time>2015-06-21T11:45:23Z</time>
      </trkpt>
      <trkpt lat="39.928384374659" lon="3.110095361643">
        <ele>210.4</ele>
        <time>2015-06-21T11:45:28Z</time>
      </trkpt>
      <trkpt lat="39.928459644121" lon="3.110109443235">
        <ele>210.8</ele>
        <time>2015-06-21T11:45:32Z</time>
      </trkpt>
      <trkpt lat="39.928515551394" lon="3.110147161785">
        <ele>211.4</ele>
        <time>2015-06-21T11:45:35Z</time>
      </trkpt>
      <trkpt lat="39.928544468949" lon="3.11018613762">
        <ele>211.8</ele>
        <time>2015-06-21T11:45:37Z</time>
      </trkpt>
      <trkpt lat="39.928588893019" lon="3.110268364059">
        <ele>212.4</ele>
        <time>2015-06-21T11:45:41Z</time>
      </trkpt>
      <trkpt lat="39.928626443931" lon="3.110360984054">
        <ele>212.8</ele>
        <time>2015-06-21T11:45:46Z</time>
      </trkpt>
      <trkpt lat="39.928633736184" lon="3.110407168323">
        <ele>212.8</ele>
        <time>2015-06-21T11:45:51Z</time>
      </trkpt>
      <trkpt lat="39.928638430048" lon="3.110404737572">
        <ele>212.2</ele>
        <time>2015-06-21T11:45:56Z</time>
      </trkpt>
      <trkpt lat="39.928638430048" lon="3.11040406702">
        <ele>211.4</ele>
        <time>2015-06-21T11:45:59Z</time>
      </trkpt>
      <trkpt lat="39.928643626826" lon="3.110394260197">
        <ele>211</ele>
        <time>2015-06-21T11:46:03Z</time>
      </trkpt>
      <trkpt lat="39.928650080889" lon="3.110390991256">
        <ele>210.4</ele>
        <time>2015-06-21T11:46:08Z</time>
      </trkpt>
      <trkpt lat="39.928651841088" lon="3.110388895781">
        <ele>209.8</ele>
        <time>2015-06-21T11:46:11Z</time>
      </trkpt>
      <trkpt lat="39.928651170536" lon="3.110391913265">
        <ele>210.2</ele>
        <time>2015-06-21T11:46:21Z</time>
      </trkpt>
      <trkpt lat="39.928641782808" lon="3.110396690948">
        <ele>210.6</ele>
        <time>2015-06-21T11:46:27Z</time>
      </trkpt>
      <trkpt lat="39.928643710645" lon="3.110393673464">
        <ele>210.2</ele>
        <time>2015-06-21T11:46:34Z</time>
      </trkpt>
      <trkpt lat="39.928647817776" lon="3.110391158894">
        <ele>210.2</ele>
        <time>2015-06-21T11:46:46Z</time>
      </trkpt>
      <trkpt lat="39.928651589631" lon="3.110393589645">
        <ele>210.4</ele>
        <time>2015-06-21T11:46:51Z</time>
      </trkpt>
      <trkpt lat="39.928648991242" lon="3.110393254369">
        <ele>210.4</ele>
        <time>2015-06-21T11:46:53Z</time>
      </trkpt>
      <trkpt lat="39.928658630427" lon="3.110386884125">
        <ele>210.2</ele>
        <time>2015-06-21T11:46:59Z</time>
      </trkpt>
      <trkpt lat="39.928664497757" lon="3.110393505826">
        <ele>210.2</ele>
        <time>2015-06-21T11:47:03Z</time>
      </trkpt>
      <trkpt lat="39.928679585177" lon="3.110413370929">
        <ele>205</ele>
        <time>2015-06-21T11:47:05Z</time>
      </trkpt>
      <trkpt lat="39.92869106838" lon="3.110426279055">
        <ele>204</ele>
        <time>2015-06-21T11:47:06Z</time>
      </trkpt>
      <trkpt lat="39.928749909318" lon="3.110495010635">
        <ele>204</ele>
        <time>2015-06-21T11:47:10Z</time>
      </trkpt>
      <trkpt lat="39.92884445715" lon="3.110699696633">
        <ele>204.6</ele>
        <time>2015-06-21T11:47:18Z</time>
      </trkpt>
      <trkpt lat="39.928877230379" lon="3.110872950506">
        <ele>205</ele>
        <time>2015-06-21T11:47:25Z</time>
      </trkpt>
      <trkpt lat="39.928884103537" lon="3.110892061238">
        <ele>205</ele>
        <time>2015-06-21T11:47:26Z</time>
      </trkpt>
      <trkpt lat="39.928894245636" lon="3.11093464129">
        <ele>204.8</ele>
        <time>2015-06-21T11:47:31Z</time>
      </trkpt>
      <trkpt lat="39.928896592568" lon="3.110942017362">
        <ele>204.8</ele>
        <time>2015-06-21T11:47:38Z</time>
      </trkpt>
      <trkpt lat="39.928902711355" lon="3.110947968511">
        <ele>204.8</ele>
        <time>2015-06-21T11:47:44Z</time>
      </trkpt>
      <trkpt lat="39.928918050232" lon="3.110989626554">
        <ele>204.8</ele>
        <time>2015-06-21T11:47:51Z</time>
      </trkpt>
      <trkpt lat="39.928926096856" lon="3.111023070335">
        <ele>205.6</ele>
        <time>2015-06-21T11:47:58Z</time>
      </trkpt>
      <trkpt lat="39.928928527607" lon="3.11102768038">
        <ele>206</ele>
        <time>2015-06-21T11:48:03Z</time>
      </trkpt>
      <trkpt lat="39.928931461272" lon="3.111022818878">
        <ele>206.2</ele>
        <time>2015-06-21T11:48:05Z</time>
      </trkpt>
      <trkpt lat="39.928932048005" lon="3.111039331221">
        <ele>207</ele>
        <time>2015-06-21T11:48:12Z</time>
      </trkpt>
      <trkpt lat="39.928927102684" lon="3.111044779456">
        <ele>207.2</ele>
        <time>2015-06-21T11:48:13Z</time>
      </trkpt>
      <trkpt lat="39.92891821787" lon="3.111042348705">
        <ele>207.8</ele>
        <time>2015-06-21T11:48:17Z</time>
      </trkpt>
      <trkpt lat="39.92892073244" lon="3.111040839963">
        <ele>208.6</ele>
        <time>2015-06-21T11:48:21Z</time>
      </trkpt>
      <trkpt lat="39.928919391336" lon="3.111040001773">
        <ele>208.8</ele>
        <time>2015-06-21T11:48:23Z</time>
      </trkpt>
      <trkpt lat="39.92891821787" lon="3.111044947094">
        <ele>209.8</ele>
        <time>2015-06-21T11:48:29Z</time>
      </trkpt>
      <trkpt lat="39.928918636965" lon="3.111048802768">
        <ele>210.8</ele>
        <time>2015-06-21T11:48:33Z</time>
      </trkpt>
      <trkpt lat="39.928917882594" lon="3.111050479148">
        <ele>211.2</ele>
        <time>2015-06-21T11:48:35Z</time>
      </trkpt>
      <trkpt lat="39.928918134051" lon="3.111053999546">
        <ele>211.4</ele>
        <time>2015-06-21T11:48:48Z</time>
      </trkpt>
      <trkpt lat="39.928922492639" lon="3.111070511889">
        <ele>211.2</ele>
        <time>2015-06-21T11:48:55Z</time>
      </trkpt>
      <trkpt lat="39.92892324701" lon="3.111079564341">
        <ele>211.4</ele>
        <time>2015-06-21T11:49:02Z</time>
      </trkpt>
      <trkpt lat="39.92893079072" lon="3.111075121934">
        <ele>211.6</ele>
        <time>2015-06-21T11:49:10Z</time>
      </trkpt>
      <trkpt lat="39.928924588114" lon="3.11106707531">
        <ele>211.6</ele>
        <time>2015-06-21T11:49:17Z</time>
      </trkpt>
      <trkpt lat="39.928917044404" lon="3.11106204617">
        <ele>210.8</ele>
        <time>2015-06-21T11:49:25Z</time>
      </trkpt>
      <trkpt lat="39.928921319173" lon="3.111056849392">
        <ele>211.2</ele>
        <time>2015-06-21T11:49:34Z</time>
      </trkpt>
      <trkpt lat="39.92891654149" lon="3.111058777229">
        <ele>211</ele>
        <time>2015-06-21T11:49:43Z</time>
      </trkpt>
      <trkpt lat="39.928909081599" lon="3.111072355907">
        <ele>211.2</ele>
        <time>2015-06-21T11:49:49Z</time>
      </trkpt>
      <trkpt lat="39.928913859282" lon="3.111078307056">
        <ele>211.8</ele>
        <time>2015-06-21T11:50:06Z</time>
      </trkpt>
      <trkpt lat="39.928910087427" lon="3.111079480522">
        <ele>211.4</ele>
        <time>2015-06-21T11:50:20Z</time>
      </trkpt>
      <trkpt lat="39.928913440187" lon="3.111075792486">
        <ele>211.6</ele>
        <time>2015-06-21T11:50:27Z</time>
      </trkpt>
      <trkpt lat="39.928914446015" lon="3.111075205753">
        <ele>204.8</ele>
        <time>2015-06-21T11:50:39Z</time>
      </trkpt>
      <trkpt lat="39.928914362196" lon="3.111075121934">
        <ele>194</ele>
        <time>2015-06-21T11:50:40Z</time>
      </trkpt>
      <trkpt lat="39.928914446015" lon="3.111074954296">
        <ele>188.2</ele>
        <time>2015-06-21T11:50:41Z</time>
      </trkpt>
      <trkpt lat="39.92891402692" lon="3.111075541029">
        <ele>184</ele>
        <time>2015-06-21T11:50:42Z</time>
      </trkpt>
      <trkpt lat="39.928913524006" lon="3.111076043943">
        <ele>185.8</ele>
        <time>2015-06-21T11:50:43Z</time>
      </trkpt>
      <trkpt lat="39.928913859282" lon="3.111075708667">
        <ele>193.2</ele>
        <time>2015-06-21T11:50:44Z</time>
      </trkpt>
      <trkpt lat="39.928913943101" lon="3.111075373391">
        <ele>199</ele>
        <time>2015-06-21T11:50:45Z</time>
      </trkpt>
      <trkpt lat="39.928914110739" lon="3.111075289572">
        <ele>205.6</ele>
        <time>2015-06-21T11:50:46Z</time>
      </trkpt>
      <trkpt lat="39.928914362196" lon="3.111075121934">
        <ele>210.4</ele>
        <time>2015-06-21T11:50:47Z</time>
      </trkpt>
      <trkpt lat="39.928914613653" lon="3.111075289572">
        <ele>211.6</ele>
        <time>2015-06-21T11:50:48Z</time>
      </trkpt>
      <trkpt lat="39.928915116567" lon="3.111075373391">
        <ele>211.6</ele>
        <time>2015-06-21T11:50:53Z</time>
      </trkpt>
      <trkpt lat="39.928916876766" lon="3.111071350079">
        <ele>211.2</ele>
        <time>2015-06-21T11:50:59Z</time>
      </trkpt>
      <trkpt lat="39.928926264494" lon="3.111085347852">
        <ele>211</ele>
        <time>2015-06-21T11:51:02Z</time>
      </trkpt>
      <trkpt lat="39.928921151535" lon="3.111116779977">
        <ele>211</ele>
        <time>2015-06-21T11:51:05Z</time>
      </trkpt>
      <trkpt lat="39.928917547318" lon="3.111115355054">
        <ele>211.6</ele>
        <time>2015-06-21T11:51:10Z</time>
      </trkpt>
      <trkpt lat="39.928917966413" lon="3.111115857968">
        <ele>211.4</ele>
        <time>2015-06-21T11:51:18Z</time>
      </trkpt>
      <trkpt lat="39.928919475155" lon="3.111100854367">
        <ele>211.4</ele>
        <time>2015-06-21T11:51:27Z</time>
      </trkpt>
      <trkpt lat="39.928916457671" lon="3.111089203526">
        <ele>211</ele>
        <time>2015-06-21T11:51:35Z</time>
      </trkpt>
      <trkpt lat="39.928919810431" lon="3.111120132737">
        <ele>211</ele>
        <time>2015-06-21T11:51:40Z</time>
      </trkpt>
      <trkpt lat="39.928919810431" lon="3.111126502981">
        <ele>211.2</ele>
        <time>2015-06-21T11:51:46Z</time>
      </trkpt>
      <trkpt lat="39.928915870938" lon="3.111090963725">
        <ele>211.6</ele>
        <time>2015-06-21T11:51:57Z</time>
      </trkpt>
      <trkpt lat="39.92891235054" lon="3.111056430297">
        <ele>211.6</ele>
        <time>2015-06-21T11:52:03Z</time>
      </trkpt>
      <trkpt lat="39.928917463499" lon="3.111035894642">
        <ele>210.8</ele>
        <time>2015-06-21T11:52:09Z</time>
      </trkpt>
      <trkpt lat="39.928906818486" lon="3.111032290425">
        <ele>211</ele>
        <time>2015-06-21T11:52:18Z</time>
      </trkpt>
      <trkpt lat="39.928903633364" lon="3.111012760598">
        <ele>211.2</ele>
        <time>2015-06-21T11:52:24Z</time>
      </trkpt>
      <trkpt lat="39.928905058287" lon="3.111005468345">
        <ele>211.4</ele>
        <time>2015-06-21T11:52:32Z</time>
      </trkpt>
      <trkpt lat="39.928902040803" lon="3.111005971259">
        <ele>211.2</ele>
        <time>2015-06-21T11:52:46Z</time>
      </trkpt>
      <trkpt lat="39.928904136278" lon="3.111015358987">
        <ele>211.6</ele>
        <time>2015-06-21T11:52:51Z</time>
      </trkpt>
      <trkpt lat="39.928907489038" lon="3.111018879385">
        <ele>211.6</ele>
        <time>2015-06-21T11:52:53Z</time>
      </trkpt>
      <trkpt lat="39.928909584513" lon="3.111010665123">
        <ele>211.6</ele>
        <time>2015-06-21T11:53:02Z</time>
      </trkpt>
      <trkpt lat="39.928914278377" lon="3.111013514969">
        <ele>210.8</ele>
        <time>2015-06-21T11:53:11Z</time>
      </trkpt>
      <trkpt lat="39.928918888422" lon="3.111011670951">
        <ele>211</ele>
        <time>2015-06-21T11:53:19Z</time>
      </trkpt>
      <trkpt lat="39.928925342485" lon="3.110994404237">
        <ele>211</ele>
        <time>2015-06-21T11:53:38Z</time>
      </trkpt>
      <trkpt lat="39.928916373852" lon="3.110972192202">
        <ele>211.4</ele>
        <time>2015-06-21T11:53:43Z</time>
      </trkpt>
      <trkpt lat="39.928897933672" lon="3.110939418973">
        <ele>211.4</ele>
        <time>2015-06-21T11:53:50Z</time>
      </trkpt>
      <trkpt lat="39.928891311971" lon="3.110947800873">
        <ele>211.4</ele>
        <time>2015-06-21T11:53:57Z</time>
      </trkpt>
      <trkpt lat="39.928884019718" lon="3.110933384005">
        <ele>211.6</ele>
        <time>2015-06-21T11:54:04Z</time>
      </trkpt>
      <trkpt lat="39.928878236207" lon="3.110932042901">
        <ele>211.6</ele>
        <time>2015-06-21T11:54:12Z</time>
      </trkpt>
      <trkpt lat="39.928878068569" lon="3.110931539987">
        <ele>211.4</ele>
        <time>2015-06-21T11:54:18Z</time>
      </trkpt>
      <trkpt lat="39.928861723864" lon="3.110922738992">
        <ele>211.4</ele>
        <time>2015-06-21T11:54:25Z</time>
      </trkpt>
      <trkpt lat="39.928843535141" lon="3.110923325725">
        <ele>211.6</ele>
        <time>2015-06-21T11:54:26Z</time>
      </trkpt>
      <trkpt lat="39.928804056392" lon="3.11096230156">
        <ele>214.2</ele>
        <time>2015-06-21T11:54:28Z</time>
      </trkpt>
      <trkpt lat="39.928781928176" lon="3.110998679006">
        <ele>214</ele>
        <time>2015-06-21T11:54:29Z</time>
      </trkpt>
      <trkpt lat="39.928756279562" lon="3.111036984289">
        <ele>213.8</ele>
        <time>2015-06-21T11:54:30Z</time>
      </trkpt>
      <trkpt lat="39.928732223509" lon="3.111079564341">
        <ele>213.6</ele>
        <time>2015-06-21T11:54:31Z</time>
      </trkpt>
      <trkpt lat="39.928705233791" lon="3.111133879053">
        <ele>213.2</ele>
        <time>2015-06-21T11:54:32Z</time>
      </trkpt>
      <trkpt lat="39.928682267385" lon="3.111192384715">
        <ele>210.2</ele>
        <time>2015-06-21T11:54:33Z</time>
      </trkpt>
      <trkpt lat="39.928661144997" lon="3.111321130699">
        <ele>209.4</ele>
        <time>2015-06-21T11:54:35Z</time>
      </trkpt>
      <trkpt lat="39.928665503585" lon="3.11138726389">
        <ele>209</ele>
        <time>2015-06-21T11:54:36Z</time>
      </trkpt>
      <trkpt lat="39.928689056724" lon="3.111538054271">
        <ele>208.6</ele>
        <time>2015-06-21T11:54:38Z</time>
      </trkpt>
      <trkpt lat="39.928700539927" lon="3.111611479715">
        <ele>208.6</ele>
        <time>2015-06-21T11:54:39Z</time>
      </trkpt>
      <trkpt lat="39.928724176885" lon="3.111743410821">
        <ele>208</ele>
        <time>2015-06-21T11:54:41Z</time>
      </trkpt>
      <trkpt lat="39.92878075471" lon="3.111961088764">
        <ele>206.6</ele>
        <time>2015-06-21T11:54:44Z</time>
      </trkpt>
      <trkpt lat="39.928828280083" lon="3.112110286584">
        <ele>205.6</ele>
        <time>2015-06-21T11:54:46Z</time>
      </trkpt>
      <trkpt lat="39.928857113819" lon="3.112195781964">
        <ele>205.2</ele>
        <time>2015-06-21T11:54:47Z</time>
      </trkpt>
      <trkpt lat="39.928895419102" lon="3.112342632852">
        <ele>203.8</ele>
        <time>2015-06-21T11:54:49Z</time>
      </trkpt>
      <trkpt lat="39.928929365797" lon="3.112473893406">
        <ele>202.8</ele>
        <time>2015-06-21T11:54:51Z</time>
      </trkpt>
      <trkpt lat="39.928975382428" lon="3.112699115059">
        <ele>201.8</ele>
        <time>2015-06-21T11:54:54Z</time>
      </trkpt>
      <trkpt lat="39.929008407114" lon="3.112906650903">
        <ele>200.6</ele>
        <time>2015-06-21T11:54:57Z</time>
      </trkpt>
      <trkpt lat="39.92904226999" lon="3.113015531784">
        <ele>199.6</ele>
        <time>2015-06-21T11:54:59Z</time>
      </trkpt>
      <trkpt lat="39.929089627725" lon="3.113074959455">
        <ele>198.8</ele>
        <time>2015-06-21T11:55:01Z</time>
      </trkpt>
      <trkpt lat="39.929165232463" lon="3.113057441284">
        <ele>198.4</ele>
        <time>2015-06-21T11:55:03Z</time>
      </trkpt>
      <trkpt lat="39.929191551629" lon="3.113005724961">
        <ele>198.2</ele>
        <time>2015-06-21T11:55:04Z</time>
      </trkpt>
      <trkpt lat="39.929188198869" lon="3.112851162725">
        <ele>198</ele>
        <time>2015-06-21T11:55:06Z</time>
      </trkpt>
      <trkpt lat="39.929173782001" lon="3.112763739508">
        <ele>197.4</ele>
        <time>2015-06-21T11:55:07Z</time>
      </trkpt>
      <trkpt lat="39.929147798111" lon="3.112696265213">
        <ele>196.8</ele>
        <time>2015-06-21T11:55:08Z</time>
      </trkpt>
      <trkpt lat="39.929120976031" lon="3.112560646071">
        <ele>195.8</ele>
        <time>2015-06-21T11:55:10Z</time>
      </trkpt>
      <trkpt lat="39.929104379869" lon="3.112429050241">
        <ele>195.2</ele>
        <time>2015-06-21T11:55:12Z</time>
      </trkpt>
      <trkpt lat="39.929087364612" lon="3.112228387555">
        <ele>194.8</ele>
        <time>2015-06-21T11:55:15Z</time>
      </trkpt>
      <trkpt lat="39.929080659092" lon="3.112165774762">
        <ele>194.8</ele>
        <time>2015-06-21T11:55:16Z</time>
      </trkpt>
      <trkpt lat="39.929076300504" lon="3.112016576942">
        <ele>194.4</ele>
        <time>2015-06-21T11:55:18Z</time>
      </trkpt>
      <trkpt lat="39.929116701262" lon="3.111887747139">
        <ele>194.2</ele>
        <time>2015-06-21T11:55:20Z</time>
      </trkpt>
      <trkpt lat="39.929206052316" lon="3.111825050527">
        <ele>194.2</ele>
        <time>2015-06-21T11:55:22Z</time>
      </trkpt>
      <trkpt lat="39.929266821091" lon="3.111902666921">
        <ele>194.2</ele>
        <time>2015-06-21T11:55:23Z</time>
      </trkpt>
      <trkpt lat="39.929294313723" lon="3.112051445646">
        <ele>194</ele>
        <time>2015-06-21T11:55:25Z</time>
      </trkpt>
      <trkpt lat="39.929296660655" lon="3.112128894402">
        <ele>193.4</ele>
        <time>2015-06-21T11:55:26Z</time>
      </trkpt>
      <trkpt lat="39.92929791794" lon="3.112207432805">
        <ele>192.4</ele>
        <time>2015-06-21T11:55:27Z</time>
      </trkpt>
      <trkpt lat="39.929296995931" lon="3.112282283172">
        <ele>191.4</ele>
        <time>2015-06-21T11:55:28Z</time>
      </trkpt>
      <trkpt lat="39.929294816637" lon="3.112349338372">
        <ele>190</ele>
        <time>2015-06-21T11:55:29Z</time>
      </trkpt>
      <trkpt lat="39.929294062266" lon="3.112406586749">
        <ele>188.8</ele>
        <time>2015-06-21T11:55:30Z</time>
      </trkpt>
      <trkpt lat="39.929287943479" lon="3.112455620864">
        <ele>188.2</ele>
        <time>2015-06-21T11:55:31Z</time>
      </trkpt>
      <trkpt lat="39.929284423081" lon="3.112547737945">
        <ele>188</ele>
        <time>2015-06-21T11:55:34Z</time>
      </trkpt>
      <trkpt lat="39.929282662882" lon="3.112555449293">
        <ele>188</ele>
        <time>2015-06-21T11:55:37Z</time>
      </trkpt>
      <trkpt lat="39.929283081977" lon="3.112552096533">
        <ele>194.4</ele>
        <time>2015-06-21T11:55:39Z</time>
      </trkpt>
      <trkpt lat="39.929280567407" lon="3.112550252515">
        <ele>185.2</ele>
        <time>2015-06-21T11:55:44Z</time>
      </trkpt>
      <trkpt lat="39.929280567407" lon="3.112550168696">
        <ele>176.2</ele>
        <time>2015-06-21T11:55:45Z</time>
      </trkpt>
      <trkpt lat="39.929280735045" lon="3.112549749601">
        <ele>167.8</ele>
        <time>2015-06-21T11:55:46Z</time>
      </trkpt>
      <trkpt lat="39.929281237959" lon="3.112549414325">
        <ele>158.4</ele>
        <time>2015-06-21T11:55:47Z</time>
      </trkpt>
      <trkpt lat="39.929281573235" lon="3.112549079049">
        <ele>149.6</ele>
        <time>2015-06-21T11:55:48Z</time>
      </trkpt>
      <trkpt lat="39.929281740873" lon="3.112548659954">
        <ele>163.2</ele>
        <time>2015-06-21T11:55:50Z</time>
      </trkpt>
      <trkpt lat="39.929282243787" lon="3.112548659954">
        <ele>171.8</ele>
        <time>2015-06-21T11:55:51Z</time>
      </trkpt>
      <trkpt lat="39.929282746701" lon="3.112548240859">
        <ele>181.2</ele>
        <time>2015-06-21T11:55:52Z</time>
      </trkpt>
      <trkpt lat="39.929282914339" lon="3.112547989402">
        <ele>190</ele>
        <time>2015-06-21T11:55:53Z</time>
      </trkpt>
      <trkpt lat="39.929283081977" lon="3.112547905583">
        <ele>188</ele>
        <time>2015-06-21T11:55:54Z</time>
      </trkpt>
      <trkpt lat="39.929278555751" lon="3.112550084877">
        <ele>188</ele>
        <time>2015-06-21T11:56:01Z</time>
      </trkpt>
      <trkpt lat="39.929282327606" lon="3.112550084877">
        <ele>192.2</ele>
        <time>2015-06-21T11:56:08Z</time>
      </trkpt>
      <trkpt lat="39.929280064493" lon="3.112552683266">
        <ele>191.2</ele>
        <time>2015-06-21T11:56:10Z</time>
      </trkpt>
      <trkpt lat="39.92929875613" lon="3.112536170923">
        <ele>191.6</ele>
        <time>2015-06-21T11:56:16Z</time>
      </trkpt>
      <trkpt lat="39.929287608203" lon="3.11255653894">
        <ele>191.6</ele>
        <time>2015-06-21T11:56:23Z</time>
      </trkpt>
      <trkpt lat="39.929294397542" lon="3.112573889473">
        <ele>191.4</ele>
        <time>2015-06-21T11:56:24Z</time>
      </trkpt>
      <trkpt lat="39.929299259044" lon="3.112617894448">
        <ele>191.2</ele>
        <time>2015-06-21T11:56:26Z</time>
      </trkpt>
      <trkpt lat="39.929291631515" lon="3.112646141451">
        <ele>191</ele>
        <time>2015-06-21T11:56:29Z</time>
      </trkpt>
      <trkpt lat="39.929291631515" lon="3.112651757324">
        <ele>191.2</ele>
        <time>2015-06-21T11:56:34Z</time>
      </trkpt>
      <trkpt lat="39.929286937651" lon="3.11265293079">
        <ele>191.6</ele>
        <time>2015-06-21T11:56:40Z</time>
      </trkpt>
      <trkpt lat="39.929284255443" lon="3.112655361541">
        <ele>192</ele>
        <time>2015-06-21T11:56:46Z</time>
      </trkpt>
      <trkpt lat="39.929259277381" lon="3.112671706246">
        <ele>192</ele>
        <time>2015-06-21T11:56:52Z</time>
      </trkpt>
      <trkpt lat="39.929273526611" lon="3.112660893595">
        <ele>191.8</ele>
        <time>2015-06-21T11:56:57Z</time>
      </trkpt>
      <trkpt lat="39.929273945706" lon="3.112659720129">
        <ele>191.6</ele>
        <time>2015-06-21T11:57:06Z</time>
      </trkpt>
      <trkpt lat="39.929285848004" lon="3.112652176419">
        <ele>192.4</ele>
        <time>2015-06-21T11:57:11Z</time>
      </trkpt>
      <trkpt lat="39.929290290411" lon="3.112649410392">
        <ele>192</ele>
        <time>2015-06-21T11:57:14Z</time>
      </trkpt>
      <trkpt lat="39.929290877144" lon="3.112649913306">
        <ele>189</ele>
        <time>2015-06-21T11:57:19Z</time>
      </trkpt>
      <trkpt lat="39.929289787497" lon="3.112651422048">
        <ele>185.6</ele>
        <time>2015-06-21T11:57:20Z</time>
      </trkpt>
      <trkpt lat="39.929294229904" lon="3.112648656021">
        <ele>186.8</ele>
        <time>2015-06-21T11:57:21Z</time>
      </trkpt>
      <trkpt lat="39.929293307895" lon="3.112650500039">
        <ele>189.6</ele>
        <time>2015-06-21T11:57:22Z</time>
      </trkpt>
      <trkpt lat="39.92929456518" lon="3.112649075116">
        <ele>198.2</ele>
        <time>2015-06-21T11:57:23Z</time>
      </trkpt>
      <trkpt lat="39.929290709506" lon="3.112653182247">
        <ele>209.6</ele>
        <time>2015-06-21T11:57:24Z</time>
      </trkpt>
      <trkpt lat="39.929292637343" lon="3.112651757324">
        <ele>218.4</ele>
        <time>2015-06-21T11:57:25Z</time>
      </trkpt>
      <trkpt lat="39.929293643171" lon="3.112651422048">
        <ele>227.6</ele>
        <time>2015-06-21T11:57:26Z</time>
      </trkpt>
      <trkpt lat="39.929293978447" lon="3.112651589686">
        <ele>237.2</ele>
        <time>2015-06-21T11:57:27Z</time>
      </trkpt>
      <trkpt lat="39.929291463877" lon="3.112654188075">
        <ele>236.2</ele>
        <time>2015-06-21T11:57:29Z</time>
      </trkpt>
      <trkpt lat="39.929290960963" lon="3.112654774808">
        <ele>241.6</ele>
        <time>2015-06-21T11:57:30Z</time>
      </trkpt>
      <trkpt lat="39.929291463877" lon="3.112654858627">
        <ele>239.2</ele>
        <time>2015-06-21T11:57:31Z</time>
      </trkpt>
      <trkpt lat="39.929293307895" lon="3.112654271894">
        <ele>235.2</ele>
        <time>2015-06-21T11:57:32Z</time>
      </trkpt>
      <trkpt lat="39.929293810809" lon="3.112654439532">
        <ele>231.8</ele>
        <time>2015-06-21T11:57:33Z</time>
      </trkpt>
      <trkpt lat="39.92929456518" lon="3.112654439532">
        <ele>230.2</ele>
        <time>2015-06-21T11:57:34Z</time>
      </trkpt>
      <trkpt lat="39.929295738646" lon="3.11265376898">
        <ele>225.6</ele>
        <time>2015-06-21T11:57:35Z</time>
      </trkpt>
      <trkpt lat="39.929296325379" lon="3.112653685161">
        <ele>223.6</ele>
        <time>2015-06-21T11:57:36Z</time>
      </trkpt>
      <trkpt lat="39.929297331207" lon="3.112653266066">
        <ele>220.4</ele>
        <time>2015-06-21T11:57:37Z</time>
      </trkpt>
      <trkpt lat="39.929300767786" lon="3.112651505867">
        <ele>218.8</ele>
        <time>2015-06-21T11:57:41Z</time>
      </trkpt>
      <trkpt lat="39.929302276528" lon="3.112650751496">
        <ele>217.6</ele>
        <time>2015-06-21T11:57:43Z</time>
      </trkpt>
      <trkpt lat="39.929303114718" lon="3.112650751496">
        <ele>215.6</ele>
        <time>2015-06-21T11:57:44Z</time>
      </trkpt>
      <trkpt lat="39.929303952908" lon="3.11265041622">
        <ele>214</ele>
        <time>2015-06-21T11:57:45Z</time>
      </trkpt>
      <trkpt lat="39.92930462346" lon="3.112649997125">
        <ele>212.6</ele>
        <time>2015-06-21T11:57:46Z</time>
      </trkpt>
      <trkpt lat="39.929306048383" lon="3.112648907478">
        <ele>213.8</ele>
        <time>2015-06-21T11:57:48Z</time>
      </trkpt>
      <trkpt lat="39.929308060039" lon="3.112647650193">
        <ele>213.6</ele>
        <time>2015-06-21T11:57:51Z</time>
      </trkpt>
      <trkpt lat="39.92931551993" lon="3.112662234699">
        <ele>214.2</ele>
        <time>2015-06-21T11:58:02Z</time>
      </trkpt>
      <trkpt lat="39.929324153287" lon="3.112712274642">
        <ele>214.6</ele>
        <time>2015-06-21T11:58:05Z</time>
      </trkpt>
      <trkpt lat="39.929326835495" lon="3.112721578551">
        <ele>214.6</ele>
        <time>2015-06-21T11:58:06Z</time>
      </trkpt>
      <trkpt lat="39.929341084725" lon="3.112768936286">
        <ele>214.6</ele>
        <time>2015-06-21T11:58:09Z</time>
      </trkpt>
      <trkpt lat="39.929353825213" lon="3.11283062707">
        <ele>214.2</ele>
        <time>2015-06-21T11:58:11Z</time>
      </trkpt>
      <trkpt lat="39.929371511022" lon="3.113054088524">
        <ele>213.4</ele>
        <time>2015-06-21T11:58:15Z</time>
      </trkpt>
      <trkpt lat="39.929391124668" lon="3.113246872224">
        <ele>212.4</ele>
        <time>2015-06-21T11:58:18Z</time>
      </trkpt>
      <trkpt lat="39.929394645066" lon="3.113368242136">
        <ele>211.8</ele>
        <time>2015-06-21T11:58:20Z</time>
      </trkpt>
      <trkpt lat="39.92938760427" lon="3.113431106386">
        <ele>211.4</ele>
        <time>2015-06-21T11:58:21Z</time>
      </trkpt>
      <trkpt lat="39.929379557646" lon="3.113497993948">
        <ele>211.4</ele>
        <time>2015-06-21T11:58:22Z</time>
      </trkpt>
      <trkpt lat="39.929378803275" lon="3.113567563718">
        <ele>211.4</ele>
        <time>2015-06-21T11:58:23Z</time>
      </trkpt>
      <trkpt lat="39.929398165464" lon="3.113772584992">
        <ele>211</ele>
        <time>2015-06-21T11:58:26Z</time>
      </trkpt>
      <trkpt lat="39.92947058508" lon="3.113987077813">
        <ele>210</ele>
        <time>2015-06-21T11:58:29Z</time>
      </trkpt>
      <trkpt lat="39.929525235068" lon="3.114120182385">
        <ele>209.2</ele>
        <time>2015-06-21T11:58:31Z</time>
      </trkpt>
      <trkpt lat="39.929548369112" lon="3.114202325005">
        <ele>209</ele>
        <time>2015-06-21T11:58:32Z</time>
      </trkpt>
      <trkpt lat="39.92955440408" lon="3.114287066014">
        <ele>208.8</ele>
        <time>2015-06-21T11:58:33Z</time>
      </trkpt>
      <trkpt lat="39.929553482071" lon="3.114464594656">
        <ele>208.4</ele>
        <time>2015-06-21T11:58:35Z</time>
      </trkpt>
      <trkpt lat="39.929607712964" lon="3.114626449145">
        <ele>208</ele>
        <time>2015-06-21T11:58:37Z</time>
      </trkpt>
      <trkpt lat="39.929656998536" lon="3.11468973249">
        <ele>207.8</ele>
        <time>2015-06-21T11:58:38Z</time>
      </trkpt>
      <trkpt lat="39.929808962383" lon="3.11477690425">
        <ele>207.2</ele>
        <time>2015-06-21T11:58:40Z</time>
      </trkpt>
      <trkpt lat="39.929874425022" lon="3.114831135143">
        <ele>206.2</ele>
        <time>2015-06-21T11:58:41Z</time>
      </trkpt>
      <trkpt lat="39.929999902065" lon="3.114952421236">
        <ele>205</ele>
        <time>2015-06-21T11:58:43Z</time>
      </trkpt>
      <trkpt lat="39.930119260321" lon="3.115074964614">
        <ele>203.6</ele>
        <time>2015-06-21T11:58:45Z</time>
      </trkpt>
      <trkpt lat="39.930172401567" lon="3.115138415597">
        <ele>202.2</ele>
        <time>2015-06-21T11:58:46Z</time>
      </trkpt>
      <trkpt lat="39.930227889745" lon="3.11521779219">
        <ele>201.6</ele>
        <time>2015-06-21T11:58:47Z</time>
      </trkpt>
      <trkpt lat="39.93027021834" lon="3.115292055824">
        <ele>201</ele>
        <time>2015-06-21T11:58:48Z</time>
      </trkpt>
      <trkpt lat="39.930311708745" lon="3.115361206499">
        <ele>200.2</ele>
        <time>2015-06-21T11:58:49Z</time>
      </trkpt>
      <trkpt lat="39.930351941865" lon="3.115431027726">
        <ele>199.6</ele>
        <time>2015-06-21T11:58:50Z</time>
      </trkpt>
      <trkpt lat="39.930383290171" lon="3.115499675487">
        <ele>199.4</ele>
        <time>2015-06-21T11:58:51Z</time>
      </trkpt>
      <trkpt lat="39.93042947444" lon="3.115680975984">
        <ele>198</ele>
        <time>2015-06-21T11:58:53Z</time>
      </trkpt>
      <trkpt lat="39.930438526892" lon="3.115897396642">
        <ele>196.6</ele>
        <time>2015-06-21T11:58:55Z</time>
      </trkpt>
      <trkpt lat="39.930463085859" lon="3.116104010477">
        <ele>195</ele>
        <time>2015-06-21T11:58:57Z</time>
      </trkpt>
      <trkpt lat="39.930512958164" lon="3.116340463876">
        <ele>193.6</ele>
        <time>2015-06-21T11:58:59Z</time>
      </trkpt>
      <trkpt lat="39.930584204314" lon="3.116553196498">
        <ele>191.8</ele>
        <time>2015-06-21T11:59:01Z</time>
      </trkpt>
      <trkpt lat="39.930618653923" lon="3.116666687424">
        <ele>190.8</ele>
        <time>2015-06-21T11:59:02Z</time>
      </trkpt>
      <trkpt lat="39.930645056908" lon="3.116773891925">
        <ele>189.6</ele>
        <time>2015-06-21T11:59:03Z</time>
      </trkpt>
      <trkpt lat="39.930658887043" lon="3.116872127793">
        <ele>188.6</ele>
        <time>2015-06-21T11:59:04Z</time>
      </trkpt>
      <trkpt lat="39.93066919678" lon="3.116978075009">
        <ele>187.8</ele>
        <time>2015-06-21T11:59:05Z</time>
      </trkpt>
      <trkpt lat="39.930667352762" lon="3.117075305049">
        <ele>187</ele>
        <time>2015-06-21T11:59:06Z</time>
      </trkpt>
      <trkpt lat="39.930642458519" lon="3.117282840893">
        <ele>186.2</ele>
        <time>2015-06-21T11:59:08Z</time>
      </trkpt>
      <trkpt lat="39.930634244257" lon="3.117371689033">
        <ele>186</ele>
        <time>2015-06-21T11:59:09Z</time>
      </trkpt>
      <trkpt lat="39.930619156837" lon="3.117457771146">
        <ele>186</ele>
        <time>2015-06-21T11:59:10Z</time>
      </trkpt>
      <trkpt lat="39.930595603698" lon="3.117543937078">
        <ele>185.8</ele>
        <time>2015-06-21T11:59:11Z</time>
      </trkpt>
      <trkpt lat="39.930525950109" lon="3.117801261408">
        <ele>185.2</ele>
        <time>2015-06-21T11:59:14Z</time>
      </trkpt>
      <trkpt lat="39.930472892682" lon="3.117944927174">
        <ele>184.8</ele>
        <time>2015-06-21T11:59:16Z</time>
      </trkpt>
      <trkpt lat="39.930406508034" lon="3.118087587112">
        <ele>184.4</ele>
        <time>2015-06-21T11:59:18Z</time>
      </trkpt>
      <trkpt lat="39.930379099221" lon="3.118154390855">
        <ele>184.4</ele>
        <time>2015-06-21T11:59:19Z</time>
      </trkpt>
      <trkpt lat="39.93031715698" lon="3.118353628618">
        <ele>184</ele>
        <time>2015-06-21T11:59:22Z</time>
      </trkpt>
      <trkpt lat="39.930310200003" lon="3.118424623311">
        <ele>183.8</ele>
        <time>2015-06-21T11:59:23Z</time>
      </trkpt>
      <trkpt lat="39.93029787861" lon="3.118498216393">
        <ele>183.6</ele>
        <time>2015-06-21T11:59:24Z</time>
      </trkpt>
      <trkpt lat="39.930294693488" lon="3.118567534706">
        <ele>183.2</ele>
        <time>2015-06-21T11:59:25Z</time>
      </trkpt>
      <trkpt lat="39.930291340728" lon="3.118793259273">
        <ele>182.4</ele>
        <time>2015-06-21T11:59:28Z</time>
      </trkpt>
      <trkpt lat="39.930287736511" lon="3.118873306418">
        <ele>182</ele>
        <time>2015-06-21T11:59:29Z</time>
      </trkpt>
      <trkpt lat="39.930285389579" lon="3.119025270265">
        <ele>181.4</ele>
        <time>2015-06-21T11:59:31Z</time>
      </trkpt>
      <trkpt lat="39.930285221941" lon="3.119337412221">
        <ele>180.2</ele>
        <time>2015-06-21T11:59:35Z</time>
      </trkpt>
      <trkpt lat="39.930272313815" lon="3.119568249747">
        <ele>179.2</ele>
        <time>2015-06-21T11:59:38Z</time>
      </trkpt>
      <trkpt lat="39.930269463969" lon="3.119641339915">
        <ele>179</ele>
        <time>2015-06-21T11:59:39Z</time>
      </trkpt>
      <trkpt lat="39.930279103154" lon="3.119771343184">
        <ele>178.6</ele>
        <time>2015-06-21T11:59:41Z</time>
      </trkpt>
      <trkpt lat="39.930316151152" lon="3.11990411248">
        <ele>178.2</ele>
        <time>2015-06-21T11:59:43Z</time>
      </trkpt>
      <trkpt lat="39.930363760344" lon="3.120038893432">
        <ele>177.8</ele>
        <time>2015-06-21T11:59:45Z</time>
      </trkpt>
      <trkpt lat="39.930389325139" lon="3.120096812361">
        <ele>177.4</ele>
        <time>2015-06-21T11:59:46Z</time>
      </trkpt>
      <trkpt lat="39.930448082258" lon="3.120228743467">
        <ele>176.4</ele>
        <time>2015-06-21T11:59:48Z</time>
      </trkpt>
      <trkpt lat="39.930457889081" lon="3.120310718449">
        <ele>175.8</ele>
        <time>2015-06-21T11:59:49Z</time>
      </trkpt>
      <trkpt lat="39.930481693677" lon="3.120385568816">
        <ele>175.2</ele>
        <time>2015-06-21T11:59:50Z</time>
      </trkpt>
      <trkpt lat="39.930507845205" lon="3.120458826622">
        <ele>174.6</ele>
        <time>2015-06-21T11:59:51Z</time>
      </trkpt>
      <trkpt lat="39.930539025873" lon="3.120544154364">
        <ele>173.8</ele>
        <time>2015-06-21T11:59:52Z</time>
      </trkpt>
      <trkpt lat="39.930599962286" lon="3.120706763224">
        <ele>172</ele>
        <time>2015-06-21T11:59:54Z</time>
      </trkpt>
      <trkpt lat="39.930666430753" lon="3.12082863605">
        <ele>170.4</ele>
        <time>2015-06-21T11:59:56Z</time>
      </trkpt>
      <trkpt lat="39.930750165934" lon="3.120914634344">
        <ele>168.8</ele>
        <time>2015-06-21T11:59:58Z</time>
      </trkpt>
      <trkpt lat="39.930779418765" lon="3.121007421977">
        <ele>167.2</ele>
        <time>2015-06-21T12:00:00Z</time>
      </trkpt>
      <trkpt lat="39.930715129592" lon="3.121113955926">
        <ele>166.4</ele>
        <time>2015-06-21T12:00:01Z</time>
      </trkpt>
      <trkpt lat="39.930697276145" lon="3.121208755215">
        <ele>165.6</ele>
        <time>2015-06-21T12:00:02Z</time>
      </trkpt>
      <trkpt lat="39.930689397159" lon="3.121390558626">
        <ele>163.8</ele>
        <time>2015-06-21T12:00:04Z</time>
      </trkpt>
      <trkpt lat="39.930690654444" lon="3.121482340431">
        <ele>163</ele>
        <time>2015-06-21T12:00:05Z</time>
      </trkpt>
      <trkpt lat="39.930705658045" lon="3.121554089495">
        <ele>162.4</ele>
        <time>2015-06-21T12:00:06Z</time>
      </trkpt>
      <trkpt lat="39.930788135941" lon="3.121663640928">
        <ele>161.6</ele>
        <time>2015-06-21T12:00:08Z</time>
      </trkpt>
      <trkpt lat="39.930839600807" lon="3.12169783908">
        <ele>161</ele>
        <time>2015-06-21T12:00:09Z</time>
      </trkpt>
      <trkpt lat="39.930892406777" lon="3.121724158246">
        <ele>159.8</ele>
        <time>2015-06-21T12:00:10Z</time>
      </trkpt>
      <trkpt lat="39.930914199717" lon="3.121757182932">
        <ele>159</ele>
        <time>2015-06-21T12:00:11Z</time>
      </trkpt>
      <trkpt lat="39.930941440892" lon="3.121792806007">
        <ele>158</ele>
        <time>2015-06-21T12:00:12Z</time>
      </trkpt>
      <trkpt lat="39.930983434211" lon="3.121832452394">
        <ele>156.8</ele>
        <time>2015-06-21T12:00:13Z</time>
      </trkpt>
      <trkpt lat="39.931052417248" lon="3.121911074616">
        <ele>155.2</ele>
        <time>2015-06-21T12:00:15Z</time>
      </trkpt>
      <trkpt lat="39.931085106658" lon="3.122008975208">
        <ele>153.8</ele>
        <time>2015-06-21T12:00:17Z</time>
      </trkpt>
      <trkpt lat="39.931065576831" lon="3.122125064523">
        <ele>152.8</ele>
        <time>2015-06-21T12:00:19Z</time>
      </trkpt>
      <trkpt lat="39.931026600996" lon="3.122172170801">
        <ele>152</ele>
        <time>2015-06-21T12:00:20Z</time>
      </trkpt>
      <trkpt lat="39.9309776507" lon="3.122207877695">
        <ele>151.2</ele>
        <time>2015-06-21T12:00:21Z</time>
      </trkpt>
      <trkpt lat="39.930853766218" lon="3.12227283742">
        <ele>149.6</ele>
        <time>2015-06-21T12:00:23Z</time>
      </trkpt>
      <trkpt lat="39.930788806493" lon="3.122310807427">
        <ele>148.6</ele>
        <time>2015-06-21T12:00:24Z</time>
      </trkpt>
      <trkpt lat="39.930723595311" lon="3.122359338628">
        <ele>147.8</ele>
        <time>2015-06-21T12:00:25Z</time>
      </trkpt>
      <trkpt lat="39.930669280599" lon="3.122411725503">
        <ele>147</ele>
        <time>2015-06-21T12:00:26Z</time>
      </trkpt>
      <trkpt lat="39.930615301163" lon="3.122472829554">
        <ele>146.2</ele>
        <time>2015-06-21T12:00:27Z</time>
      </trkpt>
      <trkpt lat="39.930563920116" lon="3.122536364356">
        <ele>145.4</ele>
        <time>2015-06-21T12:00:28Z</time>
      </trkpt>
      <trkpt lat="39.930459481642" lon="3.122644239409">
        <ele>143.6</ele>
        <time>2015-06-21T12:00:30Z</time>
      </trkpt>
      <trkpt lat="39.930363425068" lon="3.122745660399">
        <ele>142.2</ele>
        <time>2015-06-21T12:00:32Z</time>
      </trkpt>
      <trkpt lat="39.930319000998" lon="3.122802489681">
        <ele>141.8</ele>
        <time>2015-06-21T12:00:33Z</time>
      </trkpt>
      <trkpt lat="39.930266781761" lon="3.122942215954">
        <ele>141</ele>
        <time>2015-06-21T12:00:35Z</time>
      </trkpt>
      <trkpt lat="39.930260411517" lon="3.123020335262">
        <ele>140.4</ele>
        <time>2015-06-21T12:00:36Z</time>
      </trkpt>
      <trkpt lat="39.930256891119" lon="3.123115637465">
        <ele>139.8</ele>
        <time>2015-06-21T12:00:37Z</time>
      </trkpt>
      <trkpt lat="39.930261584983" lon="3.123307750613">
        <ele>138.4</ele>
        <time>2015-06-21T12:00:39Z</time>
      </trkpt>
      <trkpt lat="39.930268877236" lon="3.123403471911">
        <ele>137.6</ele>
        <time>2015-06-21T12:00:40Z</time>
      </trkpt>
      <trkpt lat="39.930276420946" lon="3.123495169897">
        <ele>136.6</ele>
        <time>2015-06-21T12:00:41Z</time>
      </trkpt>
      <trkpt lat="39.930287233597" lon="3.123682421543">
        <ele>134.6</ele>
        <time>2015-06-21T12:00:43Z</time>
      </trkpt>
      <trkpt lat="39.930282707371" lon="3.123762636326">
        <ele>133.8</ele>
        <time>2015-06-21T12:00:44Z</time>
      </trkpt>
      <trkpt lat="39.930278181145" lon="3.123838073426">
        <ele>133.4</ele>
        <time>2015-06-21T12:00:45Z</time>
      </trkpt>
      <trkpt lat="39.930271727082" lon="3.123906553549">
        <ele>133</ele>
        <time>2015-06-21T12:00:46Z</time>
      </trkpt>
      <trkpt lat="39.930255298558" lon="3.123993054757">
        <ele>132.6</ele>
        <time>2015-06-21T12:00:47Z</time>
      </trkpt>
      <trkpt lat="39.930244485907" lon="3.124066144925">
        <ele>132</ele>
        <time>2015-06-21T12:00:48Z</time>
      </trkpt>
      <trkpt lat="39.930223866433" lon="3.124226742129">
        <ele>131.4</ele>
        <time>2015-06-21T12:00:50Z</time>
      </trkpt>
      <trkpt lat="39.930214813981" lon="3.124370491714">
        <ele>130.8</ele>
        <time>2015-06-21T12:00:52Z</time>
      </trkpt>
      <trkpt lat="39.930208443737" lon="3.12450242282">
        <ele>130.6</ele>
        <time>2015-06-21T12:00:54Z</time>
      </trkpt>
      <trkpt lat="39.930208024642" lon="3.124570148572">
        <ele>130.4</ele>
        <time>2015-06-21T12:00:55Z</time>
      </trkpt>
      <trkpt lat="39.930239959681" lon="3.12471448489">
        <ele>129.8</ele>
        <time>2015-06-21T12:00:58Z</time>
      </trkpt>
      <trkpt lat="39.930313888039" lon="3.124784725212">
        <ele>129</ele>
        <time>2015-06-21T12:01:02Z</time>
      </trkpt>
      <trkpt lat="39.930388319311" lon="3.124708366103">
        <ele>128.8</ele>
        <time>2015-06-21T12:01:07Z</time>
      </trkpt>
      <trkpt lat="39.930398377591" lon="3.124661427463">
        <ele>128.6</ele>
        <time>2015-06-21T12:01:08Z</time>
      </trkpt>
      <trkpt lat="39.930397455582" lon="3.124537542981">
        <ele>127.8</ele>
        <time>2015-06-21T12:01:10Z</time>
      </trkpt>
      <trkpt lat="39.930391420614" lon="3.124462524976">
        <ele>127.6</ele>
        <time>2015-06-21T12:01:11Z</time>
      </trkpt>
      <trkpt lat="39.930383709266" lon="3.124295892804">
        <ele>127.2</ele>
        <time>2015-06-21T12:01:13Z</time>
      </trkpt>
      <trkpt lat="39.930388151673" lon="3.124215845659">
        <ele>126.8</ele>
        <time>2015-06-21T12:01:14Z</time>
      </trkpt>
      <trkpt lat="39.930408938785" lon="3.124061031966">
        <ele>126</ele>
        <time>2015-06-21T12:01:16Z</time>
      </trkpt>
      <trkpt lat="39.930452189389" lon="3.123881491668">
        <ele>124.2</ele>
        <time>2015-06-21T12:01:18Z</time>
      </trkpt>
      <trkpt lat="39.930477670365" lon="3.123795074279">
        <ele>123.6</ele>
        <time>2015-06-21T12:01:19Z</time>
      </trkpt>
      <trkpt lat="39.930497619287" lon="3.123710752365">
        <ele>123</ele>
        <time>2015-06-21T12:01:20Z</time>
      </trkpt>
      <trkpt lat="39.930571463826" lon="3.123452841302">
        <ele>121.4</ele>
        <time>2015-06-21T12:01:23Z</time>
      </trkpt>
      <trkpt lat="39.9305920833" lon="3.123374470537">
        <ele>120.8</ele>
        <time>2015-06-21T12:01:24Z</time>
      </trkpt>
      <trkpt lat="39.93061219986" lon="3.123305906595">
        <ele>120</ele>
        <time>2015-06-21T12:01:25Z</time>
      </trkpt>
      <trkpt lat="39.930673555368" lon="3.123184871959">
        <ele>119.2</ele>
        <time>2015-06-21T12:01:27Z</time>
      </trkpt>
      <trkpt lat="39.930708507891" lon="3.123131479256">
        <ele>119.2</ele>
        <time>2015-06-21T12:01:28Z</time>
      </trkpt>
      <trkpt lat="39.930771707417" lon="3.12311605656">
        <ele>119.2</ele>
        <time>2015-06-21T12:01:29Z</time>
      </trkpt>
      <trkpt lat="39.930825603034" lon="3.123114296361">
        <ele>119.2</ele>
        <time>2015-06-21T12:01:30Z</time>
      </trkpt>
      <trkpt lat="39.930994582138" lon="3.123173221118">
        <ele>119</ele>
        <time>2015-06-21T12:01:33Z</time>
      </trkpt>
      <trkpt lat="39.931047639565" lon="3.123198115361">
        <ele>118.8</ele>
        <time>2015-06-21T12:01:34Z</time>
      </trkpt>
      <trkpt lat="39.931107486331" lon="3.123189230547">
        <ele>118.4</ele>
        <time>2015-06-21T12:01:35Z</time>
      </trkpt>
      <trkpt lat="39.931170937314" lon="3.12317556805">
        <ele>118</ele>
        <time>2015-06-21T12:01:36Z</time>
      </trkpt>
      <trkpt lat="39.931235980858" lon="3.123156541137">
        <ele>117.4</ele>
        <time>2015-06-21T12:01:37Z</time>
      </trkpt>
      <trkpt lat="39.931344358825" lon="3.123121840071">
        <ele>116.6</ele>
        <time>2015-06-21T12:01:39Z</time>
      </trkpt>
      <trkpt lat="39.931452317697" lon="3.123098286932">
        <ele>115.6</ele>
        <time>2015-06-21T12:01:41Z</time>
      </trkpt>
      <trkpt lat="39.931508560246" lon="3.123103818986">
        <ele>115.2</ele>
        <time>2015-06-21T12:01:42Z</time>
      </trkpt>
      <trkpt lat="39.931664631224" lon="3.123204234148">
        <ele>114.4</ele>
        <time>2015-06-21T12:01:45Z</time>
      </trkpt>
      <trkpt lat="39.931730512958" lon="3.123319904368">
        <ele>114</ele>
        <time>2015-06-21T12:01:47Z</time>
      </trkpt>
      <trkpt lat="39.931750797156" lon="3.123395341468">
        <ele>113.6</ele>
        <time>2015-06-21T12:01:48Z</time>
      </trkpt>
      <trkpt lat="39.931779966168" lon="3.12356700278">
        <ele>113</ele>
        <time>2015-06-21T12:01:50Z</time>
      </trkpt>
      <trkpt lat="39.931794299217" lon="3.123646127916">
        <ele>112.6</ele>
        <time>2015-06-21T12:01:51Z</time>
      </trkpt>
      <trkpt lat="39.931810057189" lon="3.123730785106">
        <ele>112.2</ele>
        <time>2015-06-21T12:01:52Z</time>
      </trkpt>
      <trkpt lat="39.931842914237" lon="3.123901692047">
        <ele>111.4</ele>
        <time>2015-06-21T12:01:54Z</time>
      </trkpt>
      <trkpt lat="39.931875771285" lon="3.124068156581">
        <ele>110.2</ele>
        <time>2015-06-21T12:01:56Z</time>
      </trkpt>
      <trkpt lat="39.931909466523" lon="3.124244679395">
        <ele>108.8</ele>
        <time>2015-06-21T12:01:58Z</time>
      </trkpt>
      <trkpt lat="39.931946179245" lon="3.124439474751">
        <ele>108</ele>
        <time>2015-06-21T12:02:00Z</time>
      </trkpt>
      <trkpt lat="39.931963445959" lon="3.124525305407">
        <ele>107.4</ele>
        <time>2015-06-21T12:02:01Z</time>
      </trkpt>
      <trkpt lat="39.931975599714" lon="3.124624211827">
        <ele>107</ele>
        <time>2015-06-21T12:02:02Z</time>
      </trkpt>
      <trkpt lat="39.931992195876" lon="3.124713981976">
        <ele>106.2</ele>
        <time>2015-06-21T12:02:03Z</time>
      </trkpt>
      <trkpt lat="39.932057071782" lon="3.124880530329">
        <ele>104.4</ele>
        <time>2015-06-21T12:02:05Z</time>
      </trkpt>
      <trkpt lat="39.932088168631" lon="3.124958901094">
        <ele>103.2</ele>
        <time>2015-06-21T12:02:06Z</time>
      </trkpt>
      <trkpt lat="39.932189086707" lon="3.125186804955">
        <ele>101.4</ele>
        <time>2015-06-21T12:02:09Z</time>
      </trkpt>
      <trkpt lat="39.932236360623" lon="3.125231229025">
        <ele>101.2</ele>
        <time>2015-06-21T12:02:10Z</time>
      </trkpt>
      <trkpt lat="39.932350857377" lon="3.125309096876">
        <ele>100.2</ele>
        <time>2015-06-21T12:02:12Z</time>
      </trkpt>
      <trkpt lat="39.932464683579" lon="3.125373050773">
        <ele>99.2</ele>
        <time>2015-06-21T12:02:14Z</time>
      </trkpt>
      <trkpt lat="39.93254087505" lon="3.125378415189">
        <ele>98.6</ele>
        <time>2015-06-21T12:02:15Z</time>
      </trkpt>
      <trkpt lat="39.932725025393" lon="3.125361232294">
        <ele>97.2</ele>
        <time>2015-06-21T12:02:17Z</time>
      </trkpt>
      <trkpt lat="39.933013865667" lon="3.125336086594">
        <ele>96</ele>
        <time>2015-06-21T12:02:20Z</time>
      </trkpt>
      <trkpt lat="39.933095337735" lon="3.125332482377">
        <ele>96</ele>
        <time>2015-06-21T12:02:21Z</time>
      </trkpt>
      <trkpt lat="39.93317203212" lon="3.125331644187">
        <ele>95</ele>
        <time>2015-06-21T12:02:22Z</time>
      </trkpt>
      <trkpt lat="39.93324830741" lon="3.125329297255">
        <ele>93.8</ele>
        <time>2015-06-21T12:02:23Z</time>
      </trkpt>
      <trkpt lat="39.933320894664" lon="3.125333991119">
        <ele>92.6</ele>
        <time>2015-06-21T12:02:24Z</time>
      </trkpt>
      <trkpt lat="39.933450981752" lon="3.125374810972">
        <ele>91.8</ele>
        <time>2015-06-21T12:02:26Z</time>
      </trkpt>
      <trkpt lat="39.933572938397" lon="3.125548567759">
        <ele>91.8</ele>
        <time>2015-06-21T12:02:29Z</time>
      </trkpt>
      <trkpt lat="39.933584673057" lon="3.125624172497">
        <ele>87</ele>
        <time>2015-06-21T12:02:30Z</time>
      </trkpt>
      <trkpt lat="39.933576961709" lon="3.125699022864">
        <ele>76.4</ele>
        <time>2015-06-21T12:02:31Z</time>
      </trkpt>
      <trkpt lat="39.933554833493" lon="3.125787116633">
        <ele>69.8</ele>
        <time>2015-06-21T12:02:32Z</time>
      </trkpt>
      <trkpt lat="39.933527676137" lon="3.125869343072">
        <ele>73.4</ele>
        <time>2015-06-21T12:02:33Z</time>
      </trkpt>
      <trkpt lat="39.933451736123" lon="3.126024408222">
        <ele>73</ele>
        <time>2015-06-21T12:02:35Z</time>
      </trkpt>
      <trkpt lat="39.933414604306" lon="3.126089535585">
        <ele>72.6</ele>
        <time>2015-06-21T12:02:36Z</time>
      </trkpt>
      <trkpt lat="39.933369677322" lon="3.126171426748">
        <ele>72.2</ele>
        <time>2015-06-21T12:02:37Z</time>
      </trkpt>
      <trkpt lat="39.933189885567" lon="3.126485831817">
        <ele>71.4</ele>
        <time>2015-06-21T12:02:41Z</time>
      </trkpt>
      <trkpt lat="39.933144539488" lon="3.126570489007">
        <ele>71</ele>
        <time>2015-06-21T12:02:42Z</time>
      </trkpt>
      <trkpt lat="39.933048231457" lon="3.126734690428">
        <ele>69.8</ele>
        <time>2015-06-21T12:02:44Z</time>
      </trkpt>
      <trkpt lat="39.93295326453" lon="3.126865615706">
        <ele>69</ele>
        <time>2015-06-21T12:02:46Z</time>
      </trkpt>
      <trkpt lat="39.932886376968" lon="3.126941890996">
        <ele>68.8</ele>
        <time>2015-06-21T12:02:47Z</time>
      </trkpt>
      <trkpt lat="39.932705747023" lon="3.127139703836">
        <ele>67.8</ele>
        <time>2015-06-21T12:02:50Z</time>
      </trkpt>
      <trkpt lat="39.932597285237" lon="3.127269790924">
        <ele>66.6</ele>
        <time>2015-06-21T12:02:52Z</time>
      </trkpt>
      <trkpt lat="39.932490835107" lon="3.127421922409">
        <ele>65.6</ele>
        <time>2015-06-21T12:02:54Z</time>
      </trkpt>
      <trkpt lat="39.932396957827" lon="3.127571371686">
        <ele>64.6</ele>
        <time>2015-06-21T12:02:56Z</time>
      </trkpt>
      <trkpt lat="39.932302661452" lon="3.127736914211">
        <ele>63.4</ele>
        <time>2015-06-21T12:02:58Z</time>
      </trkpt>
      <trkpt lat="39.932263098884" lon="3.127831797319">
        <ele>63</ele>
        <time>2015-06-21T12:02:59Z</time>
      </trkpt>
      <trkpt lat="39.932239545745" lon="3.127919304355">
        <ele>61.8</ele>
        <time>2015-06-21T12:03:00Z</time>
      </trkpt>
      <trkpt lat="39.93220224629" lon="3.128103035603">
        <ele>60.8</ele>
        <time>2015-06-21T12:03:02Z</time>
      </trkpt>
      <trkpt lat="39.932155475288" lon="3.128381230864">
        <ele>59.4</ele>
        <time>2015-06-21T12:03:05Z</time>
      </trkpt>
      <trkpt lat="39.932140555506" lon="3.128472006841">
        <ele>58.8</ele>
        <time>2015-06-21T12:03:06Z</time>
      </trkpt>
      <trkpt lat="39.932125803362" lon="3.128567560501">
        <ele>58</ele>
        <time>2015-06-21T12:03:07Z</time>
      </trkpt>
      <trkpt lat="39.932103926603" lon="3.128733773578">
        <ele>56.8</ele>
        <time>2015-06-21T12:03:09Z</time>
      </trkpt>
      <trkpt lat="39.932103423689" lon="3.128808540126">
        <ele>56</ele>
        <time>2015-06-21T12:03:10Z</time>
      </trkpt>
      <trkpt lat="39.932112895236" lon="3.128890012194">
        <ele>55.6</ele>
        <time>2015-06-21T12:03:11Z</time>
      </trkpt>
      <trkpt lat="39.932208532715" lon="3.129131913828">
        <ele>54.4</ele>
        <time>2015-06-21T12:03:14Z</time>
      </trkpt>
      <trkpt lat="39.93225086131" lon="3.129211793335">
        <ele>53.8</ele>
        <time>2015-06-21T12:03:15Z</time>
      </trkpt>
      <trkpt lat="39.932331159912" lon="3.129351100513">
        <ele>52.6</ele>
        <time>2015-06-21T12:03:17Z</time>
      </trkpt>
      <trkpt lat="39.932409446858" lon="3.12949887341">
        <ele>51</ele>
        <time>2015-06-21T12:03:19Z</time>
      </trkpt>
      <trkpt lat="39.93248471632" lon="3.129649831429">
        <ele>49.8</ele>
        <time>2015-06-21T12:03:21Z</time>
      </trkpt>
      <trkpt lat="39.932558141764" lon="3.129812607927">
        <ele>48.8</ele>
        <time>2015-06-21T12:03:23Z</time>
      </trkpt>
      <trkpt lat="39.93265151613" lon="3.130034057725">
        <ele>47.6</ele>
        <time>2015-06-21T12:03:26Z</time>
      </trkpt>
      <trkpt lat="39.932742711202" lon="3.130250059288">
        <ele>46.4</ele>
        <time>2015-06-21T12:03:29Z</time>
      </trkpt>
      <trkpt lat="39.932816471922" lon="3.1304384844">
        <ele>45.2</ele>
        <time>2015-06-21T12:03:32Z</time>
      </trkpt>
      <trkpt lat="39.932848323142" lon="3.130492044741">
        <ele>44.8</ele>
        <time>2015-06-21T12:03:33Z</time>
      </trkpt>
      <trkpt lat="39.93295242634" lon="3.130643505674">
        <ele>44</ele>
        <time>2015-06-21T12:03:36Z</time>
      </trkpt>
      <trkpt lat="39.933036664435" lon="3.130777448436">
        <ele>43.4</ele>
        <time>2015-06-21T12:03:39Z</time>
      </trkpt>
      <trkpt lat="39.933028282535" lon="3.13082991913">
        <ele>43</ele>
        <time>2015-06-21T12:03:40Z</time>
      </trkpt>
      <trkpt lat="39.932997269505" lon="3.130871577173">
        <ele>42.8</ele>
        <time>2015-06-21T12:03:41Z</time>
      </trkpt>
      <trkpt lat="39.932952174883" lon="3.130871912449">
        <ele>42.6</ele>
        <time>2015-06-21T12:03:42Z</time>
      </trkpt>
      <trkpt lat="39.932860476897" lon="3.130778035169">
        <ele>42.4</ele>
        <time>2015-06-21T12:03:44Z</time>
      </trkpt>
      <trkpt lat="39.93278897929" lon="3.130662029673">
        <ele>42</ele>
        <time>2015-06-21T12:03:46Z</time>
      </trkpt>
      <trkpt lat="39.932736592415" lon="3.130584748555">
        <ele>41.6</ele>
        <time>2015-06-21T12:03:47Z</time>
      </trkpt>
      <trkpt lat="39.932689989051" lon="3.130516184613">
        <ele>41.4</ele>
        <time>2015-06-21T12:03:48Z</time>
      </trkpt>
      <trkpt lat="39.932561075429" lon="3.130333459193">
        <ele>40.4</ele>
        <time>2015-06-21T12:03:51Z</time>
      </trkpt>
      <trkpt lat="39.932475831506" lon="3.130206138132">
        <ele>40</ele>
        <time>2015-06-21T12:03:53Z</time>
      </trkpt>
      <trkpt lat="39.932385642262" lon="3.130094072129">
        <ele>39.2</ele>
        <time>2015-06-21T12:03:55Z</time>
      </trkpt>
      <trkpt lat="39.932291764982" lon="3.129989298379">
        <ele>38.2</ele>
        <time>2015-06-21T12:03:57Z</time>
      </trkpt>
      <trkpt lat="39.932204425584" lon="3.129899947325">
        <ele>37</ele>
        <time>2015-06-21T12:03:59Z</time>
      </trkpt>
      <trkpt lat="39.931949699643" lon="3.129653770922">
        <ele>36.2</ele>
        <time>2015-06-21T12:04:04Z</time>
      </trkpt>
      <trkpt lat="39.931883231176" lon="3.129599707667">
        <ele>36</ele>
        <time>2015-06-21T12:04:05Z</time>
      </trkpt>
      <trkpt lat="39.93169765591" lon="3.129465681086">
        <ele>34.6</ele>
        <time>2015-06-21T12:04:08Z</time>
      </trkpt>
      <trkpt lat="39.931634707841" lon="3.129430728563">
        <ele>34.2</ele>
        <time>2015-06-21T12:04:09Z</time>
      </trkpt>
      <trkpt lat="39.93151157773" lon="3.129357889852">
        <ele>33.4</ele>
        <time>2015-06-21T12:04:11Z</time>
      </trkpt>
      <trkpt lat="39.931368414878" lon="3.129302569312">
        <ele>32.8</ele>
        <time>2015-06-21T12:04:13Z</time>
      </trkpt>
      <trkpt lat="39.931291888131" lon="3.129308101366">
        <ele>32.6</ele>
        <time>2015-06-21T12:04:14Z</time>
      </trkpt>
      <trkpt lat="39.931217205402" lon="3.129339952586">
        <ele>32.2</ele>
        <time>2015-06-21T12:04:15Z</time>
      </trkpt>
      <trkpt lat="39.931067504668" lon="3.129438272273">
        <ele>31.4</ele>
        <time>2015-06-21T12:04:17Z</time>
      </trkpt>
      <trkpt lat="39.930992067568" lon="3.129496694116">
        <ele>31</ele>
        <time>2015-06-21T12:04:18Z</time>
      </trkpt>
      <trkpt lat="39.930663245631" lon="3.12976206507">
        <ele>29.6</ele>
        <time>2015-06-21T12:04:22Z</time>
      </trkpt>
      <trkpt lat="39.930414051744" lon="3.129957782435">
        <ele>28.2</ele>
        <time>2015-06-21T12:04:25Z</time>
      </trkpt>
      <trkpt lat="39.93035152277" lon="3.130006984188">
        <ele>27.8</ele>
        <time>2015-06-21T12:04:26Z</time>
      </trkpt>
      <trkpt lat="39.93022411789" lon="3.130112763766">
        <ele>26.8</ele>
        <time>2015-06-21T12:04:28Z</time>
      </trkpt>
      <trkpt lat="39.930092102965" lon="3.13021887862">
        <ele>26</ele>
        <time>2015-06-21T12:04:31Z</time>
      </trkpt>
      <trkpt lat="39.930027562335" lon="3.130252322401">
        <ele>25.4</ele>
        <time>2015-06-21T12:04:34Z</time>
      </trkpt>
      <trkpt lat="39.930013396924" lon="3.130260871939">
        <ele>24.8</ele>
        <time>2015-06-21T12:04:35Z</time>
      </trkpt>
      <trkpt lat="39.930013061648" lon="3.13027419916">
        <ele>25</ele>
        <time>2015-06-21T12:04:40Z</time>
      </trkpt>
      <trkpt lat="39.930005266481" lon="3.130292387883">
        <ele>25.8</ele>
        <time>2015-06-21T12:04:42Z</time>
      </trkpt>
      <trkpt lat="39.929959920402" lon="3.130349133346">
        <ele>26.2</ele>
        <time>2015-06-21T12:04:45Z</time>
      </trkpt>
      <trkpt lat="39.929852380625" lon="3.130484333393">
        <ele>25</ele>
        <time>2015-06-21T12:04:49Z</time>
      </trkpt>
      <trkpt lat="39.929829749495" lon="3.130546191815">
        <ele>24.6</ele>
        <time>2015-06-21T12:04:50Z</time>
      </trkpt>
      <trkpt lat="39.929808627107" lon="3.130615761585">
        <ele>24.4</ele>
        <time>2015-06-21T12:04:51Z</time>
      </trkpt>
      <trkpt lat="39.929792282402" lon="3.130687259192">
        <ele>24.2</ele>
        <time>2015-06-21T12:04:52Z</time>
      </trkpt>
      <trkpt lat="39.929747020142" lon="3.130864452558">
        <ele>23.4</ele>
        <time>2015-06-21T12:04:54Z</time>
      </trkpt>
      <trkpt lat="39.929720281881" lon="3.130967130833">
        <ele>23</ele>
        <time>2015-06-21T12:04:55Z</time>
      </trkpt>
      <trkpt lat="39.92967510344" lon="3.131165865682">
        <ele>21.6</ele>
        <time>2015-06-21T12:04:57Z</time>
      </trkpt>
      <trkpt lat="39.929626320782" lon="3.131356889183">
        <ele>20.6</ele>
        <time>2015-06-21T12:04:59Z</time>
      </trkpt>
      <trkpt lat="39.929601091263" lon="3.131460992381">
        <ele>20.2</ele>
        <time>2015-06-21T12:05:00Z</time>
      </trkpt>
      <trkpt lat="39.92950578906" lon="3.131875728793">
        <ele>19.6</ele>
        <time>2015-06-21T12:05:04Z</time>
      </trkpt>
      <trkpt lat="39.929476200953" lon="3.131993997402">
        <ele>18.8</ele>
        <time>2015-06-21T12:05:05Z</time>
      </trkpt>
      <trkpt lat="39.929374444687" lon="3.13240990728">
        <ele>17.8</ele>
        <time>2015-06-21T12:05:09Z</time>
      </trkpt>
      <trkpt lat="39.929331110264" lon="3.132619203323">
        <ele>16.6</ele>
        <time>2015-06-21T12:05:11Z</time>
      </trkpt>
      <trkpt lat="39.929280735045" lon="3.132858003654">
        <ele>14.6</ele>
        <time>2015-06-21T12:05:13Z</time>
      </trkpt>
      <trkpt lat="39.929222313202" lon="3.133060258901">
        <ele>13.6</ele>
        <time>2015-06-21T12:05:15Z</time>
      </trkpt>
      <trkpt lat="39.92919733514" lon="3.133146760109">
        <ele>13</ele>
        <time>2015-06-21T12:05:16Z</time>
      </trkpt>
      <trkpt lat="39.929106223887" lon="3.133491842932">
        <ele>12.4</ele>
        <time>2015-06-21T12:05:20Z</time>
      </trkpt>
      <trkpt lat="39.929093483399" lon="3.133558981951">
        <ele>12.4</ele>
        <time>2015-06-21T12:05:21Z</time>
      </trkpt>
      <trkpt lat="39.92909926691" lon="3.133702312441">
        <ele>12.4</ele>
        <time>2015-06-21T12:05:23Z</time>
      </trkpt>
      <trkpt lat="39.929121646583" lon="3.133759225542">
        <ele>12.4</ele>
        <time>2015-06-21T12:05:24Z</time>
      </trkpt>
      <trkpt lat="39.929238574088" lon="3.13392032566">
        <ele>12.6</ele>
        <time>2015-06-21T12:05:28Z</time>
      </trkpt>
      <trkpt lat="39.929388191003" lon="3.133954859088">
        <ele>13.2</ele>
        <time>2015-06-21T12:05:32Z</time>
      </trkpt>
      <trkpt lat="39.929456252031" lon="3.13397648439">
        <ele>13.6</ele>
        <time>2015-06-21T12:05:34Z</time>
      </trkpt>
      <trkpt lat="39.929547530922" lon="3.134008167972">
        <ele>13.4</ele>
        <time>2015-06-21T12:05:37Z</time>
      </trkpt>
      <trkpt lat="39.929568485672" lon="3.134028619808">
        <ele>13.4</ele>
        <time>2015-06-21T12:05:38Z</time>
      </trkpt>
      <trkpt lat="39.929617603606" lon="3.134075055534">
        <ele>14</ele>
        <time>2015-06-21T12:05:40Z</time>
      </trkpt>
      <trkpt lat="39.929649538645" lon="3.134094585361">
        <ele>14.2</ele>
        <time>2015-06-21T12:05:41Z</time>
      </trkpt>
      <trkpt lat="39.929861097801" lon="3.134179577827">
        <ele>14.6</ele>
        <time>2015-06-21T12:05:47Z</time>
      </trkpt>
      <trkpt lat="39.930050864017" lon="3.134227187019">
        <ele>15</ele>
        <time>2015-06-21T12:05:52Z</time>
      </trkpt>
      <trkpt lat="39.930096629191" lon="3.134241184792">
        <ele>15</ele>
        <time>2015-06-21T12:05:53Z</time>
      </trkpt>
      <trkpt lat="39.930274744566" lon="3.134324668516">
        <ele>15.8</ele>
        <time>2015-06-21T12:05:58Z</time>
      </trkpt>
      <trkpt lat="39.930373231891" lon="3.134399099788">
        <ele>16.2</ele>
        <time>2015-06-21T12:06:01Z</time>
      </trkpt>
      <trkpt lat="39.930484627342" lon="3.134480655675">
        <ele>16.4</ele>
        <time>2015-06-21T12:06:04Z</time>
      </trkpt>
      <trkpt lat="39.930698281973" lon="3.134656843213">
        <ele>16.8</ele>
        <time>2015-06-21T12:06:10Z</time>
      </trkpt>
      <trkpt lat="39.930837589151" lon="3.134782068799">
        <ele>17.4</ele>
        <time>2015-06-21T12:06:14Z</time>
      </trkpt>
      <trkpt lat="39.930915121726" lon="3.134821882824">
        <ele>17.8</ele>
        <time>2015-06-21T12:06:16Z</time>
      </trkpt>
      <trkpt lat="39.931078484957" lon="3.134886926368">
        <ele>18.6</ele>
        <time>2015-06-21T12:06:20Z</time>
      </trkpt>
      <trkpt lat="39.931107905426" lon="3.134899834494">
        <ele>18.8</ele>
        <time>2015-06-21T12:06:21Z</time>
      </trkpt>
      <trkpt lat="39.931326924473" lon="3.135010727031">
        <ele>19.2</ele>
        <time>2015-06-21T12:06:27Z</time>
      </trkpt>
      <trkpt lat="39.931449719308" lon="3.135059006775">
        <ele>19.6</ele>
        <time>2015-06-21T12:06:30Z</time>
      </trkpt>
      <trkpt lat="39.93162221881" lon="3.135066550485">
        <ele>19.8</ele>
        <time>2015-06-21T12:06:33Z</time>
      </trkpt>
      <trkpt lat="39.931921285002" lon="3.135107286519">
        <ele>20.2</ele>
        <time>2015-06-21T12:06:39Z</time>
      </trkpt>
      <trkpt lat="39.931991944419" lon="3.135136874626">
        <ele>20.8</ele>
        <time>2015-06-21T12:06:41Z</time>
      </trkpt>
      <trkpt lat="39.932195959865" lon="3.135228907888">
        <ele>21.4</ele>
        <time>2015-06-21T12:06:47Z</time>
      </trkpt>
      <trkpt lat="39.932254968441" lon="3.135259082728">
        <ele>21.8</ele>
        <time>2015-06-21T12:06:49Z</time>
      </trkpt>
      <trkpt lat="39.93234809135" lon="3.135347847049">
        <ele>22</ele>
        <time>2015-06-21T12:06:53Z</time>
      </trkpt>
      <trkpt lat="39.932480860646" lon="3.135447424021">
        <ele>22.6</ele>
        <time>2015-06-21T12:06:58Z</time>
      </trkpt>
      <trkpt lat="39.932512711866" lon="3.135466618572">
        <ele>23</ele>
        <time>2015-06-21T12:06:59Z</time>
      </trkpt>
      <trkpt lat="39.932674398717" lon="3.135551778676">
        <ele>23.8</ele>
        <time>2015-06-21T12:07:04Z</time>
      </trkpt>
      <trkpt lat="39.932712117267" lon="3.135568626295">
        <ele>24</ele>
        <time>2015-06-21T12:07:05Z</time>
      </trkpt>
      <trkpt lat="39.932852011178" lon="3.135626629043">
        <ele>25.2</ele>
        <time>2015-06-21T12:07:09Z</time>
      </trkpt>
      <trkpt lat="39.932992156546" lon="3.135687565456">
        <ele>25.6</ele>
        <time>2015-06-21T12:07:13Z</time>
      </trkpt>
      <trkpt lat="39.933141438185" lon="3.135818742191">
        <ele>26.2</ele>
        <time>2015-06-21T12:07:18Z</time>
      </trkpt>
      <trkpt lat="39.933167589713" lon="3.135848246479">
        <ele>26.4</ele>
        <time>2015-06-21T12:07:19Z</time>
      </trkpt>
      <trkpt lat="39.933287115607" lon="3.136054105943">
        <ele>27.4</ele>
        <time>2015-06-21T12:07:25Z</time>
      </trkpt>
      <trkpt lat="39.933300191371" lon="3.136090986303">
        <ele>27.6</ele>
        <time>2015-06-21T12:07:26Z</time>
      </trkpt>
      <trkpt lat="39.93335391935" lon="3.136386448278">
        <ele>28.4</ele>
        <time>2015-06-21T12:07:33Z</time>
      </trkpt>
      <trkpt lat="39.933357439748" lon="3.136427184312">
        <ele>28.4</ele>
        <time>2015-06-21T12:07:34Z</time>
      </trkpt>
      <trkpt lat="39.933377221032" lon="3.136624410419">
        <ele>29.2</ele>
        <time>2015-06-21T12:07:39Z</time>
      </trkpt>
      <trkpt lat="39.933383926552" lon="3.136786348727">
        <ele>29.6</ele>
        <time>2015-06-21T12:07:43Z</time>
      </trkpt>
      <trkpt lat="39.933389542425" lon="3.136898917644">
        <ele>30.4</ele>
        <time>2015-06-21T12:07:46Z</time>
      </trkpt>
      <trkpt lat="39.933397169954" lon="3.137177532">
        <ele>31.6</ele>
        <time>2015-06-21T12:07:54Z</time>
      </trkpt>
      <trkpt lat="39.933419381989" lon="3.137390935174">
        <ele>32.4</ele>
        <time>2015-06-21T12:08:01Z</time>
      </trkpt>
      <trkpt lat="39.933464979525" lon="3.137549520722">
        <ele>32.2</ele>
        <time>2015-06-21T12:08:06Z</time>
      </trkpt>
      <trkpt lat="39.933501021695" lon="3.137637865948">
        <ele>32.8</ele>
        <time>2015-06-21T12:08:09Z</time>
      </trkpt>
      <trkpt lat="39.933553324751" lon="3.137742555879">
        <ele>34</ele>
        <time>2015-06-21T12:08:13Z</time>
      </trkpt>
      <trkpt lat="39.933665558392" lon="3.137916731761">
        <ele>35.2</ele>
        <time>2015-06-21T12:08:20Z</time>
      </trkpt>
      <trkpt lat="39.933696236146" lon="3.137967693713">
        <ele>35.6</ele>
        <time>2015-06-21T12:08:22Z</time>
      </trkpt>
      <trkpt lat="39.93376630883" lon="3.138098116077">
        <ele>36.4</ele>
        <time>2015-06-21T12:08:27Z</time>
      </trkpt>
      <trkpt lat="39.933840656283" lon="3.138226023871">
        <ele>37</ele>
        <time>2015-06-21T12:08:32Z</time>
      </trkpt>
      <trkpt lat="39.933869825295" lon="3.13827304633">
        <ele>37.4</ele>
        <time>2015-06-21T12:08:34Z</time>
      </trkpt>
      <trkpt lat="39.933926738396" lon="3.138386621075">
        <ele>38.2</ele>
        <time>2015-06-21T12:08:38Z</time>
      </trkpt>
      <trkpt lat="39.933958757254" lon="3.138434314086">
        <ele>38.6</ele>
        <time>2015-06-21T12:08:40Z</time>
      </trkpt>
      <trkpt lat="39.934026231549" lon="3.138559204396">
        <ele>39.4</ele>
        <time>2015-06-21T12:08:45Z</time>
      </trkpt>
      <trkpt lat="39.93405883714" lon="3.138605304846">
        <ele>39.8</ele>
        <time>2015-06-21T12:08:47Z</time>
      </trkpt>
      <trkpt lat="39.934120695562" lon="3.138703624533">
        <ele>40.6</ele>
        <time>2015-06-21T12:08:51Z</time>
      </trkpt>
      <trkpt lat="39.934136872629" lon="3.138730111337">
        <ele>40.8</ele>
        <time>2015-06-21T12:08:52Z</time>
      </trkpt>
      <trkpt lat="39.934234773221" lon="3.138881823727">
        <ele>42</ele>
        <time>2015-06-21T12:08:58Z</time>
      </trkpt>
      <trkpt lat="39.934265534794" lon="3.138936808991">
        <ele>42.4</ele>
        <time>2015-06-21T12:09:00Z</time>
      </trkpt>
      <trkpt lat="39.934315239461" lon="3.139009228607">
        <ele>43.2</ele>
        <time>2015-06-21T12:09:03Z</time>
      </trkpt>
      <trkpt lat="39.934412804777" lon="3.139163036472">
        <ele>44.2</ele>
        <time>2015-06-21T12:09:09Z</time>
      </trkpt>
      <trkpt lat="39.934428646568" lon="3.139190696742">
        <ele>44.2</ele>
        <time>2015-06-21T12:09:10Z</time>
      </trkpt>
      <trkpt lat="39.934546496082" lon="3.139414744929">
        <ele>44</ele>
        <time>2015-06-21T12:09:16Z</time>
      </trkpt>
      <trkpt lat="39.934659148818" lon="3.139681959901">
        <ele>44.6</ele>
        <time>2015-06-21T12:09:22Z</time>
      </trkpt>
      <trkpt lat="39.934790241734" lon="3.139970464899">
        <ele>43.8</ele>
        <time>2015-06-21T12:09:29Z</time>
      </trkpt>
      <trkpt lat="39.934930387102" lon="3.140312949333">
        <ele>45.2</ele>
        <time>2015-06-21T12:09:37Z</time>
      </trkpt>
      <trkpt lat="39.934946899445" lon="3.140353517729">
        <ele>45.2</ele>
        <time>2015-06-21T12:09:38Z</time>
      </trkpt>
      <trkpt lat="39.935118057843" lon="3.140760710431">
        <ele>46.2</ele>
        <time>2015-06-21T12:09:48Z</time>
      </trkpt>
      <trkpt lat="39.935138677317" lon="3.140795327678">
        <ele>46.2</ele>
        <time>2015-06-21T12:09:49Z</time>
      </trkpt>
      <trkpt lat="39.93528343273" lon="3.140987524645">
        <ele>47.4</ele>
        <time>2015-06-21T12:09:55Z</time>
      </trkpt>
      <trkpt lat="39.935447801789" lon="3.141202771837">
        <ele>48</ele>
        <time>2015-06-21T12:10:02Z</time>
      </trkpt>
      <trkpt lat="39.93550220032" lon="3.141253733789">
        <ele>48.6</ele>
        <time>2015-06-21T12:10:04Z</time>
      </trkpt>
      <trkpt lat="39.935627174449" lon="3.141367559991">
        <ele>49.4</ele>
        <time>2015-06-21T12:10:08Z</time>
      </trkpt>
      <trkpt lat="39.935865555685" lon="3.14158138226">
        <ele>49.8</ele>
        <time>2015-06-21T12:10:15Z</time>
      </trkpt>
      <trkpt lat="39.935935041636" lon="3.141645587614">
        <ele>49.8</ele>
        <time>2015-06-21T12:10:17Z</time>
      </trkpt>
      <trkpt lat="39.936122041825" lon="3.141840215332">
        <ele>49.6</ele>
        <time>2015-06-21T12:10:23Z</time>
      </trkpt>
      <trkpt lat="39.936305521616" lon="3.141994358473">
        <ele>50.2</ele>
        <time>2015-06-21T12:10:29Z</time>
      </trkpt>
      <trkpt lat="39.936491935072" lon="3.14216643888">
        <ele>50.4</ele>
        <time>2015-06-21T12:10:35Z</time>
      </trkpt>
      <trkpt lat="39.936526300862" lon="3.14219661372">
        <ele>50.2</ele>
        <time>2015-06-21T12:10:36Z</time>
      </trkpt>
      <trkpt lat="39.936694525595" lon="3.142324940609">
        <ele>50.4</ele>
        <time>2015-06-21T12:10:40Z</time>
      </trkpt>
      <trkpt lat="39.936728556109" lon="3.142361485693">
        <ele>50.6</ele>
        <time>2015-06-21T12:10:41Z</time>
      </trkpt>
      <trkpt lat="39.93676199989" lon="3.14240197027">
        <ele>50.8</ele>
        <time>2015-06-21T12:10:42Z</time>
      </trkpt>
      <trkpt lat="39.936800388992" lon="3.14243382149">
        <ele>50.8</ele>
        <time>2015-06-21T12:10:43Z</time>
      </trkpt>
      <trkpt lat="39.936912203538" lon="3.142521496164">
        <ele>51.2</ele>
        <time>2015-06-21T12:10:46Z</time>
      </trkpt>
      <trkpt lat="39.937175981931" lon="3.142778149942">
        <ele>51.8</ele>
        <time>2015-06-21T12:10:54Z</time>
      </trkpt>
      <trkpt lat="39.937205150943" lon="3.142810923171">
        <ele>52</ele>
        <time>2015-06-21T12:10:55Z</time>
      </trkpt>
      <trkpt lat="39.937416458642" lon="3.143027762924">
        <ele>52.4</ele>
        <time>2015-06-21T12:11:02Z</time>
      </trkpt>
      <trkpt lat="39.937487788611" lon="3.143118203625">
        <ele>53</ele>
        <time>2015-06-21T12:11:05Z</time>
      </trkpt>
      <trkpt lat="39.93756330953" lon="3.143199256598">
        <ele>53.8</ele>
        <time>2015-06-21T12:11:08Z</time>
      </trkpt>
      <trkpt lat="39.937584180461" lon="3.143223647927">
        <ele>54</ele>
        <time>2015-06-21T12:11:09Z</time>
      </trkpt>
      <trkpt lat="39.937679063569" lon="3.143325907107">
        <ele>54.8</ele>
        <time>2015-06-21T12:11:13Z</time>
      </trkpt>
      <trkpt lat="39.937715608653" lon="3.143383909855">
        <ele>55</ele>
        <time>2015-06-21T12:11:15Z</time>
      </trkpt>
      <trkpt lat="39.937781155111" lon="3.143468650864">
        <ele>55.8</ele>
        <time>2015-06-21T12:11:18Z</time>
      </trkpt>
      <trkpt lat="39.937850054329" lon="3.143547356905">
        <ele>56.2</ele>
        <time>2015-06-21T12:11:21Z</time>
      </trkpt>
      <trkpt lat="39.937913002398" lon="3.14362991862">
        <ele>56.4</ele>
        <time>2015-06-21T12:11:24Z</time>
      </trkpt>
      <trkpt lat="39.938007717868" lon="3.143722706253">
        <ele>57.4</ele>
        <time>2015-06-21T12:11:28Z</time>
      </trkpt>
      <trkpt lat="39.938032528292" lon="3.143745840297">
        <ele>57.6</ele>
        <time>2015-06-21T12:11:29Z</time>
      </trkpt>
      <trkpt lat="39.938144426657" lon="3.143869138046">
        <ele>58.4</ele>
        <time>2015-06-21T12:11:34Z</time>
      </trkpt>
      <trkpt lat="39.938226150182" lon="3.143948347001">
        <ele>59</ele>
        <time>2015-06-21T12:11:37Z</time>
      </trkpt>
      <trkpt lat="39.938295803771" lon="3.144025376662">
        <ele>59.6</ele>
        <time>2015-06-21T12:11:40Z</time>
      </trkpt>
      <trkpt lat="39.938371827604" lon="3.14410349597">
        <ele>60</ele>
        <time>2015-06-21T12:11:43Z</time>
      </trkpt>
      <trkpt lat="39.938438044614" lon="3.144187901703">
        <ele>60.6</ele>
        <time>2015-06-21T12:11:46Z</time>
      </trkpt>
      <trkpt lat="39.938572909385" lon="3.144385714543">
        <ele>61.8</ele>
        <time>2015-06-21T12:11:52Z</time>
      </trkpt>
      <trkpt lat="39.938694363116" lon="3.144591993102">
        <ele>66.2</ele>
        <time>2015-06-21T12:11:58Z</time>
      </trkpt>
      <trkpt lat="39.938737278444" lon="3.144665250908">
        <ele>66.8</ele>
        <time>2015-06-21T12:12:00Z</time>
      </trkpt>
      <trkpt lat="39.93880215435" lon="3.144779580024">
        <ele>63.6</ele>
        <time>2015-06-21T12:12:03Z</time>
      </trkpt>
      <trkpt lat="39.938903826797" lon="3.144946631291">
        <ele>63.6</ele>
        <time>2015-06-21T12:12:07Z</time>
      </trkpt>
      <trkpt lat="39.939084372923" lon="3.145256258677">
        <ele>63.8</ele>
        <time>2015-06-21T12:12:13Z</time>
      </trkpt>
      <trkpt lat="39.939223847739" lon="3.145487515298">
        <ele>63.4</ele>
        <time>2015-06-21T12:12:17Z</time>
      </trkpt>
      <trkpt lat="39.939291322034" lon="3.145601090043">
        <ele>63</ele>
        <time>2015-06-21T12:12:19Z</time>
      </trkpt>
      <trkpt lat="39.939426270624" lon="3.145844668057">
        <ele>62.6</ele>
        <time>2015-06-21T12:12:23Z</time>
      </trkpt>
      <trkpt lat="39.939451500143" lon="3.145900994425">
        <ele>62.6</ele>
        <time>2015-06-21T12:12:24Z</time>
      </trkpt>
      <trkpt lat="39.939495421299" lon="3.146009623849">
        <ele>62.6</ele>
        <time>2015-06-21T12:12:26Z</time>
      </trkpt>
      <trkpt lat="39.939527523976" lon="3.146063603285">
        <ele>62.6</ele>
        <time>2015-06-21T12:12:27Z</time>
      </trkpt>
      <trkpt lat="39.939643613291" lon="3.146256638442">
        <ele>63</ele>
        <time>2015-06-21T12:12:31Z</time>
      </trkpt>
      <trkpt lat="39.939840001208" lon="3.146592333537">
        <ele>63.6</ele>
        <time>2015-06-21T12:12:38Z</time>
      </trkpt>
      <trkpt lat="39.940063295024" lon="3.146974129082">
        <ele>63.4</ele>
        <time>2015-06-21T12:12:46Z</time>
      </trkpt>
      <trkpt lat="39.940150466784" lon="3.147126428205">
        <ele>64</ele>
        <time>2015-06-21T12:12:49Z</time>
      </trkpt>
      <trkpt lat="39.94023210649" lon="3.147264478098">
        <ele>64.4</ele>
        <time>2015-06-21T12:12:52Z</time>
      </trkpt>
      <trkpt lat="39.940409467494" lon="3.147580559547">
        <ele>64.6</ele>
        <time>2015-06-21T12:12:58Z</time>
      </trkpt>
      <trkpt lat="39.940625971971" lon="3.147967468051">
        <ele>65</ele>
        <time>2015-06-21T12:13:05Z</time>
      </trkpt>
      <trkpt lat="39.940896120608" lon="3.148423778687">
        <ele>65.4</ele>
        <time>2015-06-21T12:13:13Z</time>
      </trkpt>
      <trkpt lat="39.940929145294" lon="3.148483290177">
        <ele>65.8</ele>
        <time>2015-06-21T12:13:14Z</time>
      </trkpt>
      <trkpt lat="39.941097370027" lon="3.148784032749">
        <ele>66.2</ele>
        <time>2015-06-21T12:13:19Z</time>
      </trkpt>
      <trkpt lat="39.941132238731" lon="3.14884346042">
        <ele>66</ele>
        <time>2015-06-21T12:13:20Z</time>
      </trkpt>
      <trkpt lat="39.941201557044" lon="3.14896667435">
        <ele>66</ele>
        <time>2015-06-21T12:13:22Z</time>
      </trkpt>
      <trkpt lat="39.941304486776" lon="3.149153925996">
        <ele>65.8</ele>
        <time>2015-06-21T12:13:25Z</time>
      </trkpt>
      <trkpt lat="39.94150783167" lon="3.149538403749">
        <ele>65.2</ele>
        <time>2015-06-21T12:13:32Z</time>
      </trkpt>
      <trkpt lat="39.941605564624" lon="3.149714088373">
        <ele>66.8</ele>
        <time>2015-06-21T12:13:36Z</time>
      </trkpt>
      <trkpt lat="39.941625681184" lon="3.14976463123">
        <ele>68.6</ele>
        <time>2015-06-21T12:13:37Z</time>
      </trkpt>
      <trkpt lat="39.941719977559" lon="3.149979710784">
        <ele>68.6</ele>
        <time>2015-06-21T12:13:42Z</time>
      </trkpt>
      <trkpt lat="39.941827768793" lon="3.150172243027">
        <ele>70</ele>
        <time>2015-06-21T12:13:47Z</time>
      </trkpt>
      <trkpt lat="39.941909073223" lon="3.150364691451">
        <ele>70.8</ele>
        <time>2015-06-21T12:13:52Z</time>
      </trkpt>
      <trkpt lat="39.941930866163" lon="3.150405762761">
        <ele>71.2</ele>
        <time>2015-06-21T12:13:53Z</time>
      </trkpt>
      <trkpt lat="39.942045530555" lon="3.150600474298">
        <ele>72</ele>
        <time>2015-06-21T12:13:58Z</time>
      </trkpt>
      <trkpt lat="39.942093642661" lon="3.150681359633">
        <ele>72.2</ele>
        <time>2015-06-21T12:14:00Z</time>
      </trkpt>
      <trkpt lat="39.942259101367" lon="3.150970032269">
        <ele>72.6</ele>
        <time>2015-06-21T12:14:07Z</time>
      </trkpt>
      <trkpt lat="39.942381560926" lon="3.151181759063">
        <ele>73.4</ele>
        <time>2015-06-21T12:14:12Z</time>
      </trkpt>
      <trkpt lat="39.942515084593" lon="3.151404801422">
        <ele>74.4</ele>
        <time>2015-06-21T12:14:17Z</time>
      </trkpt>
      <trkpt lat="39.942544085967" lon="3.151452410614">
        <ele>74.2</ele>
        <time>2015-06-21T12:14:18Z</time>
      </trkpt>
      <trkpt lat="39.942660510558" lon="3.151635890405">
        <ele>72.8</ele>
        <time>2015-06-21T12:14:22Z</time>
      </trkpt>
      <trkpt lat="39.942779701176" lon="3.151820376024">
        <ele>72.8</ele>
        <time>2015-06-21T12:14:26Z</time>
      </trkpt>
      <trkpt lat="39.943122017972" lon="3.152408785404">
        <ele>73.2</ele>
        <time>2015-06-21T12:14:38Z</time>
      </trkpt>
      <trkpt lat="39.943230144482" lon="3.15260190438">
        <ele>73.8</ele>
        <time>2015-06-21T12:14:42Z</time>
      </trkpt>
      <trkpt lat="39.943349502738" lon="3.152782199049">
        <ele>74.4</ele>
        <time>2015-06-21T12:14:46Z</time>
      </trkpt>
      <trkpt lat="39.943388562392" lon="3.15283156844">
        <ele>74.4</ele>
        <time>2015-06-21T12:14:47Z</time>
      </trkpt>
      <trkpt lat="39.943417647585" lon="3.152880937831">
        <ele>74.6</ele>
        <time>2015-06-21T12:14:48Z</time>
      </trkpt>
      <trkpt lat="39.943477661989" lon="3.152978419328">
        <ele>74.8</ele>
        <time>2015-06-21T12:14:50Z</time>
      </trkpt>
      <trkpt lat="39.943498616739" lon="3.153026363796">
        <ele>75</ele>
        <time>2015-06-21T12:14:51Z</time>
      </trkpt>
      <trkpt lat="39.943522672792" lon="3.153080678508">
        <ele>75.2</ele>
        <time>2015-06-21T12:14:52Z</time>
      </trkpt>
      <trkpt lat="39.943569862889" lon="3.153239683151">
        <ele>75.2</ele>
        <time>2015-06-21T12:14:55Z</time>
      </trkpt>
      <trkpt lat="39.943628787646" lon="3.153340098313">
        <ele>75.6</ele>
        <time>2015-06-21T12:14:57Z</time>
      </trkpt>
      <trkpt lat="39.94368796386" lon="3.153439340009">
        <ele>76</ele>
        <time>2015-06-21T12:14:59Z</time>
      </trkpt>
      <trkpt lat="39.943820230242" lon="3.153690126457">
        <ele>76</ele>
        <time>2015-06-21T12:15:04Z</time>
      </trkpt>
      <trkpt lat="39.943839508612" lon="3.153752152517">
        <ele>76</ele>
        <time>2015-06-21T12:15:05Z</time>
      </trkpt>
      <trkpt lat="39.943920645404" lon="3.153885508546">
        <ele>76.2</ele>
        <time>2015-06-21T12:15:08Z</time>
      </trkpt>
      <trkpt lat="39.943947886579" lon="3.153920963983">
        <ele>76.2</ele>
        <time>2015-06-21T12:15:09Z</time>
      </trkpt>
      <trkpt lat="39.944051151587" lon="3.154094888408">
        <ele>77.2</ele>
        <time>2015-06-21T12:15:13Z</time>
      </trkpt>
      <trkpt lat="39.944156428251" lon="3.15423386031">
        <ele>77.8</ele>
        <time>2015-06-21T12:15:17Z</time>
      </trkpt>
      <trkpt lat="39.944240163432" lon="3.154391272392">
        <ele>78.2</ele>
        <time>2015-06-21T12:15:21Z</time>
      </trkpt>
      <trkpt lat="39.944263465114" lon="3.154433181892">
        <ele>78.4</ele>
        <time>2015-06-21T12:15:22Z</time>
      </trkpt>
      <trkpt lat="39.944374860565" lon="3.154653458224">
        <ele>78.8</ele>
        <time>2015-06-21T12:15:27Z</time>
      </trkpt>
      <trkpt lat="39.944458511927" lon="3.15478706571">
        <ele>79.4</ele>
        <time>2015-06-21T12:15:30Z</time>
      </trkpt>
      <trkpt lat="39.944513832467" lon="3.154876081488">
        <ele>79.8</ele>
        <time>2015-06-21T12:15:32Z</time>
      </trkpt>
      <trkpt lat="39.944560100555" lon="3.154964594352">
        <ele>80</ele>
        <time>2015-06-21T12:15:34Z</time>
      </trkpt>
      <trkpt lat="39.944616594561" lon="3.155056040881">
        <ele>79.8</ele>
        <time>2015-06-21T12:15:36Z</time>
      </trkpt>
      <trkpt lat="39.944694881507" lon="3.155197024439">
        <ele>79.6</ele>
        <time>2015-06-21T12:15:39Z</time>
      </trkpt>
      <trkpt lat="39.944886407922" lon="3.155515369001">
        <ele>80.2</ele>
        <time>2015-06-21T12:15:46Z</time>
      </trkpt>
      <trkpt lat="39.944972741492" lon="3.155649647039">
        <ele>80.4</ele>
        <time>2015-06-21T12:15:49Z</time>
      </trkpt>
      <trkpt lat="39.945106265159" lon="3.15588760918">
        <ele>80</ele>
        <time>2015-06-21T12:15:54Z</time>
      </trkpt>
      <trkpt lat="39.945275998634" lon="3.156187765019">
        <ele>80.4</ele>
        <time>2015-06-21T12:16:00Z</time>
      </trkpt>
      <trkpt lat="39.945495185319" lon="3.156606943838">
        <ele>80.6</ele>
        <time>2015-06-21T12:16:08Z</time>
      </trkpt>
      <trkpt lat="39.945698446394" lon="3.156978681103">
        <ele>80</ele>
        <time>2015-06-21T12:16:15Z</time>
      </trkpt>
      <trkpt lat="39.945761394463" lon="3.157083035758">
        <ele>80.2</ele>
        <time>2015-06-21T12:16:17Z</time>
      </trkpt>
      <trkpt lat="39.945824342532" lon="3.157181606902">
        <ele>80.4</ele>
        <time>2015-06-21T12:16:19Z</time>
      </trkpt>
      <trkpt lat="39.945884524574" lon="3.15728822467">
        <ele>80.8</ele>
        <time>2015-06-21T12:16:21Z</time>
      </trkpt>
      <trkpt lat="39.946085690174" lon="3.157651412397">
        <ele>80.8</ele>
        <time>2015-06-21T12:16:28Z</time>
      </trkpt>
      <trkpt lat="39.946188871363" lon="3.157862217182">
        <ele>81.6</ele>
        <time>2015-06-21T12:16:32Z</time>
      </trkpt>
      <trkpt lat="39.946246622654" lon="3.157957603204">
        <ele>81.8</ele>
        <time>2015-06-21T12:16:34Z</time>
      </trkpt>
      <trkpt lat="39.946273444734" lon="3.158013175201">
        <ele>81.8</ele>
        <time>2015-06-21T12:16:35Z</time>
      </trkpt>
      <trkpt lat="39.946381152149" lon="3.158204114883">
        <ele>81.8</ele>
        <time>2015-06-21T12:16:39Z</time>
      </trkpt>
      <trkpt lat="39.946488775745" lon="3.158383068448">
        <ele>82.6</ele>
        <time>2015-06-21T12:16:43Z</time>
      </trkpt>
      <trkpt lat="39.946512245065" lon="3.158433108391">
        <ele>83</ele>
        <time>2015-06-21T12:16:44Z</time>
      </trkpt>
      <trkpt lat="39.946537474584" lon="3.158474095882">
        <ele>83.2</ele>
        <time>2015-06-21T12:16:45Z</time>
      </trkpt>
      <trkpt lat="39.946609139829" lon="3.158597561269">
        <ele>83.8</ele>
        <time>2015-06-21T12:16:48Z</time>
      </trkpt>
      <trkpt lat="39.946720032366" lon="3.158789842055">
        <ele>84.4</ele>
        <time>2015-06-21T12:16:53Z</time>
      </trkpt>
      <trkpt lat="39.946755152527" lon="3.158864608603">
        <ele>85</ele>
        <time>2015-06-21T12:16:55Z</time>
      </trkpt>
      <trkpt lat="39.946817094768" lon="3.158969885267">
        <ele>85.4</ele>
        <time>2015-06-21T12:16:58Z</time>
      </trkpt>
      <trkpt lat="39.94687392405" lon="3.159076754492">
        <ele>86</ele>
        <time>2015-06-21T12:17:01Z</time>
      </trkpt>
      <trkpt lat="39.946950450797" lon="3.159230646176">
        <ele>86.8</ele>
        <time>2015-06-21T12:17:05Z</time>
      </trkpt>
      <trkpt lat="39.946964867665" lon="3.159262832672">
        <ele>87</ele>
        <time>2015-06-21T12:17:06Z</time>
      </trkpt>
      <trkpt lat="39.947028486286" lon="3.159366768232">
        <ele>87.6</ele>
        <time>2015-06-21T12:17:09Z</time>
      </trkpt>
      <trkpt lat="39.947048686665" lon="3.159402894221">
        <ele>80.2</ele>
        <time>2015-06-21T12:17:10Z</time>
      </trkpt>
      <trkpt lat="39.947075424926" lon="3.159445390454">
        <ele>78.6</ele>
        <time>2015-06-21T12:17:11Z</time>
      </trkpt>
      <trkpt lat="39.947104174843" lon="3.159486294126">
        <ele>84.8</ele>
        <time>2015-06-21T12:17:12Z</time>
      </trkpt>
      <trkpt lat="39.947126722154" lon="3.159523928857">
        <ele>83.8</ele>
        <time>2015-06-21T12:17:13Z</time>
      </trkpt>
      <trkpt lat="39.947156561718" lon="3.159559887208">
        <ele>83.2</ele>
        <time>2015-06-21T12:17:14Z</time>
      </trkpt>
      <trkpt lat="39.947322104243" lon="3.159776224047">
        <ele>85</ele>
        <time>2015-06-21T12:17:20Z</time>
      </trkpt>
      <trkpt lat="39.947392931298" lon="3.15988493729">
        <ele>86.2</ele>
        <time>2015-06-21T12:17:23Z</time>
      </trkpt>
      <trkpt lat="39.947481444162" lon="3.160033883653">
        <ele>87.2</ele>
        <time>2015-06-21T12:17:27Z</time>
      </trkpt>
      <trkpt lat="39.947502147455" lon="3.160071434565">
        <ele>87.6</ele>
        <time>2015-06-21T12:17:28Z</time>
      </trkpt>
      <trkpt lat="39.947608094671" lon="3.160307552688">
        <ele>87.8</ele>
        <time>2015-06-21T12:17:34Z</time>
      </trkpt>
      <trkpt lat="39.947648327791" lon="3.16058314956">
        <ele>88</ele>
        <time>2015-06-21T12:17:40Z</time>
      </trkpt>
      <trkpt lat="39.947648160153" lon="3.160732598837">
        <ele>88.4</ele>
        <time>2015-06-21T12:17:43Z</time>
      </trkpt>
      <trkpt lat="39.947632821276" lon="3.160926304546">
        <ele>89</ele>
        <time>2015-06-21T12:17:47Z</time>
      </trkpt>
      <trkpt lat="39.947606083015" lon="3.161187987464">
        <ele>89</ele>
        <time>2015-06-21T12:17:53Z</time>
      </trkpt>
      <trkpt lat="39.947584373894" lon="3.161347159745">
        <ele>89.4</ele>
        <time>2015-06-21T12:17:57Z</time>
      </trkpt>
      <trkpt lat="39.947564760248" lon="3.161433577134">
        <ele>89.8</ele>
        <time>2015-06-21T12:17:59Z</time>
      </trkpt>
      <trkpt lat="39.947549672828" lon="3.16156131729">
        <ele>90.6</ele>
        <time>2015-06-21T12:18:02Z</time>
      </trkpt>
      <trkpt lat="39.947534333951" lon="3.161687967799">
        <ele>90.8</ele>
        <time>2015-06-21T12:18:05Z</time>
      </trkpt>
      <trkpt lat="39.947500219618" lon="3.161923918284">
        <ele>91.8</ele>
        <time>2015-06-21T12:18:11Z</time>
      </trkpt>
      <trkpt lat="39.947496531582" lon="3.161962977938">
        <ele>91.8</ele>
        <time>2015-06-21T12:18:12Z</time>
      </trkpt>
      <trkpt lat="39.947518827436" lon="3.162217787698">
        <ele>92.4</ele>
        <time>2015-06-21T12:18:19Z</time>
      </trkpt>
      <trkpt lat="39.947641538452" lon="3.16244476955">
        <ele>92.4</ele>
        <time>2015-06-21T12:18:26Z</time>
      </trkpt>
      <trkpt lat="39.947788640797" lon="3.162634871042">
        <ele>91.4</ele>
        <time>2015-06-21T12:18:34Z</time>
      </trkpt>
      <trkpt lat="39.947959883014" lon="3.162835198452">
        <ele>91.8</ele>
        <time>2015-06-21T12:18:42Z</time>
      </trkpt>
      <trkpt lat="39.948074715044" lon="3.162977690752">
        <ele>92.8</ele>
        <time>2015-06-21T12:18:48Z</time>
      </trkpt>
      <trkpt lat="39.948158366406" lon="3.163060168648">
        <ele>94</ele>
        <time>2015-06-21T12:18:52Z</time>
      </trkpt>
      <trkpt lat="39.948176555129" lon="3.163083554149">
        <ele>94.4</ele>
        <time>2015-06-21T12:18:53Z</time>
      </trkpt>
      <trkpt lat="39.948267079649" lon="3.163205762251">
        <ele>95.2</ele>
        <time>2015-06-21T12:18:58Z</time>
      </trkpt>
      <trkpt lat="39.948297925041" lon="3.163271727804">
        <ele>95.8</ele>
        <time>2015-06-21T12:19:00Z</time>
      </trkpt>
      <trkpt lat="39.948340253636" lon="3.163430900085">
        <ele>96.4</ele>
        <time>2015-06-21T12:19:04Z</time>
      </trkpt>
      <trkpt lat="39.948368249182" lon="3.163582025742">
        <ele>96.2</ele>
        <time>2015-06-21T12:19:07Z</time>
      </trkpt>
      <trkpt lat="39.94838015148" lon="3.163689900795">
        <ele>96</ele>
        <time>2015-06-21T12:19:09Z</time>
      </trkpt>
      <trkpt lat="39.948405464818" lon="3.163903890702">
        <ele>95.8</ele>
        <time>2015-06-21T12:19:13Z</time>
      </trkpt>
      <trkpt lat="39.948406386827" lon="3.163959630337">
        <ele>95.8</ele>
        <time>2015-06-21T12:19:14Z</time>
      </trkpt>
      <trkpt lat="39.948439914427" lon="3.164116204229">
        <ele>95.6</ele>
        <time>2015-06-21T12:19:17Z</time>
      </trkpt>
      <trkpt lat="39.948446117033" lon="3.164166830905">
        <ele>95.6</ele>
        <time>2015-06-21T12:19:18Z</time>
      </trkpt>
      <trkpt lat="39.948478806443" lon="3.164264563859">
        <ele>95.2</ele>
        <time>2015-06-21T12:19:20Z</time>
      </trkpt>
      <trkpt lat="39.948490624922" lon="3.164321812236">
        <ele>95.2</ele>
        <time>2015-06-21T12:19:21Z</time>
      </trkpt>
      <trkpt lat="39.948579305424" lon="3.164714420432">
        <ele>94.6</ele>
        <time>2015-06-21T12:19:27Z</time>
      </trkpt>
      <trkpt lat="39.948597913242" lon="3.164783235831">
        <ele>94.2</ele>
        <time>2015-06-21T12:19:28Z</time>
      </trkpt>
      <trkpt lat="39.948689695047" lon="3.165165031376">
        <ele>93.6</ele>
        <time>2015-06-21T12:19:33Z</time>
      </trkpt>
      <trkpt lat="39.94872716214" lon="3.165322108182">
        <ele>93.2</ele>
        <time>2015-06-21T12:19:35Z</time>
      </trkpt>
      <trkpt lat="39.948866469318" lon="3.165869781528">
        <ele>92.2</ele>
        <time>2015-06-21T12:19:42Z</time>
      </trkpt>
      <trkpt lat="39.948950539775" lon="3.166289211804">
        <ele>90.8</ele>
        <time>2015-06-21T12:19:47Z</time>
      </trkpt>
      <trkpt lat="39.948967471213" lon="3.166381161247">
        <ele>90.6</ele>
        <time>2015-06-21T12:19:48Z</time>
      </trkpt>
      <trkpt lat="39.948994377112" lon="3.166581907752">
        <ele>89.8</ele>
        <time>2015-06-21T12:19:50Z</time>
      </trkpt>
      <trkpt lat="39.949031173653" lon="3.166901761056">
        <ele>88.8</ele>
        <time>2015-06-21T12:19:53Z</time>
      </trkpt>
      <trkpt lat="39.949038717363" lon="3.167014078516">
        <ele>88.4</ele>
        <time>2015-06-21T12:19:54Z</time>
      </trkpt>
      <trkpt lat="39.94912194963" lon="3.167682870317">
        <ele>88.4</ele>
        <time>2015-06-21T12:20:00Z</time>
      </trkpt>
      <trkpt lat="39.94915128628" lon="3.167902057002">
        <ele>87.8</ele>
        <time>2015-06-21T12:20:02Z</time>
      </trkpt>
      <trkpt lat="39.94920744501" lon="3.168228783464">
        <ele>86.4</ele>
        <time>2015-06-21T12:20:05Z</time>
      </trkpt>
      <trkpt lat="39.949242816628" lon="3.168434810566">
        <ele>85.6</ele>
        <time>2015-06-21T12:20:07Z</time>
      </trkpt>
      <trkpt lat="39.94925438365" lon="3.168530615683">
        <ele>85</ele>
        <time>2015-06-21T12:20:08Z</time>
      </trkpt>
      <trkpt lat="39.949278188246" lon="3.168797243922">
        <ele>84.8</ele>
        <time>2015-06-21T12:20:11Z</time>
      </trkpt>
      <trkpt lat="39.949277517694" lon="3.168890199193">
        <ele>85</ele>
        <time>2015-06-21T12:20:12Z</time>
      </trkpt>
      <trkpt lat="39.949215910729" lon="3.169323627242">
        <ele>84</ele>
        <time>2015-06-21T12:20:17Z</time>
      </trkpt>
      <trkpt lat="39.949155141954" lon="3.169728053917">
        <ele>84</ele>
        <time>2015-06-21T12:20:22Z</time>
      </trkpt>
      <trkpt lat="39.949132427005" lon="3.169915892296">
        <ele>85</ele>
        <time>2015-06-21T12:20:25Z</time>
      </trkpt>
      <trkpt lat="39.949130834444" lon="3.169951515371">
        <ele>85.4</ele>
        <time>2015-06-21T12:20:26Z</time>
      </trkpt>
      <trkpt lat="39.94912697877" lon="3.170057630225">
        <ele>86.6</ele>
        <time>2015-06-21T12:20:29Z</time>
      </trkpt>
      <trkpt lat="39.949129744797" lon="3.170090822549">
        <ele>83.8</ele>
        <time>2015-06-21T12:20:30Z</time>
      </trkpt>
      <trkpt lat="39.949137120869" lon="3.170158799758">
        <ele>84.4</ele>
        <time>2015-06-21T12:20:32Z</time>
      </trkpt>
      <trkpt lat="39.949145670407" lon="3.170222921293">
        <ele>85</ele>
        <time>2015-06-21T12:20:34Z</time>
      </trkpt>
      <trkpt lat="39.949151621556" lon="3.170257370902">
        <ele>88.2</ele>
        <time>2015-06-21T12:20:35Z</time>
      </trkpt>
      <trkpt lat="39.949173665953" lon="3.170407490731">
        <ele>89.4</ele>
        <time>2015-06-21T12:20:40Z</time>
      </trkpt>
      <trkpt lat="39.949177186351" lon="3.170437246476">
        <ele>89.6</ele>
        <time>2015-06-21T12:20:41Z</time>
      </trkpt>
      <trkpt lat="39.949193279599" lon="3.170562891157">
        <ele>90.6</ele>
        <time>2015-06-21T12:20:45Z</time>
      </trkpt>
      <trkpt lat="39.949204008431" lon="3.170712340434">
        <ele>91.4</ele>
        <time>2015-06-21T12:20:50Z</time>
      </trkpt>
      <trkpt lat="39.949182802224" lon="3.17088199009">
        <ele>90.2</ele>
        <time>2015-06-21T12:20:56Z</time>
      </trkpt>
      <trkpt lat="39.949129996254" lon="3.171064380234">
        <ele>91.6</ele>
        <time>2015-06-21T12:21:03Z</time>
      </trkpt>
      <trkpt lat="39.949119854155" lon="3.171089106839">
        <ele>91.8</ele>
        <time>2015-06-21T12:21:04Z</time>
      </trkpt>
      <trkpt lat="39.949029413454" lon="3.171265126739">
        <ele>93</ele>
        <time>2015-06-21T12:21:11Z</time>
      </trkpt>
      <trkpt lat="39.948903936411" lon="3.171319441451">
        <ele>93.6</ele>
        <time>2015-06-21T12:21:17Z</time>
      </trkpt>
      <trkpt lat="39.948862194549" lon="3.171327571894">
        <ele>94</ele>
        <time>2015-06-21T12:21:19Z</time>
      </trkpt>
      <trkpt lat="39.948742752474" lon="3.171329751188">
        <ele>95</ele>
        <time>2015-06-21T12:21:25Z</time>
      </trkpt>
      <trkpt lat="39.94869111997" lon="3.171353723422">
        <ele>95.2</ele>
        <time>2015-06-21T12:21:29Z</time>
      </trkpt>
      <trkpt lat="39.948690449418" lon="3.171383143891">
        <ele>95.6</ele>
        <time>2015-06-21T12:21:31Z</time>
      </trkpt>
      <trkpt lat="39.948697657852" lon="3.171416336215">
        <ele>95.2</ele>
        <time>2015-06-21T12:21:36Z</time>
      </trkpt>
      <trkpt lat="39.948715762756" lon="3.171437458603">
        <ele>95.2</ele>
        <time>2015-06-21T12:21:41Z</time>
      </trkpt>
      <trkpt lat="39.948723055009" lon="3.171453719489">
        <ele>101.4</ele>
        <time>2015-06-21T12:21:43Z</time>
      </trkpt>
      <trkpt lat="39.948723306466" lon="3.171465202692">
        <ele>101</ele>
        <time>2015-06-21T12:21:44Z</time>
      </trkpt>
      <trkpt lat="39.948723977018" lon="3.171473333135">
        <ele>100.4</ele>
        <time>2015-06-21T12:21:46Z</time>
      </trkpt>
      <trkpt lat="39.948734538212" lon="3.171490432211">
        <ele>100.2</ele>
        <time>2015-06-21T12:21:48Z</time>
      </trkpt>
      <trkpt lat="39.948756582609" lon="3.171503843251">
        <ele>100.4</ele>
        <time>2015-06-21T12:21:52Z</time>
      </trkpt>
      <trkpt lat="39.948772759676" lon="3.171523624535">
        <ele>100.6</ele>
        <time>2015-06-21T12:21:59Z</time>
      </trkpt>
      <trkpt lat="39.948786505992" lon="3.171545752751">
        <ele>100.8</ele>
        <time>2015-06-21T12:22:10Z</time>
      </trkpt>
      <trkpt lat="39.948815423547" lon="3.171560504895">
        <ele>100.4</ele>
        <time>2015-06-21T12:22:14Z</time>
      </trkpt>
      <trkpt lat="39.948833025537" lon="3.171567713329">
        <ele>100.2</ele>
        <time>2015-06-21T12:22:16Z</time>
      </trkpt>
      <trkpt lat="39.948923717695" lon="3.171610963933">
        <ele>101</ele>
        <time>2015-06-21T12:22:24Z</time>
      </trkpt>
      <trkpt lat="39.948973254724" lon="3.171661003876">
        <ele>101.4</ele>
        <time>2015-06-21T12:22:30Z</time>
      </trkpt>
      <trkpt lat="39.948988509782" lon="3.17167575602">
        <ele>101.6</ele>
        <time>2015-06-21T12:22:32Z</time>
      </trkpt>
      <trkpt lat="39.949050368204" lon="3.17171766552">
        <ele>102</ele>
        <time>2015-06-21T12:22:39Z</time>
      </trkpt>
      <trkpt lat="39.949088757306" lon="3.171740883383">
        <ele>102.6</ele>
        <time>2015-06-21T12:22:44Z</time>
      </trkpt>
      <trkpt lat="39.949107532762" lon="3.171752953319">
        <ele>102.6</ele>
        <time>2015-06-21T12:22:46Z</time>
      </trkpt>
      <trkpt lat="39.949147765882" lon="3.171790839507">
        <ele>102.4</ele>
        <time>2015-06-21T12:22:51Z</time>
      </trkpt>
      <trkpt lat="39.949170732288" lon="3.171812213352">
        <ele>102.8</ele>
        <time>2015-06-21T12:22:54Z</time>
      </trkpt>
      <trkpt lat="39.949218173842" lon="3.171837778147">
        <ele>102.6</ele>
        <time>2015-06-21T12:22:59Z</time>
      </trkpt>
      <trkpt lat="39.949226555742" lon="3.17184590859">
        <ele>102.6</ele>
        <time>2015-06-21T12:23:00Z</time>
      </trkpt>
      <trkpt lat="39.949280451359" lon="3.171900726216">
        <ele>102.6</ele>
        <time>2015-06-21T12:23:07Z</time>
      </trkpt>
      <trkpt lat="39.949308446905" lon="3.171921010414">
        <ele>102.6</ele>
        <time>2015-06-21T12:23:11Z</time>
      </trkpt>
      <trkpt lat="39.949314984787" lon="3.171930314323">
        <ele>102.6</ele>
        <time>2015-06-21T12:23:12Z</time>
      </trkpt>
      <trkpt lat="39.94936586292" lon="3.171994603496">
        <ele>102.6</ele>
        <time>2015-06-21T12:23:21Z</time>
      </trkpt>
      <trkpt lat="39.949416741053" lon="3.172031232399">
        <ele>102.6</ele>
        <time>2015-06-21T12:23:30Z</time>
      </trkpt>
      <trkpt lat="39.949447754083" lon="3.172029556019">
        <ele>102.6</ele>
        <time>2015-06-21T12:23:35Z</time>
      </trkpt>
      <trkpt lat="39.94945806382" lon="3.172026370897">
        <ele>102.4</ele>
        <time>2015-06-21T12:23:49Z</time>
      </trkpt>
      <trkpt lat="39.949437695803" lon="3.172039027566">
        <ele>102.6</ele>
        <time>2015-06-21T12:23:54Z</time>
      </trkpt>
      <trkpt lat="39.949423446573" lon="3.172036093901">
        <ele>103</ele>
        <time>2015-06-21T12:23:59Z</time>
      </trkpt>
      <trkpt lat="39.949403832927" lon="3.171989993451">
        <ele>102.8</ele>
        <time>2015-06-21T12:24:06Z</time>
      </trkpt>
      <trkpt lat="39.949360498504" lon="3.171946072295">
        <ele>102.6</ele>
        <time>2015-06-21T12:24:12Z</time>
      </trkpt>
      <trkpt lat="39.949333676424" lon="3.171931068694">
        <ele>102.8</ele>
        <time>2015-06-21T12:24:16Z</time>
      </trkpt>
      <trkpt lat="39.949326887085" lon="3.171926793925">
        <ele>103</ele>
        <time>2015-06-21T12:24:17Z</time>
      </trkpt>
      <trkpt lat="39.949284809947" lon="3.171907767012">
        <ele>103</ele>
        <time>2015-06-21T12:24:23Z</time>
      </trkpt>
      <trkpt lat="39.949238122764" lon="3.171876670163">
        <ele>103.2</ele>
        <time>2015-06-21T12:24:31Z</time>
      </trkpt>
      <trkpt lat="39.949211719779" lon="3.171859738725">
        <ele>103.4</ele>
        <time>2015-06-21T12:24:35Z</time>
      </trkpt>
      <trkpt lat="39.949206355363" lon="3.171850853911">
        <ele>103.4</ele>
        <time>2015-06-21T12:24:38Z</time>
      </trkpt>
      <trkpt lat="39.949209624304" lon="3.171802071253">
        <ele>103.4</ele>
        <time>2015-06-21T12:24:44Z</time>
      </trkpt>
      <trkpt lat="39.949200152757" lon="3.171790839507">
        <ele>103.2</ele>
        <time>2015-06-21T12:24:51Z</time>
      </trkpt>
      <trkpt lat="39.949159249085" lon="3.171744571419">
        <ele>103.2</ele>
        <time>2015-06-21T12:25:01Z</time>
      </trkpt>
      <trkpt lat="39.949152711203" lon="3.171738033537">
        <ele>103.2</ele>
        <time>2015-06-21T12:25:08Z</time>
      </trkpt>
      <trkpt lat="39.949143407294" lon="3.171723868126">
        <ele>103</ele>
        <time>2015-06-21T12:25:15Z</time>
      </trkpt>
      <trkpt lat="39.949137539964" lon="3.171707858697">
        <ele>103.4</ele>
        <time>2015-06-21T12:25:17Z</time>
      </trkpt>
      <trkpt lat="39.949099067043" lon="3.171673912002">
        <ele>103.2</ele>
        <time>2015-06-21T12:25:25Z</time>
      </trkpt>
      <trkpt lat="39.949050452023" lon="3.171645916456">
        <ele>103</ele>
        <time>2015-06-21T12:25:32Z</time>
      </trkpt>
      <trkpt lat="39.949006111772" lon="3.171615825435">
        <ele>102.8</ele>
        <time>2015-06-21T12:25:41Z</time>
      </trkpt>
      <trkpt lat="39.94896185534" lon="3.171597636712">
        <ele>102.2</ele>
        <time>2015-06-21T12:25:48Z</time>
      </trkpt>
      <trkpt lat="39.948929836482" lon="3.171589087174">
        <ele>102</ele>
        <time>2015-06-21T12:25:54Z</time>
      </trkpt>
      <trkpt lat="39.948906367162" lon="3.171590344459">
        <ele>101.6</ele>
        <time>2015-06-21T12:25:57Z</time>
      </trkpt>
      <trkpt lat="39.94889060919" lon="3.171588500441">
        <ele>101.6</ele>
        <time>2015-06-21T12:25:59Z</time>
      </trkpt>
      <trkpt lat="39.948880047996" lon="3.1715768496">
        <ele>101.4</ele>
        <time>2015-06-21T12:26:01Z</time>
      </trkpt>
      <trkpt lat="39.948847945319" lon="3.171551200986">
        <ele>101.2</ele>
        <time>2015-06-21T12:26:05Z</time>
      </trkpt>
      <trkpt lat="39.948791116037" lon="3.171519936499">
        <ele>100.8</ele>
        <time>2015-06-21T12:26:14Z</time>
      </trkpt>
      <trkpt lat="39.948766137975" lon="3.171497305369">
        <ele>100.8</ele>
        <time>2015-06-21T12:26:19Z</time>
      </trkpt>
      <trkpt lat="39.948787679458" lon="3.17146285576">
        <ele>100.4</ele>
        <time>2015-06-21T12:26:24Z</time>
      </trkpt>
      <trkpt lat="39.948793798245" lon="3.171461766113">
        <ele>100.4</ele>
        <time>2015-06-21T12:26:25Z</time>
      </trkpt>
      <trkpt lat="39.948793714426" lon="3.171453970946">
        <ele>100</ele>
        <time>2015-06-21T12:26:33Z</time>
      </trkpt>
      <trkpt lat="39.948793714426" lon="3.171461849932">
        <ele>100</ele>
        <time>2015-06-21T12:26:39Z</time>
      </trkpt>
      <trkpt lat="39.948790361666" lon="3.171468387814">
        <ele>100</ele>
        <time>2015-06-21T12:26:50Z</time>
      </trkpt>
      <trkpt lat="39.948786841268" lon="3.171457239887">
        <ele>100</ele>
        <time>2015-06-21T12:26:57Z</time>
      </trkpt>
      <trkpt lat="39.948785751621" lon="3.171449277082">
        <ele>100</ele>
        <time>2015-06-21T12:27:03Z</time>
      </trkpt>
      <trkpt lat="39.948763623405" lon="3.171432345644">
        <ele>100</ele>
        <time>2015-06-21T12:27:12Z</time>
      </trkpt>
      <trkpt lat="39.948760103007" lon="3.171409546876">
        <ele>99.8</ele>
        <time>2015-06-21T12:27:23Z</time>
      </trkpt>
      <trkpt lat="39.948745518501" lon="3.171398734225">
        <ele>95.6</ele>
        <time>2015-06-21T12:27:27Z</time>
      </trkpt>
      <trkpt lat="39.948738477705" lon="3.171384736452">
        <ele>94.6</ele>
        <time>2015-06-21T12:27:28Z</time>
      </trkpt>
      <trkpt lat="39.948741495189" lon="3.171361350951">
        <ele>97.4</ele>
        <time>2015-06-21T12:27:29Z</time>
      </trkpt>
      <trkpt lat="39.948808885665" lon="3.171351460309">
        <ele>101.8</ele>
        <time>2015-06-21T12:27:32Z</time>
      </trkpt>
      <trkpt lat="39.94887803634" lon="3.17135221468">
        <ele>100.4</ele>
        <time>2015-06-21T12:27:34Z</time>
      </trkpt>
      <trkpt lat="39.94892665136" lon="3.171344754789">
        <ele>100.2</ele>
        <time>2015-06-21T12:27:35Z</time>
      </trkpt>
      <trkpt lat="39.948972835629" lon="3.171326985161">
        <ele>100</ele>
        <time>2015-06-21T12:27:36Z</time>
      </trkpt>
      <trkpt lat="39.949114908834" lon="3.171164627758">
        <ele>99</ele>
        <time>2015-06-21T12:27:39Z</time>
      </trkpt>
      <trkpt lat="39.949174839419" lon="3.170991541523">
        <ele>97.8</ele>
        <time>2015-06-21T12:27:41Z</time>
      </trkpt>
      <trkpt lat="39.949221945697" lon="3.170816695089">
        <ele>96.2</ele>
        <time>2015-06-21T12:27:43Z</time>
      </trkpt>
      <trkpt lat="39.949233764176" lon="3.170639920818">
        <ele>95.2</ele>
        <time>2015-06-21T12:27:45Z</time>
      </trkpt>
      <trkpt lat="39.949209289028" lon="3.170436743562">
        <ele>93.8</ele>
        <time>2015-06-21T12:27:47Z</time>
      </trkpt>
      <trkpt lat="39.949176934894" lon="3.17019970343">
        <ele>92</ele>
        <time>2015-06-21T12:27:49Z</time>
      </trkpt>
      <trkpt lat="39.949163607673" lon="3.169936930865">
        <ele>90</ele>
        <time>2015-06-21T12:27:51Z</time>
      </trkpt>
      <trkpt lat="39.949173749772" lon="3.169799467705">
        <ele>89</ele>
        <time>2015-06-21T12:27:52Z</time>
      </trkpt>
      <trkpt lat="39.949195123617" lon="3.169640463062">
        <ele>87.8</ele>
        <time>2015-06-21T12:27:53Z</time>
      </trkpt>
      <trkpt lat="39.949219347308" lon="3.169495204735">
        <ele>86.8</ele>
        <time>2015-06-21T12:27:54Z</time>
      </trkpt>
      <trkpt lat="39.949244073913" lon="3.169352628616">
        <ele>85.6</ele>
        <time>2015-06-21T12:27:55Z</time>
      </trkpt>
      <trkpt lat="39.949285983413" lon="3.169081474151">
        <ele>84</ele>
        <time>2015-06-21T12:27:57Z</time>
      </trkpt>
      <trkpt lat="39.949305010326" lon="3.168835633024">
        <ele>84</ele>
        <time>2015-06-21T12:27:59Z</time>
      </trkpt>
      <trkpt lat="39.9492921022" lon="3.168615859606">
        <ele>85.2</ele>
        <time>2015-06-21T12:28:01Z</time>
      </trkpt>
      <trkpt lat="39.94926276555" lon="3.168399941862">
        <ele>86</ele>
        <time>2015-06-21T12:28:03Z</time>
      </trkpt>
      <trkpt lat="39.949252791089" lon="3.168307405686">
        <ele>86.4</ele>
        <time>2015-06-21T12:28:04Z</time>
      </trkpt>
      <trkpt lat="39.949223789715" lon="3.16811931585">
        <ele>87.6</ele>
        <time>2015-06-21T12:28:06Z</time>
      </trkpt>
      <trkpt lat="39.949191016486" lon="3.167951426393">
        <ele>88.2</ele>
        <time>2015-06-21T12:28:08Z</time>
      </trkpt>
      <trkpt lat="39.949154052307" lon="3.167743471454">
        <ele>88.8</ele>
        <time>2015-06-21T12:28:11Z</time>
      </trkpt>
      <trkpt lat="39.949128068417" lon="3.167613971099">
        <ele>88.8</ele>
        <time>2015-06-21T12:28:13Z</time>
      </trkpt>
      <trkpt lat="39.949097725939" lon="3.167438537932">
        <ele>82.4</ele>
        <time>2015-06-21T12:28:16Z</time>
      </trkpt>
      <trkpt lat="39.949052128403" lon="3.167133017677">
        <ele>89.6</ele>
        <time>2015-06-21T12:28:21Z</time>
      </trkpt>
      <trkpt lat="39.949036873345" lon="3.167005109883">
        <ele>90</ele>
        <time>2015-06-21T12:28:23Z</time>
      </trkpt>
      <trkpt lat="39.949019522812" lon="3.166874100786">
        <ele>90.6</ele>
        <time>2015-06-21T12:28:25Z</time>
      </trkpt>
      <trkpt lat="39.94897778095" lon="3.166559276622">
        <ele>91.6</ele>
        <time>2015-06-21T12:28:30Z</time>
      </trkpt>
      <trkpt lat="39.948971997439" lon="3.166501357693">
        <ele>91.8</ele>
        <time>2015-06-21T12:28:31Z</time>
      </trkpt>
      <trkpt lat="39.948949953042" lon="3.166298683351">
        <ele>92.8</ele>
        <time>2015-06-21T12:28:35Z</time>
      </trkpt>
      <trkpt lat="39.94893838602" lon="3.166200866578">
        <ele>91.8</ele>
        <time>2015-06-21T12:28:37Z</time>
      </trkpt>
      <trkpt lat="39.948916676899" lon="3.166043538315">
        <ele>92.8</ele>
        <time>2015-06-21T12:28:41Z</time>
      </trkpt>
      <trkpt lat="39.948910222836" lon="3.166000622987">
        <ele>94.8</ele>
        <time>2015-06-21T12:28:42Z</time>
      </trkpt>
      <trkpt lat="39.948886921154" lon="3.16588218674">
        <ele>95.6</ele>
        <time>2015-06-21T12:28:45Z</time>
      </trkpt>
      <trkpt lat="39.94887133082" lon="3.165802223414">
        <ele>96</ele>
        <time>2015-06-21T12:28:47Z</time>
      </trkpt>
      <trkpt lat="39.948803269792" lon="3.165522184135">
        <ele>97.2</ele>
        <time>2015-06-21T12:28:54Z</time>
      </trkpt>
      <trkpt lat="39.948739148257" lon="3.165227476531">
        <ele>98.2</ele>
        <time>2015-06-21T12:29:01Z</time>
      </trkpt>
      <trkpt lat="39.948721630086" lon="3.165141310599">
        <ele>98.2</ele>
        <time>2015-06-21T12:29:03Z</time>
      </trkpt>
      <trkpt lat="39.948665052261" lon="3.164860181673">
        <ele>99.4</ele>
        <time>2015-06-21T12:29:10Z</time>
      </trkpt>
      <trkpt lat="39.94865759237" lon="3.164819697096">
        <ele>99.4</ele>
        <time>2015-06-21T12:29:11Z</time>
      </trkpt>
      <trkpt lat="39.948619203268" lon="3.164653316381">
        <ele>100.6</ele>
        <time>2015-06-21T12:29:15Z</time>
      </trkpt>
      <trkpt lat="39.948591962093" lon="3.164533371392">
        <ele>101</ele>
        <time>2015-06-21T12:29:18Z</time>
      </trkpt>
      <trkpt lat="39.948583244917" lon="3.164492551539">
        <ele>97.2</ele>
        <time>2015-06-21T12:29:19Z</time>
      </trkpt>
      <trkpt lat="39.948576958492" lon="3.164454330075">
        <ele>99.6</ele>
        <time>2015-06-21T12:29:20Z</time>
      </trkpt>
      <trkpt lat="39.948568911868" lon="3.164417617353">
        <ele>101.2</ele>
        <time>2015-06-21T12:29:21Z</time>
      </trkpt>
      <trkpt lat="39.948534294621" lon="3.164245117851">
        <ele>101.4</ele>
        <time>2015-06-21T12:29:25Z</time>
      </trkpt>
      <trkpt lat="39.948467658516" lon="3.16390657291">
        <ele>102.2</ele>
        <time>2015-06-21T12:29:32Z</time>
      </trkpt>
      <trkpt lat="39.948454079838" lon="3.163804062273">
        <ele>102.4</ele>
        <time>2015-06-21T12:29:34Z</time>
      </trkpt>
      <trkpt lat="39.948422312437" lon="3.163592419298">
        <ele>103.6</ele>
        <time>2015-06-21T12:29:38Z</time>
      </trkpt>
      <trkpt lat="39.948408566121" lon="3.163496027448">
        <ele>104.2</ele>
        <time>2015-06-21T12:29:40Z</time>
      </trkpt>
      <trkpt lat="39.948398340203" lon="3.163447831523">
        <ele>104.6</ele>
        <time>2015-06-21T12:29:41Z</time>
      </trkpt>
      <trkpt lat="39.948375289978" lon="3.163315146046">
        <ele>105.6</ele>
        <time>2015-06-21T12:29:44Z</time>
      </trkpt>
      <trkpt lat="39.948363136223" lon="3.163276421668">
        <ele>105.8</ele>
        <time>2015-06-21T12:29:45Z</time>
      </trkpt>
      <trkpt lat="39.948276467377" lon="3.163121021242">
        <ele>106.6</ele>
        <time>2015-06-21T12:29:49Z</time>
      </trkpt>
      <trkpt lat="39.948244448519" lon="3.163081291036">
        <ele>106.6</ele>
        <time>2015-06-21T12:29:50Z</time>
      </trkpt>
      <trkpt lat="39.948115534897" lon="3.162941480944">
        <ele>105.8</ele>
        <time>2015-06-21T12:29:53Z</time>
      </trkpt>
      <trkpt lat="39.947850750676" lon="3.162649036453">
        <ele>104.6</ele>
        <time>2015-06-21T12:29:58Z</time>
      </trkpt>
      <trkpt lat="39.947795011041" lon="3.162576113923">
        <ele>104</ele>
        <time>2015-06-21T12:29:59Z</time>
      </trkpt>
      <trkpt lat="39.947733990809" lon="3.1625160157">
        <ele>103.6</ele>
        <time>2015-06-21T12:30:00Z</time>
      </trkpt>
      <trkpt lat="39.94761320763" lon="3.162354747944">
        <ele>102.6</ele>
        <time>2015-06-21T12:30:02Z</time>
      </trkpt>
      <trkpt lat="39.947568867379" lon="3.162251231479">
        <ele>102</ele>
        <time>2015-06-21T12:30:03Z</time>
      </trkpt>
      <trkpt lat="39.947539614548" lon="3.162014526623">
        <ele>100.8</ele>
        <time>2015-06-21T12:30:05Z</time>
      </trkpt>
      <trkpt lat="39.947570124664" lon="3.161771870618">
        <ele>99</ele>
        <time>2015-06-21T12:30:07Z</time>
      </trkpt>
      <trkpt lat="39.947589235396" lon="3.161651087439">
        <ele>97.8</ele>
        <time>2015-06-21T12:30:08Z</time>
      </trkpt>
      <trkpt lat="39.947610525422" lon="3.161527538233">
        <ele>97</ele>
        <time>2015-06-21T12:30:09Z</time>
      </trkpt>
      <trkpt lat="39.947628546507" lon="3.161418489714">
        <ele>96</ele>
        <time>2015-06-21T12:30:10Z</time>
      </trkpt>
      <trkpt lat="39.947666935609" lon="3.161178935012">
        <ele>94.8</ele>
        <time>2015-06-21T12:30:12Z</time>
      </trkpt>
      <trkpt lat="39.947684286142" lon="3.160956563205">
        <ele>94</ele>
        <time>2015-06-21T12:30:14Z</time>
      </trkpt>
      <trkpt lat="39.947694009146" lon="3.160626567802">
        <ele>93.8</ele>
        <time>2015-06-21T12:30:17Z</time>
      </trkpt>
      <trkpt lat="39.947683196495" lon="3.16051525617">
        <ele>93.8</ele>
        <time>2015-06-21T12:30:18Z</time>
      </trkpt>
      <trkpt lat="39.94765846989" lon="3.160405537099">
        <ele>93.4</ele>
        <time>2015-06-21T12:30:19Z</time>
      </trkpt>
      <trkpt lat="39.947584541532" lon="3.160211328476">
        <ele>91.8</ele>
        <time>2015-06-21T12:30:21Z</time>
      </trkpt>
      <trkpt lat="39.947490748071" lon="3.160018712414">
        <ele>90.6</ele>
        <time>2015-06-21T12:30:23Z</time>
      </trkpt>
      <trkpt lat="39.947338532767" lon="3.159737164393">
        <ele>89.4</ele>
        <time>2015-06-21T12:30:26Z</time>
      </trkpt>
      <trkpt lat="39.947279188915" lon="3.159629037883">
        <ele>89.2</ele>
        <time>2015-06-21T12:30:27Z</time>
      </trkpt>
      <trkpt lat="39.947042986973" lon="3.159216564584">
        <ele>88.4</ele>
        <time>2015-06-21T12:30:31Z</time>
      </trkpt>
      <trkpt lat="39.946907703107" lon="3.158990253284">
        <ele>87.2</ele>
        <time>2015-06-21T12:30:33Z</time>
      </trkpt>
      <trkpt lat="39.946767557739" lon="3.158753632247">
        <ele>86</ele>
        <time>2015-06-21T12:30:35Z</time>
      </trkpt>
      <trkpt lat="39.946555998583" lon="3.158400335162">
        <ele>84.8</ele>
        <time>2015-06-21T12:30:38Z</time>
      </trkpt>
      <trkpt lat="39.946358185743" lon="3.158049385009">
        <ele>83.2</ele>
        <time>2015-06-21T12:30:41Z</time>
      </trkpt>
      <trkpt lat="39.946219632936" lon="3.157803208606">
        <ele>82</ele>
        <time>2015-06-21T12:30:43Z</time>
      </trkpt>
      <trkpt lat="39.9460902164" lon="3.15757320927">
        <ele>81.2</ele>
        <time>2015-06-21T12:30:45Z</time>
      </trkpt>
      <trkpt lat="39.946032968023" lon="3.157473045565">
        <ele>81</ele>
        <time>2015-06-21T12:30:46Z</time>
      </trkpt>
      <trkpt lat="39.945726525759" lon="3.156921851821">
        <ele>79.8</ele>
        <time>2015-06-21T12:30:51Z</time>
      </trkpt>
      <trkpt lat="39.945382867859" lon="3.15631089513">
        <ele>79.2</ele>
        <time>2015-06-21T12:30:57Z</time>
      </trkpt>
      <trkpt lat="39.94527884848" lon="3.15612816971">
        <ele>79.6</ele>
        <time>2015-06-21T12:30:59Z</time>
      </trkpt>
      <trkpt lat="39.945135015076" lon="3.15587671271">
        <ele>82</ele>
        <time>2015-06-21T12:31:02Z</time>
      </trkpt>
      <trkpt lat="39.945085813323" lon="3.155794821547">
        <ele>88.4</ele>
        <time>2015-06-21T12:31:03Z</time>
      </trkpt>
      <trkpt lat="39.944986152532" lon="3.155625590986">
        <ele>89</ele>
        <time>2015-06-21T12:31:05Z</time>
      </trkpt>
      <trkpt lat="39.944883893352" lon="3.15545091219">
        <ele>86.4</ele>
        <time>2015-06-21T12:31:07Z</time>
      </trkpt>
      <trkpt lat="39.944833601952" lon="3.155362231688">
        <ele>79.8</ele>
        <time>2015-06-21T12:31:08Z</time>
      </trkpt>
      <trkpt lat="39.944580720029" lon="3.154908351803">
        <ele>79</ele>
        <time>2015-06-21T12:31:13Z</time>
      </trkpt>
      <trkpt lat="39.944323982432" lon="3.154445503285">
        <ele>78.8</ele>
        <time>2015-06-21T12:31:18Z</time>
      </trkpt>
      <trkpt lat="39.944120972814" lon="3.154072760192">
        <ele>77.6</ele>
        <time>2015-06-21T12:31:22Z</time>
      </trkpt>
      <trkpt lat="39.944008906811" lon="3.153872181325">
        <ele>77</ele>
        <time>2015-06-21T12:31:24Z</time>
      </trkpt>
      <trkpt lat="39.94390170231" lon="3.153675709589">
        <ele>76.2</ele>
        <time>2015-06-21T12:31:26Z</time>
      </trkpt>
      <trkpt lat="39.943629122922" lon="3.153188134466">
        <ele>75.2</ele>
        <time>2015-06-21T12:31:31Z</time>
      </trkpt>
      <trkpt lat="39.943316058957" lon="3.152620009284">
        <ele>75.2</ele>
        <time>2015-06-21T12:31:37Z</time>
      </trkpt>
      <trkpt lat="39.943208938275" lon="3.152431081258">
        <ele>74</ele>
        <time>2015-06-21T12:31:39Z</time>
      </trkpt>
      <trkpt lat="39.942889336428" lon="3.151860776782">
        <ele>73</ele>
        <time>2015-06-21T12:31:45Z</time>
      </trkpt>
      <trkpt lat="39.942843655073" lon="3.151778717981">
        <ele>72.8</ele>
        <time>2015-06-21T12:31:46Z</time>
      </trkpt>
      <trkpt lat="39.942471582532" lon="3.151123923953">
        <ele>72.2</ele>
        <time>2015-06-21T12:31:53Z</time>
      </trkpt>
      <trkpt lat="39.94242062058" lon="3.151035830184">
        <ele>72.2</ele>
        <time>2015-06-21T12:31:54Z</time>
      </trkpt>
      <trkpt lat="39.942053241903" lon="3.150385478563">
        <ele>72</ele>
        <time>2015-06-21T12:32:01Z</time>
      </trkpt>
      <trkpt lat="39.941995406793" lon="3.150279782804">
        <ele>71.6</ele>
        <time>2015-06-21T12:32:02Z</time>
      </trkpt>
      <trkpt lat="39.941778818497" lon="3.149888767169">
        <ele>70.6</ele>
        <time>2015-06-21T12:32:06Z</time>
      </trkpt>
      <trkpt lat="39.941590728661" lon="3.149558604128">
        <ele>70</ele>
        <time>2015-06-21T12:32:09Z</time>
      </trkpt>
      <trkpt lat="39.941533564103" lon="3.149453411283">
        <ele>69.6</ele>
        <time>2015-06-21T12:32:10Z</time>
      </trkpt>
      <trkpt lat="39.941346563914" lon="3.14910916665">
        <ele>68.2</ele>
        <time>2015-06-21T12:32:13Z</time>
      </trkpt>
      <trkpt lat="39.941223182346" lon="3.148888890318">
        <ele>67</ele>
        <time>2015-06-21T12:32:15Z</time>
      </trkpt>
      <trkpt lat="39.941098040579" lon="3.148675068049">
        <ele>65.8</ele>
        <time>2015-06-21T12:32:17Z</time>
      </trkpt>
      <trkpt lat="39.940882458111" lon="3.148287069898">
        <ele>64.8</ele>
        <time>2015-06-21T12:32:21Z</time>
      </trkpt>
      <trkpt lat="39.940830909426" lon="3.148193192618">
        <ele>64.8</ele>
        <time>2015-06-21T12:32:22Z</time>
      </trkpt>
      <trkpt lat="39.940475433047" lon="3.147562287005">
        <ele>64.6</ele>
        <time>2015-06-21T12:32:29Z</time>
      </trkpt>
      <trkpt lat="39.940146108196" lon="3.146984103543">
        <ele>64.2</ele>
        <time>2015-06-21T12:32:36Z</time>
      </trkpt>
      <trkpt lat="39.940097241719" lon="3.146897769973">
        <ele>64.4</ele>
        <time>2015-06-21T12:32:37Z</time>
      </trkpt>
      <trkpt lat="39.939914600118" lon="3.146592668813">
        <ele>64.4</ele>
        <time>2015-06-21T12:32:41Z</time>
      </trkpt>
      <trkpt lat="39.939813179128" lon="3.146425701365">
        <ele>64</ele>
        <time>2015-06-21T12:32:43Z</time>
      </trkpt>
      <trkpt lat="39.939688288818" lon="3.146198300418">
        <ele>63.8</ele>
        <time>2015-06-21T12:32:46Z</time>
      </trkpt>
      <trkpt lat="39.939496930041" lon="3.145862940599">
        <ele>63.2</ele>
        <time>2015-06-21T12:32:50Z</time>
      </trkpt>
      <trkpt lat="39.939450997229" lon="3.145784402196">
        <ele>62.8</ele>
        <time>2015-06-21T12:32:51Z</time>
      </trkpt>
      <trkpt lat="39.939143381499" lon="3.145227676398">
        <ele>62.8</ele>
        <time>2015-06-21T12:32:58Z</time>
      </trkpt>
      <trkpt lat="39.938870215378" lon="3.144756278342">
        <ele>63.4</ele>
        <time>2015-06-21T12:33:05Z</time>
      </trkpt>
      <trkpt lat="39.938545584391" lon="3.14419402049">
        <ele>62.2</ele>
        <time>2015-06-21T12:33:13Z</time>
      </trkpt>
      <trkpt lat="39.938384148997" lon="3.143986819922">
        <ele>61.6</ele>
        <time>2015-06-21T12:33:16Z</time>
      </trkpt>
      <trkpt lat="39.938245093276" lon="3.143832257686">
        <ele>61.6</ele>
        <time>2015-06-21T12:33:18Z</time>
      </trkpt>
      <trkpt lat="39.937850557243" lon="3.143441996422">
        <ele>60.2</ele>
        <time>2015-06-21T12:33:23Z</time>
      </trkpt>
      <trkpt lat="39.937681326682" lon="3.143274609879">
        <ele>58.4</ele>
        <time>2015-06-21T12:33:25Z</time>
      </trkpt>
      <trkpt lat="39.937501702565" lon="3.143098170884">
        <ele>56.6</ele>
        <time>2015-06-21T12:33:27Z</time>
      </trkpt>
      <trkpt lat="39.937325850303" lon="3.142917792396">
        <ele>55.4</ele>
        <time>2015-06-21T12:33:29Z</time>
      </trkpt>
      <trkpt lat="39.937154188991" lon="3.142742359229">
        <ele>54.8</ele>
        <time>2015-06-21T12:33:31Z</time>
      </trkpt>
      <trkpt lat="39.936976157435" lon="3.142562148379">
        <ele>54.2</ele>
        <time>2015-06-21T12:33:33Z</time>
      </trkpt>
      <trkpt lat="39.936802735924" lon="3.142386799031">
        <ele>53</ele>
        <time>2015-06-21T12:33:35Z</time>
      </trkpt>
      <trkpt lat="39.93663208044" lon="3.142216981737">
        <ele>51.4</ele>
        <time>2015-06-21T12:33:37Z</time>
      </trkpt>
      <trkpt lat="39.936547674707" lon="3.142131905452">
        <ele>50.6</ele>
        <time>2015-06-21T12:33:38Z</time>
      </trkpt>
      <trkpt lat="39.936465364449" lon="3.142047583538">
        <ele>50</ele>
        <time>2015-06-21T12:33:39Z</time>
      </trkpt>
      <trkpt lat="39.936079377954" lon="3.141659501568">
        <ele>49</ele>
        <time>2015-06-21T12:33:44Z</time>
      </trkpt>
      <trkpt lat="39.936001510103" lon="3.141584232106">
        <ele>48.6</ele>
        <time>2015-06-21T12:33:45Z</time>
      </trkpt>
      <trkpt lat="39.935468337444" lon="3.141047036135">
        <ele>49</ele>
        <time>2015-06-21T12:33:52Z</time>
      </trkpt>
      <trkpt lat="39.93523397952" lon="3.140786442864">
        <ele>47.4</ele>
        <time>2015-06-21T12:33:55Z</time>
      </trkpt>
      <trkpt lat="39.935180586817" lon="3.140682423485">
        <ele>47</ele>
        <time>2015-06-21T12:33:56Z</time>
      </trkpt>
      <trkpt lat="39.935084865519" lon="3.140442952602">
        <ele>46.2</ele>
        <time>2015-06-21T12:33:58Z</time>
      </trkpt>
      <trkpt lat="39.934956370992" lon="3.140081273617">
        <ele>45</ele>
        <time>2015-06-21T12:34:01Z</time>
      </trkpt>
      <trkpt lat="39.934823014963" lon="3.139739292097">
        <ele>45</ele>
        <time>2015-06-21T12:34:04Z</time>
      </trkpt>
      <trkpt lat="39.934720504326" lon="3.139536533936">
        <ele>44.4</ele>
        <time>2015-06-21T12:34:06Z</time>
      </trkpt>
      <trkpt lat="39.934597709491" lon="3.139338134363">
        <ele>43.8</ele>
        <time>2015-06-21T12:34:08Z</time>
      </trkpt>
      <trkpt lat="39.934382043204" lon="3.138979389043">
        <ele>42.4</ele>
        <time>2015-06-21T12:34:12Z</time>
      </trkpt>
      <trkpt lat="39.934325968293" lon="3.138882242822">
        <ele>40</ele>
        <time>2015-06-21T12:34:13Z</time>
      </trkpt>
      <trkpt lat="39.934266959717" lon="3.138782917307">
        <ele>42.4</ele>
        <time>2015-06-21T12:34:14Z</time>
      </trkpt>
      <trkpt lat="39.934150786583" lon="3.138585858838">
        <ele>41</ele>
        <time>2015-06-21T12:34:16Z</time>
      </trkpt>
      <trkpt lat="39.934079708071" lon="3.138466584401">
        <ele>41.2</ele>
        <time>2015-06-21T12:34:17Z</time>
      </trkpt>
      <trkpt lat="39.934008881016" lon="3.138359212262">
        <ele>43.6</ele>
        <time>2015-06-21T12:34:18Z</time>
      </trkpt>
      <trkpt lat="39.933942496368" lon="3.138253348865">
        <ele>38</ele>
        <time>2015-06-21T12:34:19Z</time>
      </trkpt>
      <trkpt lat="39.93382246756" lon="3.138056038939">
        <ele>36.8</ele>
        <time>2015-06-21T12:34:21Z</time>
      </trkpt>
      <trkpt lat="39.933760525319" lon="3.13795621051">
        <ele>35.8</ele>
        <time>2015-06-21T12:34:22Z</time>
      </trkpt>
      <trkpt lat="39.933699421268" lon="3.1378564659">
        <ele>34.2</ele>
        <time>2015-06-21T12:34:23Z</time>
      </trkpt>
      <trkpt lat="39.933642843443" lon="3.137761415154">
        <ele>35.6</ele>
        <time>2015-06-21T12:34:24Z</time>
      </trkpt>
      <trkpt lat="39.933539829892" lon="3.137578438277">
        <ele>33.2</ele>
        <time>2015-06-21T12:34:26Z</time>
      </trkpt>
      <trkpt lat="39.933488784121" lon="3.137461929867">
        <ele>34.4</ele>
        <time>2015-06-21T12:34:27Z</time>
      </trkpt>
      <trkpt lat="39.933459028376" lon="3.137352965167">
        <ele>34</ele>
        <time>2015-06-21T12:34:28Z</time>
      </trkpt>
      <trkpt lat="39.933443186585" lon="3.137215921102">
        <ele>33</ele>
        <time>2015-06-21T12:34:29Z</time>
      </trkpt>
      <trkpt lat="39.933429021174" lon="3.136963625912">
        <ele>31.8</ele>
        <time>2015-06-21T12:34:31Z</time>
      </trkpt>
      <trkpt lat="39.933421142188" lon="3.136699512243">
        <ele>30.6</ele>
        <time>2015-06-21T12:34:33Z</time>
      </trkpt>
      <trkpt lat="39.933410413356" lon="3.136194670406">
        <ele>29.2</ele>
        <time>2015-06-21T12:34:37Z</time>
      </trkpt>
      <trkpt lat="39.933389710063" lon="3.136071456476">
        <ele>29</ele>
        <time>2015-06-21T12:34:38Z</time>
      </trkpt>
      <trkpt lat="39.933291222738" lon="3.135856041646">
        <ele>28.4</ele>
        <time>2015-06-21T12:34:40Z</time>
      </trkpt>
      <trkpt lat="39.933140683814" lon="3.135682033402">
        <ele>28</ele>
        <time>2015-06-21T12:34:42Z</time>
      </trkpt>
      <trkpt lat="39.933049404923" lon="3.135618917695">
        <ele>27.8</ele>
        <time>2015-06-21T12:34:43Z</time>
      </trkpt>
      <trkpt lat="39.932955192367" lon="3.135562507508">
        <ele>27.4</ele>
        <time>2015-06-21T12:34:44Z</time>
      </trkpt>
      <trkpt lat="39.93285771087" lon="3.135507270787">
        <ele>27</ele>
        <time>2015-06-21T12:34:45Z</time>
      </trkpt>
      <trkpt lat="39.93256099161" lon="3.13535446875">
        <ele>25.6</ele>
        <time>2015-06-21T12:34:48Z</time>
      </trkpt>
      <trkpt lat="39.932458145697" lon="3.135303171522">
        <ele>24.6</ele>
        <time>2015-06-21T12:34:49Z</time>
      </trkpt>
      <trkpt lat="39.932250442215" lon="3.135198062496">
        <ele>23.2</ele>
        <time>2015-06-21T12:34:51Z</time>
      </trkpt>
      <trkpt lat="39.931921787916" lon="3.135031514143">
        <ele>21.8</ele>
        <time>2015-06-21T12:34:54Z</time>
      </trkpt>
      <trkpt lat="39.931710144941" lon="3.134932607723">
        <ele>20.6</ele>
        <time>2015-06-21T12:34:56Z</time>
      </trkpt>
      <trkpt lat="39.931594223264" lon="3.134878795925">
        <ele>20</ele>
        <time>2015-06-21T12:34:57Z</time>
      </trkpt>
      <trkpt lat="39.93149313755" lon="3.134821882824">
        <ele>19.4</ele>
        <time>2015-06-21T12:34:58Z</time>
      </trkpt>
      <trkpt lat="39.931176050273" lon="3.134634882635">
        <ele>18.4</ele>
        <time>2015-06-21T12:35:01Z</time>
      </trkpt>
      <trkpt lat="39.93106733703" lon="3.134564642313">
        <ele>18</ele>
        <time>2015-06-21T12:35:02Z</time>
      </trkpt>
      <trkpt lat="39.930766259182" lon="3.134362722342">
        <ele>17.2</ele>
        <time>2015-06-21T12:35:05Z</time>
      </trkpt>
      <trkpt lat="39.930388486949" lon="3.134131130445">
        <ele>16.2</ele>
        <time>2015-06-21T12:35:09Z</time>
      </trkpt>
      <trkpt lat="39.930291089271" lon="3.134100201234">
        <ele>15.8</ele>
        <time>2015-06-21T12:35:10Z</time>
      </trkpt>
      <trkpt lat="39.930088079653" lon="3.134024764134">
        <ele>15</ele>
        <time>2015-06-21T12:35:12Z</time>
      </trkpt>
      <trkpt lat="39.929993531821" lon="3.133996684769">
        <ele>14.8</ele>
        <time>2015-06-21T12:35:13Z</time>
      </trkpt>
      <trkpt lat="39.929694633267" lon="3.133921750583">
        <ele>13.6</ele>
        <time>2015-06-21T12:35:16Z</time>
      </trkpt>
      <trkpt lat="39.929502939214" lon="3.133879841083">
        <ele>12.4</ele>
        <time>2015-06-21T12:35:18Z</time>
      </trkpt>
      <trkpt lat="39.929410654495" lon="3.133865508034">
        <ele>12.2</ele>
        <time>2015-06-21T12:35:19Z</time>
      </trkpt>
      <trkpt lat="39.929323566554" lon="3.133833572995">
        <ele>12</ele>
        <time>2015-06-21T12:35:20Z</time>
      </trkpt>
      <trkpt lat="39.929195826398" lon="3.133717399861">
        <ele>11.8</ele>
        <time>2015-06-21T12:35:22Z</time>
      </trkpt>
      <trkpt lat="39.929148971577" lon="3.133530232034">
        <ele>11.8</ele>
        <time>2015-06-21T12:35:24Z</time>
      </trkpt>
      <trkpt lat="39.929163472264" lon="3.133440797161">
        <ele>11.4</ele>
        <time>2015-06-21T12:35:25Z</time>
      </trkpt>
      <trkpt lat="39.92919901152" lon="3.13329503592">
        <ele>11.2</ele>
        <time>2015-06-21T12:35:27Z</time>
      </trkpt>
      <trkpt lat="39.929233796405" lon="3.133161931348">
        <ele>10.4</ele>
        <time>2015-06-21T12:35:29Z</time>
      </trkpt>
      <trkpt lat="39.929283584891" lon="3.132994041891">
        <ele>10.4</ele>
        <time>2015-06-21T12:35:32Z</time>
      </trkpt>
      <trkpt lat="39.92934569477" lon="3.132765467478">
        <ele>10.8</ele>
        <time>2015-06-21T12:35:37Z</time>
      </trkpt>
      <trkpt lat="39.929394896523" lon="3.132521721826">
        <ele>10.2</ele>
        <time>2015-06-21T12:35:43Z</time>
      </trkpt>
      <trkpt lat="39.92945717404" lon="3.132266157695">
        <ele>11</ele>
        <time>2015-06-21T12:35:50Z</time>
      </trkpt>
      <trkpt lat="39.929502939214" lon="3.132055185272">
        <ele>11.4</ele>
        <time>2015-06-21T12:35:56Z</time>
      </trkpt>
      <trkpt lat="39.929519535376" lon="3.131982011285">
        <ele>11.6</ele>
        <time>2015-06-21T12:35:58Z</time>
      </trkpt>
      <trkpt lat="39.92955105132" lon="3.131832478189">
        <ele>12.4</ele>
        <time>2015-06-21T12:36:02Z</time>
      </trkpt>
      <trkpt lat="39.929582148169" lon="3.131693087192">
        <ele>13.6</ele>
        <time>2015-06-21T12:36:06Z</time>
      </trkpt>
      <trkpt lat="39.929608215878" lon="3.131581188827">
        <ele>14.8</ele>
        <time>2015-06-21T12:36:09Z</time>
      </trkpt>
      <trkpt lat="39.929636379062" lon="3.131446491694">
        <ele>15.8</ele>
        <time>2015-06-21T12:36:13Z</time>
      </trkpt>
      <trkpt lat="39.929646521161" lon="3.131416484492">
        <ele>16</ele>
        <time>2015-06-21T12:36:14Z</time>
      </trkpt>
      <trkpt lat="39.929677366553" lon="3.131324535049">
        <ele>17</ele>
        <time>2015-06-21T12:36:17Z</time>
      </trkpt>
      <trkpt lat="39.92970527828" lon="3.131226718276">
        <ele>18</ele>
        <time>2015-06-21T12:36:20Z</time>
      </trkpt>
      <trkpt lat="39.929739057337" lon="3.131047513254">
        <ele>19.2</ele>
        <time>2015-06-21T12:36:25Z</time>
      </trkpt>
      <trkpt lat="39.929759341535" lon="3.13095145668">
        <ele>20.2</ele>
        <time>2015-06-21T12:36:28Z</time>
      </trkpt>
      <trkpt lat="39.929791695669" lon="3.130783734861">
        <ele>21.6</ele>
        <time>2015-06-21T12:36:33Z</time>
      </trkpt>
      <trkpt lat="39.929815332627" lon="3.130693797074">
        <ele>22.6</ele>
        <time>2015-06-21T12:36:36Z</time>
      </trkpt>
      <trkpt lat="39.929826145278" lon="3.130662951682">
        <ele>23.2</ele>
        <time>2015-06-21T12:36:37Z</time>
      </trkpt>
      <trkpt lat="39.929840897422" lon="3.130602099088">
        <ele>24</ele>
        <time>2015-06-21T12:36:39Z</time>
      </trkpt>
      <trkpt lat="39.929868892968" lon="3.130513586224">
        <ele>25.4</ele>
        <time>2015-06-21T12:36:42Z</time>
      </trkpt>
      <trkpt lat="39.929882555465" lon="3.130486345049">
        <ele>25.6</ele>
        <time>2015-06-21T12:36:43Z</time>
      </trkpt>
      <trkpt lat="39.929945335896" lon="3.130396407262">
        <ele>30.8</ele>
        <time>2015-06-21T12:36:47Z</time>
      </trkpt>
      <trkpt lat="39.929982802989" lon="3.130352318468">
        <ele>32</ele>
        <time>2015-06-21T12:36:49Z</time>
      </trkpt>
      <trkpt lat="39.930041643927" lon="3.130299596317">
        <ele>28.6</ele>
        <time>2015-06-21T12:36:52Z</time>
      </trkpt>
      <trkpt lat="39.930102831797" lon="3.130238911361">
        <ele>29.6</ele>
        <time>2015-06-21T12:36:55Z</time>
      </trkpt>
      <trkpt lat="39.930124205642" lon="3.130221812285">
        <ele>29.8</ele>
        <time>2015-06-21T12:36:56Z</time>
      </trkpt>
      <trkpt lat="39.930227554469" lon="3.130145285538">
        <ele>30.8</ele>
        <time>2015-06-21T12:37:00Z</time>
      </trkpt>
      <trkpt lat="39.930272649091" lon="3.130110584472">
        <ele>31</ele>
        <time>2015-06-21T12:37:02Z</time>
      </trkpt>
      <trkpt lat="39.930356132815" lon="3.130035231191">
        <ele>31.4</ele>
        <time>2015-06-21T12:37:06Z</time>
      </trkpt>
      <trkpt lat="39.930433497752" lon="3.129977815176">
        <ele>31.8</ele>
        <time>2015-06-21T12:37:09Z</time>
      </trkpt>
      <trkpt lat="39.930517819666" lon="3.129904222094">
        <ele>32.2</ele>
        <time>2015-06-21T12:37:13Z</time>
      </trkpt>
      <trkpt lat="39.930625694719" lon="3.129838256541">
        <ele>32.8</ele>
        <time>2015-06-21T12:37:17Z</time>
      </trkpt>
      <trkpt lat="39.930671376074" lon="3.129808919891">
        <ele>33</ele>
        <time>2015-06-21T12:37:19Z</time>
      </trkpt>
      <trkpt lat="39.930794757642" lon="3.129723675968">
        <ele>34</ele>
        <time>2015-06-21T12:37:25Z</time>
      </trkpt>
      <trkpt lat="39.930916379011" lon="3.129635666018">
        <ele>34.8</ele>
        <time>2015-06-21T12:37:30Z</time>
      </trkpt>
      <trkpt lat="39.930962228004" lon="3.129597193097">
        <ele>35</ele>
        <time>2015-06-21T12:37:32Z</time>
      </trkpt>
      <trkpt lat="39.9310698516" lon="3.129512116812">
        <ele>35.8</ele>
        <time>2015-06-21T12:37:37Z</time>
      </trkpt>
      <trkpt lat="39.931145456338" lon="3.129462328326">
        <ele>36.2</ele>
        <time>2015-06-21T12:37:40Z</time>
      </trkpt>
      <trkpt lat="39.931228940062" lon="3.129413880944">
        <ele>37</ele>
        <time>2015-06-21T12:37:44Z</time>
      </trkpt>
      <trkpt lat="39.931294654158" lon="3.129397703877">
        <ele>37.2</ele>
        <time>2015-06-21T12:37:47Z</time>
      </trkpt>
      <trkpt lat="39.931348465956" lon="3.129398542067">
        <ele>37.2</ele>
        <time>2015-06-21T12:37:49Z</time>
      </trkpt>
      <trkpt lat="39.931443432883" lon="3.129416898428">
        <ele>38.4</ele>
        <time>2015-06-21T12:37:53Z</time>
      </trkpt>
      <trkpt lat="39.931504620753" lon="3.129438942825">
        <ele>39.6</ele>
        <time>2015-06-21T12:37:56Z</time>
      </trkpt>
      <trkpt lat="39.93158869121" lon="3.129473811529">
        <ele>40.8</ele>
        <time>2015-06-21T12:38:00Z</time>
      </trkpt>
      <trkpt lat="39.931600174413" lon="3.129475907004">
        <ele>40.8</ele>
        <time>2015-06-21T12:38:01Z</time>
      </trkpt>
      <trkpt lat="39.931663038663" lon="3.129505914206">
        <ele>41.8</ele>
        <time>2015-06-21T12:38:04Z</time>
      </trkpt>
      <trkpt lat="39.931708468561" lon="3.129531059906">
        <ele>42.4</ele>
        <time>2015-06-21T12:38:06Z</time>
      </trkpt>
      <trkpt lat="39.931778792702" lon="3.129571628302">
        <ele>43</ele>
        <time>2015-06-21T12:38:09Z</time>
      </trkpt>
      <trkpt lat="39.931861186779" lon="3.129628206127">
        <ele>43.8</ele>
        <time>2015-06-21T12:38:13Z</time>
      </trkpt>
      <trkpt lat="39.931879626959" lon="3.12963885114">
        <ele>44.4</ele>
        <time>2015-06-21T12:38:14Z</time>
      </trkpt>
      <trkpt lat="39.931956237525" lon="3.129694758413">
        <ele>45.2</ele>
        <time>2015-06-21T12:38:18Z</time>
      </trkpt>
      <trkpt lat="39.931995297179" lon="3.129728872746">
        <ele>45.4</ele>
        <time>2015-06-21T12:38:20Z</time>
      </trkpt>
      <trkpt lat="39.932097053445" lon="3.129822163293">
        <ele>46.6</ele>
        <time>2015-06-21T12:38:25Z</time>
      </trkpt>
      <trkpt lat="39.932114068702" lon="3.129839932921">
        <ele>46.8</ele>
        <time>2015-06-21T12:38:26Z</time>
      </trkpt>
      <trkpt lat="39.932216160244" lon="3.129938252608">
        <ele>47.2</ele>
        <time>2015-06-21T12:38:32Z</time>
      </trkpt>
      <trkpt lat="39.932357981992" lon="3.130081247822">
        <ele>47.4</ele>
        <time>2015-06-21T12:38:40Z</time>
      </trkpt>
      <trkpt lat="39.932425037192" lon="3.130155679094">
        <ele>47.6</ele>
        <time>2015-06-21T12:38:44Z</time>
      </trkpt>
      <trkpt lat="39.9324863927" lon="3.130234720411">
        <ele>48.4</ele>
        <time>2015-06-21T12:38:48Z</time>
      </trkpt>
      <trkpt lat="39.932516651359" lon="3.130274785893">
        <ele>49</ele>
        <time>2015-06-21T12:38:50Z</time>
      </trkpt>
      <trkpt lat="39.93260876844" lon="3.13040076585">
        <ele>49.8</ele>
        <time>2015-06-21T12:38:56Z</time>
      </trkpt>
      <trkpt lat="39.932624777869" lon="3.130423061704">
        <ele>50</ele>
        <time>2015-06-21T12:38:57Z</time>
      </trkpt>
      <trkpt lat="39.932695604924" lon="3.130520040287">
        <ele>51</ele>
        <time>2015-06-21T12:39:02Z</time>
      </trkpt>
      <trkpt lat="39.93270599848" lon="3.130536720268">
        <ele>51.2</ele>
        <time>2015-06-21T12:39:03Z</time>
      </trkpt>
      <trkpt lat="39.932764001228" lon="3.130644008588">
        <ele>52</ele>
        <time>2015-06-21T12:39:08Z</time>
      </trkpt>
      <trkpt lat="39.932792080593" lon="3.13068491226">
        <ele>52.2</ele>
        <time>2015-06-21T12:39:10Z</time>
      </trkpt>
      <trkpt lat="39.932826530202" lon="3.130738472601">
        <ele>52.6</ele>
        <time>2015-06-21T12:39:13Z</time>
      </trkpt>
      <trkpt lat="39.932862572372" lon="3.130787590535">
        <ele>53.4</ele>
        <time>2015-06-21T12:39:16Z</time>
      </trkpt>
      <trkpt lat="39.932911522668" lon="3.130827823655">
        <ele>53.8</ele>
        <time>2015-06-21T12:39:19Z</time>
      </trkpt>
      <trkpt lat="39.932977488221" lon="3.130830002949">
        <ele>54.4</ele>
        <time>2015-06-21T12:39:23Z</time>
      </trkpt>
      <trkpt lat="39.932998778247" lon="3.130820112307">
        <ele>54.6</ele>
        <time>2015-06-21T12:39:24Z</time>
      </trkpt>
      <trkpt lat="39.933060469031" lon="3.130720870611">
        <ele>55.2</ele>
        <time>2015-06-21T12:39:28Z</time>
      </trkpt>
      <trkpt lat="39.933051668036" lon="3.130630094634">
        <ele>55.4</ele>
        <time>2015-06-21T12:39:31Z</time>
      </trkpt>
      <trkpt lat="39.933040017195" lon="3.130607966418">
        <ele>55.6</ele>
        <time>2015-06-21T12:39:32Z</time>
      </trkpt>
      <trkpt lat="39.93300858507" lon="3.130569074402">
        <ele>55.6</ele>
        <time>2015-06-21T12:39:34Z</time>
      </trkpt>
      <trkpt lat="39.932944212078" lon="3.130500342822">
        <ele>53.2</ele>
        <time>2015-06-21T12:39:38Z</time>
      </trkpt>
      <trkpt lat="39.932874307032" lon="3.130395820529">
        <ele>56</ele>
        <time>2015-06-21T12:39:43Z</time>
      </trkpt>
      <trkpt lat="39.932838348681" lon="3.130324155284">
        <ele>56.8</ele>
        <time>2015-06-21T12:39:46Z</time>
      </trkpt>
      <trkpt lat="39.932827284573" lon="3.130292387883">
        <ele>57</ele>
        <time>2015-06-21T12:39:47Z</time>
      </trkpt>
      <trkpt lat="39.932785710349" lon="3.13018786559">
        <ele>58</ele>
        <time>2015-06-21T12:39:51Z</time>
      </trkpt>
      <trkpt lat="39.932747824161" lon="3.130090970826">
        <ele>58.8</ele>
        <time>2015-06-21T12:39:55Z</time>
      </trkpt>
      <trkpt lat="39.932728294334" lon="3.130041601435">
        <ele>59.2</ele>
        <time>2015-06-21T12:39:57Z</time>
      </trkpt>
      <trkpt lat="39.932670375405" lon="3.129890224321">
        <ele>60.4</ele>
        <time>2015-06-21T12:40:03Z</time>
      </trkpt>
      <trkpt lat="39.932622766213" lon="3.129747732021">
        <ele>61.4</ele>
        <time>2015-06-21T12:40:09Z</time>
      </trkpt>
      <trkpt lat="39.932617401797" lon="3.12972686109">
        <ele>61.8</ele>
        <time>2015-06-21T12:40:11Z</time>
      </trkpt>
      <trkpt lat="39.932613462304" lon="3.129722083407">
        <ele>62.2</ele>
        <time>2015-06-21T12:40:20Z</time>
      </trkpt>
      <trkpt lat="39.932615054865" lon="3.129730632945">
        <ele>62</ele>
        <time>2015-06-21T12:40:35Z</time>
      </trkpt>
      <trkpt lat="39.932578006867" lon="3.129662236641">
        <ele>62.2</ele>
        <time>2015-06-21T12:40:43Z</time>
      </trkpt>
      <trkpt lat="39.932516232264" lon="3.129526701318">
        <ele>62.6</ele>
        <time>2015-06-21T12:40:48Z</time>
      </trkpt>
      <trkpt lat="39.932464683579" lon="3.129426369975">
        <ele>63.2</ele>
        <time>2015-06-21T12:40:52Z</time>
      </trkpt>
      <trkpt lat="39.932423193174" lon="3.129354956187">
        <ele>63.6</ele>
        <time>2015-06-21T12:40:55Z</time>
      </trkpt>
      <trkpt lat="39.932340882916" lon="3.12920885967">
        <ele>64.6</ele>
        <time>2015-06-21T12:41:01Z</time>
      </trkpt>
      <trkpt lat="39.932326549867" lon="3.129183462513">
        <ele>64.8</ele>
        <time>2015-06-21T12:41:02Z</time>
      </trkpt>
      <trkpt lat="39.932270307318" lon="3.129068462845">
        <ele>65.8</ele>
        <time>2015-06-21T12:41:07Z</time>
      </trkpt>
      <trkpt lat="39.932228062542" lon="3.128997971066">
        <ele>66.4</ele>
        <time>2015-06-21T12:41:10Z</time>
      </trkpt>
      <trkpt lat="39.932195456951" lon="3.128916918093">
        <ele>66.8</ele>
        <time>2015-06-21T12:41:13Z</time>
      </trkpt>
      <trkpt lat="39.93219134982" lon="3.128834021102">
        <ele>61.6</ele>
        <time>2015-06-21T12:41:16Z</time>
      </trkpt>
      <trkpt lat="39.93219218801" lon="3.128804516814">
        <ele>61.8</ele>
        <time>2015-06-21T12:41:17Z</time>
      </trkpt>
      <trkpt lat="39.932224123049" lon="3.12859195183">
        <ele>62</ele>
        <time>2015-06-21T12:41:25Z</time>
      </trkpt>
      <trkpt lat="39.932267206015" lon="3.128342338848">
        <ele>61.8</ele>
        <time>2015-06-21T12:41:34Z</time>
      </trkpt>
      <trkpt lat="39.932331411369" lon="3.128019551879">
        <ele>62</ele>
        <time>2015-06-21T12:41:45Z</time>
      </trkpt>
      <trkpt lat="39.932417744939" lon="3.127806316343">
        <ele>61.8</ele>
        <time>2015-06-21T12:41:53Z</time>
      </trkpt>
      <trkpt lat="39.93250818564" lon="3.127660303645">
        <ele>62.8</ele>
        <time>2015-06-21T12:41:59Z</time>
      </trkpt>
      <trkpt lat="39.93254925695" lon="3.127588051667">
        <ele>63.2</ele>
        <time>2015-06-21T12:42:02Z</time>
      </trkpt>
      <trkpt lat="39.932613881399" lon="3.127494593482">
        <ele>63.8</ele>
        <time>2015-06-21T12:42:06Z</time>
      </trkpt>
      <trkpt lat="39.932697197485" lon="3.127379677633">
        <ele>64.8</ele>
        <time>2015-06-21T12:42:11Z</time>
      </trkpt>
      <trkpt lat="39.932716140579" lon="3.127354364295">
        <ele>65.2</ele>
        <time>2015-06-21T12:42:12Z</time>
      </trkpt>
      <trkpt lat="39.932784453064" lon="3.127274652426">
        <ele>66</ele>
        <time>2015-06-21T12:42:16Z</time>
      </trkpt>
      <trkpt lat="39.932836337025" lon="3.12721648204">
        <ele>66.8</ele>
        <time>2015-06-21T12:42:19Z</time>
      </trkpt>
      <trkpt lat="39.932885203502" lon="3.127167531744">
        <ele>67.2</ele>
        <time>2015-06-21T12:42:22Z</time>
      </trkpt>
      <trkpt lat="39.932950917598" lon="3.12709075354">
        <ele>67.8</ele>
        <time>2015-06-21T12:42:26Z</time>
      </trkpt>
      <trkpt lat="39.932986540673" lon="3.127045239823">
        <ele>68.6</ele>
        <time>2015-06-21T12:42:28Z</time>
      </trkpt>
      <trkpt lat="39.933048902009" lon="3.12696670142">
        <ele>69.6</ele>
        <time>2015-06-21T12:42:32Z</time>
      </trkpt>
      <trkpt lat="39.933078741573" lon="3.126924289006">
        <ele>70.2</ele>
        <time>2015-06-21T12:42:34Z</time>
      </trkpt>
      <trkpt lat="39.933151831741" lon="3.126805014569">
        <ele>70.6</ele>
        <time>2015-06-21T12:42:39Z</time>
      </trkpt>
      <trkpt lat="39.933177396536" lon="3.126757070101">
        <ele>71</ele>
        <time>2015-06-21T12:42:41Z</time>
      </trkpt>
      <trkpt lat="39.93325836569" lon="3.12660208877">
        <ele>71.8</ele>
        <time>2015-06-21T12:42:47Z</time>
      </trkpt>
      <trkpt lat="39.933270519445" lon="3.126577865079">
        <ele>72</ele>
        <time>2015-06-21T12:42:48Z</time>
      </trkpt>
      <trkpt lat="39.933322319587" lon="3.126485747998">
        <ele>73</ele>
        <time>2015-06-21T12:42:52Z</time>
      </trkpt>
      <trkpt lat="39.933359535223" lon="3.126421375006">
        <ele>73.6</ele>
        <time>2015-06-21T12:42:55Z</time>
      </trkpt>
      <trkpt lat="39.933386189665" lon="3.126376280384">
        <ele>74</ele>
        <time>2015-06-21T12:42:57Z</time>
      </trkpt>
      <trkpt lat="39.933439330911" lon="3.126285839683">
        <ele>75.4</ele>
        <time>2015-06-21T12:43:01Z</time>
      </trkpt>
      <trkpt lat="39.933467745552" lon="3.126241834708">
        <ele>76</ele>
        <time>2015-06-21T12:43:03Z</time>
      </trkpt>
      <trkpt lat="39.933489622311" lon="3.126199673751">
        <ele>76.4</ele>
        <time>2015-06-21T12:43:05Z</time>
      </trkpt>
      <trkpt lat="39.93352826287" lon="3.126128427601">
        <ele>77.6</ele>
        <time>2015-06-21T12:43:08Z</time>
      </trkpt>
      <trkpt lat="39.93355676133" lon="3.126062462048">
        <ele>78.4</ele>
        <time>2015-06-21T12:43:11Z</time>
      </trkpt>
      <trkpt lat="39.933568831266" lon="3.126037232529">
        <ele>78.8</ele>
        <time>2015-06-21T12:43:12Z</time>
      </trkpt>
      <trkpt lat="39.933618200657" lon="3.12592566944">
        <ele>79.8</ele>
        <time>2015-06-21T12:43:17Z</time>
      </trkpt>
      <trkpt lat="39.933654578103" lon="3.125807736107">
        <ele>80.6</ele>
        <time>2015-06-21T12:43:22Z</time>
      </trkpt>
      <trkpt lat="39.933666145125" lon="3.125756522698">
        <ele>81</ele>
        <time>2015-06-21T12:43:24Z</time>
      </trkpt>
      <trkpt lat="39.933673102102" lon="3.125619310995">
        <ele>82.2</ele>
        <time>2015-06-21T12:43:29Z</time>
      </trkpt>
      <trkpt lat="39.933606801273" lon="3.125438597231">
        <ele>82.8</ele>
        <time>2015-06-21T12:43:35Z</time>
      </trkpt>
      <trkpt lat="39.933521724988" lon="3.125358130991">
        <ele>83.4</ele>
        <time>2015-06-21T12:43:39Z</time>
      </trkpt>
      <trkpt lat="39.933478642022" lon="3.12533223092">
        <ele>84</ele>
        <time>2015-06-21T12:43:41Z</time>
      </trkpt>
      <trkpt lat="39.933430110821" lon="3.125314880387">
        <ele>84.4</ele>
        <time>2015-06-21T12:43:43Z</time>
      </trkpt>
      <trkpt lat="39.933407479691" lon="3.125310605618">
        <ele>77.8</ele>
        <time>2015-06-21T12:43:44Z</time>
      </trkpt>
      <trkpt lat="39.933321481397" lon="3.125297194578">
        <ele>79</ele>
        <time>2015-06-21T12:43:48Z</time>
      </trkpt>
      <trkpt lat="39.933299688457" lon="3.12529451237">
        <ele>86.2</ele>
        <time>2015-06-21T12:43:49Z</time>
      </trkpt>
      <trkpt lat="39.933217881113" lon="3.125285795194">
        <ele>87.2</ele>
        <time>2015-06-21T12:43:53Z</time>
      </trkpt>
      <trkpt lat="39.933134648846" lon="3.125281017511">
        <ele>88.6</ele>
        <time>2015-06-21T12:43:57Z</time>
      </trkpt>
      <trkpt lat="39.933095924468" lon="3.125271629783">
        <ele>89</ele>
        <time>2015-06-21T12:43:59Z</time>
      </trkpt>
      <trkpt lat="39.933045130154" lon="3.125267941747">
        <ele>89.6</ele>
        <time>2015-06-21T12:44:01Z</time>
      </trkpt>
      <trkpt lat="39.93291470779" lon="3.125247238454">
        <ele>90.6</ele>
        <time>2015-06-21T12:44:07Z</time>
      </trkpt>
      <trkpt lat="39.932806497461" lon="3.125243885694">
        <ele>91.8</ele>
        <time>2015-06-21T12:44:12Z</time>
      </trkpt>
      <trkpt lat="39.932709435059" lon="3.125236928717">
        <ele>92.8</ele>
        <time>2015-06-21T12:44:17Z</time>
      </trkpt>
      <trkpt lat="39.932689569956" lon="3.125233827414">
        <ele>92.8</ele>
        <time>2015-06-21T12:44:18Z</time>
      </trkpt>
      <trkpt lat="39.932550262778" lon="3.125204574583">
        <ele>93.6</ele>
        <time>2015-06-21T12:44:25Z</time>
      </trkpt>
      <trkpt lat="39.932532157874" lon="3.125200132176">
        <ele>94</ele>
        <time>2015-06-21T12:44:26Z</time>
      </trkpt>
      <trkpt lat="39.932365106607" lon="3.125131149139">
        <ele>94.8</ele>
        <time>2015-06-21T12:44:34Z</time>
      </trkpt>
      <trkpt lat="39.93230869642" lon="3.125094268779">
        <ele>95</ele>
        <time>2015-06-21T12:44:37Z</time>
      </trkpt>
      <trkpt lat="39.932229403646" lon="3.124997960748">
        <ele>95.2</ele>
        <time>2015-06-21T12:44:42Z</time>
      </trkpt>
      <trkpt lat="39.932138124755" lon="3.124799644994">
        <ele>96.4</ele>
        <time>2015-06-21T12:44:50Z</time>
      </trkpt>
      <trkpt lat="39.93211088358" lon="3.124717502374">
        <ele>97.4</ele>
        <time>2015-06-21T12:44:53Z</time>
      </trkpt>
      <trkpt lat="39.932087581898" lon="3.124612728624">
        <ele>98.4</ele>
        <time>2015-06-21T12:44:57Z</time>
      </trkpt>
      <trkpt lat="39.932082636577" lon="3.124588337295">
        <ele>99.2</ele>
        <time>2015-06-21T12:44:58Z</time>
      </trkpt>
      <trkpt lat="39.932069644632" lon="3.124525724502">
        <ele>92.8</ele>
        <time>2015-06-21T12:45:01Z</time>
      </trkpt>
      <trkpt lat="39.932054976307" lon="3.124455987094">
        <ele>83.6</ele>
        <time>2015-06-21T12:45:04Z</time>
      </trkpt>
      <trkpt lat="39.932048438425" lon="3.124431344308">
        <ele>76.4</ele>
        <time>2015-06-21T12:45:05Z</time>
      </trkpt>
      <trkpt lat="39.932041481448" lon="3.124407288255">
        <ele>85.6</ele>
        <time>2015-06-21T12:45:06Z</time>
      </trkpt>
      <trkpt lat="39.932034859747" lon="3.124381891098">
        <ele>81.8</ele>
        <time>2015-06-21T12:45:07Z</time>
      </trkpt>
      <trkpt lat="39.932010803694" lon="3.124249037983">
        <ele>82.8</ele>
        <time>2015-06-21T12:45:12Z</time>
      </trkpt>
      <trkpt lat="39.932004684907" lon="3.124220539523">
        <ele>83</ele>
        <time>2015-06-21T12:45:13Z</time>
      </trkpt>
      <trkpt lat="39.931970822031" lon="3.124047453288">
        <ele>84.2</ele>
        <time>2015-06-21T12:45:19Z</time>
      </trkpt>
      <trkpt lat="39.931959506466" lon="3.123992551843">
        <ele>85.2</ele>
        <time>2015-06-21T12:45:21Z</time>
      </trkpt>
      <trkpt lat="39.93195414205" lon="3.123962963736">
        <ele>85.6</ele>
        <time>2015-06-21T12:45:22Z</time>
      </trkpt>
      <trkpt lat="39.931933522576" lon="3.123822902187">
        <ele>86.6</ele>
        <time>2015-06-21T12:45:28Z</time>
      </trkpt>
      <trkpt lat="39.93190133608" lon="3.12369356947">
        <ele>87.8</ele>
        <time>2015-06-21T12:45:33Z</time>
      </trkpt>
      <trkpt lat="39.931896809854" lon="3.123670351607">
        <ele>88.2</ele>
        <time>2015-06-21T12:45:34Z</time>
      </trkpt>
      <trkpt lat="39.931877531484" lon="3.123594579231">
        <ele>89</ele>
        <time>2015-06-21T12:45:37Z</time>
      </trkpt>
      <trkpt lat="39.931863282254" lon="3.12349408025">
        <ele>90</ele>
        <time>2015-06-21T12:45:41Z</time>
      </trkpt>
      <trkpt lat="39.93185523563" lon="3.123441106642">
        <ele>90.4</ele>
        <time>2015-06-21T12:45:43Z</time>
      </trkpt>
      <trkpt lat="39.931841321676" lon="3.123392156346">
        <ele>91.2</ele>
        <time>2015-06-21T12:45:45Z</time>
      </trkpt>
      <trkpt lat="39.93181751708" lon="3.123320239644">
        <ele>92.4</ele>
        <time>2015-06-21T12:45:48Z</time>
      </trkpt>
      <trkpt lat="39.931796478511" lon="3.123280257981">
        <ele>92.8</ele>
        <time>2015-06-21T12:45:50Z</time>
      </trkpt>
      <trkpt lat="39.931761106893" lon="3.123212364591">
        <ele>93.4</ele>
        <time>2015-06-21T12:45:53Z</time>
      </trkpt>
      <trkpt lat="39.931694386969" lon="3.123145896124">
        <ele>94.6</ele>
        <time>2015-06-21T12:45:57Z</time>
      </trkpt>
      <trkpt lat="39.931605035915" lon="3.123122175347">
        <ele>95.4</ele>
        <time>2015-06-21T12:46:02Z</time>
      </trkpt>
      <trkpt lat="39.931523060933" lon="3.123126869211">
        <ele>95.6</ele>
        <time>2015-06-21T12:46:05Z</time>
      </trkpt>
      <trkpt lat="39.931499759251" lon="3.123126617754">
        <ele>95.6</ele>
        <time>2015-06-21T12:46:06Z</time>
      </trkpt>
      <trkpt lat="39.931453994077" lon="3.123134915835">
        <ele>95.8</ele>
        <time>2015-06-21T12:46:08Z</time>
      </trkpt>
      <trkpt lat="39.931350226155" lon="3.123152434006">
        <ele>96.8</ele>
        <time>2015-06-21T12:46:12Z</time>
      </trkpt>
      <trkpt lat="39.931305466809" lon="3.123161235001">
        <ele>97.2</ele>
        <time>2015-06-21T12:46:14Z</time>
      </trkpt>
      <trkpt lat="39.93119390372" lon="3.123172718204">
        <ele>98</ele>
        <time>2015-06-21T12:46:19Z</time>
      </trkpt>
      <trkpt lat="39.931170350581" lon="3.123173137299">
        <ele>98.2</ele>
        <time>2015-06-21T12:46:20Z</time>
      </trkpt>
      <trkpt lat="39.931070103057" lon="3.123156457318">
        <ele>99.4</ele>
        <time>2015-06-21T12:46:24Z</time>
      </trkpt>
      <trkpt lat="39.931033474154" lon="3.12314120226">
        <ele>100</ele>
        <time>2015-06-21T12:46:26Z</time>
      </trkpt>
      <trkpt lat="39.930994163043" lon="3.123126701573">
        <ele>100.4</ele>
        <time>2015-06-21T12:46:28Z</time>
      </trkpt>
      <trkpt lat="39.930941524711" lon="3.123104154262">
        <ele>101.4</ele>
        <time>2015-06-21T12:46:31Z</time>
      </trkpt>
      <trkpt lat="39.93092065378" lon="3.123097281104">
        <ele>101.6</ele>
        <time>2015-06-21T12:46:32Z</time>
      </trkpt>
      <trkpt lat="39.930858962996" lon="3.12308420534">
        <ele>102.8</ele>
        <time>2015-06-21T12:46:35Z</time>
      </trkpt>
      <trkpt lat="39.930799200049" lon="3.123089653575">
        <ele>104</ele>
        <time>2015-06-21T12:46:38Z</time>
      </trkpt>
      <trkpt lat="39.930712028289" lon="3.123136340758">
        <ele>105</ele>
        <time>2015-06-21T12:46:42Z</time>
      </trkpt>
      <trkpt lat="39.930693671928" lon="3.1231546133">
        <ele>105.2</ele>
        <time>2015-06-21T12:46:43Z</time>
      </trkpt>
      <trkpt lat="39.930685373847" lon="3.123176573878">
        <ele>105.4</ele>
        <time>2015-06-21T12:46:44Z</time>
      </trkpt>
      <trkpt lat="39.930651930066" lon="3.123236169187">
        <ele>106</ele>
        <time>2015-06-21T12:46:47Z</time>
      </trkpt>
      <trkpt lat="39.930646733288" lon="3.123256453385">
        <ele>106.2</ele>
        <time>2015-06-21T12:46:48Z</time>
      </trkpt>
      <trkpt lat="39.93059459787" lon="3.123351923226">
        <ele>106.8</ele>
        <time>2015-06-21T12:46:52Z</time>
      </trkpt>
      <trkpt lat="39.930578085527" lon="3.123407159947">
        <ele>107.2</ele>
        <time>2015-06-21T12:46:54Z</time>
      </trkpt>
      <trkpt lat="39.930528129403" lon="3.123530541515">
        <ele>108.4</ele>
        <time>2015-06-21T12:46:59Z</time>
      </trkpt>
      <trkpt lat="39.930497703106" lon="3.123642607518">
        <ele>109.4</ele>
        <time>2015-06-21T12:47:03Z</time>
      </trkpt>
      <trkpt lat="39.930471635397" lon="3.123718798989">
        <ele>110.2</ele>
        <time>2015-06-21T12:47:06Z</time>
      </trkpt>
      <trkpt lat="39.930461828574" lon="3.123772024054">
        <ele>110.8</ele>
        <time>2015-06-21T12:47:08Z</time>
      </trkpt>
      <trkpt lat="39.930439700358" lon="3.123844359851">
        <ele>112</ele>
        <time>2015-06-21T12:47:11Z</time>
      </trkpt>
      <trkpt lat="39.93043031263" lon="3.123869840827">
        <ele>112.4</ele>
        <time>2015-06-21T12:47:12Z</time>
      </trkpt>
      <trkpt lat="39.930408938785" lon="3.123944523556">
        <ele>113.4</ele>
        <time>2015-06-21T12:47:15Z</time>
      </trkpt>
      <trkpt lat="39.930382200524" lon="3.124014428602">
        <ele>114.4</ele>
        <time>2015-06-21T12:47:18Z</time>
      </trkpt>
      <trkpt lat="39.930377422841" lon="3.124040161035">
        <ele>114.8</ele>
        <time>2015-06-21T12:47:19Z</time>
      </trkpt>
      <trkpt lat="39.930361497231" lon="3.124086429123">
        <ele>115.4</ele>
        <time>2015-06-21T12:47:21Z</time>
      </trkpt>
      <trkpt lat="39.930333669323" lon="3.124184162077">
        <ele>116.6</ele>
        <time>2015-06-21T12:47:25Z</time>
      </trkpt>
      <trkpt lat="39.930325371242" lon="3.124236297495">
        <ele>117.2</ele>
        <time>2015-06-21T12:47:27Z</time>
      </trkpt>
      <trkpt lat="39.930323443405" lon="3.124291618035">
        <ele>117.8</ele>
        <time>2015-06-21T12:47:29Z</time>
      </trkpt>
      <trkpt lat="39.930317576075" lon="3.124374515026">
        <ele>119</ele>
        <time>2015-06-21T12:47:32Z</time>
      </trkpt>
      <trkpt lat="39.930328724002" lon="3.124428494462">
        <ele>119.6</ele>
        <time>2015-06-21T12:47:34Z</time>
      </trkpt>
      <trkpt lat="39.930326879984" lon="3.124459842768">
        <ele>119.8</ele>
        <time>2015-06-21T12:47:35Z</time>
      </trkpt>
      <trkpt lat="39.930327885812" lon="3.124487503038">
        <ele>120</ele>
        <time>2015-06-21T12:47:36Z</time>
      </trkpt>
      <trkpt lat="39.930330232744" lon="3.124545589605">
        <ele>120.4</ele>
        <time>2015-06-21T12:47:38Z</time>
      </trkpt>
      <trkpt lat="39.930314307134" lon="3.124624295646">
        <ele>121.2</ele>
        <time>2015-06-21T12:47:41Z</time>
      </trkpt>
      <trkpt lat="39.930297291877" lon="3.124640975627">
        <ele>127.2</ele>
        <time>2015-06-21T12:47:42Z</time>
      </trkpt>
      <trkpt lat="39.93027692386" lon="3.12464156236">
        <ele>123.6</ele>
        <time>2015-06-21T12:47:43Z</time>
      </trkpt>
      <trkpt lat="39.930235517274" lon="3.124579284843">
        <ele>124.2</ele>
        <time>2015-06-21T12:47:46Z</time>
      </trkpt>
      <trkpt lat="39.930228225021" lon="3.124518096973">
        <ele>124.8</ele>
        <time>2015-06-21T12:47:48Z</time>
      </trkpt>
      <trkpt lat="39.930230488134" lon="3.124463111709">
        <ele>125.2</ele>
        <time>2015-06-21T12:47:50Z</time>
      </trkpt>
      <trkpt lat="39.930230320496" lon="3.124437630733">
        <ele>125.4</ele>
        <time>2015-06-21T12:47:51Z</time>
      </trkpt>
      <trkpt lat="39.930234511446" lon="3.124355152837">
        <ele>125.8</ele>
        <time>2015-06-21T12:47:54Z</time>
      </trkpt>
      <trkpt lat="39.930261584983" lon="3.124164883707">
        <ele>126.6</ele>
        <time>2015-06-21T12:48:01Z</time>
      </trkpt>
      <trkpt lat="39.930267452313" lon="3.124104198751">
        <ele>126.8</ele>
        <time>2015-06-21T12:48:03Z</time>
      </trkpt>
      <trkpt lat="39.930283461742" lon="3.124023732511">
        <ele>127.4</ele>
        <time>2015-06-21T12:48:06Z</time>
      </trkpt>
      <trkpt lat="39.930287568873" lon="3.123992132748">
        <ele>128</ele>
        <time>2015-06-21T12:48:07Z</time>
      </trkpt>
      <trkpt lat="39.930292262737" lon="3.12396346665">
        <ele>128</ele>
        <time>2015-06-21T12:48:08Z</time>
      </trkpt>
      <trkpt lat="39.93030206956" lon="3.123824243291">
        <ele>129.2</ele>
        <time>2015-06-21T12:48:13Z</time>
      </trkpt>
      <trkpt lat="39.930299722628" lon="3.123738077359">
        <ele>129.6</ele>
        <time>2015-06-21T12:48:16Z</time>
      </trkpt>
      <trkpt lat="39.930291676004" lon="3.123583934218">
        <ele>130.2</ele>
        <time>2015-06-21T12:48:21Z</time>
      </trkpt>
      <trkpt lat="39.930290586357" lon="3.12351671138">
        <ele>130.4</ele>
        <time>2015-06-21T12:48:23Z</time>
      </trkpt>
      <trkpt lat="39.930283964656" lon="3.123362819696">
        <ele>131.4</ele>
        <time>2015-06-21T12:48:28Z</time>
      </trkpt>
      <trkpt lat="39.930281953" lon="3.123300793636">
        <ele>131.8</ele>
        <time>2015-06-21T12:48:30Z</time>
      </trkpt>
      <trkpt lat="39.930277426774" lon="3.123210352935">
        <ele>132.6</ele>
        <time>2015-06-21T12:48:33Z</time>
      </trkpt>
      <trkpt lat="39.930272062358" lon="3.123153523653">
        <ele>133</ele>
        <time>2015-06-21T12:48:35Z</time>
      </trkpt>
      <trkpt lat="39.93027608567" lon="3.123093257792">
        <ele>133.4</ele>
        <time>2015-06-21T12:48:37Z</time>
      </trkpt>
      <trkpt lat="39.930276420946" lon="3.123062077124">
        <ele>133.6</ele>
        <time>2015-06-21T12:48:38Z</time>
      </trkpt>
      <trkpt lat="39.930303997397" lon="3.122908101621">
        <ele>134.4</ele>
        <time>2015-06-21T12:48:43Z</time>
      </trkpt>
      <trkpt lat="39.930328472545" lon="3.122855295651">
        <ele>134.8</ele>
        <time>2015-06-21T12:48:45Z</time>
      </trkpt>
      <trkpt lat="39.930403322912" lon="3.12275647305">
        <ele>135.4</ele>
        <time>2015-06-21T12:48:49Z</time>
      </trkpt>
      <trkpt lat="39.930468953189" lon="3.122689501669">
        <ele>135.8</ele>
        <time>2015-06-21T12:48:52Z</time>
      </trkpt>
      <trkpt lat="39.930577331156" lon="3.122550613586">
        <ele>136.8</ele>
        <time>2015-06-21T12:48:58Z</time>
      </trkpt>
      <trkpt lat="39.930596358069" lon="3.122528150094">
        <ele>136.8</ele>
        <time>2015-06-21T12:48:59Z</time>
      </trkpt>
      <trkpt lat="39.930656791568" lon="3.122467213681">
        <ele>137.4</ele>
        <time>2015-06-21T12:49:02Z</time>
      </trkpt>
      <trkpt lat="39.930695348308" lon="3.122426310009">
        <ele>138</ele>
        <time>2015-06-21T12:49:04Z</time>
      </trkpt>
      <trkpt lat="39.930817221134" lon="3.12233234891">
        <ele>138.8</ele>
        <time>2015-06-21T12:49:10Z</time>
      </trkpt>
      <trkpt lat="39.93086449505" lon="3.122314076368">
        <ele>136</ele>
        <time>2015-06-21T12:49:12Z</time>
      </trkpt>
      <trkpt lat="39.930909002939" lon="3.122296809654">
        <ele>127.8</ele>
        <time>2015-06-21T12:49:14Z</time>
      </trkpt>
      <trkpt lat="39.930926940205" lon="3.122290523229">
        <ele>122.6</ele>
        <time>2015-06-21T12:49:15Z</time>
      </trkpt>
      <trkpt lat="39.930944039281" lon="3.12228457208">
        <ele>129.8</ele>
        <time>2015-06-21T12:49:16Z</time>
      </trkpt>
      <trkpt lat="39.930962395642" lon="3.122276776913">
        <ele>133</ele>
        <time>2015-06-21T12:49:17Z</time>
      </trkpt>
      <trkpt lat="39.930980668184" lon="3.122268981746">
        <ele>134</ele>
        <time>2015-06-21T12:49:18Z</time>
      </trkpt>
      <trkpt lat="39.930998102536" lon="3.122260180751">
        <ele>141.8</ele>
        <time>2015-06-21T12:49:19Z</time>
      </trkpt>
      <trkpt lat="39.931016375078" lon="3.122252972317">
        <ele>147.4</ele>
        <time>2015-06-21T12:49:20Z</time>
      </trkpt>
      <trkpt lat="39.931031713955" lon="3.122243919865">
        <ele>140.8</ele>
        <time>2015-06-21T12:49:21Z</time>
      </trkpt>
      <trkpt lat="39.931080161337" lon="3.122204441116">
        <ele>141.4</ele>
        <time>2015-06-21T12:49:24Z</time>
      </trkpt>
      <trkpt lat="39.931118047525" lon="3.122144091436">
        <ele>141.8</ele>
        <time>2015-06-21T12:49:27Z</time>
      </trkpt>
      <trkpt lat="39.931141181569" lon="3.122067397051">
        <ele>142</ele>
        <time>2015-06-21T12:49:30Z</time>
      </trkpt>
      <trkpt lat="39.931139756646" lon="3.12204317336">
        <ele>142.2</ele>
        <time>2015-06-21T12:49:31Z</time>
      </trkpt>
      <trkpt lat="39.93111343748" lon="3.121940495085">
        <ele>142.8</ele>
        <time>2015-06-21T12:49:35Z</time>
      </trkpt>
      <trkpt lat="39.931103043924" lon="3.121921049077">
        <ele>142.8</ele>
        <time>2015-06-21T12:49:36Z</time>
      </trkpt>
      <trkpt lat="39.9310279421" lon="3.121845611977">
        <ele>143.8</ele>
        <time>2015-06-21T12:49:41Z</time>
      </trkpt>
      <trkpt lat="39.931008244635" lon="3.121831530385">
        <ele>144</ele>
        <time>2015-06-21T12:49:42Z</time>
      </trkpt>
      <trkpt lat="39.930982847478" lon="3.121813676938">
        <ele>144.2</ele>
        <time>2015-06-21T12:49:44Z</time>
      </trkpt>
      <trkpt lat="39.930955103389" lon="3.121785681392">
        <ele>144.4</ele>
        <time>2015-06-21T12:49:46Z</time>
      </trkpt>
      <trkpt lat="39.93089886084" lon="3.121752405249">
        <ele>145.2</ele>
        <time>2015-06-21T12:49:49Z</time>
      </trkpt>
      <trkpt lat="39.930813114003" lon="3.121715692527">
        <ele>146</ele>
        <time>2015-06-21T12:49:53Z</time>
      </trkpt>
      <trkpt lat="39.930767600286" lon="3.121701527116">
        <ele>146.2</ele>
        <time>2015-06-21T12:49:55Z</time>
      </trkpt>
      <trkpt lat="39.930670118789" lon="3.121627263482">
        <ele>147</ele>
        <time>2015-06-21T12:50:00Z</time>
      </trkpt>
      <trkpt lat="39.930641033596" lon="3.121579486652">
        <ele>147.4</ele>
        <time>2015-06-21T12:50:02Z</time>
      </trkpt>
      <trkpt lat="39.930608679462" lon="3.121464738441">
        <ele>148.2</ele>
        <time>2015-06-21T12:50:06Z</time>
      </trkpt>
      <trkpt lat="39.930604069417" lon="3.121433054859">
        <ele>148.4</ele>
        <time>2015-06-21T12:50:07Z</time>
      </trkpt>
      <trkpt lat="39.930604153236" lon="3.121252844009">
        <ele>149.4</ele>
        <time>2015-06-21T12:50:13Z</time>
      </trkpt>
      <trkpt lat="39.930612870412" lon="3.121226105748">
        <ele>149.6</ele>
        <time>2015-06-21T12:50:14Z</time>
      </trkpt>
      <trkpt lat="39.93065830031" lon="3.121132647563">
        <ele>150.6</ele>
        <time>2015-06-21T12:50:18Z</time>
      </trkpt>
      <trkpt lat="39.930682691639" lon="3.121068861304">
        <ele>151.4</ele>
        <time>2015-06-21T12:50:21Z</time>
      </trkpt>
      <trkpt lat="39.930688642788" lon="3.121020413922">
        <ele>151.8</ele>
        <time>2015-06-21T12:50:23Z</time>
      </trkpt>
      <trkpt lat="39.930689816254" lon="3.120995016765">
        <ele>155.8</ele>
        <time>2015-06-21T12:50:24Z</time>
      </trkpt>
      <trkpt lat="39.930689816254" lon="3.120969032875">
        <ele>161.6</ele>
        <time>2015-06-21T12:50:25Z</time>
      </trkpt>
      <trkpt lat="39.930690486806" lon="3.120943719537">
        <ele>166</ele>
        <time>2015-06-21T12:50:26Z</time>
      </trkpt>
      <trkpt lat="39.930690067711" lon="3.12091832238">
        <ele>168</ele>
        <time>2015-06-21T12:50:27Z</time>
      </trkpt>
      <trkpt lat="39.930689229521" lon="3.120896110345">
        <ele>171</ele>
        <time>2015-06-21T12:50:28Z</time>
      </trkpt>
      <trkpt lat="39.930683194553" lon="3.12084623804">
        <ele>165.2</ele>
        <time>2015-06-21T12:50:30Z</time>
      </trkpt>
      <trkpt lat="39.930680512345" lon="3.120820924702">
        <ele>161</ele>
        <time>2015-06-21T12:50:31Z</time>
      </trkpt>
      <trkpt lat="39.930676321395" lon="3.120795359907">
        <ele>159.6</ele>
        <time>2015-06-21T12:50:32Z</time>
      </trkpt>
      <trkpt lat="39.930672717178" lon="3.12077080094">
        <ele>156.8</ele>
        <time>2015-06-21T12:50:33Z</time>
      </trkpt>
      <trkpt lat="39.930669615875" lon="3.120744900869">
        <ele>154</ele>
        <time>2015-06-21T12:50:34Z</time>
      </trkpt>
      <trkpt lat="39.930647571478" lon="3.120671978339">
        <ele>154.6</ele>
        <time>2015-06-21T12:50:37Z</time>
      </trkpt>
      <trkpt lat="39.930621587588" lon="3.120598049981">
        <ele>155</ele>
        <time>2015-06-21T12:50:40Z</time>
      </trkpt>
      <trkpt lat="39.930573726939" lon="3.120477685897">
        <ele>156</ele>
        <time>2015-06-21T12:50:45Z</time>
      </trkpt>
      <trkpt lat="39.930564003935" lon="3.120454551853">
        <ele>156.2</ele>
        <time>2015-06-21T12:50:46Z</time>
      </trkpt>
      <trkpt lat="39.930518238761" lon="3.120265791465">
        <ele>157.2</ele>
        <time>2015-06-21T12:50:53Z</time>
      </trkpt>
      <trkpt lat="39.930500804409" lon="3.120127825391">
        <ele>158.2</ele>
        <time>2015-06-21T12:50:58Z</time>
      </trkpt>
      <trkpt lat="39.930485716989" lon="3.120072421032">
        <ele>158.8</ele>
        <time>2015-06-21T12:51:00Z</time>
      </trkpt>
      <trkpt lat="39.930438945987" lon="3.119968066377">
        <ele>159.4</ele>
        <time>2015-06-21T12:51:04Z</time>
      </trkpt>
      <trkpt lat="39.930419583798" lon="3.119910231267">
        <ele>159.6</ele>
        <time>2015-06-21T12:51:06Z</time>
      </trkpt>
      <trkpt lat="39.930334088418" lon="3.119655253869">
        <ele>160</ele>
        <time>2015-06-21T12:51:14Z</time>
      </trkpt>
      <trkpt lat="39.930328304907" lon="3.119495327217">
        <ele>160.4</ele>
        <time>2015-06-21T12:51:18Z</time>
      </trkpt>
      <trkpt lat="39.930328388726" lon="3.119369850174">
        <ele>160.6</ele>
        <time>2015-06-21T12:51:21Z</time>
      </trkpt>
      <trkpt lat="39.930329897468" lon="3.11907346619">
        <ele>161.4</ele>
        <time>2015-06-21T12:51:27Z</time>
      </trkpt>
      <trkpt lat="39.93032637707" lon="3.118969949725">
        <ele>161.6</ele>
        <time>2015-06-21T12:51:29Z</time>
      </trkpt>
      <trkpt lat="39.93031128965" lon="3.118498216393">
        <ele>162.4</ele>
        <time>2015-06-21T12:51:38Z</time>
      </trkpt>
      <trkpt lat="39.930322940491" lon="3.118389000236">
        <ele>162.4</ele>
        <time>2015-06-21T12:51:40Z</time>
      </trkpt>
      <trkpt lat="39.930341967404" lon="3.118275760767">
        <ele>162.6</ele>
        <time>2015-06-21T12:51:42Z</time>
      </trkpt>
      <trkpt lat="39.930401478894" lon="3.118123964558">
        <ele>162.8</ele>
        <time>2015-06-21T12:51:45Z</time>
      </trkpt>
      <trkpt lat="39.930503402798" lon="3.117908717366">
        <ele>163.2</ele>
        <time>2015-06-21T12:51:49Z</time>
      </trkpt>
      <trkpt lat="39.93052167534" lon="3.117854486473">
        <ele>163.2</ele>
        <time>2015-06-21T12:51:50Z</time>
      </trkpt>
      <trkpt lat="39.930563165745" lon="3.117616859608">
        <ele>163.2</ele>
        <time>2015-06-21T12:51:54Z</time>
      </trkpt>
      <trkpt lat="39.930641117415" lon="3.117135319453">
        <ele>161.6</ele>
        <time>2015-06-21T12:52:00Z</time>
      </trkpt>
      <trkpt lat="39.930648744944" lon="3.117062564561">
        <ele>161.4</ele>
        <time>2015-06-21T12:52:01Z</time>
      </trkpt>
      <trkpt lat="39.930648577306" lon="3.116914540207">
        <ele>161.2</ele>
        <time>2015-06-21T12:52:03Z</time>
      </trkpt>
      <trkpt lat="39.930637261741" lon="3.116780681264">
        <ele>161.2</ele>
        <time>2015-06-21T12:52:05Z</time>
      </trkpt>
      <trkpt lat="39.930625694719" lon="3.116723013792">
        <ele>161.2</ele>
        <time>2015-06-21T12:52:06Z</time>
      </trkpt>
      <trkpt lat="39.930562914288" lon="3.116497792139">
        <ele>161</ele>
        <time>2015-06-21T12:52:10Z</time>
      </trkpt>
      <trkpt lat="39.930515305096" lon="3.116285394793">
        <ele>162</ele>
        <time>2015-06-21T12:52:15Z</time>
      </trkpt>
      <trkpt lat="39.930498122201" lon="3.116206353476">
        <ele>162.4</ele>
        <time>2015-06-21T12:52:17Z</time>
      </trkpt>
      <trkpt lat="39.930465097515" lon="3.11604173296">
        <ele>163.2</ele>
        <time>2015-06-21T12:52:21Z</time>
      </trkpt>
      <trkpt lat="39.930464426963" lon="3.11595539939">
        <ele>163.4</ele>
        <time>2015-06-21T12:52:23Z</time>
      </trkpt>
      <trkpt lat="39.930470378112" lon="3.11576429207">
        <ele>164.6</ele>
        <time>2015-06-21T12:52:28Z</time>
      </trkpt>
      <trkpt lat="39.930474904338" lon="3.115616602992">
        <ele>165.8</ele>
        <time>2015-06-21T12:52:32Z</time>
      </trkpt>
      <trkpt lat="39.930450596828" lon="3.115516858382">
        <ele>166.2</ele>
        <time>2015-06-21T12:52:35Z</time>
      </trkpt>
      <trkpt lat="39.930403071455" lon="3.115431865916">
        <ele>166.8</ele>
        <time>2015-06-21T12:52:38Z</time>
      </trkpt>
      <trkpt lat="39.930313217487" lon="3.115296079136">
        <ele>167.8</ele>
        <time>2015-06-21T12:52:43Z</time>
      </trkpt>
      <trkpt lat="39.930295615497" lon="3.115269843789">
        <ele>168</ele>
        <time>2015-06-21T12:52:44Z</time>
      </trkpt>
      <trkpt lat="39.930190003557" lon="3.115112599345">
        <ele>169.2</ele>
        <time>2015-06-21T12:52:50Z</time>
      </trkpt>
      <trkpt lat="39.930134683017" lon="3.115043281032">
        <ele>169.8</ele>
        <time>2015-06-21T12:52:53Z</time>
      </trkpt>
      <trkpt lat="39.930076093536" lon="3.114983518085">
        <ele>170.4</ele>
        <time>2015-06-21T12:52:56Z</time>
      </trkpt>
      <trkpt lat="39.929987413034" lon="3.114900285818">
        <ele>171</ele>
        <time>2015-06-21T12:53:00Z</time>
      </trkpt>
      <trkpt lat="39.92992907501" lon="3.114841612518">
        <ele>171.6</ele>
        <time>2015-06-21T12:53:03Z</time>
      </trkpt>
      <trkpt lat="39.929854308462" lon="3.114772210386">
        <ele>172.2</ele>
        <time>2015-06-21T12:53:07Z</time>
      </trkpt>
      <trkpt lat="39.929814326799" lon="3.114743795745">
        <ele>172.8</ele>
        <time>2015-06-21T12:53:09Z</time>
      </trkpt>
      <trkpt lat="39.929689268851" lon="3.114666346989">
        <ele>173.2</ele>
        <time>2015-06-21T12:53:15Z</time>
      </trkpt>
      <trkpt lat="39.929647778446" lon="3.114637932348">
        <ele>174.2</ele>
        <time>2015-06-21T12:53:17Z</time>
      </trkpt>
      <trkpt lat="39.929549039664" lon="3.114530811666">
        <ele>175.2</ele>
        <time>2015-06-21T12:53:23Z</time>
      </trkpt>
      <trkpt lat="39.929538143194" lon="3.114368957177">
        <ele>176.2</ele>
        <time>2015-06-21T12:53:28Z</time>
      </trkpt>
      <trkpt lat="39.92954350761" lon="3.114335513396">
        <ele>176.2</ele>
        <time>2015-06-21T12:53:29Z</time>
      </trkpt>
      <trkpt lat="39.929538227013" lon="3.114162678618">
        <ele>176.8</ele>
        <time>2015-06-21T12:53:35Z</time>
      </trkpt>
      <trkpt lat="39.929517188444" lon="3.114105346422">
        <ele>177.2</ele>
        <time>2015-06-21T12:53:37Z</time>
      </trkpt>
      <trkpt lat="39.929443008629" lon="3.113913400912">
        <ele>178.2</ele>
        <time>2015-06-21T12:53:44Z</time>
      </trkpt>
      <trkpt lat="39.929432698892" lon="3.113886159737">
        <ele>178.4</ele>
        <time>2015-06-21T12:53:45Z</time>
      </trkpt>
      <trkpt lat="39.929393220143" lon="3.11370905019">
        <ele>179.4</ele>
        <time>2015-06-21T12:53:51Z</time>
      </trkpt>
      <trkpt lat="39.929392717229" lon="3.113646102121">
        <ele>179.8</ele>
        <time>2015-06-21T12:53:53Z</time>
      </trkpt>
      <trkpt lat="39.929401099129" lon="3.113488270944">
        <ele>180.4</ele>
        <time>2015-06-21T12:53:58Z</time>
      </trkpt>
      <trkpt lat="39.929409481029" lon="3.113410067817">
        <ele>181</ele>
        <time>2015-06-21T12:54:01Z</time>
      </trkpt>
      <trkpt lat="39.929417946748" lon="3.113272269381">
        <ele>181.6</ele>
        <time>2015-06-21T12:54:06Z</time>
      </trkpt>
      <trkpt lat="39.929416857101" lon="3.113241675446">
        <ele>181.8</ele>
        <time>2015-06-21T12:54:07Z</time>
      </trkpt>
      <trkpt lat="39.929406463545" lon="3.113092896721">
        <ele>182.8</ele>
        <time>2015-06-21T12:54:12Z</time>
      </trkpt>
      <trkpt lat="39.929401769681" lon="3.113005892599">
        <ele>183.8</ele>
        <time>2015-06-21T12:54:15Z</time>
      </trkpt>
      <trkpt lat="39.929399841844" lon="3.112978735243">
        <ele>184.2</ele>
        <time>2015-06-21T12:54:16Z</time>
      </trkpt>
      <trkpt lat="39.929392968686" lon="3.112885863791">
        <ele>185.2</ele>
        <time>2015-06-21T12:54:19Z</time>
      </trkpt>
      <trkpt lat="39.929386682261" lon="3.112797015651">
        <ele>186.4</ele>
        <time>2015-06-21T12:54:22Z</time>
      </trkpt>
      <trkpt lat="39.929377378352" lon="3.112706407312">
        <ele>187.6</ele>
        <time>2015-06-21T12:54:25Z</time>
      </trkpt>
      <trkpt lat="39.929374863782" lon="3.112679333775">
        <ele>187.8</ele>
        <time>2015-06-21T12:54:26Z</time>
      </trkpt>
      <trkpt lat="39.92936581133" lon="3.112556371302">
        <ele>188.6</ele>
        <time>2015-06-21T12:54:30Z</time>
      </trkpt>
      <trkpt lat="39.929354244308" lon="3.112381105773">
        <ele>189.8</ele>
        <time>2015-06-21T12:54:36Z</time>
      </trkpt>
      <trkpt lat="39.929343766933" lon="3.112148675686">
        <ele>191</ele>
        <time>2015-06-21T12:54:44Z</time>
      </trkpt>
      <trkpt lat="39.929335049757" lon="3.112029568887">
        <ele>191.4</ele>
        <time>2015-06-21T12:54:48Z</time>
      </trkpt>
      <trkpt lat="39.929297163569" lon="3.111818680283">
        <ele>192</ele>
        <time>2015-06-21T12:54:56Z</time>
      </trkpt>
      <trkpt lat="39.929286015642" lon="3.111796132972">
        <ele>192</ele>
        <time>2015-06-21T12:54:57Z</time>
      </trkpt>
      <trkpt lat="39.929222397021" lon="3.111753050006">
        <ele>192.4</ele>
        <time>2015-06-21T12:55:01Z</time>
      </trkpt>
      <trkpt lat="39.929200771719" lon="3.111756570404">
        <ele>192.2</ele>
        <time>2015-06-21T12:55:02Z</time>
      </trkpt>
      <trkpt lat="39.929092896666" lon="3.111852124064">
        <ele>192.6</ele>
        <time>2015-06-21T12:55:08Z</time>
      </trkpt>
      <trkpt lat="39.929075043219" lon="3.112037950787">
        <ele>193</ele>
        <time>2015-06-21T12:55:14Z</time>
      </trkpt>
      <trkpt lat="39.929077054875" lon="3.112142137804">
        <ele>193</ele>
        <time>2015-06-21T12:55:17Z</time>
      </trkpt>
      <trkpt lat="39.929082084015" lon="3.112242133871">
        <ele>192.8</ele>
        <time>2015-06-21T12:55:20Z</time>
      </trkpt>
      <trkpt lat="39.929091555562" lon="3.112430391345">
        <ele>193.2</ele>
        <time>2015-06-21T12:55:26Z</time>
      </trkpt>
      <trkpt lat="39.929131201949" lon="3.112678411766">
        <ele>193.6</ele>
        <time>2015-06-21T12:55:33Z</time>
      </trkpt>
      <trkpt lat="39.929180068426" lon="3.112872704208">
        <ele>194.2</ele>
        <time>2015-06-21T12:55:39Z</time>
      </trkpt>
      <trkpt lat="39.92918476229" lon="3.112904639247">
        <ele>194.2</ele>
        <time>2015-06-21T12:55:40Z</time>
      </trkpt>
      <trkpt lat="39.929177889132" lon="3.112966078574">
        <ele>194</ele>
        <time>2015-06-21T12:55:42Z</time>
      </trkpt>
      <trkpt lat="39.929137153098" lon="3.112991475731">
        <ele>194.6</ele>
        <time>2015-06-21T12:55:44Z</time>
      </trkpt>
      <trkpt lat="39.929102452032" lon="3.112953170448">
        <ele>195.4</ele>
        <time>2015-06-21T12:55:46Z</time>
      </trkpt>
      <trkpt lat="39.929094321589" lon="3.112921822142">
        <ele>196.2</ele>
        <time>2015-06-21T12:55:47Z</time>
      </trkpt>
      <trkpt lat="39.929088286621" lon="3.112890390017">
        <ele>196.4</ele>
        <time>2015-06-21T12:55:48Z</time>
      </trkpt>
      <trkpt lat="39.929061883636" lon="3.112778826928">
        <ele>197.4</ele>
        <time>2015-06-21T12:55:52Z</time>
      </trkpt>
      <trkpt lat="39.929025757647" lon="3.11263616699">
        <ele>198.4</ele>
        <time>2015-06-21T12:55:57Z</time>
      </trkpt>
      <trkpt lat="39.929010921684" lon="3.11257581731">
        <ele>198.6</ele>
        <time>2015-06-21T12:55:59Z</time>
      </trkpt>
      <trkpt lat="39.928975717704" lon="3.112433744105">
        <ele>202</ele>
        <time>2015-06-21T12:56:04Z</time>
      </trkpt>
      <trkpt lat="39.928954846773" lon="3.112351350028">
        <ele>206.6</ele>
        <time>2015-06-21T12:56:07Z</time>
      </trkpt>
      <trkpt lat="39.928939675534" lon="3.112290665072">
        <ele>204.4</ele>
        <time>2015-06-21T12:56:09Z</time>
      </trkpt>
      <trkpt lat="39.928912518178" lon="3.112205756425">
        <ele>198.4</ele>
        <time>2015-06-21T12:56:12Z</time>
      </trkpt>
      <trkpt lat="39.928902795174" lon="3.112177760879">
        <ele>202.6</ele>
        <time>2015-06-21T12:56:13Z</time>
      </trkpt>
      <trkpt lat="39.928884522632" lon="3.112119422855">
        <ele>203</ele>
        <time>2015-06-21T12:56:15Z</time>
      </trkpt>
      <trkpt lat="39.928834482689" lon="3.11195136576">
        <ele>203.6</ele>
        <time>2015-06-21T12:56:21Z</time>
      </trkpt>
      <trkpt lat="39.928821155468" lon="3.111893949745">
        <ele>204.6</ele>
        <time>2015-06-21T12:56:23Z</time>
      </trkpt>
      <trkpt lat="39.928816629242" lon="3.111866624751">
        <ele>204.8</ele>
        <time>2015-06-21T12:56:24Z</time>
      </trkpt>
      <trkpt lat="39.928792908465" lon="3.111781045552">
        <ele>206.2</ele>
        <time>2015-06-21T12:56:27Z</time>
      </trkpt>
      <trkpt lat="39.928764577643" lon="3.111644504401">
        <ele>206.6</ele>
        <time>2015-06-21T12:56:32Z</time>
      </trkpt>
      <trkpt lat="39.928751501879" lon="3.111577281563">
        <ele>207.2</ele>
        <time>2015-06-21T12:56:35Z</time>
      </trkpt>
      <trkpt lat="39.928743455255" lon="3.111530762018">
        <ele>208</ele>
        <time>2015-06-21T12:56:38Z</time>
      </trkpt>
      <trkpt lat="39.928738929029" lon="3.111518943539">
        <ele>208.2</ele>
        <time>2015-06-21T12:56:39Z</time>
      </trkpt>
      <trkpt lat="39.928703976506" lon="3.111420875309">
        <ele>209</ele>
        <time>2015-06-21T12:56:43Z</time>
      </trkpt>
      <trkpt lat="39.92869945028" lon="3.111375110135">
        <ele>209.4</ele>
        <time>2015-06-21T12:56:45Z</time>
      </trkpt>
      <trkpt lat="39.928702048669" lon="3.111308138754">
        <ele>209.8</ele>
        <time>2015-06-21T12:56:49Z</time>
      </trkpt>
      <trkpt lat="39.928735660088" lon="3.111206298669">
        <ele>210</ele>
        <time>2015-06-21T12:56:55Z</time>
      </trkpt>
      <trkpt lat="39.928760805788" lon="3.111151397224">
        <ele>210.6</ele>
        <time>2015-06-21T12:56:57Z</time>
      </trkpt>
      <trkpt lat="39.928824927323" lon="3.111042348705">
        <ele>211.2</ele>
        <time>2015-06-21T12:57:02Z</time>
      </trkpt>
      <trkpt lat="39.928881002234" lon="3.110949309615">
        <ele>206.2</ele>
        <time>2015-06-21T12:57:07Z</time>
      </trkpt>
      <trkpt lat="39.928917631137" lon="3.110873369601">
        <ele>206.2</ele>
        <time>2015-06-21T12:57:11Z</time>
      </trkpt>
      <trkpt lat="39.928932634738" lon="3.110727775998">
        <ele>206.4</ele>
        <time>2015-06-21T12:57:18Z</time>
      </trkpt>
      <trkpt lat="39.928883684442" lon="3.110644459912">
        <ele>206.8</ele>
        <time>2015-06-21T12:57:23Z</time>
      </trkpt>
      <trkpt lat="39.928867675013" lon="3.110610932312">
        <ele>207.2</ele>
        <time>2015-06-21T12:57:25Z</time>
      </trkpt>
      <trkpt lat="39.928814869043" lon="3.110518647593">
        <ele>208</ele>
        <time>2015-06-21T12:57:29Z</time>
      </trkpt>
      <trkpt lat="39.928705736705" lon="3.110330138662">
        <ele>208.2</ele>
        <time>2015-06-21T12:57:34Z</time>
      </trkpt>
      <trkpt lat="39.928551761202" lon="3.110075245083">
        <ele>207.8</ele>
        <time>2015-06-21T12:57:40Z</time>
      </trkpt>
      <trkpt lat="39.928519574706" lon="3.110050183202">
        <ele>207.8</ele>
        <time>2015-06-21T12:57:41Z</time>
      </trkpt>
      <trkpt lat="39.928376495673" lon="3.110011458824">
        <ele>207.2</ele>
        <time>2015-06-21T12:57:44Z</time>
      </trkpt>
      <trkpt lat="39.928326120454" lon="3.110009028073">
        <ele>207</ele>
        <time>2015-06-21T12:57:45Z</time>
      </trkpt>
      <trkpt lat="39.928157476626" lon="3.110007016417">
        <ele>206.2</ele>
        <time>2015-06-21T12:57:48Z</time>
      </trkpt>
      <trkpt lat="39.928046164994" lon="3.109995700852">
        <ele>205.4</ele>
        <time>2015-06-21T12:57:50Z</time>
      </trkpt>
      <trkpt lat="39.927997549974" lon="3.109981283984">
        <ele>205.2</ele>
        <time>2015-06-21T12:57:51Z</time>
      </trkpt>
      <trkpt lat="39.927938289941" lon="3.109958736673">
        <ele>205</ele>
        <time>2015-06-21T12:57:52Z</time>
      </trkpt>
      <trkpt lat="39.927764281697" lon="3.109884053944">
        <ele>204.2</ele>
        <time>2015-06-21T12:57:55Z</time>
      </trkpt>
      <trkpt lat="39.927713906478" lon="3.109861506633">
        <ele>203.8</ele>
        <time>2015-06-21T12:57:56Z</time>
      </trkpt>
      <trkpt lat="39.927510980679" lon="3.109770646837">
        <ele>202.6</ele>
        <time>2015-06-21T12:57:59Z</time>
      </trkpt>
      <trkpt lat="39.927377121736" lon="3.109706190026">
        <ele>202</ele>
        <time>2015-06-21T12:58:01Z</time>
      </trkpt>
      <trkpt lat="39.927308390156" lon="3.109673500616">
        <ele>201.6</ele>
        <time>2015-06-21T12:58:02Z</time>
      </trkpt>
      <trkpt lat="39.927188277529" lon="3.109632680763">
        <ele>200.8</ele>
        <time>2015-06-21T12:58:04Z</time>
      </trkpt>
      <trkpt lat="39.927123233985" lon="3.109640895025">
        <ele>200.4</ele>
        <time>2015-06-21T12:58:05Z</time>
      </trkpt>
      <trkpt lat="39.926874375374" lon="3.109731084269">
        <ele>199.8</ele>
        <time>2015-06-21T12:58:09Z</time>
      </trkpt>
      <trkpt lat="39.926695757085" lon="3.109625137053">
        <ele>199.4</ele>
        <time>2015-06-21T12:58:12Z</time>
      </trkpt>
      <trkpt lat="39.926581511788" lon="3.109492786852">
        <ele>198.8</ele>
        <time>2015-06-21T12:58:14Z</time>
      </trkpt>
      <trkpt lat="39.926522335574" lon="3.10943511938">
        <ele>198.2</ele>
        <time>2015-06-21T12:58:15Z</time>
      </trkpt>
      <trkpt lat="39.926457375849" lon="3.109391198224">
        <ele>197.8</ele>
        <time>2015-06-21T12:58:16Z</time>
      </trkpt>
      <trkpt lat="39.926379927093" lon="3.109360688108">
        <ele>197.2</ele>
        <time>2015-06-21T12:58:17Z</time>
      </trkpt>
      <trkpt lat="39.926152023232" lon="3.109336967331">
        <ele>195.4</ele>
        <time>2015-06-21T12:58:20Z</time>
      </trkpt>
      <trkpt lat="39.926091422095" lon="3.109340068634">
        <ele>194.8</ele>
        <time>2015-06-21T12:58:21Z</time>
      </trkpt>
      <trkpt lat="39.926013218968" lon="3.109343672851">
        <ele>194</ele>
        <time>2015-06-21T12:58:22Z</time>
      </trkpt>
      <trkpt lat="39.925951779641" lon="3.109339314263">
        <ele>193.4</ele>
        <time>2015-06-21T12:58:23Z</time>
      </trkpt>
      <trkpt lat="39.925892435789" lon="3.109320203531">
        <ele>192.4</ele>
        <time>2015-06-21T12:58:24Z</time>
      </trkpt>
      <trkpt lat="39.925839043086" lon="3.109283658447">
        <ele>191.8</ele>
        <time>2015-06-21T12:58:25Z</time>
      </trkpt>
      <trkpt lat="39.925797552681" lon="3.10923730654">
        <ele>191.2</ele>
        <time>2015-06-21T12:58:26Z</time>
      </trkpt>
      <trkpt lat="39.925710548559" lon="3.109089533643">
        <ele>190.2</ele>
        <time>2015-06-21T12:58:28Z</time>
      </trkpt>
      <trkpt lat="39.925642655169" lon="3.108922733833">
        <ele>189.6</ele>
        <time>2015-06-21T12:58:30Z</time>
      </trkpt>
      <trkpt lat="39.925568391535" lon="3.108762891">
        <ele>188.8</ele>
        <time>2015-06-21T12:58:32Z</time>
      </trkpt>
      <trkpt lat="39.92552690113" lon="3.108691561031">
        <ele>188.2</ele>
        <time>2015-06-21T12:58:33Z</time>
      </trkpt>
      <trkpt lat="39.925480046309" lon="3.108620482519">
        <ele>187.6</ele>
        <time>2015-06-21T12:58:34Z</time>
      </trkpt>
      <trkpt lat="39.925429922547" lon="3.108557199174">
        <ele>187</ele>
        <time>2015-06-21T12:58:35Z</time>
      </trkpt>
      <trkpt lat="39.92537183598" lon="3.108512942742">
        <ele>186.2</ele>
        <time>2015-06-21T12:58:36Z</time>
      </trkpt>
      <trkpt lat="39.925293716672" lon="3.108490730707">
        <ele>185.6</ele>
        <time>2015-06-21T12:58:37Z</time>
      </trkpt>
      <trkpt lat="39.925209981491" lon="3.108482264988">
        <ele>185</ele>
        <time>2015-06-21T12:58:38Z</time>
      </trkpt>
      <trkpt lat="39.925131023993" lon="3.108478660771">
        <ele>184.4</ele>
        <time>2015-06-21T12:58:39Z</time>
      </trkpt>
      <trkpt lat="39.925051731219" lon="3.10847706821">
        <ele>183.6</ele>
        <time>2015-06-21T12:58:40Z</time>
      </trkpt>
      <trkpt lat="39.924984508381" lon="3.108463489532">
        <ele>182.6</ele>
        <time>2015-06-21T12:58:41Z</time>
      </trkpt>
      <trkpt lat="39.92484377628" lon="3.108373300288">
        <ele>180.8</ele>
        <time>2015-06-21T12:58:43Z</time>
      </trkpt>
      <trkpt lat="39.924795245079" lon="3.108306831821">
        <ele>180.2</ele>
        <time>2015-06-21T12:58:44Z</time>
      </trkpt>
      <trkpt lat="39.924755682511" lon="3.108231813816">
        <ele>179.4</ele>
        <time>2015-06-21T12:58:45Z</time>
      </trkpt>
      <trkpt lat="39.9246828438" lon="3.108058476124">
        <ele>178.6</ele>
        <time>2015-06-21T12:58:47Z</time>
      </trkpt>
      <trkpt lat="39.924648980924" lon="3.107971974916">
        <ele>178</ele>
        <time>2015-06-21T12:58:48Z</time>
      </trkpt>
      <trkpt lat="39.924588295968" lon="3.107804923649">
        <ele>176.6</ele>
        <time>2015-06-21T12:58:50Z</time>
      </trkpt>
      <trkpt lat="39.924514116153" lon="3.107639213486">
        <ele>175.2</ele>
        <time>2015-06-21T12:58:52Z</time>
      </trkpt>
      <trkpt lat="39.924469440626" lon="3.107571152458">
        <ele>174.6</ele>
        <time>2015-06-21T12:58:53Z</time>
      </trkpt>
      <trkpt lat="39.924417640484" lon="3.107519603773">
        <ele>174</ele>
        <time>2015-06-21T12:58:54Z</time>
      </trkpt>
      <trkpt lat="39.924314291657" lon="3.107460595197">
        <ele>172.4</ele>
        <time>2015-06-21T12:58:56Z</time>
      </trkpt>
      <trkpt lat="39.924248409923" lon="3.107452297116">
        <ele>172</ele>
        <time>2015-06-21T12:58:57Z</time>
      </trkpt>
      <trkpt lat="39.924185461854" lon="3.107459337912">
        <ele>171.2</ele>
        <time>2015-06-21T12:58:58Z</time>
      </trkpt>
      <trkpt lat="39.924077083887" lon="3.10750476781">
        <ele>168</ele>
        <time>2015-06-21T12:59:00Z</time>
      </trkpt>
      <trkpt lat="39.924025367564" lon="3.107531925166">
        <ele>168.6</ele>
        <time>2015-06-21T12:59:01Z</time>
      </trkpt>
      <trkpt lat="39.92396367678" lon="3.107562183825">
        <ele>171.6</ele>
        <time>2015-06-21T12:59:02Z</time>
      </trkpt>
      <trkpt lat="39.923905590213" lon="3.107595376149">
        <ele>174.4</ele>
        <time>2015-06-21T12:59:03Z</time>
      </trkpt>
      <trkpt lat="39.923780448446" lon="3.10766234753">
        <ele>177</ele>
        <time>2015-06-21T12:59:05Z</time>
      </trkpt>
      <trkpt lat="39.923728648304" lon="3.107687157954">
        <ele>178.2</ele>
        <time>2015-06-21T12:59:06Z</time>
      </trkpt>
      <trkpt lat="39.923588838212" lon="3.107745831254">
        <ele>181.4</ele>
        <time>2015-06-21T12:59:08Z</time>
      </trkpt>
      <trkpt lat="39.923525135772" lon="3.107764774348">
        <ele>179</ele>
        <time>2015-06-21T12:59:09Z</time>
      </trkpt>
      <trkpt lat="39.923458164391" lon="3.107773659162">
        <ele>178.6</ele>
        <time>2015-06-21T12:59:10Z</time>
      </trkpt>
      <trkpt lat="39.923398569082" lon="3.107770976954">
        <ele>175.6</ele>
        <time>2015-06-21T12:59:11Z</time>
      </trkpt>
      <trkpt lat="39.923324556905" lon="3.107761337769">
        <ele>170.6</ele>
        <time>2015-06-21T12:59:12Z</time>
      </trkpt>
      <trkpt lat="39.923255154773" lon="3.107749686928">
        <ele>162</ele>
        <time>2015-06-21T12:59:13Z</time>
      </trkpt>
      <trkpt lat="39.923183238071" lon="3.107735689155">
        <ele>148.8</ele>
        <time>2015-06-21T12:59:14Z</time>
      </trkpt>
      <trkpt lat="39.923108639161" lon="3.107717919527">
        <ele>144.4</ele>
        <time>2015-06-21T12:59:15Z</time>
      </trkpt>
      <trkpt lat="39.922872688676" lon="3.107655893467">
        <ele>151.8</ele>
        <time>2015-06-21T12:59:18Z</time>
      </trkpt>
      <trkpt lat="39.922796832481" lon="3.107628317016">
        <ele>164.4</ele>
        <time>2015-06-21T12:59:19Z</time>
      </trkpt>
      <trkpt lat="39.92271980282" lon="3.107595543787">
        <ele>166.8</ele>
        <time>2015-06-21T12:59:20Z</time>
      </trkpt>
      <trkpt lat="39.922492569511" lon="3.107478281006">
        <ele>157.4</ele>
        <time>2015-06-21T12:59:23Z</time>
      </trkpt>
      <trkpt lat="39.922349909573" lon="3.107401838078">
        <ele>156.4</ele>
        <time>2015-06-21T12:59:25Z</time>
      </trkpt>
      <trkpt lat="39.922286961504" lon="3.107372752885">
        <ele>151.6</ele>
        <time>2015-06-21T12:59:26Z</time>
      </trkpt>
      <trkpt lat="39.922212111137" lon="3.107341907493">
        <ele>149.8</ele>
        <time>2015-06-21T12:59:27Z</time>
      </trkpt>
      <trkpt lat="39.922061320756" lon="3.107298824527">
        <ele>149.2</ele>
        <time>2015-06-21T12:59:29Z</time>
      </trkpt>
      <trkpt lat="39.921907848167" lon="3.107276277216">
        <ele>152.4</ele>
        <time>2015-06-21T12:59:31Z</time>
      </trkpt>
      <trkpt lat="39.92182377771" lon="3.107265296927">
        <ele>158.6</ele>
        <time>2015-06-21T12:59:32Z</time>
      </trkpt>
      <trkpt lat="39.921748172972" lon="3.107250460964">
        <ele>161</ele>
        <time>2015-06-21T12:59:33Z</time>
      </trkpt>
      <trkpt lat="39.921666365628" lon="3.107231182594">
        <ele>166.6</ele>
        <time>2015-06-21T12:59:34Z</time>
      </trkpt>
      <trkpt lat="39.921587827225" lon="3.107211736586">
        <ele>170.8</ele>
        <time>2015-06-21T12:59:35Z</time>
      </trkpt>
      <trkpt lat="39.921440054328" lon="3.107167899249">
        <ele>164.6</ele>
        <time>2015-06-21T12:59:37Z</time>
      </trkpt>
      <trkpt lat="39.921365539237" lon="3.107141580083">
        <ele>160.2</ele>
        <time>2015-06-21T12:59:38Z</time>
      </trkpt>
      <trkpt lat="39.921295634191" lon="3.107113081623">
        <ele>158.2</ele>
        <time>2015-06-21T12:59:39Z</time>
      </trkpt>
      <trkpt lat="39.921220867643" lon="3.107081817136">
        <ele>156.6</ele>
        <time>2015-06-21T12:59:40Z</time>
      </trkpt>
      <trkpt lat="39.921157584298" lon="3.107054073047">
        <ele>151.6</ele>
        <time>2015-06-21T12:59:41Z</time>
      </trkpt>
      <trkpt lat="39.921078375343" lon="3.107024904035">
        <ele>154</ele>
        <time>2015-06-21T12:59:42Z</time>
      </trkpt>
      <trkpt lat="39.921006626279" lon="3.107008978425">
        <ele>153.4</ele>
        <time>2015-06-21T12:59:43Z</time>
      </trkpt>
      <trkpt lat="39.920930602446" lon="3.106997411403">
        <ele>148.6</ele>
        <time>2015-06-21T12:59:44Z</time>
      </trkpt>
      <trkpt lat="39.920782494273" lon="3.106987269304">
        <ele>153.4</ele>
        <time>2015-06-21T12:59:46Z</time>
      </trkpt>
      <trkpt lat="39.920438584916" lon="3.106980479965">
        <ele>150.6</ele>
        <time>2015-06-21T12:59:50Z</time>
      </trkpt>
      <trkpt lat="39.920357615762" lon="3.10698006087">
        <ele>146.2</ele>
        <time>2015-06-21T12:59:51Z</time>
      </trkpt>
      <trkpt lat="39.920259547532" lon="3.106978887404">
        <ele>141.4</ele>
        <time>2015-06-21T12:59:52Z</time>
      </trkpt>
      <trkpt lat="39.919985040307" lon="3.106974947911">
        <ele>139</ele>
        <time>2015-06-21T12:59:55Z</time>
      </trkpt>
      <trkpt lat="39.919804242724" lon="3.106969751133">
        <ele>137.6</ele>
        <time>2015-06-21T12:59:57Z</time>
      </trkpt>
      <trkpt lat="39.919623780417" lon="3.106953741704">
        <ele>136</ele>
        <time>2015-06-21T12:59:59Z</time>
      </trkpt>
      <trkpt lat="39.919454382218" lon="3.106915604059">
        <ele>134.4</ele>
        <time>2015-06-21T13:00:01Z</time>
      </trkpt>
      <trkpt lat="39.919286911856" lon="3.106824073711">
        <ele>133.4</ele>
        <time>2015-06-21T13:00:03Z</time>
      </trkpt>
      <trkpt lat="39.919111813965" lon="3.106713013536">
        <ele>132</ele>
        <time>2015-06-21T13:00:05Z</time>
      </trkpt>
      <trkpt lat="39.919034532847" lon="3.106659453195">
        <ele>131</ele>
        <time>2015-06-21T13:00:06Z</time>
      </trkpt>
      <trkpt lat="39.91886664339" lon="3.106543782975">
        <ele>129.2</ele>
        <time>2015-06-21T13:00:08Z</time>
      </trkpt>
      <trkpt lat="39.918789865186" lon="3.106492318109">
        <ele>128.2</ele>
        <time>2015-06-21T13:00:09Z</time>
      </trkpt>
      <trkpt lat="39.918644187764" lon="3.106403805245">
        <ele>126.6</ele>
        <time>2015-06-21T13:00:11Z</time>
      </trkpt>
      <trkpt lat="39.918488116786" lon="3.106320572978">
        <ele>125.4</ele>
        <time>2015-06-21T13:00:13Z</time>
      </trkpt>
      <trkpt lat="39.918343948106" lon="3.106231389562">
        <ele>124</ele>
        <time>2015-06-21T13:00:15Z</time>
      </trkpt>
      <trkpt lat="39.918117804444" lon="3.106060901716">
        <ele>122.4</ele>
        <time>2015-06-21T13:00:18Z</time>
      </trkpt>
      <trkpt lat="39.917973803402" lon="3.105949506265">
        <ele>121.2</ele>
        <time>2015-06-21T13:00:20Z</time>
      </trkpt>
      <trkpt lat="39.917912615532" lon="3.105902232349">
        <ele>120.8</ele>
        <time>2015-06-21T13:00:21Z</time>
      </trkpt>
      <trkpt lat="39.917846230884" lon="3.105849007284">
        <ele>120.2</ele>
        <time>2015-06-21T13:00:22Z</time>
      </trkpt>
      <trkpt lat="39.91775185069" lon="3.105774156917">
        <ele>118.4</ele>
        <time>2015-06-21T13:00:24Z</time>
      </trkpt>
      <trkpt lat="39.917709522095" lon="3.105744401172">
        <ele>117.4</ele>
        <time>2015-06-21T13:00:25Z</time>
      </trkpt>
      <trkpt lat="39.917670294803" lon="3.105722272956">
        <ele>123.2</ele>
        <time>2015-06-21T13:00:26Z</time>
      </trkpt>
      <trkpt lat="39.91762109305" lon="3.105698133084">
        <ele>126</ele>
        <time>2015-06-21T13:00:27Z</time>
      </trkpt>
      <trkpt lat="39.917572142754" lon="3.105676507782">
        <ele>128.8</ele>
        <time>2015-06-21T13:00:28Z</time>
      </trkpt>
      <trkpt lat="39.917523443915" lon="3.105654211928">
        <ele>130.4</ele>
        <time>2015-06-21T13:00:29Z</time>
      </trkpt>
      <trkpt lat="39.917470554126" lon="3.105629401504">
        <ele>127.2</ele>
        <time>2015-06-21T13:00:30Z</time>
      </trkpt>
      <trkpt lat="39.91741992745" lon="3.105609452582">
        <ele>122</ele>
        <time>2015-06-21T13:00:31Z</time>
      </trkpt>
      <trkpt lat="39.917364774548" lon="3.105591682954">
        <ele>118.4</ele>
        <time>2015-06-21T13:00:32Z</time>
      </trkpt>
      <trkpt lat="39.91732018284" lon="3.105578858647">
        <ele>115.4</ele>
        <time>2015-06-21T13:00:33Z</time>
      </trkpt>
      <trkpt lat="39.917270142897" lon="3.105570392928">
        <ele>115</ele>
        <time>2015-06-21T13:00:34Z</time>
      </trkpt>
      <trkpt lat="39.917223623352" lon="3.105570979661">
        <ele>114.4</ele>
        <time>2015-06-21T13:00:35Z</time>
      </trkpt>
      <trkpt lat="39.917181546214" lon="3.105577182267">
        <ele>114</ele>
        <time>2015-06-21T13:00:36Z</time>
      </trkpt>
      <trkpt lat="39.917074425532" lon="3.105656139765">
        <ele>113</ele>
        <time>2015-06-21T13:00:39Z</time>
      </trkpt>
      <trkpt lat="39.917024888503" lon="3.105813551847">
        <ele>111.8</ele>
        <time>2015-06-21T13:00:42Z</time>
      </trkpt>
      <trkpt lat="39.917023715037" lon="3.1058795174">
        <ele>111.4</ele>
        <time>2015-06-21T13:00:43Z</time>
      </trkpt>
      <trkpt lat="39.917035701154" lon="3.106010777954">
        <ele>109.8</ele>
        <time>2015-06-21T13:00:45Z</time>
      </trkpt>
      <trkpt lat="39.917043915416" lon="3.106085209226">
        <ele>104.6</ele>
        <time>2015-06-21T13:00:46Z</time>
      </trkpt>
      <trkpt lat="39.917056655904" lon="3.106167770941">
        <ele>104.2</ele>
        <time>2015-06-21T13:00:47Z</time>
      </trkpt>
      <trkpt lat="39.917109964788" lon="3.106413360611">
        <ele>106.4</ele>
        <time>2015-06-21T13:00:50Z</time>
      </trkpt>
      <trkpt lat="39.917125219846" lon="3.106490809367">
        <ele>110</ele>
        <time>2015-06-21T13:00:51Z</time>
      </trkpt>
      <trkpt lat="39.917143408569" lon="3.106582339715">
        <ele>110.2</ele>
        <time>2015-06-21T13:00:52Z</time>
      </trkpt>
      <trkpt lat="39.917183474051" lon="3.106826085367">
        <ele>108.8</ele>
        <time>2015-06-21T13:00:55Z</time>
      </trkpt>
      <trkpt lat="39.917182887318" lon="3.106898924078">
        <ele>108</ele>
        <time>2015-06-21T13:00:56Z</time>
      </trkpt>
      <trkpt lat="39.917166877889" lon="3.106980982879">
        <ele>107.4</ele>
        <time>2015-06-21T13:00:57Z</time>
      </trkpt>
      <trkpt lat="39.917080879595" lon="3.107117607849">
        <ele>106.2</ele>
        <time>2015-06-21T13:00:59Z</time>
      </trkpt>
      <trkpt lat="39.917033018946" lon="3.107172593113">
        <ele>105.4</ele>
        <time>2015-06-21T13:01:00Z</time>
      </trkpt>
      <trkpt lat="39.91698742141" lon="3.107226069635">
        <ele>104.4</ele>
        <time>2015-06-21T13:01:01Z</time>
      </trkpt>
      <trkpt lat="39.916897399804" lon="3.107333190317">
        <ele>103</ele>
        <time>2015-06-21T13:01:03Z</time>
      </trkpt>
      <trkpt lat="39.91681391608" lon="3.107446262148">
        <ele>102</ele>
        <time>2015-06-21T13:01:05Z</time>
      </trkpt>
      <trkpt lat="39.916737892247" lon="3.107547683138">
        <ele>101.4</ele>
        <time>2015-06-21T13:01:07Z</time>
      </trkpt>
      <trkpt lat="39.916535553181" lon="3.107811796807">
        <ele>100.6</ele>
        <time>2015-06-21T13:01:12Z</time>
      </trkpt>
      <trkpt lat="39.916451398905" lon="3.107910200313">
        <ele>99.8</ele>
        <time>2015-06-21T13:01:14Z</time>
      </trkpt>
      <trkpt lat="39.91639901203" lon="3.107942051533">
        <ele>99.4</ele>
        <time>2015-06-21T13:01:15Z</time>
      </trkpt>
      <trkpt lat="39.916212850031" lon="3.107907769562">
        <ele>98.6</ele>
        <time>2015-06-21T13:01:18Z</time>
      </trkpt>
      <trkpt lat="39.916111764317" lon="3.107769468212">
        <ele>98.4</ele>
        <time>2015-06-21T13:01:20Z</time>
      </trkpt>
      <trkpt lat="39.916064658039" lon="3.107703251202">
        <ele>97.8</ele>
        <time>2015-06-21T13:01:21Z</time>
      </trkpt>
      <trkpt lat="39.915912610373" lon="3.107487249639">
        <ele>96</ele>
        <time>2015-06-21T13:01:24Z</time>
      </trkpt>
      <trkpt lat="39.915820828568" lon="3.107375518912">
        <ele>95</ele>
        <time>2015-06-21T13:01:26Z</time>
      </trkpt>
      <trkpt lat="39.91571672537" lon="3.107258423769">
        <ele>93.8</ele>
        <time>2015-06-21T13:01:28Z</time>
      </trkpt>
      <trkpt lat="39.915615388199" lon="3.107145351938">
        <ele>92.6</ele>
        <time>2015-06-21T13:01:30Z</time>
      </trkpt>
      <trkpt lat="39.915461831791" lon="3.106974277359">
        <ele>91.2</ele>
        <time>2015-06-21T13:01:33Z</time>
      </trkpt>
      <trkpt lat="39.915349681969" lon="3.106848716497">
        <ele>90</ele>
        <time>2015-06-21T13:01:35Z</time>
      </trkpt>
      <trkpt lat="39.91529595399" lon="3.106789959378">
        <ele>89.6</ele>
        <time>2015-06-21T13:01:36Z</time>
      </trkpt>
      <trkpt lat="39.915183301254" lon="3.106662805955">
        <ele>88.6</ele>
        <time>2015-06-21T13:01:38Z</time>
      </trkpt>
      <trkpt lat="39.915029074294" lon="3.106490306453">
        <ele>87</ele>
        <time>2015-06-21T13:01:41Z</time>
      </trkpt>
      <trkpt lat="39.91490451926" lon="3.106354603492">
        <ele>86</ele>
        <time>2015-06-21T13:01:43Z</time>
      </trkpt>
      <trkpt lat="39.91484919872" lon="3.10628603955">
        <ele>85.4</ele>
        <time>2015-06-21T13:01:44Z</time>
      </trkpt>
      <trkpt lat="39.914753225965" lon="3.106143798707">
        <ele>84</ele>
        <time>2015-06-21T13:01:46Z</time>
      </trkpt>
      <trkpt lat="39.914645770007" lon="3.105981944218">
        <ele>82.8</ele>
        <time>2015-06-21T13:01:48Z</time>
      </trkpt>
      <trkpt lat="39.914536134755" lon="3.105836182977">
        <ele>79.6</ele>
        <time>2015-06-21T13:01:50Z</time>
      </trkpt>
      <trkpt lat="39.914484418432" lon="3.105776084754">
        <ele>81.2</ele>
        <time>2015-06-21T13:01:51Z</time>
      </trkpt>
      <trkpt lat="39.914354163706" lon="3.105648093141">
        <ele>80</ele>
        <time>2015-06-21T13:01:53Z</time>
      </trkpt>
      <trkpt lat="39.914222986971" lon="3.105533261111">
        <ele>81</ele>
        <time>2015-06-21T13:01:55Z</time>
      </trkpt>
      <trkpt lat="39.914164732766" lon="3.105482047702">
        <ele>76.6</ele>
        <time>2015-06-21T13:01:56Z</time>
      </trkpt>
      <trkpt lat="39.91409734229" lon="3.105422200936">
        <ele>81.6</ele>
        <time>2015-06-21T13:01:57Z</time>
      </trkpt>
      <trkpt lat="39.91390958773" lon="3.105257328963">
        <ele>80</ele>
        <time>2015-06-21T13:02:00Z</time>
      </trkpt>
      <trkpt lat="39.913855524475" lon="3.10520980359">
        <ele>81.2</ele>
        <time>2015-06-21T13:02:01Z</time>
      </trkpt>
      <trkpt lat="39.913796767356" lon="3.105160434199">
        <ele>75.2</ele>
        <time>2015-06-21T13:02:02Z</time>
      </trkpt>
      <trkpt lat="39.913684030801" lon="3.105070328774">
        <ele>77.4</ele>
        <time>2015-06-21T13:02:04Z</time>
      </trkpt>
      <trkpt lat="39.913626866243" lon="3.105029425102">
        <ele>80.6</ele>
        <time>2015-06-21T13:02:05Z</time>
      </trkpt>
      <trkpt lat="39.913578167404" lon="3.10500109428">
        <ele>83.2</ele>
        <time>2015-06-21T13:02:06Z</time>
      </trkpt>
      <trkpt lat="39.913507591806" lon="3.104967231404">
        <ele>84.2</ele>
        <time>2015-06-21T13:02:07Z</time>
      </trkpt>
      <trkpt lat="39.913445817203" lon="3.104941750428">
        <ele>86.8</ele>
        <time>2015-06-21T13:02:08Z</time>
      </trkpt>
      <trkpt lat="39.913383120591" lon="3.104920125126">
        <ele>84.8</ele>
        <time>2015-06-21T13:02:09Z</time>
      </trkpt>
      <trkpt lat="39.913319921065" lon="3.104902355498">
        <ele>83</ele>
        <time>2015-06-21T13:02:10Z</time>
      </trkpt>
      <trkpt lat="39.913262421231" lon="3.104889866467">
        <ele>81</ele>
        <time>2015-06-21T13:02:11Z</time>
      </trkpt>
      <trkpt lat="39.913192432366" lon="3.104876958341">
        <ele>79.4</ele>
        <time>2015-06-21T13:02:12Z</time>
      </trkpt>
      <trkpt lat="39.913127221184" lon="3.104864217853">
        <ele>76</ele>
        <time>2015-06-21T13:02:13Z</time>
      </trkpt>
      <trkpt lat="39.913059914527" lon="3.104845861492">
        <ele>72.8</ele>
        <time>2015-06-21T13:02:14Z</time>
      </trkpt>
      <trkpt lat="39.912995373897" lon="3.104818704136">
        <ele>76.8</ele>
        <time>2015-06-21T13:02:15Z</time>
      </trkpt>
      <trkpt lat="39.91293477276" lon="3.104780482672">
        <ele>74.8</ele>
        <time>2015-06-21T13:02:16Z</time>
      </trkpt>
      <trkpt lat="39.9128727467" lon="3.104729939815">
        <ele>74.6</ele>
        <time>2015-06-21T13:02:17Z</time>
      </trkpt>
      <trkpt lat="39.912818851083" lon="3.10467839113">
        <ele>70.4</ele>
        <time>2015-06-21T13:02:18Z</time>
      </trkpt>
      <trkpt lat="39.912764117276" lon="3.104625668979">
        <ele>65.8</ele>
        <time>2015-06-21T13:02:19Z</time>
      </trkpt>
      <trkpt lat="39.912708796736" lon="3.104575209941">
        <ele>57.8</ele>
        <time>2015-06-21T13:02:20Z</time>
      </trkpt>
      <trkpt lat="39.912660014078" lon="3.10453254607">
        <ele>55.6</ele>
        <time>2015-06-21T13:02:21Z</time>
      </trkpt>
      <trkpt lat="39.912601843692" lon="3.104487032353">
        <ele>53.8</ele>
        <time>2015-06-21T13:02:22Z</time>
      </trkpt>
      <trkpt lat="39.912543589487" lon="3.104451576916">
        <ele>49</ele>
        <time>2015-06-21T13:02:23Z</time>
      </trkpt>
      <trkpt lat="39.912484161816" lon="3.104423497551">
        <ele>45.8</ele>
        <time>2015-06-21T13:02:24Z</time>
      </trkpt>
      <trkpt lat="39.912426242887" lon="3.104399860593">
        <ele>43.8</ele>
        <time>2015-06-21T13:02:25Z</time>
      </trkpt>
      <trkpt lat="39.91237402365" lon="3.104382007146">
        <ele>37.4</ele>
        <time>2015-06-21T13:02:26Z</time>
      </trkpt>
      <trkpt lat="39.912313757789" lon="3.104363064052">
        <ele>33.8</ele>
        <time>2015-06-21T13:02:27Z</time>
      </trkpt>
      <trkpt lat="39.912258856344" lon="3.104349653012">
        <ele>36.2</ele>
        <time>2015-06-21T13:02:28Z</time>
      </trkpt>
      <trkpt lat="39.912205463641" lon="3.104341690207">
        <ele>27.2</ele>
        <time>2015-06-21T13:02:29Z</time>
      </trkpt>
      <trkpt lat="39.912157016259" lon="3.104336912524">
        <ele>28.2</ele>
        <time>2015-06-21T13:02:30Z</time>
      </trkpt>
      <trkpt lat="39.912113598017" lon="3.104332134841">
        <ele>36.2</ele>
        <time>2015-06-21T13:02:31Z</time>
      </trkpt>
      <trkpt lat="39.91206724611" lon="3.104328698262">
        <ele>42.8</ele>
        <time>2015-06-21T13:02:32Z</time>
      </trkpt>
      <trkpt lat="39.912026342438" lon="3.104324926407">
        <ele>45.4</ele>
        <time>2015-06-21T13:02:33Z</time>
      </trkpt>
      <trkpt lat="39.911981583092" lon="3.104322914751">
        <ele>59.4</ele>
        <time>2015-06-21T13:02:34Z</time>
      </trkpt>
      <trkpt lat="39.911938500126" lon="3.104322244199">
        <ele>61.6</ele>
        <time>2015-06-21T13:02:35Z</time>
      </trkpt>
      <trkpt lat="39.911729287902" lon="3.104318053249">
        <ele>60.8</ele>
        <time>2015-06-21T13:02:40Z</time>
      </trkpt>
      <trkpt lat="39.911634320975" lon="3.104317298878">
        <ele>60.4</ele>
        <time>2015-06-21T13:02:42Z</time>
      </trkpt>
      <trkpt lat="39.911479758739" lon="3.1042785745">
        <ele>59.8</ele>
        <time>2015-06-21T13:02:46Z</time>
      </trkpt>
      <trkpt lat="39.911489146467" lon="3.104132226526">
        <ele>59</ele>
        <time>2015-06-21T13:02:49Z</time>
      </trkpt>
      <trkpt lat="39.911631135853" lon="3.104088556827">
        <ele>58</ele>
        <time>2015-06-21T13:02:52Z</time>
      </trkpt>
      <trkpt lat="39.91168167871" lon="3.104086126076">
        <ele>57.6</ele>
        <time>2015-06-21T13:02:53Z</time>
      </trkpt>
      <trkpt lat="39.911836827679" lon="3.104076989805">
        <ele>56.8</ele>
        <time>2015-06-21T13:02:56Z</time>
      </trkpt>
      <trkpt lat="39.912080405693" lon="3.104064333136">
        <ele>55.6</ele>
        <time>2015-06-21T13:03:00Z</time>
      </trkpt>
      <trkpt lat="39.912332617064" lon="3.104072212122">
        <ele>54.4</ele>
        <time>2015-06-21T13:03:04Z</time>
      </trkpt>
      <trkpt lat="39.912524311117" lon="3.104105572084">
        <ele>53.6</ele>
        <time>2015-06-21T13:03:07Z</time>
      </trkpt>
      <trkpt lat="39.912588851747" lon="3.104119486038">
        <ele>53.4</ele>
        <time>2015-06-21T13:03:08Z</time>
      </trkpt>
      <trkpt lat="39.912852043407" lon="3.104183272297">
        <ele>52.4</ele>
        <time>2015-06-21T13:03:12Z</time>
      </trkpt>
      <trkpt lat="39.913185475389" lon="3.10426600165">
        <ele>51.2</ele>
        <time>2015-06-21T13:03:17Z</time>
      </trkpt>
      <trkpt lat="39.913440033692" lon="3.104331715746">
        <ele>49.6</ele>
        <time>2015-06-21T13:03:21Z</time>
      </trkpt>
      <trkpt lat="39.913717558401" lon="3.104403632448">
        <ele>48.6</ele>
        <time>2015-06-21T13:03:25Z</time>
      </trkpt>
      <trkpt lat="39.913780087375" lon="3.10442022861">
        <ele>48.2</ele>
        <time>2015-06-21T13:03:26Z</time>
      </trkpt>
      <trkpt lat="39.913928782281" lon="3.10445627078">
        <ele>46.8</ele>
        <time>2015-06-21T13:03:28Z</time>
      </trkpt>
      <trkpt lat="39.914216700546" lon="3.104532881346">
        <ele>45.6</ele>
        <time>2015-06-21T13:03:32Z</time>
      </trkpt>
      <trkpt lat="39.914282163185" lon="3.104550567155">
        <ele>45.2</ele>
        <time>2015-06-21T13:03:33Z</time>
      </trkpt>
      <trkpt lat="39.914353912249" lon="3.104567330955">
        <ele>44.4</ele>
        <time>2015-06-21T13:03:34Z</time>
      </trkpt>
      <trkpt lat="39.914560442265" lon="3.104619634011">
        <ele>43.2</ele>
        <time>2015-06-21T13:03:37Z</time>
      </trkpt>
      <trkpt lat="39.914675022838" lon="3.10465576">
        <ele>42.8</ele>
        <time>2015-06-21T13:03:39Z</time>
      </trkpt>
      <trkpt lat="39.914784574271" lon="3.10463648163">
        <ele>42</ele>
        <time>2015-06-21T13:03:41Z</time>
      </trkpt>
      <trkpt lat="39.914832770196" lon="3.104585016764">
        <ele>41.8</ele>
        <time>2015-06-21T13:03:42Z</time>
      </trkpt>
      <trkpt lat="39.914857161525" lon="3.104358956921">
        <ele>42</ele>
        <time>2015-06-21T13:03:45Z</time>
      </trkpt>
      <trkpt lat="39.914746604264" lon="3.104214201508">
        <ele>42</ele>
        <time>2015-06-21T13:03:47Z</time>
      </trkpt>
      <trkpt lat="39.914586509974" lon="3.104095094709">
        <ele>40.6</ele>
        <time>2015-06-21T13:03:49Z</time>
      </trkpt>
      <trkpt lat="39.91441250173" lon="3.103973221883">
        <ele>38.2</ele>
        <time>2015-06-21T13:03:51Z</time>
      </trkpt>
      <trkpt lat="39.914302195926" lon="3.103896946593">
        <ele>36.8</ele>
        <time>2015-06-21T13:03:52Z</time>
      </trkpt>
      <trkpt lat="39.914201026393" lon="3.103826957728">
        <ele>35.6</ele>
        <time>2015-06-21T13:03:53Z</time>
      </trkpt>
      <trkpt lat="39.914097258471" lon="3.103752861732">
        <ele>34.4</ele>
        <time>2015-06-21T13:03:54Z</time>
      </trkpt>
      <trkpt lat="39.913907995169" lon="3.103619086608">
        <ele>33.2</ele>
        <time>2015-06-21T13:03:56Z</time>
      </trkpt>
      <trkpt lat="39.913797940822" lon="3.103542224585">
        <ele>32.6</ele>
        <time>2015-06-21T13:03:57Z</time>
      </trkpt>
      <trkpt lat="39.913698028574" lon="3.103471816625">
        <ele>31.8</ele>
        <time>2015-06-21T13:03:58Z</time>
      </trkpt>
      <trkpt lat="39.913515554611" lon="3.103346004306">
        <ele>30.6</ele>
        <time>2015-06-21T13:04:00Z</time>
      </trkpt>
      <trkpt lat="39.913333164467" lon="3.103216252494">
        <ele>29.2</ele>
        <time>2015-06-21T13:04:02Z</time>
      </trkpt>
      <trkpt lat="39.913155971101" lon="3.103091865098">
        <ele>28</ele>
        <time>2015-06-21T13:04:04Z</time>
      </trkpt>
      <trkpt lat="39.912983723056" lon="3.10296932172">
        <ele>26.6</ele>
        <time>2015-06-21T13:04:06Z</time>
      </trkpt>
      <trkpt lat="39.912811475011" lon="3.10284862236">
        <ele>25.6</ele>
        <time>2015-06-21T13:04:08Z</time>
      </trkpt>
      <trkpt lat="39.912590947222" lon="3.102670758442">
        <ele>25</ele>
        <time>2015-06-21T13:04:11Z</time>
      </trkpt>
      <trkpt lat="39.912514085199" lon="3.102597919731">
        <ele>24.4</ele>
        <time>2015-06-21T13:04:12Z</time>
      </trkpt>
      <trkpt lat="39.912386093586" lon="3.102446458798">
        <ele>23</ele>
        <time>2015-06-21T13:04:14Z</time>
      </trkpt>
      <trkpt lat="39.912335550729" lon="3.102361131056">
        <ele>22.6</ele>
        <time>2015-06-21T13:04:15Z</time>
      </trkpt>
      <trkpt lat="39.912262879656" lon="3.102146386778">
        <ele>21.6</ele>
        <time>2015-06-21T13:04:17Z</time>
      </trkpt>
      <trkpt lat="39.912247289322" lon="3.102034320775">
        <ele>21</ele>
        <time>2015-06-21T13:04:18Z</time>
      </trkpt>
      <trkpt lat="39.912246199675" lon="3.101919824021">
        <ele>20.4</ele>
        <time>2015-06-21T13:04:19Z</time>
      </trkpt>
      <trkpt lat="39.912273692307" lon="3.10171203672">
        <ele>19.2</ele>
        <time>2015-06-21T13:04:21Z</time>
      </trkpt>
      <trkpt lat="39.912294647057" lon="3.101592846102">
        <ele>18.8</ele>
        <time>2015-06-21T13:04:22Z</time>
      </trkpt>
      <trkpt lat="39.912406461603" lon="3.101118430562">
        <ele>19.2</ele>
        <time>2015-06-21T13:04:27Z</time>
      </trkpt>
      <trkpt lat="39.912522970013" lon="3.100639824072">
        <ele>20.2</ele>
        <time>2015-06-21T13:04:33Z</time>
      </trkpt>
      <trkpt lat="39.912655739309" lon="3.100109082164">
        <ele>20.4</ele>
        <time>2015-06-21T13:04:41Z</time>
      </trkpt>
      <trkpt lat="39.912775432841" lon="3.099837508604">
        <ele>20</ele>
        <time>2015-06-21T13:04:46Z</time>
      </trkpt>
      <trkpt lat="39.912807116423" lon="3.099793671267">
        <ele>19.6</ele>
        <time>2015-06-21T13:04:47Z</time>
      </trkpt>
      <trkpt lat="39.912868723388" lon="3.099721670746">
        <ele>19.2</ele>
        <time>2015-06-21T13:04:49Z</time>
      </trkpt>
      <trkpt lat="39.912947764705" lon="3.099546908131">
        <ele>19.8</ele>
        <time>2015-06-21T13:04:53Z</time>
      </trkpt>
      <trkpt lat="39.912952877664" lon="3.09949418598">
        <ele>20.2</ele>
        <time>2015-06-21T13:04:54Z</time>
      </trkpt>
      <trkpt lat="39.912962013935" lon="3.099336857717">
        <ele>19.8</ele>
        <time>2015-06-21T13:04:57Z</time>
      </trkpt>
      <trkpt lat="39.912983555418" lon="3.099229150302">
        <ele>19.8</ele>
        <time>2015-06-21T13:04:59Z</time>
      </trkpt>
      <trkpt lat="39.913061087993" lon="3.098935280888">
        <ele>19.2</ele>
        <time>2015-06-21T13:05:04Z</time>
      </trkpt>
      <trkpt lat="39.913094950869" lon="3.098811731682">
        <ele>18.8</ele>
        <time>2015-06-21T13:05:06Z</time>
      </trkpt>
      <trkpt lat="39.913241634119" lon="3.098200523534">
        <ele>19.2</ele>
        <time>2015-06-21T13:05:15Z</time>
      </trkpt>
      <trkpt lat="39.913250686571" lon="3.09813045085">
        <ele>19.2</ele>
        <time>2015-06-21T13:05:16Z</time>
      </trkpt>
      <trkpt lat="39.913276670461" lon="3.097988545283">
        <ele>19.2</ele>
        <time>2015-06-21T13:05:18Z</time>
      </trkpt>
      <trkpt lat="39.913292596071" lon="3.097922412092">
        <ele>19.4</ele>
        <time>2015-06-21T13:05:19Z</time>
      </trkpt>
      <trkpt lat="39.913412289603" lon="3.097367614131">
        <ele>19.4</ele>
        <time>2015-06-21T13:05:27Z</time>
      </trkpt>
      <trkpt lat="39.913541370863" lon="3.096858665163">
        <ele>19.4</ele>
        <time>2015-06-21T13:05:34Z</time>
      </trkpt>
      <trkpt lat="39.913681935326" lon="3.096221724582">
        <ele>20.2</ele>
        <time>2015-06-21T13:05:42Z</time>
      </trkpt>
      <trkpt lat="39.913800539211" lon="3.095515549507">
        <ele>20.8</ele>
        <time>2015-06-21T13:05:51Z</time>
      </trkpt>
      <trkpt lat="39.913859547787" lon="3.09488414098">
        <ele>20</ele>
        <time>2015-06-21T13:05:58Z</time>
      </trkpt>
      <trkpt lat="39.91388025108" lon="3.094355829823">
        <ele>19.2</ele>
        <time>2015-06-21T13:06:04Z</time>
      </trkpt>
      <trkpt lat="39.913882933288" lon="3.094259270335">
        <ele>19.2</ele>
        <time>2015-06-21T13:06:05Z</time>
      </trkpt>
      <trkpt lat="39.913865582755" lon="3.093777311085">
        <ele>19</ele>
        <time>2015-06-21T13:06:10Z</time>
      </trkpt>
      <trkpt lat="39.913827109834" lon="3.092993351978">
        <ele>19</ele>
        <time>2015-06-21T13:06:18Z</time>
      </trkpt>
      <trkpt lat="39.913800874487" lon="3.092374264844">
        <ele>20</ele>
        <time>2015-06-21T13:06:25Z</time>
      </trkpt>
      <trkpt lat="39.913796767356" lon="3.09229916302">
        <ele>20.6</ele>
        <time>2015-06-21T13:06:26Z</time>
      </trkpt>
      <trkpt lat="39.91378805018" lon="3.092045359088">
        <ele>21.6</ele>
        <time>2015-06-21T13:06:29Z</time>
      </trkpt>
      <trkpt lat="39.913778327176" lon="3.091732378942">
        <ele>22.2</ele>
        <time>2015-06-21T13:06:33Z</time>
      </trkpt>
      <trkpt lat="39.913764916136" lon="3.091496344638">
        <ele>22.6</ele>
        <time>2015-06-21T13:06:36Z</time>
      </trkpt>
      <trkpt lat="39.913743709929" lon="3.091104574632">
        <ele>23</ele>
        <time>2015-06-21T13:06:41Z</time>
      </trkpt>
      <trkpt lat="39.913708338311" lon="3.090472914648">
        <ele>23</ele>
        <time>2015-06-21T13:06:49Z</time>
      </trkpt>
      <trkpt lat="39.913657795454" lon="3.08970496497">
        <ele>22.2</ele>
        <time>2015-06-21T13:06:58Z</time>
      </trkpt>
      <trkpt lat="39.913651173753" lon="3.08961192588">
        <ele>22</ele>
        <time>2015-06-21T13:06:59Z</time>
      </trkpt>
      <trkpt lat="39.913637427437" lon="3.089330964592">
        <ele>21.2</ele>
        <time>2015-06-21T13:07:02Z</time>
      </trkpt>
      <trkpt lat="39.913619490171" lon="3.089053523702">
        <ele>20.4</ele>
        <time>2015-06-21T13:07:05Z</time>
      </trkpt>
      <trkpt lat="39.913598703059" lon="3.088462348295">
        <ele>21.6</ele>
        <time>2015-06-21T13:07:12Z</time>
      </trkpt>
      <trkpt lat="39.913586465485" lon="3.088163365922">
        <ele>19.8</ele>
        <time>2015-06-21T13:07:16Z</time>
      </trkpt>
      <trkpt lat="39.913578083585" lon="3.088025818943">
        <ele>20.2</ele>
        <time>2015-06-21T13:07:18Z</time>
      </trkpt>
      <trkpt lat="39.913565007821" lon="3.087837310012">
        <ele>21</ele>
        <time>2015-06-21T13:07:21Z</time>
      </trkpt>
      <trkpt lat="39.913558805215" lon="3.087515445052">
        <ele>20.8</ele>
        <time>2015-06-21T13:07:26Z</time>
      </trkpt>
      <trkpt lat="39.913501473019" lon="3.086971962656">
        <ele>20.6</ele>
        <time>2015-06-21T13:07:34Z</time>
      </trkpt>
      <trkpt lat="39.913424610996" lon="3.086535684761">
        <ele>19.8</ele>
        <time>2015-06-21T13:07:40Z</time>
      </trkpt>
      <trkpt lat="39.913412038146" lon="3.086466953181">
        <ele>19.6</ele>
        <time>2015-06-21T13:07:41Z</time>
      </trkpt>
      <trkpt lat="39.913284214171" lon="3.085929086658">
        <ele>20.6</ele>
        <time>2015-06-21T13:07:48Z</time>
      </trkpt>
      <trkpt lat="39.91311414542" lon="3.085357692535">
        <ele>19</ele>
        <time>2015-06-21T13:07:56Z</time>
      </trkpt>
      <trkpt lat="39.912887498844" lon="3.084779173797">
        <ele>19.6</ele>
        <time>2015-06-21T13:08:04Z</time>
      </trkpt>
      <trkpt lat="39.912807284061" lon="3.084558646008">
        <ele>20.2</ele>
        <time>2015-06-21T13:08:07Z</time>
      </trkpt>
      <trkpt lat="39.912799069799" lon="3.084411208387">
        <ele>20</ele>
        <time>2015-06-21T13:08:09Z</time>
      </trkpt>
      <trkpt lat="39.912796555229" lon="3.084190177684">
        <ele>19.6</ele>
        <time>2015-06-21T13:08:12Z</time>
      </trkpt>
      <trkpt lat="39.912754645729" lon="3.084055732008">
        <ele>19.6</ele>
        <time>2015-06-21T13:08:14Z</time>
      </trkpt>
      <trkpt lat="39.912624139546" lon="3.083908126749">
        <ele>20.4</ele>
        <time>2015-06-21T13:08:17Z</time>
      </trkpt>
      <trkpt lat="39.91256932192" lon="3.083870240561">
        <ele>20.4</ele>
        <time>2015-06-21T13:08:18Z</time>
      </trkpt>
      <trkpt lat="39.912467984749" lon="3.083767310829">
        <ele>20.2</ele>
        <time>2015-06-21T13:08:20Z</time>
      </trkpt>
      <trkpt lat="39.912431355846" lon="3.083709559538">
        <ele>20</ele>
        <time>2015-06-21T13:08:21Z</time>
      </trkpt>
      <trkpt lat="39.912179982665" lon="3.083221146225">
        <ele>19</ele>
        <time>2015-06-21T13:08:28Z</time>
      </trkpt>
      <trkpt lat="39.912002873118" lon="3.082894587401">
        <ele>18.8</ele>
        <time>2015-06-21T13:08:33Z</time>
      </trkpt>
      <trkpt lat="39.911889214554" lon="3.082693840896">
        <ele>17.6</ele>
        <time>2015-06-21T13:08:36Z</time>
      </trkpt>
      <trkpt lat="39.911549999061" lon="3.082095289417">
        <ele>18.2</ele>
        <time>2015-06-21T13:08:45Z</time>
      </trkpt>
      <trkpt lat="39.911508760113" lon="3.082029491502">
        <ele>18.2</ele>
        <time>2015-06-21T13:08:46Z</time>
      </trkpt>
      <trkpt lat="39.911132999536" lon="3.081438651371">
        <ele>18.4</ele>
        <time>2015-06-21T13:08:55Z</time>
      </trkpt>
      <trkpt lat="39.91109494571" lon="3.081378636967">
        <ele>18.4</ele>
        <time>2015-06-21T13:08:56Z</time>
      </trkpt>
      <trkpt lat="39.910729913965" lon="3.080841776272">
        <ele>18.6</ele>
        <time>2015-06-21T13:09:04Z</time>
      </trkpt>
      <trkpt lat="39.910337473407" lon="3.080312291649">
        <ele>18.2</ele>
        <time>2015-06-21T13:09:12Z</time>
      </trkpt>
      <trkpt lat="39.909929610153" lon="3.079781382103">
        <ele>17.8</ele>
        <time>2015-06-21T13:09:20Z</time>
      </trkpt>
      <trkpt lat="39.909565416598" lon="3.079347954054">
        <ele>17.4</ele>
        <time>2015-06-21T13:09:27Z</time>
      </trkpt>
      <trkpt lat="39.909424181583" lon="3.079144860617">
        <ele>17</ele>
        <time>2015-06-21T13:09:30Z</time>
      </trkpt>
      <trkpt lat="39.909367519939" lon="3.078988622001">
        <ele>16.6</ele>
        <time>2015-06-21T13:09:32Z</time>
      </trkpt>
      <trkpt lat="39.909349331216" lon="3.078915364195">
        <ele>16.6</ele>
        <time>2015-06-21T13:09:33Z</time>
      </trkpt>
      <trkpt lat="39.90932804119" lon="3.078830790824">
        <ele>16.6</ele>
        <time>2015-06-21T13:09:34Z</time>
      </trkpt>
      <trkpt lat="39.90926098599" lon="3.078621410962">
        <ele>16.6</ele>
        <time>2015-06-21T13:09:37Z</time>
      </trkpt>
      <trkpt lat="39.909224776182" lon="3.07856458168">
        <ele>16.4</ele>
        <time>2015-06-21T13:09:38Z</time>
      </trkpt>
      <trkpt lat="39.909057641096" lon="3.07848411544">
        <ele>16.2</ele>
        <time>2015-06-21T13:09:41Z</time>
      </trkpt>
      <trkpt lat="39.908916908995" lon="3.078474476255">
        <ele>16.2</ele>
        <time>2015-06-21T13:09:43Z</time>
      </trkpt>
      <trkpt lat="39.908707110038" lon="3.078438517904">
        <ele>16</ele>
        <time>2015-06-21T13:09:46Z</time>
      </trkpt>
      <trkpt lat="39.908448276966" lon="3.078246237118">
        <ele>15.8</ele>
        <time>2015-06-21T13:09:50Z</time>
      </trkpt>
      <trkpt lat="39.908269826315" lon="3.078079185851">
        <ele>15.4</ele>
        <time>2015-06-21T13:09:53Z</time>
      </trkpt>
      <trkpt lat="39.907968999924" lon="3.077805349178">
        <ele>15.2</ele>
        <time>2015-06-21T13:09:58Z</time>
      </trkpt>
      <trkpt lat="39.907500870809" lon="3.077392456784">
        <ele>14.8</ele>
        <time>2015-06-21T13:10:05Z</time>
      </trkpt>
      <trkpt lat="39.907207839585" lon="3.077146950933">
        <ele>14.4</ele>
        <time>2015-06-21T13:10:09Z</time>
      </trkpt>
      <trkpt lat="39.906903828072" lon="3.076911503362">
        <ele>13.2</ele>
        <time>2015-06-21T13:10:13Z</time>
      </trkpt>
      <trkpt lat="39.906829648257" lon="3.076856518098">
        <ele>13</ele>
        <time>2015-06-21T13:10:14Z</time>
      </trkpt>
      <trkpt lat="39.906324722601" lon="3.076488971783">
        <ele>12.8</ele>
        <time>2015-06-21T13:10:21Z</time>
      </trkpt>
      <trkpt lat="39.906162784293" lon="3.076372463373">
        <ele>13.2</ele>
        <time>2015-06-21T13:10:23Z</time>
      </trkpt>
      <trkpt lat="39.90582524518" lon="3.076143469865">
        <ele>13.2</ele>
        <time>2015-06-21T13:10:28Z</time>
      </trkpt>
      <trkpt lat="39.905351332554" lon="3.075794866644">
        <ele>13.2</ele>
        <time>2015-06-21T13:10:35Z</time>
      </trkpt>
      <trkpt lat="39.904983953877" lon="3.075541062712">
        <ele>13</ele>
        <time>2015-06-21T13:10:41Z</time>
      </trkpt>
      <trkpt lat="39.904885969466" lon="3.075444587043">
        <ele>13.2</ele>
        <time>2015-06-21T13:10:43Z</time>
      </trkpt>
      <trkpt lat="39.904816818791" lon="3.075328916823">
        <ele>13.8</ele>
        <time>2015-06-21T13:10:45Z</time>
      </trkpt>
      <trkpt lat="39.904777088585" lon="3.075173097302">
        <ele>14.4</ele>
        <time>2015-06-21T13:10:47Z</time>
      </trkpt>
      <trkpt lat="39.90472302533" lon="3.075023145111">
        <ele>14.6</ele>
        <time>2015-06-21T13:10:49Z</time>
      </trkpt>
      <trkpt lat="39.904574833338" lon="3.074900685552">
        <ele>14.2</ele>
        <time>2015-06-21T13:10:52Z</time>
      </trkpt>
      <trkpt lat="39.90441121865" lon="3.074902026656">
        <ele>14</ele>
        <time>2015-06-21T13:10:55Z</time>
      </trkpt>
      <trkpt lat="39.904274509861" lon="3.075009398795">
        <ele>13.8</ele>
        <time>2015-06-21T13:10:58Z</time>
      </trkpt>
      <trkpt lat="39.904233438551" lon="3.07505843291">
        <ele>13.8</ele>
        <time>2015-06-21T13:10:59Z</time>
      </trkpt>
      <trkpt lat="39.904141489108" lon="3.075136552218">
        <ele>13.6</ele>
        <time>2015-06-21T13:11:01Z</time>
      </trkpt>
      <trkpt lat="39.904029506924" lon="3.075148035421">
        <ele>13.6</ele>
        <time>2015-06-21T13:11:03Z</time>
      </trkpt>
      <trkpt lat="39.903914507256" lon="3.0751095625">
        <ele>14</ele>
        <time>2015-06-21T13:11:05Z</time>
      </trkpt>
      <trkpt lat="39.903742845944" lon="3.075041333834">
        <ele>14.4</ele>
        <time>2015-06-21T13:11:08Z</time>
      </trkpt>
      <trkpt lat="39.90319249039" lon="3.074812256507">
        <ele>15</ele>
        <time>2015-06-21T13:11:17Z</time>
      </trkpt>
      <trkpt lat="39.902944553788" lon="3.074709662051">
        <ele>15.4</ele>
        <time>2015-06-21T13:11:21Z</time>
      </trkpt>
      <trkpt lat="39.902498133794" lon="3.074538419834">
        <ele>15.6</ele>
        <time>2015-06-21T13:11:28Z</time>
      </trkpt>
      <trkpt lat="39.901925650024" lon="3.074330716352">
        <ele>16</ele>
        <time>2015-06-21T13:11:37Z</time>
      </trkpt>
      <trkpt lat="39.901543435384" lon="3.074198198513">
        <ele>16.6</ele>
        <time>2015-06-21T13:11:43Z</time>
      </trkpt>
      <trkpt lat="39.90127471167" lon="3.074109182735">
        <ele>16.8</ele>
        <time>2015-06-21T13:11:47Z</time>
      </trkpt>
      <trkpt lat="39.900741706649" lon="3.073942718201">
        <ele>16.4</ele>
        <time>2015-06-21T13:11:55Z</time>
      </trkpt>
      <trkpt lat="39.900335603594" lon="3.073828305266">
        <ele>16.4</ele>
        <time>2015-06-21T13:12:01Z</time>
      </trkpt>
      <trkpt lat="39.900131923424" lon="3.073758819315">
        <ele>15.6</ele>
        <time>2015-06-21T13:12:04Z</time>
      </trkpt>
      <trkpt lat="39.900068640079" lon="3.073719172928">
        <ele>15.6</ele>
        <time>2015-06-21T13:12:05Z</time>
      </trkpt>
      <trkpt lat="39.900015163557" lon="3.07366955208">
        <ele>15.4</ele>
        <time>2015-06-21T13:12:06Z</time>
      </trkpt>
      <trkpt lat="39.899855488362" lon="3.073499650967">
        <ele>15.8</ele>
        <time>2015-06-21T13:12:09Z</time>
      </trkpt>
      <trkpt lat="39.899667985259" lon="3.073516582405">
        <ele>15.2</ele>
        <time>2015-06-21T13:12:12Z</time>
      </trkpt>
      <trkpt lat="39.89948769059" lon="3.073580033388">
        <ele>15</ele>
        <time>2015-06-21T13:12:15Z</time>
      </trkpt>
      <trkpt lat="39.899372439465" lon="3.073557988991">
        <ele>15.2</ele>
        <time>2015-06-21T13:12:17Z</time>
      </trkpt>
      <trkpt lat="39.898994164318" lon="3.073507613772">
        <ele>15</ele>
        <time>2015-06-21T13:12:23Z</time>
      </trkpt>
      <trkpt lat="39.89858579815" lon="3.07348431209">
        <ele>14.8</ele>
        <time>2015-06-21T13:12:29Z</time>
      </trkpt>
      <trkpt lat="39.898230237952" lon="3.073465368996">
        <ele>14.4</ele>
        <time>2015-06-21T13:12:34Z</time>
      </trkpt>
      <trkpt lat="39.898087745652" lon="3.073461513322">
        <ele>13.8</ele>
        <time>2015-06-21T13:12:36Z</time>
      </trkpt>
      <trkpt lat="39.897725312296" lon="3.07345665182">
        <ele>14.2</ele>
        <time>2015-06-21T13:12:41Z</time>
      </trkpt>
      <trkpt lat="39.897232372757" lon="3.073467883566">
        <ele>14.4</ele>
        <time>2015-06-21T13:12:48Z</time>
      </trkpt>
      <trkpt lat="39.896690482922" lon="3.073498896596">
        <ele>14.2</ele>
        <time>2015-06-21T13:12:56Z</time>
      </trkpt>
      <trkpt lat="39.896625104102" lon="3.073504763926">
        <ele>14.2</ele>
        <time>2015-06-21T13:12:57Z</time>
      </trkpt>
      <trkpt lat="39.896302652409" lon="3.073506524125">
        <ele>14.6</ele>
        <time>2015-06-21T13:13:02Z</time>
      </trkpt>
      <trkpt lat="39.896246745136" lon="3.073487497212">
        <ele>14.8</ele>
        <time>2015-06-21T13:13:03Z</time>
      </trkpt>
      <trkpt lat="39.8960754191" lon="3.073386746774">
        <ele>15.2</ele>
        <time>2015-06-21T13:13:06Z</time>
      </trkpt>
      <trkpt lat="39.896010124099" lon="3.073375431209">
        <ele>15.2</ele>
        <time>2015-06-21T13:13:07Z</time>
      </trkpt>
      <trkpt lat="39.89588682635" lon="3.073411557198">
        <ele>15.4</ele>
        <time>2015-06-21T13:13:09Z</time>
      </trkpt>
      <trkpt lat="39.895825973756" lon="3.07345749001">
        <ele>15.6</ele>
        <time>2015-06-21T13:13:10Z</time>
      </trkpt>
      <trkpt lat="39.895580300267" lon="3.073567795814">
        <ele>14.4</ele>
        <time>2015-06-21T13:13:14Z</time>
      </trkpt>
      <trkpt lat="39.895510562859" lon="3.073569472194">
        <ele>14</ele>
        <time>2015-06-21T13:13:15Z</time>
      </trkpt>
      <trkpt lat="39.895431270085" lon="3.073572070583">
        <ele>13.6</ele>
        <time>2015-06-21T13:13:16Z</time>
      </trkpt>
      <trkpt lat="39.895182662931" lon="3.073577099723">
        <ele>13.4</ele>
        <time>2015-06-21T13:13:19Z</time>
      </trkpt>
      <trkpt lat="39.894633564662" lon="3.073590259306">
        <ele>14</ele>
        <time>2015-06-21T13:13:26Z</time>
      </trkpt>
      <trkpt lat="39.894557876105" lon="3.073587912374">
        <ele>14</ele>
        <time>2015-06-21T13:13:27Z</time>
      </trkpt>
      <trkpt lat="39.893970556372" lon="3.07359495317">
        <ele>13.6</ele>
        <time>2015-06-21T13:13:35Z</time>
      </trkpt>
      <trkpt lat="39.893369657961" lon="3.073601742509">
        <ele>14.2</ele>
        <time>2015-06-21T13:13:43Z</time>
      </trkpt>
      <trkpt lat="39.893147369973" lon="3.07360417326">
        <ele>14</ele>
        <time>2015-06-21T13:13:46Z</time>
      </trkpt>
      <trkpt lat="39.892543370259" lon="3.073615321187">
        <ele>14.6</ele>
        <time>2015-06-21T13:13:54Z</time>
      </trkpt>
      <trkpt lat="39.892468771349" lon="3.073617249024">
        <ele>14.4</ele>
        <time>2015-06-21T13:13:55Z</time>
      </trkpt>
      <trkpt lat="39.892029392151" lon="3.073622948716">
        <ele>15.2</ele>
        <time>2015-06-21T13:14:01Z</time>
      </trkpt>
      <trkpt lat="39.891950350834" lon="3.073619847413">
        <ele>15.2</ele>
        <time>2015-06-21T13:14:02Z</time>
      </trkpt>
      <trkpt lat="39.891355990305" lon="3.073626888209">
        <ele>15.2</ele>
        <time>2015-06-21T13:14:10Z</time>
      </trkpt>
      <trkpt lat="39.890776046644" lon="3.073607693658">
        <ele>16</ele>
        <time>2015-06-21T13:14:18Z</time>
      </trkpt>
      <trkpt lat="39.890706728331" lon="3.073583889062">
        <ele>16.4</ele>
        <time>2015-06-21T13:14:19Z</time>
      </trkpt>
      <trkpt lat="39.890411685451" lon="3.073398649072">
        <ele>16.4</ele>
        <time>2015-06-21T13:14:24Z</time>
      </trkpt>
      <trkpt lat="39.890252764627" lon="3.073336623012">
        <ele>16.6</ele>
        <time>2015-06-21T13:14:27Z</time>
      </trkpt>
      <trkpt lat="39.890199874838" lon="3.073353386812">
        <ele>17</ele>
        <time>2015-06-21T13:14:28Z</time>
      </trkpt>
      <trkpt lat="39.890039696729" lon="3.073520857174">
        <ele>17</ele>
        <time>2015-06-21T13:14:32Z</time>
      </trkpt>
      <trkpt lat="39.890017903789" lon="3.073583050872">
        <ele>16.8</ele>
        <time>2015-06-21T13:14:33Z</time>
      </trkpt>
      <trkpt lat="39.889967612389" lon="3.073712383589">
        <ele>15.8</ele>
        <time>2015-06-21T13:14:35Z</time>
      </trkpt>
      <trkpt lat="39.889857390404" lon="3.073778432961">
        <ele>16</ele>
        <time>2015-06-21T13:14:37Z</time>
      </trkpt>
      <trkpt lat="39.889716825941" lon="3.073800142082">
        <ele>16.4</ele>
        <time>2015-06-21T13:14:39Z</time>
      </trkpt>
      <trkpt lat="39.889557402203" lon="3.073821935022">
        <ele>16.8</ele>
        <time>2015-06-21T13:14:41Z</time>
      </trkpt>
      <trkpt lat="39.889227574438" lon="3.073871472051">
        <ele>15.2</ele>
        <time>2015-06-21T13:14:45Z</time>
      </trkpt>
      <trkpt lat="39.889060523171" lon="3.073898964683">
        <ele>14.2</ele>
        <time>2015-06-21T13:14:47Z</time>
      </trkpt>
      <trkpt lat="39.888903194908" lon="3.073924529478">
        <ele>13.8</ele>
        <time>2015-06-21T13:14:49Z</time>
      </trkpt>
      <trkpt lat="39.888294082235" lon="3.074011952695">
        <ele>14.2</ele>
        <time>2015-06-21T13:14:57Z</time>
      </trkpt>
      <trkpt lat="39.887741212111" lon="3.07409702898">
        <ele>14.4</ele>
        <time>2015-06-21T13:15:04Z</time>
      </trkpt>
      <trkpt lat="39.887588996807" lon="3.074121252671">
        <ele>14.6</ele>
        <time>2015-06-21T13:15:06Z</time>
      </trkpt>
      <trkpt lat="39.887042413108" lon="3.074203060015">
        <ele>14.8</ele>
        <time>2015-06-21T13:15:13Z</time>
      </trkpt>
      <trkpt lat="39.886967730379" lon="3.074214543218">
        <ele>15</ele>
        <time>2015-06-21T13:15:14Z</time>
      </trkpt>
      <trkpt lat="39.886513431399" lon="3.074282436608">
        <ele>15.4</ele>
        <time>2015-06-21T13:15:20Z</time>
      </trkpt>
      <trkpt lat="39.886146974731" lon="3.074338176243">
        <ele>14.8</ele>
        <time>2015-06-21T13:15:25Z</time>
      </trkpt>
      <trkpt lat="39.88559133858" lon="3.074435741559">
        <ele>15.2</ele>
        <time>2015-06-21T13:15:33Z</time>
      </trkpt>
      <trkpt lat="39.885050370754" lon="3.074626010689">
        <ele>15.6</ele>
        <time>2015-06-21T13:15:41Z</time>
      </trkpt>
      <trkpt lat="39.884594479213" lon="3.074934129333">
        <ele>15.2</ele>
        <time>2015-06-21T13:15:48Z</time>
      </trkpt>
      <trkpt lat="39.884247217096" lon="3.075299580173">
        <ele>14.8</ele>
        <time>2015-06-21T13:15:54Z</time>
      </trkpt>
      <trkpt lat="39.884194662583" lon="3.075365713364">
        <ele>14.2</ele>
        <time>2015-06-21T13:15:55Z</time>
      </trkpt>
      <trkpt lat="39.88395351532" lon="3.075737534448">
        <ele>14</ele>
        <time>2015-06-21T13:16:00Z</time>
      </trkpt>
      <trkpt lat="39.883767101864" lon="3.076145313883">
        <ele>12.8</ele>
        <time>2015-06-21T13:16:05Z</time>
      </trkpt>
      <trkpt lat="39.883703147967" lon="3.076311275503">
        <ele>12.6</ele>
        <time>2015-06-21T13:16:07Z</time>
      </trkpt>
      <trkpt lat="39.883565265712" lon="3.07686054141">
        <ele>13.4</ele>
        <time>2015-06-21T13:16:13Z</time>
      </trkpt>
      <trkpt lat="39.883498210512" lon="3.077528411202">
        <ele>12.2</ele>
        <time>2015-06-21T13:16:20Z</time>
      </trkpt>
      <trkpt lat="39.883492427001" lon="3.077812641431">
        <ele>11.8</ele>
        <time>2015-06-21T13:16:23Z</time>
      </trkpt>
      <trkpt lat="39.883495528304" lon="3.078086478104">
        <ele>10.8</ele>
        <time>2015-06-21T13:16:26Z</time>
      </trkpt>
      <trkpt lat="39.883499467797" lon="3.078374396369">
        <ele>11.2</ele>
        <time>2015-06-21T13:16:29Z</time>
      </trkpt>
      <trkpt lat="39.883502485281" lon="3.079003206507">
        <ele>11</ele>
        <time>2015-06-21T13:16:36Z</time>
      </trkpt>
      <trkpt lat="39.8834774234" lon="3.07908090672">
        <ele>11.4</ele>
        <time>2015-06-21T13:16:37Z</time>
      </trkpt>
      <trkpt lat="39.883355718212" lon="3.079264554149">
        <ele>12</ele>
        <time>2015-06-21T13:16:40Z</time>
      </trkpt>
      <trkpt lat="39.883327806485" lon="3.079472173812">
        <ele>12.6</ele>
        <time>2015-06-21T13:16:43Z</time>
      </trkpt>
      <trkpt lat="39.883331662159" lon="3.079532020578">
        <ele>12.6</ele>
        <time>2015-06-21T13:16:44Z</time>
      </trkpt>
      <trkpt lat="39.883346079027" lon="3.079630004989">
        <ele>12.2</ele>
        <time>2015-06-21T13:16:46Z</time>
      </trkpt>
      <trkpt lat="39.88337432603" lon="3.07966596334">
        <ele>12.4</ele>
        <time>2015-06-21T13:16:47Z</time>
      </trkpt>
      <trkpt lat="39.883451607148" lon="3.079803175043">
        <ele>13</ele>
        <time>2015-06-21T13:16:51Z</time>
      </trkpt>
      <trkpt lat="39.88340785363" lon="3.079866709845">
        <ele>13.2</ele>
        <time>2015-06-21T13:16:53Z</time>
      </trkpt>
      <trkpt lat="39.883386312147" lon="3.079900237445">
        <ele>13.4</ele>
        <time>2015-06-21T13:16:54Z</time>
      </trkpt>
      <trkpt lat="39.883355550574" lon="3.079940219108">
        <ele>13.4</ele>
        <time>2015-06-21T13:16:55Z</time>
      </trkpt>
      <trkpt lat="39.883141225391" lon="3.080148257866">
        <ele>14</ele>
        <time>2015-06-21T13:17:01Z</time>
      </trkpt>
      <trkpt lat="39.882879961568" lon="3.080294019107">
        <ele>13.8</ele>
        <time>2015-06-21T13:17:06Z</time>
      </trkpt>
      <trkpt lat="39.882438151619" lon="3.080458136709">
        <ele>13.4</ele>
        <time>2015-06-21T13:17:12Z</time>
      </trkpt>
      <trkpt lat="39.881894669223" lon="3.080656452463">
        <ele>13.4</ele>
        <time>2015-06-21T13:17:19Z</time>
      </trkpt>
      <trkpt lat="39.881646984078" lon="3.080745132965">
        <ele>13.2</ele>
        <time>2015-06-21T13:17:22Z</time>
      </trkpt>
      <trkpt lat="39.88131321682" lon="3.080871532017">
        <ele>12</ele>
        <time>2015-06-21T13:17:26Z</time>
      </trkpt>
      <trkpt lat="39.880814074675" lon="3.081056017636">
        <ele>11.8</ele>
        <time>2015-06-21T13:17:32Z</time>
      </trkpt>
      <trkpt lat="39.880439152288" lon="3.081205550732">
        <ele>12</ele>
        <time>2015-06-21T13:17:37Z</time>
      </trkpt>
      <trkpt lat="39.880360110971" lon="3.08123170226">
        <ele>12</ele>
        <time>2015-06-21T13:17:38Z</time>
      </trkpt>
      <trkpt lat="39.879813527272" lon="3.081417445164">
        <ele>12.2</ele>
        <time>2015-06-21T13:17:45Z</time>
      </trkpt>
      <trkpt lat="39.879230147032" lon="3.081637218582">
        <ele>12.4</ele>
        <time>2015-06-21T13:17:53Z</time>
      </trkpt>
      <trkpt lat="39.878650119552" lon="3.081894375274">
        <ele>12.4</ele>
        <time>2015-06-21T13:18:01Z</time>
      </trkpt>
      <trkpt lat="39.878435123817" lon="3.082000825404">
        <ele>12.4</ele>
        <time>2015-06-21T13:18:04Z</time>
      </trkpt>
      <trkpt lat="39.877921229528" lon="3.082274913534">
        <ele>12.2</ele>
        <time>2015-06-21T13:18:11Z</time>
      </trkpt>
      <trkpt lat="39.877772366984" lon="3.082351775557">
        <ele>12.4</ele>
        <time>2015-06-21T13:18:13Z</time>
      </trkpt>
      <trkpt lat="39.877233662271" lon="3.082626366601">
        <ele>12.4</ele>
        <time>2015-06-21T13:18:21Z</time>
      </trkpt>
      <trkpt lat="39.877169624555" lon="3.08265830164">
        <ele>12.4</ele>
        <time>2015-06-21T13:18:22Z</time>
      </trkpt>
      <trkpt lat="39.87690936656" lon="3.082784533054">
        <ele>13.2</ele>
        <time>2015-06-21T13:18:26Z</time>
      </trkpt>
      <trkpt lat="39.876575431664" lon="3.082955775271">
        <ele>14</ele>
        <time>2015-06-21T13:18:31Z</time>
      </trkpt>
      <trkpt lat="39.876026417214" lon="3.083246208106">
        <ele>14</ele>
        <time>2015-06-21T13:18:39Z</time>
      </trkpt>
      <trkpt lat="39.875813181678" lon="3.083377720117">
        <ele>14.2</ele>
        <time>2015-06-21T13:18:42Z</time>
      </trkpt>
      <trkpt lat="39.875738079854" lon="3.083417953237">
        <ele>14.2</ele>
        <time>2015-06-21T13:18:43Z</time>
      </trkpt>
      <trkpt lat="39.875295683172" lon="3.083662704717">
        <ele>14.2</ele>
        <time>2015-06-21T13:18:49Z</time>
      </trkpt>
      <trkpt lat="39.874788913498" lon="3.083950287706">
        <ele>14.2</ele>
        <time>2015-06-21T13:18:56Z</time>
      </trkpt>
      <trkpt lat="39.874416505681" lon="3.084166959821">
        <ele>14</ele>
        <time>2015-06-21T13:19:01Z</time>
      </trkpt>
      <trkpt lat="39.873889870904" lon="3.084474994646">
        <ele>13.8</ele>
        <time>2015-06-21T13:19:08Z</time>
      </trkpt>
      <trkpt lat="39.873358290806" lon="3.084793842122">
        <ele>14</ele>
        <time>2015-06-21T13:19:15Z</time>
      </trkpt>
      <trkpt lat="39.873059978985" lon="3.084975394076">
        <ele>14</ele>
        <time>2015-06-21T13:19:19Z</time>
      </trkpt>
      <trkpt lat="39.872504175196" lon="3.085319890166">
        <ele>13.2</ele>
        <time>2015-06-21T13:19:27Z</time>
      </trkpt>
      <trkpt lat="39.872444831344" lon="3.085356602888">
        <ele>13</ele>
        <time>2015-06-21T13:19:28Z</time>
      </trkpt>
      <trkpt lat="39.872256657689" lon="3.085472692203">
        <ele>12</ele>
        <time>2015-06-21T13:19:31Z</time>
      </trkpt>
      <trkpt lat="39.871881567664" lon="3.085694980191">
        <ele>12.2</ele>
        <time>2015-06-21T13:19:37Z</time>
      </trkpt>
      <trkpt lat="39.871390975057" lon="3.085996728591">
        <ele>12</ele>
        <time>2015-06-21T13:19:45Z</time>
      </trkpt>
      <trkpt lat="39.871214452243" lon="3.0861066153">
        <ele>12.2</ele>
        <time>2015-06-21T13:19:48Z</time>
      </trkpt>
      <trkpt lat="39.871004737105" lon="3.086231421791">
        <ele>12.4</ele>
        <time>2015-06-21T13:19:52Z</time>
      </trkpt>
      <trkpt lat="39.870539457836" lon="3.086506515749">
        <ele>12.6</ele>
        <time>2015-06-21T13:20:00Z</time>
      </trkpt>
      <trkpt lat="39.870033610171" lon="3.086861321576">
        <ele>12.4</ele>
        <time>2015-06-21T13:20:09Z</time>
      </trkpt>
      <trkpt lat="39.869979379278" lon="3.086903482533">
        <ele>12.4</ele>
        <time>2015-06-21T13:20:10Z</time>
      </trkpt>
      <trkpt lat="39.869803024102" lon="3.087046142471">
        <ele>13</ele>
        <time>2015-06-21T13:20:13Z</time>
      </trkpt>
      <trkpt lat="39.869634799369" lon="3.087183270355">
        <ele>14.2</ele>
        <time>2015-06-21T13:20:16Z</time>
      </trkpt>
      <trkpt lat="39.869513764733" lon="3.08728259587">
        <ele>14.2</ele>
        <time>2015-06-21T13:20:18Z</time>
      </trkpt>
      <trkpt lat="39.86903960065" lon="3.087669672012">
        <ele>14.2</ele>
        <time>2015-06-21T13:20:26Z</time>
      </trkpt>
      <trkpt lat="39.868916219082" lon="3.087771344459">
        <ele>14.2</ele>
        <time>2015-06-21T13:20:28Z</time>
      </trkpt>
      <trkpt lat="39.868409700865" lon="3.088186583785">
        <ele>14.2</ele>
        <time>2015-06-21T13:20:36Z</time>
      </trkpt>
      <trkpt lat="39.868273662628" lon="3.088298733607">
        <ele>14</ele>
        <time>2015-06-21T13:20:38Z</time>
      </trkpt>
      <trkpt lat="39.867791368102" lon="3.08869410783">
        <ele>14.6</ele>
        <time>2015-06-21T13:20:45Z</time>
      </trkpt>
      <trkpt lat="39.86751409485" lon="3.088923604252">
        <ele>13.6</ele>
        <time>2015-06-21T13:20:49Z</time>
      </trkpt>
      <trkpt lat="39.867378140432" lon="3.089034748246">
        <ele>12.8</ele>
        <time>2015-06-21T13:20:51Z</time>
      </trkpt>
      <trkpt lat="39.866891487318" lon="3.089430206288">
        <ele>12.2</ele>
        <time>2015-06-21T13:20:58Z</time>
      </trkpt>
      <trkpt lat="39.866748324466" lon="3.089542439929">
        <ele>11.8</ele>
        <time>2015-06-21T13:21:00Z</time>
      </trkpt>
      <trkpt lat="39.866282123188" lon="3.08996564206">
        <ele>11.8</ele>
        <time>2015-06-21T13:21:07Z</time>
      </trkpt>
      <trkpt lat="39.866217917834" lon="3.090029679776">
        <ele>11.8</ele>
        <time>2015-06-21T13:21:08Z</time>
      </trkpt>
      <trkpt lat="39.866093195162" lon="3.090158258122">
        <ele>11.4</ele>
        <time>2015-06-21T13:21:10Z</time>
      </trkpt>
      <trkpt lat="39.865657504" lon="3.090640887924">
        <ele>12</ele>
        <time>2015-06-21T13:21:17Z</time>
      </trkpt>
      <trkpt lat="39.865596986682" lon="3.090710709151">
        <ele>12.2</ele>
        <time>2015-06-21T13:21:18Z</time>
      </trkpt>
      <trkpt lat="39.865207228332" lon="3.091260980886">
        <ele>12</ele>
        <time>2015-06-21T13:21:25Z</time>
      </trkpt>
      <trkpt lat="39.864848399193" lon="3.091856431062">
        <ele>11.8</ele>
        <time>2015-06-21T13:21:32Z</time>
      </trkpt>
      <trkpt lat="39.864603982989" lon="3.092287009265">
        <ele>12</ele>
        <time>2015-06-21T13:21:37Z</time>
      </trkpt>
      <trkpt lat="39.864272981758" lon="3.092879525776">
        <ele>12</ele>
        <time>2015-06-21T13:21:44Z</time>
      </trkpt>
      <trkpt lat="39.864041306042" lon="3.093290657971">
        <ele>12.4</ele>
        <time>2015-06-21T13:21:49Z</time>
      </trkpt>
      <trkpt lat="39.863660767782" lon="3.093929694027">
        <ele>12.2</ele>
        <time>2015-06-21T13:21:57Z</time>
      </trkpt>
      <trkpt lat="39.86356454357" lon="3.094084926815">
        <ele>12.2</ele>
        <time>2015-06-21T13:21:59Z</time>
      </trkpt>
      <trkpt lat="39.863210743571" lon="3.094610723402">
        <ele>12.6</ele>
        <time>2015-06-21T13:22:06Z</time>
      </trkpt>
      <trkpt lat="39.863050230186" lon="3.094841477109">
        <ele>12.6</ele>
        <time>2015-06-21T13:22:09Z</time>
      </trkpt>
      <trkpt lat="39.862670530116" lon="3.095357466873">
        <ele>12.6</ele>
        <time>2015-06-21T13:22:16Z</time>
      </trkpt>
      <trkpt lat="39.862390826113" lon="3.095740519703">
        <ele>12.4</ele>
        <time>2015-06-21T13:22:21Z</time>
      </trkpt>
      <trkpt lat="39.86200215741" lon="3.096270088145">
        <ele>12.6</ele>
        <time>2015-06-21T13:22:28Z</time>
      </trkpt>
      <trkpt lat="39.861793699557" lon="3.096570411622">
        <ele>12.4</ele>
        <time>2015-06-21T13:22:32Z</time>
      </trkpt>
      <trkpt lat="39.861531681363" lon="3.096918679567">
        <ele>12</ele>
        <time>2015-06-21T13:22:37Z</time>
      </trkpt>
      <trkpt lat="39.861115603847" lon="3.097394687668">
        <ele>12</ele>
        <time>2015-06-21T13:22:45Z</time>
      </trkpt>
      <trkpt lat="39.860762139124" lon="3.09769375386">
        <ele>13</ele>
        <time>2015-06-21T13:22:52Z</time>
      </trkpt>
      <trkpt lat="39.860520153671" lon="3.097899278048">
        <ele>13.4</ele>
        <time>2015-06-21T13:22:57Z</time>
      </trkpt>
      <trkpt lat="39.860409847867" lon="3.097984857247">
        <ele>13.6</ele>
        <time>2015-06-21T13:22:59Z</time>
      </trkpt>
      <trkpt lat="39.860195103589" lon="3.098146795555">
        <ele>14.8</ele>
        <time>2015-06-21T13:23:03Z</time>
      </trkpt>
      <trkpt lat="39.859972480325" lon="3.098313595365">
        <ele>14.8</ele>
        <time>2015-06-21T13:23:07Z</time>
      </trkpt>
      <trkpt lat="39.859579285396" lon="3.09860570458">
        <ele>14.2</ele>
        <time>2015-06-21T13:23:14Z</time>
      </trkpt>
      <trkpt lat="39.859149713021" lon="3.099004347744">
        <ele>14.8</ele>
        <time>2015-06-21T13:23:22Z</time>
      </trkpt>
      <trkpt lat="39.858856933254" lon="3.09948915684">
        <ele>15.2</ele>
        <time>2015-06-21T13:23:29Z</time>
      </trkpt>
      <trkpt lat="39.858705220864" lon="3.099943036725">
        <ele>15</ele>
        <time>2015-06-21T13:23:35Z</time>
      </trkpt>
      <trkpt lat="39.858596926716" lon="3.100606547929">
        <ele>15.2</ele>
        <time>2015-06-21T13:23:43Z</time>
      </trkpt>
      <trkpt lat="39.858528446593" lon="3.101097559631">
        <ele>13.6</ele>
        <time>2015-06-21T13:23:50Z</time>
      </trkpt>
      <trkpt lat="39.858511263698" lon="3.101205350865">
        <ele>12.4</ele>
        <time>2015-06-21T13:23:52Z</time>
      </trkpt>
      <trkpt lat="39.85843565896" lon="3.101578010139">
        <ele>12.2</ele>
        <time>2015-06-21T13:23:58Z</time>
      </trkpt>
      <trkpt lat="39.858279168887" lon="3.102123168915">
        <ele>12</ele>
        <time>2015-06-21T13:24:06Z</time>
      </trkpt>
      <trkpt lat="39.858104909186" lon="3.102712332666">
        <ele>11.4</ele>
        <time>2015-06-21T13:24:15Z</time>
      </trkpt>
      <trkpt lat="39.858089570309" lon="3.10276396517">
        <ele>11.2</ele>
        <time>2015-06-21T13:24:16Z</time>
      </trkpt>
      <trkpt lat="39.857997034133" lon="3.103086249225">
        <ele>11.4</ele>
        <time>2015-06-21T13:24:22Z</time>
      </trkpt>
      <trkpt lat="39.857944395801" lon="3.103252797578">
        <ele>12.4</ele>
        <time>2015-06-21T13:24:25Z</time>
      </trkpt>
      <trkpt lat="39.857857559317" lon="3.10354348187">
        <ele>13.4</ele>
        <time>2015-06-21T13:24:30Z</time>
      </trkpt>
      <trkpt lat="39.857839202956" lon="3.103598299496">
        <ele>13.8</ele>
        <time>2015-06-21T13:24:31Z</time>
      </trkpt>
      <trkpt lat="39.85763267294" lon="3.104118731667">
        <ele>14.4</ele>
        <time>2015-06-21T13:24:40Z</time>
      </trkpt>
      <trkpt lat="39.857607778697" lon="3.10417631532">
        <ele>14.6</ele>
        <time>2015-06-21T13:24:41Z</time>
      </trkpt>
      <trkpt lat="39.857381132121" lon="3.104693227093">
        <ele>14.6</ele>
        <time>2015-06-21T13:24:49Z</time>
      </trkpt>
      <trkpt lat="39.857082987938" lon="3.105367970043">
        <ele>14</ele>
        <time>2015-06-21T13:24:59Z</time>
      </trkpt>
      <trkpt lat="39.857023979362" lon="3.105504175918">
        <ele>13.8</ele>
        <time>2015-06-21T13:25:01Z</time>
      </trkpt>
      <trkpt lat="39.856747711938" lon="3.106139188662">
        <ele>14.4</ele>
        <time>2015-06-21T13:25:10Z</time>
      </trkpt>
      <trkpt lat="39.856682584575" lon="3.106289308491">
        <ele>14.6</ele>
        <time>2015-06-21T13:25:12Z</time>
      </trkpt>
      <trkpt lat="39.856399863088" lon="3.106945862718">
        <ele>14.2</ele>
        <time>2015-06-21T13:25:21Z</time>
      </trkpt>
      <trkpt lat="39.856333813716" lon="3.107093551796">
        <ele>14</ele>
        <time>2015-06-21T13:25:23Z</time>
      </trkpt>
      <trkpt lat="39.856054947903" lon="3.107727474893">
        <ele>14.6</ele>
        <time>2015-06-21T13:25:32Z</time>
      </trkpt>
      <trkpt lat="39.856026617081" lon="3.107791764066">
        <ele>14.6</ele>
        <time>2015-06-21T13:25:33Z</time>
      </trkpt>
      <trkpt lat="39.855791672424" lon="3.108318734119">
        <ele>13.4</ele>
        <time>2015-06-21T13:25:41Z</time>
      </trkpt>
      <trkpt lat="39.855729814002" lon="3.108460639686">
        <ele>13.6</ele>
        <time>2015-06-21T13:25:43Z</time>
      </trkpt>
      <trkpt lat="39.855464610686" lon="3.109080900286">
        <ele>12.4</ele>
        <time>2015-06-21T13:25:52Z</time>
      </trkpt>
      <trkpt lat="39.855432675647" lon="3.109154912463">
        <ele>12.2</ele>
        <time>2015-06-21T13:25:53Z</time>
      </trkpt>
      <trkpt lat="39.855341480575" lon="3.109359766099">
        <ele>12.6</ele>
        <time>2015-06-21T13:25:56Z</time>
      </trkpt>
      <trkpt lat="39.85525053696" lon="3.10957006797">
        <ele>13.4</ele>
        <time>2015-06-21T13:25:59Z</time>
      </trkpt>
      <trkpt lat="39.855048952265" lon="3.110040460198">
        <ele>13.8</ele>
        <time>2015-06-21T13:26:06Z</time>
      </trkpt>
      <trkpt lat="39.854772265746" lon="3.110662313359">
        <ele>13.4</ele>
        <time>2015-06-21T13:26:15Z</time>
      </trkpt>
      <trkpt lat="39.854677801733" lon="3.110870435936">
        <ele>13.4</ele>
        <time>2015-06-21T13:26:18Z</time>
      </trkpt>
      <trkpt lat="39.854384519052" lon="3.111485248301">
        <ele>14.2</ele>
        <time>2015-06-21T13:26:27Z</time>
      </trkpt>
      <trkpt lat="39.854314194911" lon="3.111618101416">
        <ele>14.6</ele>
        <time>2015-06-21T13:26:29Z</time>
      </trkpt>
      <trkpt lat="39.853990905028" lon="3.112188992625">
        <ele>15.4</ele>
        <time>2015-06-21T13:26:38Z</time>
      </trkpt>
      <trkpt lat="39.853917144308" lon="3.112303489379">
        <ele>15.6</ele>
        <time>2015-06-21T13:26:40Z</time>
      </trkpt>
      <trkpt lat="39.853637524124" lon="3.112729708994">
        <ele>16.4</ele>
        <time>2015-06-21T13:26:48Z</time>
      </trkpt>
      <trkpt lat="39.853454211971" lon="3.112990637541">
        <ele>16</ele>
        <time>2015-06-21T13:26:54Z</time>
      </trkpt>
      <trkpt lat="39.853275258406" lon="3.113267743155">
        <ele>16</ele>
        <time>2015-06-21T13:27:01Z</time>
      </trkpt>
      <trkpt lat="39.853211723604" lon="3.113356256019">
        <ele>15.8</ele>
        <time>2015-06-21T13:27:03Z</time>
      </trkpt>
      <trkpt lat="39.853092449167" lon="3.113526073313">
        <ele>16.2</ele>
        <time>2015-06-21T13:27:07Z</time>
      </trkpt>
      <trkpt lat="39.852998236611" lon="3.113662614464">
        <ele>16.6</ele>
        <time>2015-06-21T13:27:10Z</time>
      </trkpt>
      <trkpt lat="39.852847362411" lon="3.113879621855">
        <ele>17</ele>
        <time>2015-06-21T13:27:14Z</time>
      </trkpt>
      <trkpt lat="39.852539411405" lon="3.114338195604">
        <ele>16.6</ele>
        <time>2015-06-21T13:27:22Z</time>
      </trkpt>
      <trkpt lat="39.852292899726" lon="3.114699623132">
        <ele>17.2</ele>
        <time>2015-06-21T13:27:29Z</time>
      </trkpt>
      <trkpt lat="39.852172200366" lon="3.114868015503">
        <ele>17.8</ele>
        <time>2015-06-21T13:27:33Z</time>
      </trkpt>
      <trkpt lat="39.852153508729" lon="3.114901626922">
        <ele>18</ele>
        <time>2015-06-21T13:27:34Z</time>
      </trkpt>
      <trkpt lat="39.852049154074" lon="3.115055350968">
        <ele>17.4</ele>
        <time>2015-06-21T13:27:40Z</time>
      </trkpt>
      <trkpt lat="39.852044963124" lon="3.115080245211">
        <ele>17.4</ele>
        <time>2015-06-21T13:27:41Z</time>
      </trkpt>
      <trkpt lat="39.851999617045" lon="3.115163561297">
        <ele>18</ele>
        <time>2015-06-21T13:27:44Z</time>
      </trkpt>
      <trkpt lat="39.851901464996" lon="3.11529742024">
        <ele>18.6</ele>
        <time>2015-06-21T13:27:48Z</time>
      </trkpt>
      <trkpt lat="39.851848659026" lon="3.115369169304">
        <ele>18.8</ele>
        <time>2015-06-21T13:27:50Z</time>
      </trkpt>
      <trkpt lat="39.851743466181" lon="3.115632109507">
        <ele>18.4</ele>
        <time>2015-06-21T13:27:56Z</time>
      </trkpt>
      <trkpt lat="39.851743047086" lon="3.115872334761">
        <ele>17.6</ele>
        <time>2015-06-21T13:28:01Z</time>
      </trkpt>
      <trkpt lat="39.851868943224" lon="3.116127731254">
        <ele>19</ele>
        <time>2015-06-21T13:28:08Z</time>
      </trkpt>
      <trkpt lat="39.851972627327" lon="3.116314479986">
        <ele>19.4</ele>
        <time>2015-06-21T13:28:14Z</time>
      </trkpt>
      <trkpt lat="39.852050662816" lon="3.116426126894">
        <ele>19.4</ele>
        <time>2015-06-21T13:28:19Z</time>
      </trkpt>
      <trkpt lat="39.852067594254" lon="3.116525200952">
        <ele>18.8</ele>
        <time>2015-06-21T13:28:22Z</time>
      </trkpt>
      <trkpt lat="39.852060302001" lon="3.11657146904">
        <ele>19</ele>
        <time>2015-06-21T13:28:23Z</time>
      </trkpt>
      <trkpt lat="39.852097433818" lon="3.116727875294">
        <ele>19.4</ele>
        <time>2015-06-21T13:28:26Z</time>
      </trkpt>
      <trkpt lat="39.852123501527" lon="3.116783698748">
        <ele>19.6</ele>
        <time>2015-06-21T13:28:27Z</time>
      </trkpt>
      <trkpt lat="39.852178402972" lon="3.116884616824">
        <ele>19.8</ele>
        <time>2015-06-21T13:28:29Z</time>
      </trkpt>
      <trkpt lat="39.852288122043" lon="3.117030461884">
        <ele>20</ele>
        <time>2015-06-21T13:28:32Z</time>
      </trkpt>
      <trkpt lat="39.852323745118" lon="3.117077903438">
        <ele>20</ele>
        <time>2015-06-21T13:28:33Z</time>
      </trkpt>
      <trkpt lat="39.852350734836" lon="3.117125093535">
        <ele>20.2</ele>
        <time>2015-06-21T13:28:34Z</time>
      </trkpt>
      <trkpt lat="39.852465734504" lon="3.117316368493">
        <ele>20.4</ele>
        <time>2015-06-21T13:28:38Z</time>
      </trkpt>
      <trkpt lat="39.852633875418" lon="3.117608896803">
        <ele>20.8</ele>
        <time>2015-06-21T13:28:44Z</time>
      </trkpt>
      <trkpt lat="39.852662792973" lon="3.117659942574">
        <ele>21</ele>
        <time>2015-06-21T13:28:45Z</time>
      </trkpt>
      <trkpt lat="39.85273177601" lon="3.117763291401">
        <ele>21.4</ele>
        <time>2015-06-21T13:28:47Z</time>
      </trkpt>
      <trkpt lat="39.852793466794" lon="3.117862449278">
        <ele>21.8</ele>
        <time>2015-06-21T13:28:49Z</time>
      </trkpt>
      <trkpt lat="39.852820540331" lon="3.117912321583">
        <ele>22</ele>
        <time>2015-06-21T13:28:50Z</time>
      </trkpt>
      <trkpt lat="39.852871586102" lon="3.118010138356">
        <ele>22.2</ele>
        <time>2015-06-21T13:28:52Z</time>
      </trkpt>
      <trkpt lat="39.852955991835" lon="3.118165119687">
        <ele>22</ele>
        <time>2015-06-21T13:28:55Z</time>
      </trkpt>
      <trkpt lat="39.852982227182" lon="3.118210298128">
        <ele>22.2</ele>
        <time>2015-06-21T13:28:56Z</time>
      </trkpt>
      <trkpt lat="39.853051210219" lon="3.118409032977">
        <ele>23</ele>
        <time>2015-06-21T13:29:00Z</time>
      </trkpt>
      <trkpt lat="39.853041738672" lon="3.118463012413">
        <ele>22.8</ele>
        <time>2015-06-21T13:29:01Z</time>
      </trkpt>
      <trkpt lat="39.852956913844" lon="3.118606761998">
        <ele>22.4</ele>
        <time>2015-06-21T13:29:04Z</time>
      </trkpt>
      <trkpt lat="39.852759939194" lon="3.118703572943">
        <ele>23</ele>
        <time>2015-06-21T13:29:08Z</time>
      </trkpt>
      <trkpt lat="39.852541842156" lon="3.118798791327">
        <ele>22.8</ele>
        <time>2015-06-21T13:29:12Z</time>
      </trkpt>
      <trkpt lat="39.852492808041" lon="3.118839108266">
        <ele>22.6</ele>
        <time>2015-06-21T13:29:13Z</time>
      </trkpt>
      <trkpt lat="39.852344029316" lon="3.11905837877">
        <ele>21.6</ele>
        <time>2015-06-21T13:29:17Z</time>
      </trkpt>
      <trkpt lat="39.852200950283" lon="3.119380662825">
        <ele>21.6</ele>
        <time>2015-06-21T13:29:23Z</time>
      </trkpt>
      <trkpt lat="39.852153592548" lon="3.119459368866">
        <ele>22.8</ele>
        <time>2015-06-21T13:29:27Z</time>
      </trkpt>
      <trkpt lat="39.852103804062" lon="3.119551737404">
        <ele>23.2</ele>
        <time>2015-06-21T13:29:30Z</time>
      </trkpt>
      <trkpt lat="39.852055524318" lon="3.119625581943">
        <ele>23.4</ele>
        <time>2015-06-21T13:29:32Z</time>
      </trkpt>
      <trkpt lat="39.851928370895" lon="3.119737983222">
        <ele>23.4</ele>
        <time>2015-06-21T13:29:37Z</time>
      </trkpt>
      <trkpt lat="39.851829967389" lon="3.119810151381">
        <ele>24.2</ele>
        <time>2015-06-21T13:29:42Z</time>
      </trkpt>
      <trkpt lat="39.851784956586" lon="3.119838817479">
        <ele>24.6</ele>
        <time>2015-06-21T13:29:44Z</time>
      </trkpt>
      <trkpt lat="39.851639362983" lon="3.119936047519">
        <ele>24.8</ele>
        <time>2015-06-21T13:29:48Z</time>
      </trkpt>
      <trkpt lat="39.851498211787" lon="3.120025482392">
        <ele>25.4</ele>
        <time>2015-06-21T13:29:51Z</time>
      </trkpt>
      <trkpt lat="39.85135295346" lon="3.120125897554">
        <ele>26.4</ele>
        <time>2015-06-21T13:29:54Z</time>
      </trkpt>
      <trkpt lat="39.851150782032" lon="3.120320189996">
        <ele>26.8</ele>
        <time>2015-06-21T13:29:59Z</time>
      </trkpt>
      <trkpt lat="39.851124211409" lon="3.120370313758">
        <ele>27</ele>
        <time>2015-06-21T13:30:00Z</time>
      </trkpt>
      <trkpt lat="39.851071573077" lon="3.120595200135">
        <ele>26.2</ele>
        <time>2015-06-21T13:30:04Z</time>
      </trkpt>
      <trkpt lat="39.851098898071" lon="3.120829390421">
        <ele>26</ele>
        <time>2015-06-21T13:30:07Z</time>
      </trkpt>
      <trkpt lat="39.851112728206" lon="3.120904743702">
        <ele>25.8</ele>
        <time>2015-06-21T13:30:08Z</time>
      </trkpt>
      <trkpt lat="39.851187159478" lon="3.121271954741">
        <ele>25.4</ele>
        <time>2015-06-21T13:30:13Z</time>
      </trkpt>
      <trkpt lat="39.851213730101" lon="3.121400365449">
        <ele>24.6</ele>
        <time>2015-06-21T13:30:15Z</time>
      </trkpt>
      <trkpt lat="39.851281455853" lon="3.121705801885">
        <ele>24.2</ele>
        <time>2015-06-21T13:30:20Z</time>
      </trkpt>
      <trkpt lat="39.851325712285" lon="3.121886096554">
        <ele>23.6</ele>
        <time>2015-06-21T13:30:23Z</time>
      </trkpt>
      <trkpt lat="39.851429061112" lon="3.122340395534">
        <ele>23.2</ele>
        <time>2015-06-21T13:30:30Z</time>
      </trkpt>
      <trkpt lat="39.851443561799" lon="3.122402673051">
        <ele>22.8</ele>
        <time>2015-06-21T13:30:31Z</time>
      </trkpt>
      <trkpt lat="39.851484633109" lon="3.122619764261">
        <ele>21.8</ele>
        <time>2015-06-21T13:30:35Z</time>
      </trkpt>
      <trkpt lat="39.851497625054" lon="3.122715485559">
        <ele>23</ele>
        <time>2015-06-21T13:30:39Z</time>
      </trkpt>
      <trkpt lat="39.851544563694" lon="3.122928637276">
        <ele>23.4</ele>
        <time>2015-06-21T13:30:44Z</time>
      </trkpt>
      <trkpt lat="39.851639698259" lon="3.123390731423">
        <ele>22.2</ele>
        <time>2015-06-21T13:30:52Z</time>
      </trkpt>
      <trkpt lat="39.851716560282" lon="3.123754422064">
        <ele>22</ele>
        <time>2015-06-21T13:30:59Z</time>
      </trkpt>
      <trkpt lat="39.85173432991" lon="3.123840085082">
        <ele>21.8</ele>
        <time>2015-06-21T13:31:02Z</time>
      </trkpt>
      <trkpt lat="39.851741203068" lon="3.123893813061">
        <ele>21.6</ele>
        <time>2015-06-21T13:31:04Z</time>
      </trkpt>
      <trkpt lat="39.851802055662" lon="3.124112832108">
        <ele>21.6</ele>
        <time>2015-06-21T13:31:09Z</time>
      </trkpt>
      <trkpt lat="39.851838936022" lon="3.124262868118">
        <ele>21.6</ele>
        <time>2015-06-21T13:31:13Z</time>
      </trkpt>
      <trkpt lat="39.851852598519" lon="3.124360684891">
        <ele>21.8</ele>
        <time>2015-06-21T13:31:19Z</time>
      </trkpt>
      <trkpt lat="39.851859806953" lon="3.124352973543">
        <ele>21.8</ele>
        <time>2015-06-21T13:31:26Z</time>
      </trkpt>
      <trkpt lat="39.85184748556" lon="3.124339143408">
        <ele>21.4</ele>
        <time>2015-06-21T13:31:34Z</time>
      </trkpt>
      <trkpt lat="39.851855280727" lon="3.124329252766">
        <ele>21.8</ele>
        <time>2015-06-21T13:31:40Z</time>
      </trkpt>
      <trkpt lat="39.851858884944" lon="3.124321541418">
        <ele>21.6</ele>
        <time>2015-06-21T13:31:49Z</time>
      </trkpt>
      <trkpt lat="39.851863830265" lon="3.124330929146">
        <ele>21.8</ele>
        <time>2015-06-21T13:31:55Z</time>
      </trkpt>
      <trkpt lat="39.851866261016" lon="3.124350207516">
        <ele>21.8</ele>
        <time>2015-06-21T13:31:56Z</time>
      </trkpt>
      <trkpt lat="39.851908589611" lon="3.124511978186">
        <ele>22.2</ele>
        <time>2015-06-21T13:32:01Z</time>
      </trkpt>
      <trkpt lat="39.851989558765" lon="3.124873657171">
        <ele>22.2</ele>
        <time>2015-06-21T13:32:08Z</time>
      </trkpt>
      <trkpt lat="39.851998192122" lon="3.125091418933">
        <ele>22.4</ele>
        <time>2015-06-21T13:32:13Z</time>
      </trkpt>
      <trkpt lat="39.851915127493" lon="3.125204155488">
        <ele>22.4</ele>
        <time>2015-06-21T13:32:16Z</time>
      </trkpt>
      <trkpt lat="39.851686636899" lon="3.125426024381">
        <ele>22.4</ele>
        <time>2015-06-21T13:32:21Z</time>
      </trkpt>
      <trkpt lat="39.851489662249" lon="3.125622999031">
        <ele>22.8</ele>
        <time>2015-06-21T13:32:25Z</time>
      </trkpt>
      <trkpt lat="39.851237702335" lon="3.12587537804">
        <ele>22.8</ele>
        <time>2015-06-21T13:32:30Z</time>
      </trkpt>
      <trkpt lat="39.851028238654" lon="3.126083500617">
        <ele>21.8</ele>
        <time>2015-06-21T13:32:34Z</time>
      </trkpt>
      <trkpt lat="39.850973337209" lon="3.126146700143">
        <ele>21.8</ele>
        <time>2015-06-21T13:32:35Z</time>
      </trkpt>
      <trkpt lat="39.850867222355" lon="3.126254407558">
        <ele>21.6</ele>
        <time>2015-06-21T13:32:37Z</time>
      </trkpt>
      <trkpt lat="39.850730597385" lon="3.126386841578">
        <ele>21</ele>
        <time>2015-06-21T13:32:41Z</time>
      </trkpt>
      <trkpt lat="39.850707211884" lon="3.126411149088">
        <ele>20.8</ele>
        <time>2015-06-21T13:32:42Z</time>
      </trkpt>
      <trkpt lat="39.850564468127" lon="3.126563448211">
        <ele>20</ele>
        <time>2015-06-21T13:32:47Z</time>
      </trkpt>
      <trkpt lat="39.850331032212" lon="3.126796716488">
        <ele>19.8</ele>
        <time>2015-06-21T13:32:53Z</time>
      </trkpt>
      <trkpt lat="39.850290212359" lon="3.126836530513">
        <ele>19.8</ele>
        <time>2015-06-21T13:32:54Z</time>
      </trkpt>
      <trkpt lat="39.850007490872" lon="3.12711673743">
        <ele>18.8</ele>
        <time>2015-06-21T13:33:00Z</time>
      </trkpt>
      <trkpt lat="39.849907578624" lon="3.127218745153">
        <ele>18.6</ele>
        <time>2015-06-21T13:33:02Z</time>
      </trkpt>
      <trkpt lat="39.849585294569" lon="3.127562319234">
        <ele>18.8</ele>
        <time>2015-06-21T13:33:08Z</time>
      </trkpt>
      <trkpt lat="39.849185729396" lon="3.127978229112">
        <ele>18</ele>
        <time>2015-06-21T13:33:15Z</time>
      </trkpt>
      <trkpt lat="39.849073411936" lon="3.128094150789">
        <ele>17.6</ele>
        <time>2015-06-21T13:33:17Z</time>
      </trkpt>
      <trkpt lat="39.848907282678" lon="3.128253825984">
        <ele>16.4</ele>
        <time>2015-06-21T13:33:20Z</time>
      </trkpt>
      <trkpt lat="39.848799323806" lon="3.128353822051">
        <ele>15.2</ele>
        <time>2015-06-21T13:33:22Z</time>
      </trkpt>
      <trkpt lat="39.848741572515" lon="3.128409561686">
        <ele>14.8</ele>
        <time>2015-06-21T13:33:23Z</time>
      </trkpt>
      <trkpt lat="39.848331781424" lon="3.128807199022">
        <ele>14.2</ele>
        <time>2015-06-21T13:33:30Z</time>
      </trkpt>
      <trkpt lat="39.848276041789" lon="3.128860843182">
        <ele>14.2</ele>
        <time>2015-06-21T13:33:31Z</time>
      </trkpt>
      <trkpt lat="39.847891647855" lon="3.129240627071">
        <ele>13.8</ele>
        <time>2015-06-21T13:33:37Z</time>
      </trkpt>
      <trkpt lat="39.847698780336" lon="3.129433410771">
        <ele>13.2</ele>
        <time>2015-06-21T13:33:40Z</time>
      </trkpt>
      <trkpt lat="39.847328970908" lon="3.129800957086">
        <ele>13.2</ele>
        <time>2015-06-21T13:33:46Z</time>
      </trkpt>
      <trkpt lat="39.846852040798" lon="3.13027587554">
        <ele>13</ele>
        <time>2015-06-21T13:33:54Z</time>
      </trkpt>
      <trkpt lat="39.846793954231" lon="3.130335219392">
        <ele>13.2</ele>
        <time>2015-06-21T13:33:55Z</time>
      </trkpt>
      <trkpt lat="39.846441076241" lon="3.130704358268">
        <ele>12.2</ele>
        <time>2015-06-21T13:34:02Z</time>
      </trkpt>
      <trkpt lat="39.846346696047" lon="3.130793541684">
        <ele>13.4</ele>
        <time>2015-06-21T13:34:06Z</time>
      </trkpt>
      <trkpt lat="39.846276707182" lon="3.130852466441">
        <ele>14.2</ele>
        <time>2015-06-21T13:34:10Z</time>
      </trkpt>
      <trkpt lat="39.846244939781" lon="3.130863782006">
        <ele>14.2</ele>
        <time>2015-06-21T13:34:11Z</time>
      </trkpt>
      <trkpt lat="39.846073697564" lon="3.130872750639">
        <ele>14.4</ele>
        <time>2015-06-21T13:34:15Z</time>
      </trkpt>
      <trkpt lat="39.845990632935" lon="3.131047764711">
        <ele>14.2</ele>
        <time>2015-06-21T13:34:18Z</time>
      </trkpt>
      <trkpt lat="39.846078391428" lon="3.131271477622">
        <ele>13.2</ele>
        <time>2015-06-21T13:34:21Z</time>
      </trkpt>
      <trkpt lat="39.846121642032" lon="3.131337694632">
        <ele>13.2</ele>
        <time>2015-06-21T13:34:22Z</time>
      </trkpt>
      <trkpt lat="39.846177549305" lon="3.131565933769">
        <ele>14.2</ele>
        <time>2015-06-21T13:34:25Z</time>
      </trkpt>
      <trkpt lat="39.846183332816" lon="3.131637682833">
        <ele>14.6</ele>
        <time>2015-06-21T13:34:26Z</time>
      </trkpt>
      <trkpt lat="39.846215435493" lon="3.132064237724">
        <ele>14.8</ele>
        <time>2015-06-21T13:34:32Z</time>
      </trkpt>
      <trkpt lat="39.846226918696" lon="3.132553824503">
        <ele>15.6</ele>
        <time>2015-06-21T13:34:40Z</time>
      </trkpt>
      <trkpt lat="39.846227505429" lon="3.132722803607">
        <ele>17</ele>
        <time>2015-06-21T13:34:43Z</time>
      </trkpt>
      <trkpt lat="39.846221889556" lon="3.132876024739">
        <ele>18</ele>
        <time>2015-06-21T13:34:46Z</time>
      </trkpt>
      <trkpt lat="39.846210238715" lon="3.133107616636">
        <ele>18.6</ele>
        <time>2015-06-21T13:34:50Z</time>
      </trkpt>
      <trkpt lat="39.846201940634" lon="3.133344321492">
        <ele>19.2</ele>
        <time>2015-06-21T13:34:54Z</time>
      </trkpt>
      <trkpt lat="39.846181824074" lon="3.133751933289">
        <ele>20.2</ele>
        <time>2015-06-21T13:35:01Z</time>
      </trkpt>
      <trkpt lat="39.846157097469" lon="3.134261971904">
        <ele>21.2</ele>
        <time>2015-06-21T13:35:10Z</time>
      </trkpt>
      <trkpt lat="39.846151481596" lon="3.134375379011">
        <ele>21.4</ele>
        <time>2015-06-21T13:35:12Z</time>
      </trkpt>
      <trkpt lat="39.846126587353" lon="3.134838311348">
        <ele>22.2</ele>
        <time>2015-06-21T13:35:21Z</time>
      </trkpt>
      <trkpt lat="39.846118792186" lon="3.134943085098">
        <ele>22.8</ele>
        <time>2015-06-21T13:35:23Z</time>
      </trkpt>
      <trkpt lat="39.846102615119" lon="3.135310631413">
        <ele>23.4</ele>
        <time>2015-06-21T13:35:30Z</time>
      </trkpt>
      <trkpt lat="39.846095071409" lon="3.13546427164">
        <ele>23.8</ele>
        <time>2015-06-21T13:35:33Z</time>
      </trkpt>
      <trkpt lat="39.846083336749" lon="3.135666107792">
        <ele>24.4</ele>
        <time>2015-06-21T13:35:37Z</time>
      </trkpt>
      <trkpt lat="39.84607151827" lon="3.135923096846">
        <ele>25.4</ele>
        <time>2015-06-21T13:35:42Z</time>
      </trkpt>
      <trkpt lat="39.846064896569" lon="3.136031307175">
        <ele>25.4</ele>
        <time>2015-06-21T13:35:44Z</time>
      </trkpt>
      <trkpt lat="39.845989878564" lon="3.136743601037">
        <ele>26.4</ele>
        <time>2015-06-21T13:35:57Z</time>
      </trkpt>
      <trkpt lat="39.845969007633" lon="3.136854409755">
        <ele>26.6</ele>
        <time>2015-06-21T13:35:59Z</time>
      </trkpt>
      <trkpt lat="39.845926008486" lon="3.137073680259">
        <ele>20.4</ele>
        <time>2015-06-21T13:36:03Z</time>
      </trkpt>
      <trkpt lat="39.845858785648" lon="3.137348355122">
        <ele>27.8</ele>
        <time>2015-06-21T13:36:08Z</time>
      </trkpt>
      <trkpt lat="39.84572618399" lon="3.137782286085">
        <ele>35</ele>
        <time>2015-06-21T13:36:16Z</time>
      </trkpt>
      <trkpt lat="39.845703804317" lon="3.137844479783">
        <ele>35</ele>
        <time>2015-06-21T13:36:17Z</time>
      </trkpt>
      <trkpt lat="39.845620320593" lon="3.138068192694">
        <ele>29</ele>
        <time>2015-06-21T13:36:21Z</time>
      </trkpt>
      <trkpt lat="39.845495849378" lon="3.138351500914">
        <ele>29.6</ele>
        <time>2015-06-21T13:36:26Z</time>
      </trkpt>
      <trkpt lat="39.845218911402" lon="3.138874699112">
        <ele>29.6</ele>
        <time>2015-06-21T13:36:35Z</time>
      </trkpt>
      <trkpt lat="39.84484776087" lon="3.139411475988">
        <ele>28</ele>
        <time>2015-06-21T13:36:44Z</time>
      </trkpt>
      <trkpt lat="39.844798056203" lon="3.139469562555">
        <ele>27.8</ele>
        <time>2015-06-21T13:36:45Z</time>
      </trkpt>
      <trkpt lat="39.844430509888" lon="3.139861332561">
        <ele>28</ele>
        <time>2015-06-21T13:36:52Z</time>
      </trkpt>
      <trkpt lat="39.843978641659" lon="3.140243044287">
        <ele>27</ele>
        <time>2015-06-21T13:37:00Z</time>
      </trkpt>
      <trkpt lat="39.843480924437" lon="3.140572285319">
        <ele>27</ele>
        <time>2015-06-21T13:37:08Z</time>
      </trkpt>
      <trkpt lat="39.843346227304" lon="3.140655769043">
        <ele>26.8</ele>
        <time>2015-06-21T13:37:10Z</time>
      </trkpt>
      <trkpt lat="39.843055794469" lon="3.140827095079">
        <ele>25.8</ele>
        <time>2015-06-21T13:37:14Z</time>
      </trkpt>
      <trkpt lat="39.842772318611" lon="3.140988865749">
        <ele>26</ele>
        <time>2015-06-21T13:37:18Z</time>
      </trkpt>
      <trkpt lat="39.842487166373" lon="3.141156252292">
        <ele>24.6</ele>
        <time>2015-06-21T13:37:22Z</time>
      </trkpt>
      <trkpt lat="39.842038399447" lon="3.141418689581">
        <ele>24.4</ele>
        <time>2015-06-21T13:37:28Z</time>
      </trkpt>
      <trkpt lat="39.841498940363" lon="3.141730412442">
        <ele>24.6</ele>
        <time>2015-06-21T13:37:35Z</time>
      </trkpt>
      <trkpt lat="39.841346138326" lon="3.14181859003">
        <ele>25</ele>
        <time>2015-06-21T13:37:37Z</time>
      </trkpt>
      <trkpt lat="39.841123515062" lon="3.141941384865">
        <ele>25.8</ele>
        <time>2015-06-21T13:37:40Z</time>
      </trkpt>
      <trkpt lat="39.84068698571" lon="3.142193344779">
        <ele>26</ele>
        <time>2015-06-21T13:37:46Z</time>
      </trkpt>
      <trkpt lat="39.840131349559" lon="3.142492997704">
        <ele>26.2</ele>
        <time>2015-06-21T13:37:54Z</time>
      </trkpt>
      <trkpt lat="39.840064964911" lon="3.142526106209">
        <ele>26</ele>
        <time>2015-06-21T13:37:55Z</time>
      </trkpt>
      <trkpt lat="39.839582754204" lon="3.142715034235">
        <ele>26.6</ele>
        <time>2015-06-21T13:38:02Z</time>
      </trkpt>
      <trkpt lat="39.839128203767" lon="3.142838583441">
        <ele>25</ele>
        <time>2015-06-21T13:38:08Z</time>
      </trkpt>
      <trkpt lat="39.838966516916" lon="3.142867500996">
        <ele>24.4</ele>
        <time>2015-06-21T13:38:10Z</time>
      </trkpt>
      <trkpt lat="39.838663008317" lon="3.142893317248">
        <ele>23</ele>
        <time>2015-06-21T13:38:14Z</time>
      </trkpt>
      <trkpt lat="39.838592013624" lon="3.142896670008">
        <ele>22.8</ele>
        <time>2015-06-21T13:38:15Z</time>
      </trkpt>
      <trkpt lat="39.838454299007" lon="3.142899436035">
        <ele>21.8</ele>
        <time>2015-06-21T13:38:17Z</time>
      </trkpt>
      <trkpt lat="39.838272495596" lon="3.142891305592">
        <ele>21</ele>
        <time>2015-06-21T13:38:20Z</time>
      </trkpt>
      <trkpt lat="39.838136122083" lon="3.142883510425">
        <ele>20.6</ele>
        <time>2015-06-21T13:38:23Z</time>
      </trkpt>
      <trkpt lat="39.838058589508" lon="3.142871524308">
        <ele>20.4</ele>
        <time>2015-06-21T13:38:25Z</time>
      </trkpt>
      <trkpt lat="39.83801902694" lon="3.14285962201">
        <ele>20.2</ele>
        <time>2015-06-21T13:38:26Z</time>
      </trkpt>
      <trkpt lat="39.837914085552" lon="3.142736659537">
        <ele>19.8</ele>
        <time>2015-06-21T13:38:29Z</time>
      </trkpt>
      <trkpt lat="39.837804785576" lon="3.142634735633">
        <ele>19.6</ele>
        <time>2015-06-21T13:38:32Z</time>
      </trkpt>
      <trkpt lat="39.837613929713" lon="3.142646135017">
        <ele>19</ele>
        <time>2015-06-21T13:38:36Z</time>
      </trkpt>
      <trkpt lat="39.837530697446" lon="3.142703467213">
        <ele>19</ele>
        <time>2015-06-21T13:38:38Z</time>
      </trkpt>
      <trkpt lat="39.837460876219" lon="3.142745795808">
        <ele>18.8</ele>
        <time>2015-06-21T13:38:40Z</time>
      </trkpt>
      <trkpt lat="39.837381248169" lon="3.142786028928">
        <ele>18.6</ele>
        <time>2015-06-21T13:38:42Z</time>
      </trkpt>
      <trkpt lat="39.837338835755" lon="3.142860124924">
        <ele>18.4</ele>
        <time>2015-06-21T13:38:44Z</time>
      </trkpt>
      <trkpt lat="39.83737445883" lon="3.142912595618">
        <ele>18.2</ele>
        <time>2015-06-21T13:38:46Z</time>
      </trkpt>
      <trkpt lat="39.837433299768" lon="3.142936986947">
        <ele>17.6</ele>
        <time>2015-06-21T13:38:48Z</time>
      </trkpt>
      <trkpt lat="39.837521896451" lon="3.143005047975">
        <ele>17.6</ele>
        <time>2015-06-21T13:38:51Z</time>
      </trkpt>
      <trkpt lat="39.8375529933" lon="3.143041760697">
        <ele>17.8</ele>
        <time>2015-06-21T13:38:52Z</time>
      </trkpt>
      <trkpt lat="39.83762591583" lon="3.14312281367">
        <ele>18.4</ele>
        <time>2015-06-21T13:38:54Z</time>
      </trkpt>
      <trkpt lat="39.837671764823" lon="3.143149551931">
        <ele>18.4</ele>
        <time>2015-06-21T13:38:55Z</time>
      </trkpt>
      <trkpt lat="39.837769162501" lon="3.143170087586">
        <ele>18.8</ele>
        <time>2015-06-21T13:38:57Z</time>
      </trkpt>
      <trkpt lat="39.837855998985" lon="3.143124825326">
        <ele>18.8</ele>
        <time>2015-06-21T13:38:59Z</time>
      </trkpt>
      <trkpt lat="39.837934034474" lon="3.142969508719">
        <ele>19</ele>
        <time>2015-06-21T13:39:02Z</time>
      </trkpt>
      <trkpt lat="39.837925736393" lon="3.142709921276">
        <ele>19.4</ele>
        <time>2015-06-21T13:39:06Z</time>
      </trkpt>
      <trkpt lat="39.837911822439" lon="3.142566758424">
        <ele>19.6</ele>
        <time>2015-06-21T13:39:08Z</time>
      </trkpt>
      <trkpt lat="39.837941494365" lon="3.142441868114">
        <ele>19.6</ele>
        <time>2015-06-21T13:39:10Z</time>
      </trkpt>
      <trkpt lat="39.838019278397" lon="3.142269284793">
        <ele>19.6</ele>
        <time>2015-06-21T13:39:13Z</time>
      </trkpt>
      <trkpt lat="39.838095218411" lon="3.142116398937">
        <ele>19.6</ele>
        <time>2015-06-21T13:39:16Z</time>
      </trkpt>
      <trkpt lat="39.838151377141" lon="3.142009864988">
        <ele>20</ele>
        <time>2015-06-21T13:39:18Z</time>
      </trkpt>
      <trkpt lat="39.838232430114" lon="3.141849183965">
        <ele>21.2</ele>
        <time>2015-06-21T13:39:21Z</time>
      </trkpt>
      <trkpt lat="39.838316500571" lon="3.14167106859">
        <ele>21.2</ele>
        <time>2015-06-21T13:39:24Z</time>
      </trkpt>
      <trkpt lat="39.838445917107" lon="3.141286171742">
        <ele>19.8</ele>
        <time>2015-06-21T13:39:29Z</time>
      </trkpt>
      <trkpt lat="39.838500315638" lon="3.140981824953">
        <ele>17.8</ele>
        <time>2015-06-21T13:39:32Z</time>
      </trkpt>
      <trkpt lat="39.838520348379" lon="3.140765907209">
        <ele>16.8</ele>
        <time>2015-06-21T13:39:34Z</time>
      </trkpt>
      <trkpt lat="39.838526550985" lon="3.140648979704">
        <ele>16.4</ele>
        <time>2015-06-21T13:39:35Z</time>
      </trkpt>
      <trkpt lat="39.83853702836" lon="3.14034086106">
        <ele>14.8</ele>
        <time>2015-06-21T13:39:38Z</time>
      </trkpt>
      <trkpt lat="39.838539207654" lon="3.140247235237">
        <ele>14.6</ele>
        <time>2015-06-21T13:39:39Z</time>
      </trkpt>
      <trkpt lat="39.838554965626" lon="3.139664274092">
        <ele>14.6</ele>
        <time>2015-06-21T13:39:46Z</time>
      </trkpt>
      <trkpt lat="39.83864012573" lon="3.1390299319">
        <ele>14.2</ele>
        <time>2015-06-21T13:39:54Z</time>
      </trkpt>
      <trkpt lat="39.838789658826" lon="3.138688034199">
        <ele>13.8</ele>
        <time>2015-06-21T13:39:59Z</time>
      </trkpt>
      <trkpt lat="39.839041534921" lon="3.138323840644">
        <ele>14.2</ele>
        <time>2015-06-21T13:40:06Z</time>
      </trkpt>
      <trkpt lat="39.839252674982" lon="3.138045645383">
        <ele>15.4</ele>
        <time>2015-06-21T13:40:13Z</time>
      </trkpt>
      <trkpt lat="39.83949172677" lon="3.137796702953">
        <ele>14.6</ele>
        <time>2015-06-21T13:40:21Z</time>
      </trkpt>
      <trkpt lat="39.839649474128" lon="3.137717074903">
        <ele>15</ele>
        <time>2015-06-21T13:40:26Z</time>
      </trkpt>
      <trkpt lat="39.839859775999" lon="3.137578689734">
        <ele>14.6</ele>
        <time>2015-06-21T13:40:32Z</time>
      </trkpt>
      <trkpt lat="39.840173342878" lon="3.137412392838">
        <ele>14</ele>
        <time>2015-06-21T13:40:39Z</time>
      </trkpt>
      <trkpt lat="39.840568130368" lon="3.137202845338">
        <ele>15</ele>
        <time>2015-06-21T13:40:48Z</time>
      </trkpt>
      <trkpt lat="39.840698636551" lon="3.137118523424">
        <ele>14.8</ele>
        <time>2015-06-21T13:40:51Z</time>
      </trkpt>
      <trkpt lat="39.840780527714" lon="3.137059095753">
        <ele>14.6</ele>
        <time>2015-06-21T13:40:53Z</time>
      </trkpt>
      <trkpt lat="39.84081941973" lon="3.137019365547">
        <ele>14.6</ele>
        <time>2015-06-21T13:40:54Z</time>
      </trkpt>
      <trkpt lat="39.840948584809" lon="3.136818870499">
        <ele>14.4</ele>
        <time>2015-06-21T13:40:58Z</time>
      </trkpt>
      <trkpt lat="39.841097112077" lon="3.136601108737">
        <ele>14.4</ele>
        <time>2015-06-21T13:41:02Z</time>
      </trkpt>
      <trkpt lat="39.841129969125" lon="3.136546626387">
        <ele>14.6</ele>
        <time>2015-06-21T13:41:03Z</time>
      </trkpt>
      <trkpt lat="39.841281681515" lon="3.136314866852">
        <ele>13.8</ele>
        <time>2015-06-21T13:41:07Z</time>
      </trkpt>
      <trkpt lat="39.841433393905" lon="3.136097691823">
        <ele>13</ele>
        <time>2015-06-21T13:41:11Z</time>
      </trkpt>
      <trkpt lat="39.84150841191" lon="3.135982356879">
        <ele>12.8</ele>
        <time>2015-06-21T13:41:13Z</time>
      </trkpt>
      <trkpt lat="39.841712678813" lon="3.135682033402">
        <ele>13.6</ele>
        <time>2015-06-21T13:41:19Z</time>
      </trkpt>
      <trkpt lat="39.841742853653" lon="3.135637106418">
        <ele>13.8</ele>
        <time>2015-06-21T13:41:20Z</time>
      </trkpt>
      <trkpt lat="39.841975786654" lon="3.135321946978">
        <ele>15</ele>
        <time>2015-06-21T13:41:27Z</time>
      </trkpt>
      <trkpt lat="39.84207670473" lon="3.135187082207">
        <ele>16.4</ele>
        <time>2015-06-21T13:41:30Z</time>
      </trkpt>
      <trkpt lat="39.842182232851" lon="3.135058084766">
        <ele>17.6</ele>
        <time>2015-06-21T13:41:33Z</time>
      </trkpt>
      <trkpt lat="39.842473084781" lon="3.134758096565">
        <ele>17</ele>
        <time>2015-06-21T13:41:40Z</time>
      </trkpt>
      <trkpt lat="39.842640555143" lon="3.134590626203">
        <ele>17.4</ele>
        <time>2015-06-21T13:41:44Z</time>
      </trkpt>
      <trkpt lat="39.842940710982" lon="3.134296170056">
        <ele>17.6</ele>
        <time>2015-06-21T13:41:51Z</time>
      </trkpt>
      <trkpt lat="39.843281435217" lon="3.133933904338">
        <ele>16.6</ele>
        <time>2015-06-21T13:41:59Z</time>
      </trkpt>
      <trkpt lat="39.843602378168" lon="3.133610530636">
        <ele>16.6</ele>
        <time>2015-06-21T13:42:06Z</time>
      </trkpt>
      <trkpt lat="39.844040751538" lon="3.13317349837">
        <ele>16.4</ele>
        <time>2015-06-21T13:42:15Z</time>
      </trkpt>
      <trkpt lat="39.844083163952" lon="3.133130163947">
        <ele>16.4</ele>
        <time>2015-06-21T13:42:16Z</time>
      </trkpt>
      <trkpt lat="39.844438472693" lon="3.132761695623">
        <ele>15.8</ele>
        <time>2015-06-21T13:42:24Z</time>
      </trkpt>
      <trkpt lat="39.844518771295" lon="3.132681648478">
        <ele>15.4</ele>
        <time>2015-06-21T13:42:26Z</time>
      </trkpt>
      <trkpt lat="39.844775089797" lon="3.132428850374">
        <ele>15.4</ele>
        <time>2015-06-21T13:42:32Z</time>
      </trkpt>
      <trkpt lat="39.8450631757" lon="3.132138836634">
        <ele>14.8</ele>
        <time>2015-06-21T13:42:39Z</time>
      </trkpt>
      <trkpt lat="39.845491323152" lon="3.131703899843">
        <ele>15.4</ele>
        <time>2015-06-21T13:42:49Z</time>
      </trkpt>
      <trkpt lat="39.845805392945" lon="3.131382621616">
        <ele>15.4</ele>
        <time>2015-06-21T13:42:57Z</time>
      </trkpt>
      <trkpt lat="39.845938162241" lon="3.131242140972">
        <ele>14.4</ele>
        <time>2015-06-21T13:43:01Z</time>
      </trkpt>
      <trkpt lat="39.845980323198" lon="3.131204673879">
        <ele>14.6</ele>
        <time>2015-06-21T13:43:03Z</time>
      </trkpt>
      <trkpt lat="39.846037068661" lon="3.131188161536">
        <ele>15</ele>
        <time>2015-06-21T13:43:05Z</time>
      </trkpt>
      <trkpt lat="39.846151481596" lon="3.131187993898">
        <ele>15.4</ele>
        <time>2015-06-21T13:43:08Z</time>
      </trkpt>
      <trkpt lat="39.846194480743" lon="3.131176762152">
        <ele>15.2</ele>
        <time>2015-06-21T13:43:09Z</time>
      </trkpt>
      <trkpt lat="39.846268325282" lon="3.131110461323">
        <ele>14.8</ele>
        <time>2015-06-21T13:43:11Z</time>
      </trkpt>
      <trkpt lat="39.846323478184" lon="3.130939805839">
        <ele>14.2</ele>
        <time>2015-06-21T13:43:14Z</time>
      </trkpt>
      <trkpt lat="39.846352647196" lon="3.130837798116">
        <ele>14.6</ele>
        <time>2015-06-21T13:43:16Z</time>
      </trkpt>
      <trkpt lat="39.846418864206" lon="3.130760181722">
        <ele>14.8</ele>
        <time>2015-06-21T13:43:18Z</time>
      </trkpt>
      <trkpt lat="39.846529002372" lon="3.130686756278">
        <ele>15</ele>
        <time>2015-06-21T13:43:22Z</time>
      </trkpt>
      <trkpt lat="39.846533277141" lon="3.130683906432">
        <ele>15</ele>
        <time>2015-06-21T13:43:25Z</time>
      </trkpt>
      <trkpt lat="39.846527074535" lon="3.130687007735">
        <ele>14.4</ele>
        <time>2015-06-21T13:43:34Z</time>
      </trkpt>
      <trkpt lat="39.846521207205" lon="3.13069077959">
        <ele>14.6</ele>
        <time>2015-06-21T13:43:44Z</time>
      </trkpt>
      <trkpt lat="39.846514753142" lon="3.130682565328">
        <ele>14.8</ele>
        <time>2015-06-21T13:43:55Z</time>
      </trkpt>
      <trkpt lat="39.846507041794" lon="3.130674099609">
        <ele>14.8</ele>
        <time>2015-06-21T13:43:59Z</time>
      </trkpt>
      <trkpt lat="39.846503940491" lon="3.130678458197">
        <ele>14.8</ele>
        <time>2015-06-21T13:44:07Z</time>
      </trkpt>
      <trkpt lat="39.846507796165" lon="3.130670746849">
        <ele>14.8</ele>
        <time>2015-06-21T13:44:18Z</time>
      </trkpt>
      <trkpt lat="39.846503269939" lon="3.130670076297">
        <ele>14.8</ele>
        <time>2015-06-21T13:44:28Z</time>
      </trkpt>
      <trkpt lat="39.846509472545" lon="3.130651719936">
        <ele>15</ele>
        <time>2015-06-21T13:44:33Z</time>
      </trkpt>
      <trkpt lat="39.846516513341" lon="3.130640823466">
        <ele>15</ele>
        <time>2015-06-21T13:44:34Z</time>
      </trkpt>
      <trkpt lat="39.846512490029" lon="3.130625819865">
        <ele>14.8</ele>
        <time>2015-06-21T13:44:37Z</time>
      </trkpt>
      <trkpt lat="39.846497654066" lon="3.130614169024">
        <ele>14.4</ele>
        <time>2015-06-21T13:44:38Z</time>
      </trkpt>
      <trkpt lat="39.846422216966" lon="3.130658425456">
        <ele>14.2</ele>
        <time>2015-06-21T13:44:41Z</time>
      </trkpt>
      <trkpt lat="39.846386761529" lon="3.130688013563">
        <ele>14.2</ele>
        <time>2015-06-21T13:44:42Z</time>
      </trkpt>
      <trkpt lat="39.846318449044" lon="3.130755404039">
        <ele>14.6</ele>
        <time>2015-06-21T13:44:44Z</time>
      </trkpt>
      <trkpt lat="39.846250388016" lon="3.130803851421">
        <ele>14.6</ele>
        <time>2015-06-21T13:44:46Z</time>
      </trkpt>
      <trkpt lat="39.846126754991" lon="3.130754901125">
        <ele>14.8</ele>
        <time>2015-06-21T13:44:49Z</time>
      </trkpt>
      <trkpt lat="39.846038996498" lon="3.130526075255">
        <ele>15.4</ele>
        <time>2015-06-21T13:44:53Z</time>
      </trkpt>
      <trkpt lat="39.845999853025" lon="3.130337482505">
        <ele>15.6</ele>
        <time>2015-06-21T13:44:56Z</time>
      </trkpt>
      <trkpt lat="39.845919219147" lon="3.129934396934">
        <ele>15.4</ele>
        <time>2015-06-21T13:45:02Z</time>
      </trkpt>
      <trkpt lat="39.845832298844" lon="3.129338108568">
        <ele>15.2</ele>
        <time>2015-06-21T13:45:11Z</time>
      </trkpt>
      <trkpt lat="39.845825593324" lon="3.129269376988">
        <ele>14.4</ele>
        <time>2015-06-21T13:45:12Z</time>
      </trkpt>
      <trkpt lat="39.845806314954" lon="3.12874701698">
        <ele>14.8</ele>
        <time>2015-06-21T13:45:20Z</time>
      </trkpt>
      <trkpt lat="39.845833891405" lon="3.128226752447">
        <ele>14.8</ele>
        <time>2015-06-21T13:45:29Z</time>
      </trkpt>
      <trkpt lat="39.845857863639" lon="3.127976636551">
        <ele>15.4</ele>
        <time>2015-06-21T13:45:34Z</time>
      </trkpt>
      <trkpt lat="39.845874040706" lon="3.127833222242">
        <ele>15.6</ele>
        <time>2015-06-21T13:45:37Z</time>
      </trkpt>
      <trkpt lat="39.845912932722" lon="3.127466849393">
        <ele>15.2</ele>
        <time>2015-06-21T13:45:45Z</time>
      </trkpt>
      <trkpt lat="39.845960374276" lon="3.12699184712">
        <ele>15.2</ele>
        <time>2015-06-21T13:45:55Z</time>
      </trkpt>
      <trkpt lat="39.846004379251" lon="3.126547522601">
        <ele>14.8</ele>
        <time>2015-06-21T13:46:05Z</time>
      </trkpt>
      <trkpt lat="39.846047462217" lon="3.126121889719">
        <ele>14.8</ele>
        <time>2015-06-21T13:46:15Z</time>
      </trkpt>
      <trkpt lat="39.846072859374" lon="3.125791391402">
        <ele>15</ele>
        <time>2015-06-21T13:46:23Z</time>
      </trkpt>
      <trkpt lat="39.846082247102" lon="3.12543868105">
        <ele>14.8</ele>
        <time>2015-06-21T13:46:32Z</time>
      </trkpt>
      <trkpt lat="39.846066405311" lon="3.125131987329">
        <ele>14.8</ele>
        <time>2015-06-21T13:46:40Z</time>
      </trkpt>
      <trkpt lat="39.84611678053" lon="3.124913722653">
        <ele>15</ele>
        <time>2015-06-21T13:46:46Z</time>
      </trkpt>
      <trkpt lat="39.84621484876" lon="3.124638712514">
        <ele>15</ele>
        <time>2015-06-21T13:46:53Z</time>
      </trkpt>
      <trkpt lat="39.846179728599" lon="3.124490520522">
        <ele>14.6</ele>
        <time>2015-06-21T13:46:56Z</time>
      </trkpt>
      <trkpt lat="39.84615366089" lon="3.124439977665">
        <ele>14.6</ele>
        <time>2015-06-21T13:46:57Z</time>
      </trkpt>
      <trkpt lat="39.846123653688" lon="3.124400415097">
        <ele>14.4</ele>
        <time>2015-06-21T13:46:58Z</time>
      </trkpt>
      <trkpt lat="39.84599105203" lon="3.124330258594">
        <ele>14.4</ele>
        <time>2015-06-21T13:47:01Z</time>
      </trkpt>
      <trkpt lat="39.845858534191" lon="3.12437417975">
        <ele>14</ele>
        <time>2015-06-21T13:47:04Z</time>
      </trkpt>
      <trkpt lat="39.845781923625" lon="3.124437211638">
        <ele>13.8</ele>
        <time>2015-06-21T13:47:06Z</time>
      </trkpt>
      <trkpt lat="39.845737499555" lon="3.124458920759">
        <ele>13.6</ele>
        <time>2015-06-21T13:47:07Z</time>
      </trkpt>
      <trkpt lat="39.845690309458" lon="3.124466213012">
        <ele>13.6</ele>
        <time>2015-06-21T13:47:08Z</time>
      </trkpt>
      <trkpt lat="39.845534489937" lon="3.12440686916">
        <ele>13.8</ele>
        <time>2015-06-21T13:47:11Z</time>
      </trkpt>
      <trkpt lat="39.845473804981" lon="3.124371497542">
        <ele>14</ele>
        <time>2015-06-21T13:47:12Z</time>
      </trkpt>
      <trkpt lat="39.845108857055" lon="3.124150215382">
        <ele>13.8</ele>
        <time>2015-06-21T13:47:18Z</time>
      </trkpt>
      <trkpt lat="39.844869889086" lon="3.124004873236">
        <ele>15.4</ele>
        <time>2015-06-21T13:47:22Z</time>
      </trkpt>
      <trkpt lat="39.84456948179" lon="3.123825835852">
        <ele>15.8</ele>
        <time>2015-06-21T13:47:27Z</time>
      </trkpt>
      <trkpt lat="39.844135383189" lon="3.123561051631">
        <ele>15.6</ele>
        <time>2015-06-21T13:47:35Z</time>
      </trkpt>
      <trkpt lat="39.843751240712" lon="3.123328034811">
        <ele>15.8</ele>
        <time>2015-06-21T13:47:43Z</time>
      </trkpt>
      <trkpt lat="39.843710253221" lon="3.123297608514">
        <ele>15.6</ele>
        <time>2015-06-21T13:47:44Z</time>
      </trkpt>
      <trkpt lat="39.843612604086" lon="3.123192667126">
        <ele>15.6</ele>
        <time>2015-06-21T13:47:47Z</time>
      </trkpt>
      <trkpt lat="39.843417557273" lon="3.123060149287">
        <ele>15.8</ele>
        <time>2015-06-21T13:47:53Z</time>
      </trkpt>
      <trkpt lat="39.843126286248" lon="3.122898043341">
        <ele>16</ele>
        <time>2015-06-21T13:48:01Z</time>
      </trkpt>
      <trkpt lat="39.842805427116" lon="3.122704169994">
        <ele>15.8</ele>
        <time>2015-06-21T13:48:09Z</time>
      </trkpt>
      <trkpt lat="39.842507702028" lon="3.122524797334">
        <ele>14.4</ele>
        <time>2015-06-21T13:48:17Z</time>
      </trkpt>
      <trkpt lat="39.842436874973" lon="3.122484815671">
        <ele>14.2</ele>
        <time>2015-06-21T13:48:19Z</time>
      </trkpt>
      <trkpt lat="39.842196984995" lon="3.122340060258">
        <ele>14.2</ele>
        <time>2015-06-21T13:48:25Z</time>
      </trkpt>
      <trkpt lat="39.841954831904" lon="3.122195472483">
        <ele>14.4</ele>
        <time>2015-06-21T13:48:31Z</time>
      </trkpt>
      <trkpt lat="39.841916191345" lon="3.122168734222">
        <ele>14.2</ele>
        <time>2015-06-21T13:48:32Z</time>
      </trkpt>
      <trkpt lat="39.841661297766" lon="3.122019787859">
        <ele>14.4</ele>
        <time>2015-06-21T13:48:38Z</time>
      </trkpt>
      <trkpt lat="39.841206412053" lon="3.121750561231">
        <ele>14.8</ele>
        <time>2015-06-21T13:48:48Z</time>
      </trkpt>
      <trkpt lat="39.840869794949" lon="3.121549060355">
        <ele>14.8</ele>
        <time>2015-06-21T13:48:56Z</time>
      </trkpt>
      <trkpt lat="39.840788322881" lon="3.12150673176">
        <ele>14.8</ele>
        <time>2015-06-21T13:48:58Z</time>
      </trkpt>
      <trkpt lat="39.84069872037" lon="3.121461301862">
        <ele>14.6</ele>
        <time>2015-06-21T13:49:00Z</time>
      </trkpt>
      <trkpt lat="39.840623115632" lon="3.121405646046">
        <ele>14.2</ele>
        <time>2015-06-21T13:49:02Z</time>
      </trkpt>
      <trkpt lat="39.840508702697" lon="3.121324257797">
        <ele>14.4</ele>
        <time>2015-06-21T13:49:05Z</time>
      </trkpt>
      <trkpt lat="39.840354727194" lon="3.121234822924">
        <ele>14.2</ele>
        <time>2015-06-21T13:49:09Z</time>
      </trkpt>
      <trkpt lat="39.84007845977" lon="3.12107422572">
        <ele>14.4</ele>
        <time>2015-06-21T13:49:17Z</time>
      </trkpt>
      <trkpt lat="39.839961616084" lon="3.120959728966">
        <ele>14.4</ele>
        <time>2015-06-21T13:49:23Z</time>
      </trkpt>
      <trkpt lat="39.83987897055" lon="3.120876999613">
        <ele>14.2</ele>
        <time>2015-06-21T13:49:29Z</time>
      </trkpt>
      <trkpt lat="39.839866146243" lon="3.120862582745">
        <ele>14.2</ele>
        <time>2015-06-21T13:49:34Z</time>
      </trkpt>
      <trkpt lat="39.839839240344" lon="3.12083701795">
        <ele>14.2</ele>
        <time>2015-06-21T13:49:36Z</time>
      </trkpt>
      <trkpt lat="39.839802192346" lon="3.120834754837">
        <ele>14.2</ele>
        <time>2015-06-21T13:49:38Z</time>
      </trkpt>
      <trkpt lat="39.839725917056" lon="3.120841627995">
        <ele>13.6</ele>
        <time>2015-06-21T13:49:42Z</time>
      </trkpt>
      <trkpt lat="39.839688869058" lon="3.120880268554">
        <ele>14.2</ele>
        <time>2015-06-21T13:49:44Z</time>
      </trkpt>
      <trkpt lat="39.839575713408" lon="3.120936427284">
        <ele>14</ele>
        <time>2015-06-21T13:49:49Z</time>
      </trkpt>
      <trkpt lat="39.839564733119" lon="3.120947491392">
        <ele>14.2</ele>
        <time>2015-06-21T13:49:52Z</time>
      </trkpt>
      <trkpt lat="39.839554758658" lon="3.120970625436">
        <ele>14.2</ele>
        <time>2015-06-21T13:49:53Z</time>
      </trkpt>
      <trkpt lat="39.839491978227" lon="3.121158547634">
        <ele>14</ele>
        <time>2015-06-21T13:49:59Z</time>
      </trkpt>
      <trkpt lat="39.839538749229" lon="3.121264913945">
        <ele>13</ele>
        <time>2015-06-21T13:50:02Z</time>
      </trkpt>
      <trkpt lat="39.839531205519" lon="3.121308499825">
        <ele>12.8</ele>
        <time>2015-06-21T13:50:03Z</time>
      </trkpt>
      <trkpt lat="39.83944897908" lon="3.121433222497">
        <ele>13.4</ele>
        <time>2015-06-21T13:50:06Z</time>
      </trkpt>
      <trkpt lat="39.83924110796" lon="3.121736814915">
        <ele>14</ele>
        <time>2015-06-21T13:50:12Z</time>
      </trkpt>
      <trkpt lat="39.839171035276" lon="3.121838990276">
        <ele>14</ele>
        <time>2015-06-21T13:50:14Z</time>
      </trkpt>
      <trkpt lat="39.839074140512" lon="3.121984919155">
        <ele>14</ele>
        <time>2015-06-21T13:50:17Z</time>
      </trkpt>
      <trkpt lat="39.839046480242" lon="3.122030432872">
        <ele>14.2</ele>
        <time>2015-06-21T13:50:18Z</time>
      </trkpt>
      <trkpt lat="39.838859228596" lon="3.122305945925">
        <ele>14.4</ele>
        <time>2015-06-21T13:50:24Z</time>
      </trkpt>
      <trkpt lat="39.838623697206" lon="3.12265253749">
        <ele>13.6</ele>
        <time>2015-06-21T13:50:32Z</time>
      </trkpt>
      <trkpt lat="39.838329492516" lon="3.12310516009">
        <ele>13.8</ele>
        <time>2015-06-21T13:50:42Z</time>
      </trkpt>
      <trkpt lat="39.838215750133" lon="3.123288220786">
        <ele>13.8</ele>
        <time>2015-06-21T13:50:47Z</time>
      </trkpt>
      <trkpt lat="39.838210469536" lon="3.12332728044">
        <ele>13.6</ele>
        <time>2015-06-21T13:50:48Z</time>
      </trkpt>
      <trkpt lat="39.83822941263" lon="3.12341193763">
        <ele>13.6</ele>
        <time>2015-06-21T13:50:50Z</time>
      </trkpt>
      <trkpt lat="39.838296551649" lon="3.123515370276">
        <ele>13.6</ele>
        <time>2015-06-21T13:50:53Z</time>
      </trkpt>
      <trkpt lat="39.838335192208" lon="3.123586784064">
        <ele>13.4</ele>
        <time>2015-06-21T13:50:55Z</time>
      </trkpt>
      <trkpt lat="39.838355057311" lon="3.123666915028">
        <ele>13.4</ele>
        <time>2015-06-21T13:50:57Z</time>
      </trkpt>
      <trkpt lat="39.838335359846" lon="3.123746794535">
        <ele>13.4</ele>
        <time>2015-06-21T13:50:59Z</time>
      </trkpt>
      <trkpt lat="39.838301245513" lon="3.123892555776">
        <ele>13.4</ele>
        <time>2015-06-21T13:51:05Z</time>
      </trkpt>
      <trkpt lat="39.838301999884" lon="3.123902446418">
        <ele>13.4</ele>
        <time>2015-06-21T13:51:06Z</time>
      </trkpt>
    </trkseg>
  </trk>
</gpx>